# Wetter Temperatur Luftdruck Luftfeuchtigkeit Sichtweite Windgeschwindigkeit Windrichtung Zeit
1 Clouds 9 1011 46 10000 4.6 330 21:18 02.04.2020
2 Clouds 9 1010 43 10000 5.7 330 20:42 02.04.2020
3 Clouds 10 1010 37 10000 5.1 330 20:22 02.04.2020
4 Clouds 11 1010 37 10000 5.1 330 19:55 02.04.2020
5 Clouds 12 1010 32 10000 5.1 260 19:37 02.04.2020
6 Clouds 13 1010 28 10000 5.1 240 19:18 02.04.2020
7 Clouds 13 1009 30 10000 5.7 230 18:41 02.04.2020
8 Clear 14 1010 30 10000 5.1 240 18:21 02.04.2020
9 Clear 14 1010 30 10000 5.1 240 18:21 02.04.2020
10 Clear 14 1010 30 10000 5.1 240 17:57 02.04.2020
11 Clear 14 1010 30 10000 5.1 230 17:39 02.04.2020
12 Clear 14 1010 30 10000 4.6 230 17:20 02.04.2020
13 Clear 13 1010 32 10000 3.6 260 16:57 02.04.2020
14 Clear 13 1010 32 10000 3.6 260 16:39 02.04.2020
15 Clear 13 1011 30 10000 3.6 0 16:21 02.04.2020
16 Clear 13 1011 30 10000 3.6 0 15:56 02.04.2020
17 Clear 13 1011 32 10000 3.6 250 15:38 02.04.2020
18 Clear 13 1011 32 10000 3.6 260 15:18 02.04.2020
19 Clear 13 1012 32 10000 3.6 260 14:55 02.04.2020
20 Clear 13 1012 32 10000 3.6 260 14:37 02.04.2020
21 Clear 12 1012 30 10000 3.6 270 14:18 02.04.2020
22 Clear 12 1013 32 10000 2.6 0 13:40 02.04.2020
23 Clear 11 1013 34 10000 1 0 13:21 02.04.2020
24 Clear 11 1013 34 10000 1 0 12:59 02.04.2020
25 Clouds 10 1014 43 10000 1.5 0 12:41 02.04.2020
26 Clouds 10 1014 43 10000 1 0 12:19 02.04.2020
27 Clouds 9 1014 43 10000 1 0 11:57 02.04.2020
28 Clouds 9 1014 45 10000 0.5 0 11:38 02.04.2020
29 Clear 8 1014 48 10000 1.5 0 11:19 02.04.2020
30 Clear 7 1014 48 10000 1.5 0 10:56 02.04.2020
31 Clear 7 1014 52 10000 1 0 10:37 02.04.2020
32 Clear 6 1014 60 10000 0.5 0 10:19 02.04.2020
33 Clear 6 1014 60 10000 0.5 0 10:19 02.04.2020
34 Clear 5 1015 60 10000 0.5 0 09:58 02.04.2020
35 Clear 4 1015 60 10000 0.5 0 09:39 02.04.2020
36 Clear 3 1015 64 10000 1.5 80 09:19 02.04.2020
37 Clear 1 1015 74 10000 1 180 08:47 02.04.2020
38 Clear 1 1015 74 10000 1 180 08:27 02.04.2020
39 Clear -1 1014 86 10000 0.5 0 07:45 02.04.2020
40 Clear -1 1014 79 10000 0.57 45 07:21 02.04.2020
41 Clear -1 1014 79 10000 0.57 45 06:59 02.04.2020
42 Clear 0 1015 79 10000 0.5 0 06:23 02.04.2020
43 Clear -1 1015 79 10000 0.5 0 05:45 02.04.2020
44 Clear 0 1015 86 10000 0.5 0 04:47 02.04.2020
45 Clear 1 1016 68 10000 1 20 02:18 02.04.2020
46 Clear 1 1016 59 10000 1 70 00:54 02.04.2020
47 Clear 2 1016 59 10000 1 70 00:36 02.04.2020
48 Clear 2 1016 59 10000 1 160 00:18 02.04.2020
49 Clear 2 1016 59 10000 1 0 23:38 01.04.2020
50 Clear 2 1016 55 10000 1 0 23:18 01.04.2020
51 Clear 3 1016 47 10000 1.5 330 22:41 01.04.2020
52 Clear 4 1016 47 10000 1.5 330 22:22 01.04.2020
53 Clear 4 1016 47 10000 1.5 270 21:58 01.04.2020
54 Clear 5 1017 44 10000 1 230 21:39 01.04.2020
55 Clear 5 1017 38 10000 1 0 21:19 01.04.2020
56 Clear 6 1017 38 10000 1 0 20:56 01.04.2020
57 Clear 7 1017 39 10000 2.6 80 20:38 01.04.2020
58 Clear 8 1017 31 10000 2.6 80 20:19 01.04.2020
59 Clear 9 1017 31 10000 2.6 80 19:57 01.04.2020
60 Clear 9 1017 31 10000 3.6 60 19:38 01.04.2020
61 Clear 10 1017 29 10000 2.6 70 19:19 01.04.2020
62 Clear 10 1017 27 10000 2.6 70 18:42 01.04.2020
63 Clear 11 1017 27 10000 2.6 40 18:23 01.04.2020
64 Clear 11 1017 27 10000 2.6 40 17:57 01.04.2020
65 Clear 11 1017 25 10000 2.1 60 17:38 01.04.2020
66 Clear 11 1018 27 10000 1.5 0 17:19 01.04.2020
67 Clear 11 1018 27 10000 1.5 0 16:58 01.04.2020
68 Clear 11 1018 27 10000 2.1 0 16:39 01.04.2020
69 Clear 11 1018 27 10000 2.1 0 16:39 01.04.2020
70 Clear 11 1019 29 10000 1.5 0 16:20 01.04.2020
71 Clear 10 1019 29 10000 1.5 0 15:56 01.04.2020
72 Clear 10 1019 29 10000 1.5 50 15:37 01.04.2020
73 Clouds 10 1019 31 10000 1 0 15:18 01.04.2020
74 Clouds 9 1020 31 10000 1 0 14:40 01.04.2020
75 Clouds 9 1020 34 10000 1 0 14:22 01.04.2020
76 Clouds 9 1020 34 10000 1 0 13:59 01.04.2020
77 Clouds 9 1021 33 10000 2.6 0 13:40 01.04.2020
78 Clouds 8 1022 33 10000 1.5 0 13:20 01.04.2020
79 Clouds 8 1022 33 10000 1.5 0 13:20 01.04.2020
80 Clouds 8 1022 33 10000 1.5 0 12:59 01.04.2020
81 Clouds 8 1022 35 10000 2.1 0 12:41 01.04.2020
82 Clouds 7 1023 33 10000 1.5 0 12:22 01.04.2020
83 Clouds 7 1023 33 10000 1.5 0 11:59 01.04.2020
84 Clouds 7 1023 35 10000 2.6 50 11:39 01.04.2020
85 Clouds 6 1023 41 10000 2.1 50 11:20 01.04.2020
86 Clouds 5 1023 41 10000 2.1 50 10:56 01.04.2020
87 Clouds 4 1023 44 10000 2.6 60 10:37 01.04.2020
88 Clouds 4 1024 44 10000 3.1 60 10:18 01.04.2020
89 Clouds 3 1023 51 10000 3.1 70 09:40 01.04.2020
90 Clear 1 1024 51 10000 3.1 80 09:21 01.04.2020
91 Clear 0 1024 59 10000 2.1 90 08:59 01.04.2020
92 Clear 0 1024 59 10000 2.1 90 08:40 01.04.2020
93 Clear -1 1024 78 10000 2.6 20 08:18 01.04.2020
94 Clear -2 1024 58 10000 1.5 60 07:42 01.04.2020
95 Clear -2 1024 78 10000 3.6 10 07:19 01.04.2020
96 Clear -2 1024 63 10000 3.6 10 06:47 01.04.2020
97 Clear -2 1024 80 10000 3.1 360 06:21 01.04.2020
98 Clear -2 1024 63 10000 3.6 10 05:53 01.04.2020
99 Clear -1 1025 80 10000 3.1 20 04:30 01.04.2020
100 Clear -1 1025 50 10000 3.1 50 03:27 01.04.2020
101 Clear 0 1025 76 10000 3.1 60 02:49 01.04.2020
102 Clear 0 1026 47 10000 3.6 50 01:54 01.04.2020
103 Clear 0 1026 47 10000 3.6 50 01:29 01.04.2020
104 Clear 0 1026 55 10000 2.6 50 00:58 01.04.2020
105 Clear 1 1026 55 10000 3.6 60 00:40 01.04.2020
106 Clear 1 1026 55 10000 3.6 60 00:18 01.04.2020
107 Clear 2 1026 47 10000 3.1 70 23:41 31.03.2020
108 Clear 2 1026 47 10000 3.1 70 23:41 31.03.2020
109 Clear 2 1027 51 10000 3.6 60 23:23 31.03.2020
110 Clear 2 1027 51 10000 3.6 60 23:23 31.03.2020
111 Clear 2 1027 47 10000 4.1 70 22:57 31.03.2020
112 Clear 3 1027 47 10000 4.1 70 22:36 31.03.2020
113 Clear 3 1027 48 10000 4.6 70 22:18 31.03.2020
114 Clear 4 1027 41 10000 5.1 60 21:55 31.03.2020
115 Clear 4 1027 41 10000 5.1 60 21:37 31.03.2020
116 Clouds 4 1027 38 10000 5.1 40 21:19 31.03.2020
117 Clouds 5 1027 38 10000 5.1 40 20:54 31.03.2020
118 Clouds 5 1027 36 10000 5.1 10 20:36 31.03.2020
119 Clouds 5 1027 36 10000 5.1 10 20:36 31.03.2020
120 Clouds 6 1027 36 10000 5.1 10 20:18 31.03.2020
121 Clouds 7 1027 36 10000 5.7 20 19:41 31.03.2020
122 Clouds 7 1026 33 10000 5.7 40 19:22 31.03.2020
123 Clouds 8 1026 33 10000 5.7 20 18:56 31.03.2020
124 Rain 8 1026 33 10000 5.7 20 18:37 31.03.2020
125 Rain 9 1026 31 10000 5.1 20 18:18 31.03.2020
126 Rain 9 1026 31 10000 6.7 40 17:54 31.03.2020
127 Rain 9 1026 31 10000 6.7 40 17:36 31.03.2020
128 Clouds 9 1027 34 10000 5.1 40 17:18 31.03.2020
129 -273 0 0 0 0 0 16:39 31.03.2020
130 Clouds 9 1027 34 10000 5.7 20 16:19 31.03.2020
131 Rain 9 1027 31 10000 4.6 30 15:57 31.03.2020
132 Rain 9 1027 31 10000 4.6 30 15:39 31.03.2020
133 Rain 9 1027 31 10000 6.2 30 15:20 31.03.2020
134 Rain 8 1027 31 10000 6.2 30 14:56 31.03.2020
135 Rain 8 1028 36 10000 5.1 40 14:38 31.03.2020
136 Clouds 8 1028 36 10000 5.1 50 14:20 31.03.2020
137 Rain 8 1028 39 10000 6.2 50 13:42 31.03.2020
138 Rain 7 1028 39 10000 5.1 50 13:19 31.03.2020
139 Rain 7 1028 42 10000 5.7 30 12:56 31.03.2020
140 Rain 7 1028 42 10000 5.7 30 12:38 31.03.2020
141 Rain 6 1028 45 10000 6.7 10 12:19 31.03.2020
142 Rain 6 1029 52 10000 6.7 50 11:39 31.03.2020
143 Rain 6 1028 52 10000 7.2 40 11:20 31.03.2020
144 Rain 5 1028 52 10000 7.2 40 10:58 31.03.2020
145 Rain 5 1029 56 10000 6.7 40 10:40 31.03.2020
146 Rain 5 1028 60 10000 7.2 50 10:21 31.03.2020
147 Rain 5 1028 60 10000 7.2 50 09:57 31.03.2020
148 Rain 4 1028 65 10000 5.7 50 09:39 31.03.2020
149 Rain 3 1028 64 10000 5.7 40 09:21 31.03.2020
150 Clouds 3 1028 64 10000 7.2 40 08:57 31.03.2020
151 Clouds 3 1028 64 10000 7.2 40 08:38 31.03.2020
152 Clouds 3 1027 69 10000 7.2 40 08:19 31.03.2020
153 Rain 3 1027 69 10000 7.2 40 07:56 31.03.2020
154 Rain 3 1027 69 10000 6.7 40 07:37 31.03.2020
155 Rain 3 1027 83 10000 4.1 20 07:18 31.03.2020
156 Clouds 3 1026 69 10000 4.1 20 06:43 31.03.2020
157 Clouds 3 1026 65 10000 5.1 20 05:59 31.03.2020
158 Clouds 3 1026 65 10000 3.1 10 05:39 31.03.2020
159 Clouds 4 1026 60 10000 4.1 30 03:28 31.03.2020
160 Clouds 4 1026 56 10000 1.5 0 01:54 31.03.2020
161 Clouds 4 1026 56 10000 2.1 330 01:34 31.03.2020
162 Clouds 4 1026 52 10000 1.5 20 00:47 31.03.2020
163 Clouds 4 1026 52 10000 1.5 20 00:25 31.03.2020
164 Clouds 4 1026 52 10000 3.6 340 23:42 30.03.2020
165 Clouds 4 1026 52 10000 3.6 340 23:20 30.03.2020
166 Clouds 4 1025 52 10000 4.1 340 22:59 30.03.2020
167 Clouds 4 1025 52 10000 3.6 350 22:39 30.03.2020
168 Clouds 4 1025 48 10000 3.1 340 22:21 30.03.2020
169 Clouds 4 1025 48 10000 3.1 340 21:58 30.03.2020
170 -273 0 0 0 0 0 21:39 30.03.2020
171 Clouds 5 1025 48 10000 4.1 320 21:21 30.03.2020
172 Clouds 5 1025 44 10000 1.5 340 20:59 30.03.2020
173 Clouds 6 1025 41 10000 1 0 20:39 30.03.2020
174 Clouds 6 1025 41 10000 1 0 20:21 30.03.2020
175 Clouds 7 1025 35 10000 1.5 10 19:58 30.03.2020
176 Clouds 7 1025 28 10000 1.5 60 19:39 30.03.2020
177 Clouds 8 1025 28 10000 2.1 20 19:21 30.03.2020
178 Rain 8 1025 29 10000 2.6 50 18:56 30.03.2020
179 Rain 9 1025 29 10000 2.6 50 18:37 30.03.2020
180 Clear 9 1025 29 10000 3.1 80 18:19 30.03.2020
181 Clear 9 1025 26 10000 3.6 40 17:55 30.03.2020
182 Clear 9 1025 26 10000 3.6 40 17:36 30.03.2020
183 Clear 9 1025 26 10000 3.6 30 17:18 30.03.2020
184 Clear 8 1026 26 10000 3.6 40 16:41 30.03.2020
185 Clear 8 1026 28 10000 4.1 30 16:22 30.03.2020
186 Clear 8 1026 28 10000 4.1 30 15:57 30.03.2020
187 Clear 7 1027 28 10000 4.6 20 15:39 30.03.2020
188 Clear 7 1027 28 10000 4.6 20 15:21 30.03.2020
189 Clear 7 1027 28 10000 6.2 40 14:59 30.03.2020
190 Clear 7 1027 24 10000 5.7 50 14:38 30.03.2020
191 Clear 6 1028 28 10000 5.1 10 14:19 30.03.2020
192 Clear 6 1028 28 10000 5.1 10 13:58 30.03.2020
193 Clear 5 1028 27 10000 5.1 30 13:58 30.03.2020
194 Clear 6 1028 27 10000 5.1 30 13:39 30.03.2020
195 Clear 5 1028 27 10000 4.1 10 13:20 30.03.2020
196 Rain 4 1029 32 10000 4.6 20 12:45 30.03.2020
197 Rain 4 1029 35 10000 4.6 30 12:22 30.03.2020
198 Rain 4 1029 35 10000 4.6 30 11:59 30.03.2020
199 Rain 3 1029 37 10000 5.1 60 11:41 30.03.2020
200 Rain 3 1030 34 10000 6.2 50 11:22 30.03.2020
201 Rain 3 1030 34 10000 6.2 50 10:57 30.03.2020
202 Rain 2 1030 37 10000 6.7 60 10:38 30.03.2020
203 Clear 2 1030 37 10000 6.7 60 10:20 30.03.2020
204 Snow 1 1030 40 10000 4.6 40 09:54 30.03.2020
205 Snow 1 1030 43 10000 5.1 20 09:36 30.03.2020
206 Clear 0 1030 47 0 4.6 30 09:18 30.03.2020
207 Snow -1 1030 81 10000 4.6 40 08:39 30.03.2020
208 Snow -1 1030 50 10000 5.1 20 08:20 30.03.2020
209 Clear -2 1030 50 10000 5.7 20 07:45 30.03.2020
210 Snow -2 1030 50 10000 5.7 20 07:25 30.03.2020
211 Snow -2 1029 50 10000 5.7 10 06:47 30.03.2020
212 Snow -2 1029 50 10000 5.7 20 06:29 30.03.2020
213 Snow -1 1029 85 10000 5.1 20 05:46 30.03.2020
214 Snow -1 1029 85 10000 6.7 20 05:18 30.03.2020
215 Snow 0 1029 50 10000 6.7 20 04:21 30.03.2020
216 Snow 0 1029 55 10000 6.7 20 03:19 30.03.2020
217 Snow 1 1030 55 10000 5.7 20 01:59 30.03.2020
218 Rain 2 1029 55 10000 5.7 20 01:26 30.03.2020
219 Rain 2 1029 51 10000 7.2 30 00:33 30.03.2020
220 Rain 3 1029 59 10000 9.3 20 23:59 29.03.2020
221 Clouds 3 1029 59 10000 9.3 20 23:41 29.03.2020
222 Rain 3 1028 60 10000 10.3 30 23:22 29.03.2020
223 Rain 3 1028 60 10000 10.3 30 22:57 29.03.2020
224 Clouds 3 1028 64 10000 10.8 20 22:37 29.03.2020
225 Clouds 3 1028 64 10000 10.8 20 22:19 29.03.2020
226 Clouds 3 1028 64 10000 10.8 20 21:55 29.03.2020
227 Clouds 3 1027 64 10000 10.3 20 21:36 29.03.2020
228 Rain 4 1027 65 10000 10.8 20 21:18 29.03.2020
229 Rain 4 1026 65 10000 9.3 20 20:54 29.03.2020
230 Rain 4 1026 65 10000 9.3 20 20:36 29.03.2020
231 Rain 5 1026 68 10000 9.3 20 20:18 29.03.2020
232 Rain 5 1025 68 10000 8.2 10 19:42 29.03.2020
233 Rain 5 1025 60 10000 9.8 10 19:24 29.03.2020
234 Clouds 6 1024 52 10000 10.3 10 18:58 29.03.2020
235 Clouds 6 1024 52 10000 10.3 10 18:40 29.03.2020
236 Clouds 7 1023 42 10000 8.2 20 18:20 29.03.2020
237 Clouds 7 1023 42 10000 8.2 20 18:20 29.03.2020
238 Clouds 7 1023 45 10000 9.3 10 17:58 29.03.2020
239 Rain 8 1023 45 10000 9.3 10 17:40 29.03.2020
240 Rain 8 1023 42 10000 8.2 30 17:22 29.03.2020
241 Rain 8 1023 42 10000 8.2 30 16:58 29.03.2020
242 Rain 8 1023 45 10000 8.2 30 16:39 29.03.2020
243 Rain 8 1023 45 10000 7.2 20 16:20 29.03.2020
244 Rain 8 1023 49 10000 8.7 30 15:58 29.03.2020
245 Rain 8 1023 49 10000 8.7 30 15:39 29.03.2020
246 Rain 7 1023 52 10000 7.7 20 15:19 29.03.2020
247 Rain 7 1023 52 10000 7.7 30 14:55 29.03.2020
248 Clouds 7 1023 52 10000 7.7 30 14:36 29.03.2020
249 Clouds 7 1023 52 10000 7.7 30 14:36 29.03.2020
250 Rain 7 1022 52 10000 7.7 20 14:18 29.03.2020
251 Rain 7 1022 48 10000 5.7 20 13:42 29.03.2020
252 Rain 7 1022 52 10000 6.2 10 13:22 29.03.2020
253 Rain 7 1022 56 10000 6.7 20 12:58 29.03.2020
254 Rain 6 1022 56 10000 6.7 20 12:39 29.03.2020
255 Rain 6 1022 60 10000 6.7 20 12:19 29.03.2020
256 Rain 6 1022 60 10000 6.7 20 11:59 29.03.2020
257 Rain 6 1022 60 10000 4.6 360 11:38 29.03.2020
258 Rain 6 1022 65 10000 6.7 20 11:19 29.03.2020
259 Rain 5 1022 65 10000 7.2 20 10:39 29.03.2020
260 Rain 5 1022 65 10000 7.2 20 10:39 29.03.2020
261 Rain 6 1022 60 10000 4.6 360 10:21 29.03.2020
262 Rain 5 1022 60 10000 4.6 360 09:57 29.03.2020
263 Rain 5 1022 60 10000 5.7 360 09:38 29.03.2020
264 Rain 4 1022 60 10000 3.1 330 09:18 29.03.2020
265 Rain 4 1022 64 10000 2.6 310 08:45 29.03.2020
266 Clouds 3 1022 60 10000 3.1 360 08:27 29.03.2020
267 Rain 3 1022 74 10000 4.1 10 07:56 29.03.2020
268 Rain 3 1022 74 10000 4.1 10 07:37 29.03.2020
269 Rain 3 1022 69 10000 3.1 10 07:19 29.03.2020
270 Rain 4 1021 65 10000 5.1 30 04:58 29.03.2020
271 Clouds 5 1021 71 10000 5.7 30 03:42 29.03.2020
272 Clouds 5 1021 71 10000 5.7 30 03:24 29.03.2020
273 Rain 6 1021 65 10000 4.1 10 01:50 29.03.2020
274 Rain 6 1021 65 10000 4.1 10 01:23 29.03.2020
275 Rain 7 1021 65 10000 6.7 10 00:53 29.03.2020
276 Rain 7 1021 65 10000 6.7 10 00:29 29.03.2020
277 Rain 8 1020 49 10000 5.1 360 23:42 28.03.2020
278 Rain 8 1020 65 10000 6.7 10 23:23 28.03.2020
279 Rain 9 1020 61 10000 6.2 10 22:57 28.03.2020
280 Rain 9 1020 61 10000 6.2 10 22:37 28.03.2020
281 Rain 9 1020 61 10000 5.7 10 22:19 28.03.2020
282 Rain 10 1019 61 10000 6.2 10 21:42 28.03.2020
283 Rain 10 1019 61 10000 6.2 10 21:24 28.03.2020
284 Rain 11 1019 40 10000 6.7 10 20:59 28.03.2020
285 Rain 11 1019 37 10000 6.2 10 20:41 28.03.2020
286 Rain 12 1018 35 10000 4.6 10 20:23 28.03.2020
287 Rain 12 1018 35 10000 4.6 10 19:57 28.03.2020
288 Rain 13 1018 33 10000 5.7 20 19:37 28.03.2020
289 Rain 13 1018 33 10000 5.7 20 19:37 28.03.2020
290 Rain 13 1017 33 10000 6.2 20 19:19 28.03.2020
291 Rain 14 1017 33 10000 7.2 40 18:56 28.03.2020
292 Rain 15 1017 33 10000 7.2 40 18:38 28.03.2020
293 Clear 16 1017 31 10000 6.2 30 18:19 28.03.2020
294 Clear 16 1017 29 10000 6.2 20 17:38 28.03.2020
295 Clear 17 1017 40 10000 6.2 10 17:20 28.03.2020
296 Rain 18 1017 31 10000 6.7 30 16:43 28.03.2020
297 Rain 17 1017 31 10000 6.7 30 16:20 28.03.2020
298 Rain 17 1017 31 10000 6.7 30 15:58 28.03.2020
299 Rain 18 1017 31 10000 6.2 40 15:39 28.03.2020
300 Clear 18 1017 31 10000 5.1 20 15:19 28.03.2020
301 Clear 18 1017 31 10000 5.1 20 14:54 28.03.2020
302 Clear 18 1017 34 10000 5.7 30 14:36 28.03.2020
303 Clear 18 1018 34 10000 4.6 20 14:18 28.03.2020
304 Clear 17 1018 36 10000 5.7 30 13:38 28.03.2020
305 Clear 17 1018 39 10000 4.6 30 13:20 28.03.2020
306 Rain 17 1018 41 10000 5.1 20 12:40 28.03.2020
307 Rain 16 1018 41 10000 5.1 20 12:22 28.03.2020
308 Rain 16 1019 41 10000 4.6 40 11:42 28.03.2020
309 Rain 15 1019 47 10000 4.1 30 11:23 28.03.2020
310 Clear 13 1019 47 10000 6.2 30 10:56 28.03.2020
311 Clear 13 1019 47 10000 6.2 30 10:38 28.03.2020
312 Rain 13 1019 47 10000 5.7 40 10:18 28.03.2020
313 Rain 12 1019 50 10000 5.7 40 09:42 28.03.2020
314 Clear 11 1019 50 10000 5.7 40 09:23 28.03.2020
315 Clear 11 1019 50 10000 5.7 40 09:23 28.03.2020
316 Clear 10 1019 50 10000 5.7 40 08:55 28.03.2020
317 Clear 10 1018 53 10000 5.1 40 08:37 28.03.2020
318 Clouds 8 1018 53 10000 4.1 40 08:18 28.03.2020
319 Rain 8 1018 57 10000 4.6 40 07:41 28.03.2020
320 Rain 7 1018 61 10000 5.1 40 06:58 28.03.2020
321 Clouds 6 1018 61 10000 5.7 40 06:35 28.03.2020
322 Clouds 6 1018 65 10000 4.6 40 05:42 28.03.2020
323 Clouds 7 1017 65 10000 4.6 40 05:21 28.03.2020
324 Clouds 7 1017 61 10000 4.1 30 04:40 28.03.2020
325 Clouds 8 1017 57 10000 3.6 30 03:34 28.03.2020
326 Rain 9 1017 53 10000 6.7 20 01:57 28.03.2020
327 Rain 9 1017 53 10000 6.7 20 01:26 28.03.2020
328 Rain 9 1017 53 10000 6.2 20 00:57 28.03.2020
329 Rain 10 1017 53 10000 6.2 20 00:36 28.03.2020
330 Rain 10 1017 53 10000 6.2 20 23:56 27.03.2020
331 Rain 10 1017 53 10000 6.2 20 23:38 27.03.2020
332 Rain 10 1017 53 10000 6.2 20 23:38 27.03.2020
333 Rain 11 1017 50 10000 6.2 20 23:19 27.03.2020
334 Rain 11 1017 50 10000 5.7 20 22:56 27.03.2020
335 Rain 11 1017 50 10000 5.7 20 22:37 27.03.2020
336 Rain 11 1017 47 10000 5.1 20 22:19 27.03.2020
337 Rain 11 1016 47 10000 5.1 20 21:44 27.03.2020
338 Rain 12 1016 44 10000 4.6 20 21:25 27.03.2020
339 Rain 12 1016 44 10000 4.1 10 20:59 27.03.2020
340 Rain 12 1016 44 10000 4.1 10 20:41 27.03.2020
341 Clear 12 1016 44 10000 4.1 10 20:20 27.03.2020
342 Clear 12 1016 44 10000 4.1 10 20:20 27.03.2020
343 Rain 13 1016 44 10000 3.6 10 19:58 27.03.2020
344 Rain 13 1016 44 10000 3.6 10 19:39 27.03.2020
345 Rain 14 1016 41 10000 3.6 10 19:20 27.03.2020
346 Clear 15 1015 38 10000 5.1 10 18:44 27.03.2020
347 Clear 15 1015 38 10000 5.7 10 18:25 27.03.2020
348 Clear 16 1015 38 10000 5.7 10 17:59 27.03.2020
349 Clear 17 1015 36 10000 6.7 10 17:39 27.03.2020
350 Rain 17 1015 33 10000 6.2 20 17:20 27.03.2020
351 Rain 17 1015 36 10000 5.1 30 16:44 27.03.2020
352 Rain 17 1015 36 10000 5.7 30 16:25 27.03.2020
353 Rain 17 1015 36 10000 5.1 40 15:56 27.03.2020
354 Rain 17 1015 36 10000 5.1 40 15:38 27.03.2020
355 Clear 17 1015 33 10000 4.6 40 15:20 27.03.2020
356 Rain 16 1015 33 10000 5.1 30 14:45 27.03.2020
357 Rain 16 1017 41 0 1.34 36 14:24 27.03.2020
358 Rain 15 1016 42 10000 4.1 40 13:56 27.03.2020
359 Rain 15 1016 38 10000 4.6 20 13:37 27.03.2020
360 Clouds 15 1016 38 10000 4.1 40 13:18 27.03.2020
361 Clouds 14 1016 42 10000 5.1 40 12:49 27.03.2020
362 Clouds 14 1016 42 10000 4.6 60 12:21 27.03.2020
363 Clouds 13 1017 43 10000 4.1 50 11:59 27.03.2020
364 Clouds 13 1017 43 10000 4.1 50 11:59 27.03.2020
365 Clouds 14 1016 42 10000 4.6 60 11:59 27.03.2020
366 Clouds 13 1017 43 10000 4.1 50 11:59 27.03.2020
367 Clouds 13 1017 43 10000 4.1 50 11:59 27.03.2020
368 Clouds 13 1017 43 10000 4.1 50 11:40 27.03.2020
369 Rain 12 1017 52 10000 5.1 40 11:22 27.03.2020
370 Rain 11 1017 52 10000 5.1 50 10:54 27.03.2020
371 Rain 11 1017 52 10000 5.1 50 10:36 27.03.2020
372 Rain 10 1017 46 10000 4.6 50 10:18 27.03.2020
373 Clouds 9 1017 45 10000 3.6 50 09:55 27.03.2020
374 Clouds 9 1017 45 10000 3.6 50 09:36 27.03.2020
375 Clouds 8 1017 49 10000 4.6 40 09:18 27.03.2020
376 Clouds 8 1017 49 10000 4.6 40 08:54 27.03.2020
377 Clear 7 1017 52 10000 4.6 30 08:36 27.03.2020
378 Clear 5 1017 56 10000 4.6 30 08:18 27.03.2020
379 Clear 4 1017 60 10000 5.1 40 07:49 27.03.2020
380 Rain 4 1017 60 10000 5.1 40 07:22 27.03.2020
381 Rain 3 1017 60 10000 5.1 40 06:45 27.03.2020
382 Rain 3 1017 60 10000 5.1 30 06:26 27.03.2020
383 Rain 4 1017 60 10000 5.1 30 03:42 27.03.2020
384 Rain 5 1018 60 10000 5.1 20 02:25 27.03.2020
385 Rain 5 1018 60 10000 5.1 40 01:22 27.03.2020
386 Rain 6 1018 56 10000 5.7 40 00:47 27.03.2020
387 Rain 6 1018 52 10000 4.6 50 00:23 27.03.2020
388 Rain 6 1019 52 10000 6.7 50 23:42 26.03.2020
389 Rain 6 1019 52 10000 6.2 50 23:21 26.03.2020
390 Clouds 7 1019 52 10000 5.7 60 22:58 26.03.2020
391 Clouds 7 1019 52 10000 5.7 60 22:37 26.03.2020
392 Clouds 7 1019 52 10000 6.7 60 22:19 26.03.2020
393 Clouds 7 1019 49 10000 7.2 60 21:55 26.03.2020
394 Clouds 7 1019 49 10000 7.2 60 21:37 26.03.2020
395 Clouds 7 1019 49 10000 4.1 60 21:18 26.03.2020
396 Clouds 8 1019 52 10000 4.1 60 20:41 26.03.2020
397 Clouds 8 1019 49 10000 4.6 60 20:23 26.03.2020
398 Clouds 8 1019 49 10000 4.6 60 19:58 26.03.2020
399 Clouds 9 1019 45 10000 4.1 70 19:40 26.03.2020
400 Clouds 9 1019 43 10000 4.1 70 19:22 26.03.2020
401 Clouds 10 1019 43 10000 4.1 70 18:59 26.03.2020
402 Clouds 10 1019 43 10000 5.1 60 18:41 26.03.2020
403 Clouds 10 1019 43 10000 5.7 60 18:23 26.03.2020
404 Clouds 10 1019 39 10000 6.2 60 17:55 26.03.2020
405 Rain 10 1019 39 10000 6.2 60 17:37 26.03.2020
406 Rain 11 1019 37 10000 6.7 80 17:18 26.03.2020
407 Rain 11 1019 37 10000 6.7 80 16:40 26.03.2020
408 Rain 11 1019 37 10000 7.2 80 16:21 26.03.2020
409 Rain 11 1019 37 10000 7.2 80 15:57 26.03.2020
410 Clear 11 1019 34 10000 6.2 70 15:39 26.03.2020
411 Clear 11 1019 37 10000 6.7 80 15:20 26.03.2020
412 Rain 11 1019 37 10000 6.7 60 14:57 26.03.2020
413 Rain 11 1019 37 10000 6.7 60 14:37 26.03.2020
414 Clear 10 1019 37 10000 6.7 90 14:18 26.03.2020
415 Clear 10 1020 37 10000 7.7 70 13:41 26.03.2020
416 Clear 9 1020 39 10000 7.2 70 13:22 26.03.2020
417 Clear 9 1020 39 10000 7.2 70 12:56 26.03.2020
418 Clear 9 1020 39 10000 8.2 70 12:37 26.03.2020
419 Clear 8 1020 39 10000 7.2 80 12:18 26.03.2020
420 Clouds 8 1020 39 10000 7.2 70 11:44 26.03.2020
421 Clouds 7 1020 42 10000 7.7 90 11:20 26.03.2020
422 Rain 6 1020 42 10000 7.7 90 10:56 26.03.2020
423 Rain 6 1020 41 10000 7.2 70 10:36 26.03.2020
424 Rain 6 1021 41 10000 7.2 60 10:18 26.03.2020
425 Rain 6 1021 41 10000 7.2 60 10:18 26.03.2020
426 Clear 5 1021 44 10000 7.7 70 09:42 26.03.2020
427 Clear 5 1020 44 10000 7.2 60 09:19 26.03.2020
428 Clear 5 1020 44 10000 7.2 60 09:19 26.03.2020
429 Clear 4 1020 44 10000 8.2 60 08:54 26.03.2020
430 Clear 4 1020 44 10000 8.2 60 08:36 26.03.2020
431 Clear 3 1020 47 10000 6.7 50 08:18 26.03.2020
432 Rain 2 1020 47 10000 4.6 20 07:41 26.03.2020
433 Rain 1 1020 50 10000 3.6 30 07:20 26.03.2020
434 Rain 1 1020 50 10000 4.1 30 06:47 26.03.2020
435 Rain 1 1020 55 10000 4.6 40 05:52 26.03.2020
436 Rain 2 1020 40 10000 5.1 30 03:59 26.03.2020
437 Rain 2 1020 40 10000 5.1 40 03:36 26.03.2020
438 Clear 2 1021 40 10000 5.7 50 02:54 26.03.2020
439 Rain 3 1021 40 10000 4.6 10 01:50 26.03.2020
440 Rain 3 1022 38 10000 4.1 360 00:45 26.03.2020
441 Rain 3 1022 47 10000 5.7 40 23:56 25.03.2020
442 Rain 3 1022 47 10000 5.7 40 23:36 25.03.2020
443 Rain 4 1022 41 10000 4.6 40 23:18 25.03.2020
444 Rain 5 1022 35 10000 4.6 50 22:39 25.03.2020
445 Rain 5 1023 32 10000 4.6 50 22:20 25.03.2020
446 Rain 5 1022 30 10000 4.6 60 21:55 25.03.2020
447 Rain 5 1022 30 10000 4.6 60 21:37 25.03.2020
448 Rain 5 1022 30 10000 3.6 60 21:19 25.03.2020
449 Rain 5 1022 30 10000 3.6 60 21:19 25.03.2020
450 Clear 5 1022 30 10000 3.6 60 20:54 25.03.2020
451 Rain 6 1022 24 10000 6.2 80 20:36 25.03.2020
452 Rain 7 1022 22 10000 7.2 90 20:18 25.03.2020
453 Rain 7 1022 20 10000 6.2 90 19:42 25.03.2020
454 Clear 8 1022 18 10000 6.7 90 19:22 25.03.2020
455 Rain 9 1021 16 10000 8.7 80 18:57 25.03.2020
456 Rain 10 1021 15 10000 9.3 80 18:38 25.03.2020
457 Rain 10 1021 15 10000 9.3 80 18:20 25.03.2020
458 Clear 11 1021 17 10000 9.3 80 17:55 25.03.2020
459 Clear 11 1021 17 10000 9.3 80 17:37 25.03.2020
460 Clear 11 1022 15 10000 10.8 80 17:18 25.03.2020
461 Clear 11 1022 17 10000 9.8 80 16:43 25.03.2020
462 Rain 11 1022 18 10000 9.3 90 16:24 25.03.2020
463 Rain 11 1022 18 10000 9.3 90 15:59 25.03.2020
464 Rain 11 1023 20 10000 7.7 90 15:40 25.03.2020
465 Rain 11 1023 20 10000 9.3 80 15:19 25.03.2020
466 Rain 10 1023 19 10000 7.2 70 14:42 25.03.2020
467 Rain 10 1023 19 10000 7.2 70 14:22 25.03.2020
468 Rain 10 1024 21 10000 6.7 50 13:59 25.03.2020
469 Clear 9 1024 24 10000 8.2 40 13:41 25.03.2020
470 Clear 9 1024 24 10000 8.2 40 13:22 25.03.2020
471 Rain 8 1025 26 10000 6.2 30 12:38 25.03.2020
472 Rain 8 1026 28 10000 5.1 60 12:19 25.03.2020
473 Rain 8 1026 28 10000 5.1 60 12:19 25.03.2020
474 Clear 7 1026 28 10000 7.2 70 11:56 25.03.2020
475 Clear 7 1026 28 10000 7.2 70 11:37 25.03.2020
476 Clear 5 1026 33 10000 6.7 80 11:19 25.03.2020
477 Clear 5 1027 32 10000 6.7 80 10:56 25.03.2020
478 Clear 5 1027 32 10000 6.7 80 10:38 25.03.2020
479 Clear 5 1027 35 10000 6.7 70 10:18 25.03.2020
480 Clear 4 1028 38 10000 6.2 40 09:43 25.03.2020
481 Clear 4 1028 38 10000 6.2 40 09:24 25.03.2020
482 Clear 3 1028 40 10000 4.6 50 08:57 25.03.2020
483 Clear 2 1028 40 10000 4.6 50 08:39 25.03.2020
484 Clear 2 1028 43 10000 3.6 40 08:19 25.03.2020
485 Clear 1 1028 43 10000 3.6 30 07:41 25.03.2020
486 Clear 0 1028 54 10000 3.1 40 07:22 25.03.2020
487 Clear 0 1022 45 0 1.79 270 06:50 25.03.2020
488 Clear 0 1028 54 10000 3.06 74 06:28 25.03.2020
489 Clear 0 1028 43 10000 4.1 10 05:57 25.03.2020
490 Clear 0 1028 43 10000 4.1 10 05:37 25.03.2020
491 Clear 0 1028 79 10000 3.6 10 04:40 25.03.2020
492 Clear 0 1029 54 10000 2.1 70 03:52 25.03.2020
493 Clear 1 1029 47 10000 4.1 10 03:29 25.03.2020
494 Clear 2 1029 40 10000 4.1 10 01:31 25.03.2020
495 Clear 2 1030 40 10000 2.1 30 00:49 25.03.2020
496 Clear 1 1030 71 10000 3.6 60 00:26 25.03.2020
497 Clear 1 1030 37 10000 5.1 50 23:50 24.03.2020
498 Clear 2 1030 40 10000 3.6 60 23:28 24.03.2020
499 Rain 3 1030 37 10000 4.1 50 22:58 24.03.2020
500 Rain 3 1030 37 10000 4.1 50 22:38 24.03.2020
501 Rain 3 1029 37 10000 2.6 30 22:20 24.03.2020
502 Rain 3 1029 37 10000 2.6 30 21:58 24.03.2020
503 Clear 4 1029 34 10000 3.1 30 21:39 24.03.2020
504 Clear 4 1029 32 10000 3.1 50 21:18 24.03.2020
505 Clear 4 1029 32 10000 3.1 50 21:18 24.03.2020
506 Clear 4 1029 32 10000 4.1 60 20:58 24.03.2020
507 Clear 4 1029 32 10000 4.1 60 20:39 24.03.2020
508 Clear 4 1029 35 10000 5.1 60 20:21 24.03.2020
509 Clear 5 1029 28 10000 5.1 70 19:47 24.03.2020
510 Clear 6 1029 20 10000 4.6 90 19:22 24.03.2020
511 Clear 7 1029 20 10000 4.6 90 18:58 24.03.2020
512 Clear 8 1029 20 10000 6.2 80 18:38 24.03.2020
513 Clear 9 1029 23 10000 6.2 70 18:20 24.03.2020
514 Clear 9 1029 24 10000 6.2 70 17:58 24.03.2020
515 Clear 9 1029 24 10000 6.2 70 17:40 24.03.2020
516 Clear 9 1029 24 10000 6.2 70 17:40 24.03.2020
517 Clear 9 1029 23 10000 5.7 100 17:22 24.03.2020
518 Clear 9 1029 21 10000 5.1 120 16:57 24.03.2020
519 Clear 9 1029 21 10000 5.1 120 16:38 24.03.2020
520 Clear 9 1030 21 10000 6.2 100 16:20 24.03.2020
521 Clear 9 1030 23 10000 7.7 110 15:43 24.03.2020
522 Clear 9 1030 23 10000 7.7 110 15:25 24.03.2020
523 Clear 9 1031 21 10000 6.7 110 14:57 24.03.2020
524 Clear 9 1031 21 10000 6.7 110 14:37 24.03.2020
525 Clear 9 1031 21 10000 7.7 110 14:18 24.03.2020
526 Clear 8 1032 21 0 6.7 90 13:41 24.03.2020
527 Clear 8 1032 22 10000 6.2 100 13:22 24.03.2020
528 Clear 7 1032 28 10000 7.2 80 12:45 24.03.2020
529 Clear 7 1032 30 10000 8.7 100 12:27 24.03.2020
530 Clear 7 1033 30 10000 6.2 90 11:57 24.03.2020
531 Clear 6 1033 30 10000 6.2 90 11:38 24.03.2020
532 Clear 5 1034 35 10000 6.2 100 11:18 24.03.2020
533 Clear 4 1033 38 10000 5.7 90 10:42 24.03.2020
534 Clear 4 1034 38 10000 5.7 80 10:19 24.03.2020
535 Clear 4 1034 38 10000 5.7 80 10:19 24.03.2020
536 Clear 3 1034 40 10000 6.2 90 09:55 24.03.2020
537 Clear 3 1034 40 10000 6.2 90 09:37 24.03.2020
538 Clear 2 1034 43 10000 4.6 70 09:19 24.03.2020
539 Clear 1 1033 43 10000 5.1 70 08:38 24.03.2020
540 Clear 0 1033 50 10000 4.6 60 08:20 24.03.2020
541 Clear -1 1033 39 10000 4.6 70 07:47 24.03.2020
542 Clear -1 1033 58 10000 5.1 50 07:23 24.03.2020
543 Clear -2 1033 58 10000 3.6 70 06:50 24.03.2020
544 Clear -2 1033 54 10000 4.1 80 06:24 24.03.2020
545 Clear -2 1033 58 10000 4.1 80 04:57 24.03.2020
546 Clear -2 1033 58 10000 2.6 80 03:48 24.03.2020
547 Clear -1 1033 54 10000 3.6 60 02:49 24.03.2020
548 Clear -1 1033 54 10000 4.1 70 01:45 24.03.2020
549 Clear 0 1033 54 10000 4.1 70 00:46 24.03.2020
550 Clear 0 1033 43 10000 4.1 70 00:24 24.03.2020
551 Clear 0 1033 31 10000 3.6 70 23:44 23.03.2020
552 Clear 0 1033 54 10000 4.1 70 23:26 23.03.2020
553 Clear 1 1033 32 10000 2.6 70 22:55 23.03.2020
554 Clear 1 1033 32 10000 2.6 70 22:37 23.03.2020
555 Clear 1 1033 47 10000 2.6 80 22:19 23.03.2020
556 Clear 1 1033 47 10000 2.6 80 21:44 23.03.2020
557 Clear 2 1033 37 10000 2.6 80 21:21 23.03.2020
558 Clear 2 1033 37 10000 2.6 80 20:58 23.03.2020
559 Clear 3 1033 32 10000 2.6 90 20:40 23.03.2020
560 Clear 3 1033 32 10000 2.6 80 20:22 23.03.2020
561 Clear 4 1033 30 10000 3.1 80 19:46 23.03.2020
562 Clear 5 1032 26 10000 3.6 90 19:28 23.03.2020
563 Clear 5 1032 26 10000 5.1 90 18:59 23.03.2020
564 Rain 6 1032 26 10000 5.1 90 18:41 23.03.2020
565 Rain 7 1032 24 10000 5.7 80 18:22 23.03.2020
566 Clear 7 1032 24 10000 6.7 80 17:56 23.03.2020
567 Clear 7 1032 24 10000 6.7 80 17:38 23.03.2020
568 Clear 8 1032 24 10000 5.7 90 17:18 23.03.2020
569 Clear 8 1032 26 10000 6.7 100 16:43 23.03.2020
570 Clear 8 1032 26 10000 6.7 100 16:25 23.03.2020
571 Clear 8 1032 24 10000 6.2 110 15:43 23.03.2020
572 Clear 8 1032 24 10000 7.7 90 15:21 23.03.2020
573 Clear 8 1033 26 10000 7.2 100 14:57 23.03.2020
574 Clear 8 1033 26 10000 7.2 100 14:37 23.03.2020
575 Clear 8 1033 22 10000 8.2 90 14:18 23.03.2020
576 Clear 7 1034 24 10000 8.7 110 13:41 23.03.2020
577 Clear 7 1034 28 10000 7.7 100 13:22 23.03.2020
578 Rain 7 1034 28 10000 7.7 100 12:58 23.03.2020
579 Rain 7 1034 26 10000 8.7 80 12:40 23.03.2020
580 Rain 6 1034 28 10000 7.2 100 12:22 23.03.2020
581 Rain 5 1034 27 10000 8.2 90 11:42 23.03.2020
582 Clear 5 1035 30 10000 7.2 100 11:22 23.03.2020
583 Clear 4 1035 29 10000 7.2 90 10:58 23.03.2020
584 Clear 4 1035 29 10000 7.2 90 10:40 23.03.2020
585 Clear 4 1035 29 10000 7.2 90 10:40 23.03.2020
586 Clear 3 1035 32 10000 7.7 100 10:21 23.03.2020
587 Clear 3 1035 37 10000 7.2 90 09:58 23.03.2020
588 Clear 2 1035 37 10000 7.2 90 09:40 23.03.2020
589 Clear 2 1035 40 10000 8.2 90 09:19 23.03.2020
590 Clear 1 1035 47 10000 6.7 90 08:38 23.03.2020
591 Clear 0 1035 33 10000 5.7 80 08:19 23.03.2020
592 Clear 0 1035 33 10000 5.1 70 07:51 23.03.2020
593 Clear 0 1035 33 10000 5.1 70 07:32 23.03.2020
594 Clear -1 1035 63 10000 4.6 60 06:55 23.03.2020
595 Clear -1 1035 63 10000 4.6 60 06:32 23.03.2020
596 Clear -1 1034 54 10000 4.1 60 05:43 23.03.2020
597 Clear -1 1034 58 10000 4.1 60 03:54 23.03.2020
598 Clear 0 1034 41 10000 4.1 70 02:44 23.03.2020
599 Clear 0 1034 38 10000 4.1 60 01:42 23.03.2020
600 Clear 1 1034 47 10000 5.1 90 00:46 23.03.2020
601 Clear 1 1034 47 10000 4.6 70 00:26 23.03.2020
602 Clear 2 1034 51 10000 5.1 60 23:42 22.03.2020
603 Clear 2 1033 51 10000 5.7 60 23:24 22.03.2020
604 Clear 3 1033 51 10000 5.7 60 22:42 22.03.2020
605 Clear 3 1033 44 10000 6.2 60 22:21 22.03.2020
606 Clear 3 1032 41 10000 7.2 60 21:54 22.03.2020
607 Clear 3 1032 41 10000 7.2 60 21:36 22.03.2020
608 Clear 4 1032 38 10000 7.2 60 21:18 22.03.2020
609 Clear 4 1032 38 10000 7.2 60 20:42 22.03.2020
610 Clear 4 1032 38 10000 7.2 60 20:24 22.03.2020
611 Clear 5 1031 41 10000 6.7 60 19:57 22.03.2020
612 Clear 5 1031 35 10000 5.7 60 19:39 22.03.2020
613 Clear 5 1030 33 10000 8.2 70 19:20 22.03.2020
614 Clear 6 1030 33 10000 8.2 70 18:58 22.03.2020
615 Clear 6 1030 36 10000 8.2 60 18:40 22.03.2020
616 Clear 7 1030 31 10000 8.2 70 18:21 22.03.2020
617 Clear 8 1029 31 10000 7.2 60 17:57 22.03.2020
618 Clear 8 1029 31 10000 7.2 60 17:38 22.03.2020
619 Clear 8 1029 31 10000 8.2 70 17:20 22.03.2020
620 Clear 9 1029 31 10000 8.2 70 16:57 22.03.2020
621 Clear 9 1029 27 10000 7.7 80 16:39 22.03.2020
622 Clear 9 1029 27 10000 8.2 70 16:20 22.03.2020
623 Clear 9 1029 27 10000 8.2 70 16:20 22.03.2020
624 Rain 9 1029 27 10000 7.2 70 15:40 22.03.2020
625 Rain 9 1029 26 10000 7.7 60 15:21 22.03.2020
626 Rain 9 1029 26 10000 8.2 60 14:46 22.03.2020
627 Rain 9 1029 26 10000 8.7 70 14:19 22.03.2020
628 Rain 8 1029 29 10000 8.7 80 13:44 22.03.2020
629 Rain 8 1030 29 10000 8.7 70 13:21 22.03.2020
630 Rain 8 1030 30 10000 7.7 70 12:59 22.03.2020
631 Clear 7 1030 30 10000 7.7 70 12:41 22.03.2020
632 Rain 7 1030 30 10000 8.7 70 12:19 22.03.2020
633 Rain 6 1030 35 10000 9.3 80 11:55 22.03.2020
634 Rain 6 1030 35 10000 9.3 80 11:36 22.03.2020
635 Clear 5 1030 33 10000 10.3 80 11:18 22.03.2020
636 Rain 5 1030 38 10000 8.7 70 10:42 22.03.2020
637 Rain 4 1030 41 10000 8.7 60 10:23 22.03.2020
638 Rain 4 1030 44 10000 8.7 70 09:47 22.03.2020
639 Rain 3 1030 44 10000 8.7 70 09:28 22.03.2020
640 Rain 3 1030 51 10000 7.7 70 08:54 22.03.2020
641 Clear 2 1030 51 10000 7.7 70 08:36 22.03.2020
642 Clear 1 1029 55 10000 7.2 60 08:18 22.03.2020
643 Snow 1 1029 59 10000 7.2 60 07:41 22.03.2020
644 Snow 1 1029 59 10000 7.2 50 07:18 22.03.2020
645 Snow 0 1028 59 10000 7.2 40 05:54 22.03.2020
646 Clear 1 1028 59 10000 5.7 50 04:50 22.03.2020
647 Clear 1 1027 59 10000 6.2 50 02:43 22.03.2020
648 Rain 2 1027 59 10000 6.2 50 01:20 22.03.2020
649 Rain 2 1027 55 10000 7.7 50 00:35 22.03.2020
650 Rain 3 1027 55 10000 9.3 50 23:57 21.03.2020
651 Clouds 3 1027 55 10000 9.3 60 23:38 21.03.2020
652 Rain 3 1027 55 10000 9.8 50 23:18 21.03.2020
653 Rain 3 1027 55 10000 9.8 50 22:38 21.03.2020
654 Rain 3 1027 55 10000 9.8 50 22:38 21.03.2020
655 Clouds 4 1026 55 10000 9.8 50 22:20 21.03.2020
656 Clouds 4 1026 55 10000 9.8 50 21:59 21.03.2020
657 Rain 4 1026 52 10000 9.3 50 21:39 21.03.2020
658 Rain 4 1026 56 10000 10.3 50 21:21 21.03.2020
659 Rain 4 1026 56 10000 9.3 40 20:46 21.03.2020
660 Rain 4 1025 52 10000 9.8 40 20:23 21.03.2020
661 Rain 5 1025 52 10000 9.8 40 19:57 21.03.2020
662 Rain 5 1025 52 10000 9.3 40 19:39 21.03.2020
663 Rain 5 1025 48 10000 9.3 40 19:21 21.03.2020
664 Rain 6 1024 48 10000 10.8 40 18:54 21.03.2020
665 Rain 6 1024 48 10000 10.8 40 18:36 21.03.2020
666 Rain 6 1024 48 10000 9.8 40 18:18 21.03.2020
667 Rain 6 1024 49 10000 9.8 60 17:43 21.03.2020
668 Rain 6 1024 49 10000 9.8 60 17:43 21.03.2020
669 Rain 6 1024 49 10000 9.8 60 17:43 21.03.2020
670 Rain 7 1024 49 10000 9.3 50 17:23 21.03.2020
671 Rain 7 1024 52 10000 9.8 40 16:57 21.03.2020
672 Rain 7 1024 52 10000 9.8 40 16:39 21.03.2020
673 Rain 7 1024 52 10000 10.3 60 16:19 21.03.2020
674 Rain 7 1024 52 10000 9.8 50 15:55 21.03.2020
675 Rain 7 1024 52 10000 9.8 50 15:36 21.03.2020
676 Rain 7 1024 45 10000 11.3 40 15:18 21.03.2020
677 Rain 7 1024 45 10000 10.3 50 14:54 21.03.2020
678 Rain 7 1024 45 10000 10.3 50 14:36 21.03.2020
679 Rain 7 1024 61 10000 8.7 50 14:18 21.03.2020
680 Rain 7 1024 65 10000 9.3 40 13:54 21.03.2020
681 Rain 7 1024 65 10000 9.3 40 13:36 21.03.2020
682 Rain 7 1024 65 10000 10.8 40 13:18 21.03.2020
683 Rain 7 1024 65 10000 9.3 40 12:39 21.03.2020
684 Rain 7 1024 75 10000 9.8 40 12:19 21.03.2020
685 Rain 6 1024 75 10000 7.2 50 11:57 21.03.2020
686 Rain 6 1024 81 10000 8.2 30 11:38 21.03.2020
687 Rain 6 1024 81 10000 7.2 40 11:19 21.03.2020
688 Rain 6 1024 87 10000 8.2 40 10:57 21.03.2020
689 Rain 5 1024 87 10000 8.2 40 10:38 21.03.2020
690 Rain 5 1024 81 10000 7.2 40 10:20 21.03.2020
691 Rain 5 1024 81 10000 7.2 40 09:56 21.03.2020
692 Rain 5 1024 86 10000 8.2 50 09:37 21.03.2020
693 Rain 5 1024 86 10000 6.2 30 09:19 21.03.2020
694 Rain 5 1024 86 10000 6.2 30 09:19 21.03.2020
695 Rain 5 1024 86 10000 7.2 40 08:44 21.03.2020
696 Rain 5 1024 86 10000 7.2 40 08:44 21.03.2020
697 Rain 4 1024 86 10000 7.2 40 08:25 21.03.2020
698 Rain 4 1024 86 10000 6.7 40 07:52 21.03.2020
699 Rain 4 1024 86 10000 6.7 40 07:32 21.03.2020
700 Rain 4 1024 93 10000 6.7 30 06:48 21.03.2020
701 Rain 4 1024 93 10000 6.7 30 06:29 21.03.2020
702 Rain 4 1024 86 10000 6.2 30 05:48 21.03.2020
703 Rain 5 1023 86 10000 6.7 30 05:23 21.03.2020
704 Rain 6 1023 75 0 7.2 40 03:32 21.03.2020
705 Rain 6 1023 65 10000 7.7 40 02:35 21.03.2020
706 Rain 7 1023 65 10000 7.7 40 01:42 21.03.2020
707 Rain 7 1023 66 10000 8.2 30 01:21 21.03.2020
708 Rain 7 1024 66 10000 7.2 30 00:38 21.03.2020
709 Rain 7 1023 61 10000 8.7 40 23:59 20.03.2020
710 Rain 7 1023 65 10000 7.7 20 23:41 20.03.2020
711 Rain 8 1023 65 10000 8.7 40 23:20 20.03.2020
712 Rain 8 1023 70 10000 7.2 30 22:44 20.03.2020
713 Rain 8 1023 70 10000 5.1 30 22:24 20.03.2020
714 Rain 9 1023 70 10000 7.2 30 21:58 20.03.2020
715 Rain 8 1023 70 10000 5.7 40 21:39 20.03.2020
716 Rain 9 1023 76 10000 5.1 30 21:20 20.03.2020
717 Rain 9 1023 81 10000 7.7 20 20:58 20.03.2020
718 Rain 9 1022 76 10000 7.7 20 20:40 20.03.2020
719 Rain 10 1022 76 10000 6.2 20 20:19 20.03.2020
720 Rain 10 1022 71 10000 6.7 20 19:46 20.03.2020
721 Rain 11 1021 76 10000 8.2 20 19:20 20.03.2020
722 Rain 11 1021 76 10000 8.2 20 18:57 20.03.2020
723 Rain 12 1021 71 10000 7.7 20 18:38 20.03.2020
724 Rain 12 1021 71 10000 7.7 20 18:38 20.03.2020
725 Rain 12 1021 62 10000 8.2 20 18:19 20.03.2020
726 Rain 13 1021 66 10000 8.2 10 17:56 20.03.2020
727 Rain 13 1021 66 10000 8.2 10 17:37 20.03.2020
728 Rain 14 1021 62 10000 8.2 20 17:18 20.03.2020
729 Rain 14 1021 62 10000 8.2 10 16:41 20.03.2020
730 Rain 15 1021 58 10000 6.7 10 16:21 20.03.2020
731 Rain 16 1021 58 10000 8.7 40 15:45 20.03.2020
732 Rain 16 1021 62 10000 8.2 30 15:23 20.03.2020
733 Rain 16 1021 62 10000 8.2 30 14:59 20.03.2020
734 Rain 16 1021 62 10000 8.2 30 14:59 20.03.2020
735 Rain 16 1021 62 10000 7.7 30 14:41 20.03.2020
736 Rain 16 1021 59 10000 7.7 20 14:21 20.03.2020
737 Rain 16 1021 59 10000 7.7 20 14:21 20.03.2020
738 Rain 16 1021 48 10000 3.33 34 13:48 20.03.2020
739 Rain 16 1021 55 10000 3.6 60 13:24 20.03.2020
740 Rain 16 1021 55 10000 3.6 60 13:24 20.03.2020
741 Rain 16 1021 55 10000 2.1 350 12:58 20.03.2020
742 Rain 16 1021 55 10000 2.1 350 12:38 20.03.2020
743 Clouds 16 1022 59 10000 5.7 30 12:20 20.03.2020
744 Clouds 15 1022 62 10000 6.2 20 11:39 20.03.2020
745 Clouds 14 1022 58 10000 2.54 38 11:21 20.03.2020
746 Rain 14 1022 62 10000 2.54 38 10:56 20.03.2020
747 Rain 14 1022 62 10000 2.54 38 10:38 20.03.2020
748 Clouds 13 1022 66 10000 4.6 20 10:18 20.03.2020
749 Clouds 13 1022 71 10000 5.1 40 09:46 20.03.2020
750 Clouds 12 1022 71 10000 5.1 40 09:21 20.03.2020
751 Clouds 11 1022 71 10000 5.1 40 08:58 20.03.2020
752 Clouds 11 1022 76 10000 5.7 40 08:39 20.03.2020
753 Clouds 10 1022 76 10000 3.1 50 08:19 20.03.2020
754 Clouds 10 1021 81 10000 3.1 80 07:43 20.03.2020
755 Clouds 9 1021 81 10000 3.1 60 07:25 20.03.2020
756 Clouds 9 1021 76 10000 2.6 80 06:43 20.03.2020
757 Clouds 9 1021 76 10000 4.1 40 06:22 20.03.2020
758 Clouds 9 1021 71 10000 4.1 20 04:48 20.03.2020
759 Clouds 10 1021 66 10000 4.6 30 03:18 20.03.2020
760 Clouds 11 1022 62 10000 4.1 30 01:51 20.03.2020
761 Clouds 12 1022 62 10000 4.1 30 00:46 20.03.2020
762 Clouds 12 1022 62 10000 3.6 30 00:25 20.03.2020
763 Clouds 12 1022 62 10000 3.6 10 23:44 19.03.2020
764 Clouds 12 1022 62 10000 3.6 20 23:25 19.03.2020
765 Clear 12 1023 62 10000 3.6 30 22:56 19.03.2020
766 Clear 12 1023 62 10000 3.6 30 22:37 19.03.2020
767 Clear 12 1023 58 10000 3.6 20 22:18 19.03.2020
768 Clear 12 1022 54 10000 4.1 20 21:41 19.03.2020
769 Clear 12 1022 54 10000 4.1 30 21:20 19.03.2020
770 Clear 12 1022 54 10000 4.6 30 20:56 19.03.2020
771 Clear 12 1022 54 10000 4.6 30 20:56 19.03.2020
772 Clear 13 1022 54 10000 4.6 30 20:38 19.03.2020
773 Clear 13 1023 62 10000 3.6 20 20:19 19.03.2020
774 Clear 13 1023 54 10000 3.1 10 19:55 19.03.2020
775 Clear 13 1023 54 10000 3.1 10 19:37 19.03.2020
776 Clear 14 1022 48 10000 3.1 20 19:18 19.03.2020
777 Clear 15 1022 48 10000 3.1 30 18:42 19.03.2020
778 Clear 16 1022 48 10000 4.1 20 18:22 19.03.2020
779 Clear 16 1022 45 10000 3.6 20 17:58 19.03.2020
780 Clear 17 1022 45 10000 3.6 20 17:40 19.03.2020
781 Clear 17 1022 42 10000 4.1 20 17:19 19.03.2020
782 Clear 18 1023 45 10000 3.6 30 16:43 19.03.2020
783 Clear 18 1023 45 10000 3.1 40 16:23 19.03.2020
784 Clear 18 1023 42 10000 3.6 30 15:45 19.03.2020
785 Clear 18 1023 42 10000 3.6 30 15:27 19.03.2020
786 Clear 17 1023 42 10000 4.1 360 14:58 19.03.2020
787 Clouds 18 1023 45 10000 3.1 330 14:40 19.03.2020
788 Clouds 17 1024 45 10000 1.5 0 14:19 19.03.2020
789 Clouds 17 1024 51 10000 2.1 240 13:40 19.03.2020
790 Clouds 17 1024 48 10000 2.6 0 13:19 19.03.2020
791 Clouds 16 1025 55 10000 1 0 12:56 19.03.2020
792 Clouds 16 1025 55 10000 1 0 12:37 19.03.2020
793 Rain 16 1025 54 10000 1.5 190 12:19 19.03.2020
794 Rain 15 1026 62 10000 0.98 66 11:42 19.03.2020
795 Clouds 15 1026 62 10000 2.1 330 11:23 19.03.2020
796 Clear 14 1026 62 10000 1.5 0 10:56 19.03.2020
797 Clear 13 1026 62 10000 1.5 0 10:36 19.03.2020
798 Clear 12 1026 71 10000 1 0 10:18 19.03.2020
799 Clear 11 1026 81 10000 1 0 09:44 19.03.2020
800 Clear 10 1026 81 10000 1 0 09:26 19.03.2020
801 Clear 9 1026 81 10000 0.5 0 08:57 19.03.2020
802 Clear 9 1025 87 10000 0.5 0 08:38 19.03.2020
803 Clear 8 1025 93 10000 0.5 170 08:18 19.03.2020
804 Clouds 7 1025 86 10000 1.5 0 07:43 19.03.2020
805 Clouds 7 1025 86 10000 1.5 0 07:22 19.03.2020
806 Clouds 7 1025 86 10000 0.5 0 06:29 19.03.2020
807 Clouds 7 1025 86 10000 0.5 0 05:25 19.03.2020
808 Clouds 7 1025 86 10000 1 0 04:51 19.03.2020
809 Clouds 7 1025 86 10000 1 0 04:24 19.03.2020
810 Clear 7 1025 93 10000 0.5 210 02:34 19.03.2020
811 Clouds 8 1026 93 10000 0.5 200 00:57 19.03.2020
812 Clouds 8 1026 93 10000 0.5 0 00:21 19.03.2020
813 Clouds 8 1026 93 10000 0.5 0 23:46 18.03.2020
814 Clouds 8 1026 87 10000 0.5 0 23:27 18.03.2020
815 Clouds 9 1026 87 10000 1 0 22:44 18.03.2020
816 Clouds 9 1026 87 10000 1 0 22:24 18.03.2020
817 Clouds 9 1026 81 10000 1 140 21:59 18.03.2020
818 Clouds 10 1026 87 10000 1 0 21:41 18.03.2020
819 Clouds 10 1026 81 10000 0.5 0 21:21 18.03.2020
820 Clouds 11 1026 81 10000 0.5 0 20:57 18.03.2020
821 Clouds 11 1026 76 10000 0.5 0 20:39 18.03.2020
822 Clouds 12 1026 71 10000 1 220 20:20 18.03.2020
823 Clouds 12 1026 71 10000 1 220 19:56 18.03.2020
824 Clouds 12 1026 66 10000 1.5 200 19:37 18.03.2020
825 Clouds 13 1026 66 10000 1.5 190 19:19 18.03.2020
826 Clouds 14 1026 58 10000 2.1 200 18:41 18.03.2020
827 Clouds 15 1026 55 10000 2.6 240 18:20 18.03.2020
828 Clouds 16 1026 51 10000 2.6 230 17:58 18.03.2020
829 Clouds 16 1026 51 10000 2.6 230 17:39 18.03.2020
830 Clouds 16 1026 51 10000 3.6 240 17:21 18.03.2020
831 Clouds 17 1026 51 10000 3.1 220 16:58 18.03.2020
832 Clouds 17 1026 51 10000 3.1 220 16:39 18.03.2020
833 Clouds 17 1026 48 10000 3.6 230 16:20 18.03.2020
834 Clouds 17 1026 51 10000 2.6 220 15:45 18.03.2020
835 Clouds 17 1027 51 10000 3.6 220 15:20 18.03.2020
836 Rain 16 1027 54 10000 1.5 160 14:45 18.03.2020
837 Clouds 16 1028 55 10000 1.5 0 14:22 18.03.2020
838 Clouds 16 1028 55 10000 1.5 0 13:59 18.03.2020
839 Clouds 16 1028 55 10000 3.1 280 13:37 18.03.2020
840 Clouds 15 1028 62 10000 3.6 290 13:19 18.03.2020
841 Clouds 15 1029 62 10000 2.6 260 12:41 18.03.2020
842 Clouds 15 1029 67 10000 3.1 250 12:20 18.03.2020
843 Clouds 14 1029 67 10000 2.6 0 11:40 18.03.2020
844 Clouds 14 1029 67 10000 2.6 0 11:21 18.03.2020
845 Clouds 13 1029 71 10000 1 0 10:58 18.03.2020
846 Clouds 12 1029 71 10000 1 0 10:39 18.03.2020
847 Clouds 12 1029 71 10000 2.1 190 10:20 18.03.2020
848 Clouds 11 1029 71 10000 2.1 190 09:59 18.03.2020
849 Clouds 10 1029 81 10000 1.5 220 09:39 18.03.2020
850 Clear 10 1029 81 10000 1.5 210 09:21 18.03.2020
851 Clear 9 1029 87 10000 1 0 08:40 18.03.2020
852 Clouds 7 1029 93 10000 1 0 08:21 18.03.2020
853 Clouds 6 1029 93 9000 0.5 0 07:49 18.03.2020
854 Clouds 6 1029 93 9000 0.5 0 07:31 18.03.2020
855 Haze 6 1028 86 8000 3.1 0 06:50 18.03.2020
856 Haze 6 1028 86 8000 3.1 0 06:31 18.03.2020
857 Clear 6 1029 86 10000 0.93 224 05:36 18.03.2020
858 Clouds 7 1010 76 0 1.47 213 04:29 18.03.2020
859 Clouds 6 1029 93 10000 0.5 0 03:20 18.03.2020
860 Clear 7 1029 81 10000 1 0 02:32 18.03.2020
861 Clouds 7 1030 93 10000 0.5 0 01:31 18.03.2020
862 Clouds 8 1030 87 10000 1 220 00:42 18.03.2020
863 Clouds 8 1030 93 10000 0.5 360 00:21 18.03.2020
864 Clouds 8 1030 93 10000 1 0 23:40 17.03.2020
865 Clear 8 1030 93 10000 0.5 0 23:19 17.03.2020
866 Clouds 9 1030 87 10000 0.5 0 22:42 17.03.2020
867 Clouds 9 1030 87 10000 0.5 0 22:24 17.03.2020
868 Clouds 9 1030 87 10000 0.5 0 21:43 17.03.2020
869 Clouds 9 1030 87 10000 0.5 140 21:23 17.03.2020
870 Clouds 10 1030 87 10000 0.5 140 20:57 17.03.2020
871 Clouds 10 1029 81 10000 0.5 0 20:37 17.03.2020
872 Clouds 11 1029 71 10000 1.5 220 20:19 17.03.2020
873 Clouds 11 1029 71 10000 2.1 230 19:41 17.03.2020
874 Clouds 13 1029 66 10000 1 0 19:19 17.03.2020
875 Clouds 13 1029 54 10000 2.1 270 18:57 17.03.2020
876 Clouds 14 1028 51 10000 2.1 270 18:39 17.03.2020
877 Clouds 15 1028 51 10000 2.1 270 18:21 17.03.2020
878 Clouds 15 1028 48 10000 2.1 290 17:56 17.03.2020
879 Clouds 15 1028 48 10000 2.1 290 17:38 17.03.2020
880 Clouds 16 1029 51 10000 2.1 310 17:18 17.03.2020
881 Clouds 16 1029 51 10000 3.1 220 16:42 17.03.2020
882 Clouds 16 1029 51 10000 2.6 270 16:19 17.03.2020
883 Clouds 16 1029 51 10000 2.6 270 16:19 17.03.2020
884 Clouds 16 1029 55 10000 2.1 270 15:45 17.03.2020
885 Clouds 16 1029 58 10000 3.1 260 15:23 17.03.2020
886 Clouds 16 1029 55 10000 3.1 260 14:47 17.03.2020
887 Clouds 16 1029 55 10000 3.1 260 14:27 17.03.2020
888 Clouds 15 1030 58 10000 2.6 240 13:58 17.03.2020
889 Clouds 15 1030 59 10000 2.1 250 13:40 17.03.2020
890 Clouds 15 1030 62 10000 3.6 230 13:21 17.03.2020
891 Clouds 15 1030 62 10000 1.5 0 12:47 17.03.2020
892 Clouds 14 1030 66 10000 2.6 260 12:25 17.03.2020
893 Clouds 14 1030 66 10000 4.6 350 11:56 17.03.2020
894 Clouds 14 1030 66 10000 4.6 350 11:38 17.03.2020
895 Clouds 13 1030 66 10000 4.1 0 11:20 17.03.2020
896 Clouds 13 1030 66 10000 3.6 360 10:54 17.03.2020
897 Clouds 13 1030 66 10000 2.6 320 10:36 17.03.2020
898 Clouds 12 1029 66 10000 4.1 300 10:18 17.03.2020
899 Clouds 12 1029 71 10000 3.6 270 09:45 17.03.2020
900 Clouds 12 1029 76 10000 3.6 280 09:20 17.03.2020
901 Clouds 11 1029 76 10000 3.6 280 08:57 17.03.2020
902 Clouds 10 1029 76 10000 1.5 240 08:39 17.03.2020
903 Clouds 10 1028 81 10000 2.1 220 08:18 17.03.2020
904 Clouds 9 1028 81 10000 1.5 230 07:47 17.03.2020
905 Clouds 9 1027 87 10000 4.1 220 07:20 17.03.2020
906 Clouds 9 1027 81 10000 2.6 220 06:45 17.03.2020
907 Clouds 9 1027 87 10000 1.5 200 06:24 17.03.2020
908 Clouds 9 1026 87 10000 2.1 220 05:18 17.03.2020
909 Clouds 9 1026 87 10000 1 270 03:27 17.03.2020
910 Clouds 10 1025 76 10000 1 190 01:50 17.03.2020
911 Clouds 10 1025 76 10000 1 190 01:30 17.03.2020
912 Clouds 11 1024 71 10000 0.5 0 00:51 17.03.2020
913 Clouds 11 1024 71 10000 1.5 190 23:53 16.03.2020
914 Clouds 11 1024 71 10000 1.5 190 23:34 16.03.2020
915 Clouds 11 1024 71 10000 1.5 200 22:55 16.03.2020
916 Clouds 11 1024 71 10000 1.5 200 22:37 16.03.2020
917 Clouds 12 1023 71 10000 0.5 0 22:19 16.03.2020
918 Clouds 12 1023 66 10000 0.5 0 21:44 16.03.2020
919 Clouds 12 1023 71 10000 0.5 0 21:25 16.03.2020
920 Clouds 12 1023 71 10000 0.5 0 20:58 16.03.2020
921 Clouds 12 1022 66 10000 1 130 20:38 16.03.2020
922 Clouds 12 1022 66 10000 1 130 20:38 16.03.2020
923 Clouds 12 1022 62 10000 0.5 0 20:20 16.03.2020
924 Clouds 13 1022 62 10000 2.1 170 19:46 16.03.2020
925 Clouds 13 1022 58 10000 1.5 190 19:23 16.03.2020
926 Clouds 14 1022 58 10000 1.5 190 18:57 16.03.2020
927 Clouds 14 1021 51 10000 1.5 220 18:39 16.03.2020
928 Clouds 16 1021 51 10000 0.5 240 18:19 16.03.2020
929 Clouds 16 1021 48 10000 1.5 310 17:46 16.03.2020
930 Clouds 16 1021 48 10000 1.5 310 17:46 16.03.2020
931 Haze 17 1021 45 1400 1.82 228 17:25 16.03.2020
932 Clouds 17 1021 48 10000 2.6 250 16:56 16.03.2020
933 Clouds 17 1021 48 10000 2.6 250 16:37 16.03.2020
934 Clouds 17 1021 48 10000 3.1 240 16:19 16.03.2020
935 Clouds 17 1020 48 0 3.1 240 15:42 16.03.2020
936 Clouds 17 1020 48 10000 3.1 230 15:23 16.03.2020
937 Clouds 17 1020 48 10000 3.1 230 15:23 16.03.2020
938 Clouds 16 1020 51 10000 1.5 0 14:45 16.03.2020
939 Clouds 16 1020 51 10000 3.1 300 14:20 16.03.2020
940 Clouds 16 1020 54 10000 3.6 220 13:47 16.03.2020
941 Clouds 15 1020 54 10000 2.6 210 13:27 16.03.2020
942 Clouds 15 1020 54 10000 2.6 210 12:57 16.03.2020
943 Clouds 15 1020 54 10000 2.1 240 12:38 16.03.2020
944 Clouds 14 1020 54 10000 3.6 240 12:20 16.03.2020
945 Clouds 13 1020 58 10000 4.1 210 11:43 16.03.2020
946 Clouds 12 1020 58 10000 2.6 200 11:23 16.03.2020
947 Clear 11 1020 58 10000 3.1 200 10:44 16.03.2020
948 Clear 11 1020 58 10000 3.1 200 10:24 16.03.2020
949 Clear 10 1019 61 10000 1.5 210 09:56 16.03.2020
950 Clear 9 1019 70 10000 1.5 210 09:37 16.03.2020
951 Clear 8 1019 70 10000 1.5 90 09:19 16.03.2020
952 Clear 6 1019 86 10000 1 0 08:41 16.03.2020
953 Clear 5 1018 64 10000 1 130 08:21 16.03.2020
954 Clouds 5 999 75 0 1.73 190 07:42 16.03.2020
955 Clouds 4 1017 86 10000 1.73 190 07:19 16.03.2020
956 Clouds 4 1017 86 10000 0.5 0 06:41 16.03.2020
957 Clouds 5 1017 80 10000 0.5 0 06:22 16.03.2020
958 Clear 5 1015 86 10000 1.5 90 04:26 16.03.2020
959 Clouds 6 1015 80 10000 0.5 0 01:46 16.03.2020
960 Clouds 6 1014 80 10000 1 90 00:45 16.03.2020
961 Clouds 6 1014 80 10000 1 90 00:27 16.03.2020
962 Clouds 6 1014 75 10000 0.5 0 23:40 15.03.2020
963 Clouds 7 1014 75 10000 1 0 23:19 15.03.2020
964 Clouds 7 1014 70 10000 0.5 260 22:42 15.03.2020
965 Clouds 7 1014 70 10000 0.5 0 22:21 15.03.2020
966 Clouds 8 1014 65 10000 1 0 21:39 15.03.2020
967 Clouds 8 1014 61 10000 2.1 150 21:21 15.03.2020
968 Clouds 8 1014 61 10000 2.1 150 20:58 15.03.2020
969 Clouds 8 1014 61 10000 2.1 150 20:58 15.03.2020
970 Clouds 8 1014 61 10000 2.1 150 20:40 15.03.2020
971 Clouds 9 1014 61 10000 2.6 150 20:20 15.03.2020
972 Clouds 9 1014 61 10000 2.6 150 19:56 15.03.2020
973 Clouds 10 1014 53 10000 2.6 140 19:38 15.03.2020
974 Clouds 10 1014 50 10000 2.1 180 19:18 15.03.2020
975 Clouds 11 1014 50 10000 2.1 180 18:55 15.03.2020
976 Clouds 12 1014 43 10000 2.6 180 18:36 15.03.2020
977 Clouds 13 1014 43 10000 3.6 180 18:18 15.03.2020
978 Clouds 13 1014 41 10000 4.1 170 17:40 15.03.2020
979 Clouds 14 1015 37 10000 5.1 170 17:20 15.03.2020
980 Clouds 14 1015 37 10000 5.1 170 16:56 15.03.2020
981 Clouds 14 1015 37 10000 5.1 170 16:38 15.03.2020
982 Clouds 14 1015 37 10000 6.2 180 16:19 15.03.2020
983 Clouds 14 1015 37 10000 7.2 170 15:43 15.03.2020
984 Clouds 14 1015 37 10000 7.2 170 15:25 15.03.2020
985 Clouds 14 1016 37 10000 7.2 180 14:55 15.03.2020
986 Clouds 14 1016 37 10000 7.2 180 14:37 15.03.2020
987 Clouds 13 1016 41 10000 6.2 170 14:18 15.03.2020
988 Clouds 13 1017 41 10000 6.2 170 13:40 15.03.2020
989 Clouds 13 1017 41 10000 6.2 160 13:21 15.03.2020
990 Clouds 13 1018 47 10000 4.1 180 12:59 15.03.2020
991 Clouds 12 1018 47 10000 4.1 180 12:39 15.03.2020
992 Clouds 12 1018 50 10000 4.1 180 12:21 15.03.2020
993 Clouds 11 1018 53 10000 3.6 170 11:43 15.03.2020
994 Clouds 10 1019 57 10000 2.1 0 11:24 15.03.2020
995 Clouds 10 1019 61 10000 1 0 10:57 15.03.2020
996 Clouds 9 1019 61 10000 1 0 10:39 15.03.2020
997 Clouds 9 1020 61 10000 1 0 10:20 15.03.2020
998 Clouds 8 1020 70 10000 1 0 09:42 15.03.2020
999 Clouds 7 1020 75 10000 1.5 90 09:23 15.03.2020
1000 Clouds 6 1020 75 10000 1.5 90 08:58 15.03.2020
1001 Clouds 5 1020 80 10000 1.5 0 08:40 15.03.2020
1002 Clouds 4 1020 86 10000 1 0 08:18 15.03.2020
1003 Clouds 3 1020 93 10000 1 0 07:44 15.03.2020
1004 Clouds 3 1020 93 10000 1.5 70 07:18 15.03.2020
1005 Clouds 3 1020 100 10000 2.1 70 06:36 15.03.2020
1006 Clouds 3 1020 93 10000 1 0 05:46 15.03.2020
1007 Clouds 4 1020 86 10000 1.5 50 04:55 15.03.2020
1008 Clouds 4 1020 86 10000 1.5 50 04:33 15.03.2020
1009 Clouds 4 1020 93 10000 2.1 60 03:59 15.03.2020
1010 Clouds 3 1021 86 10000 1.5 80 02:54 15.03.2020
1011 Clear 3 1021 93 10000 1.5 90 02:21 15.03.2020
1012 Clear 3 1022 66 10000 0.5 0 00:58 15.03.2020
1013 Clear 3 1022 100 10000 1 0 00:40 15.03.2020
1014 Clear 3 1022 93 10000 0.5 280 00:19 15.03.2020
1015 Clear 4 1022 93 10000 1 0 23:39 14.03.2020
1016 Clear 4 1022 86 10000 0.5 0 23:20 14.03.2020
1017 Clear 4 1022 80 10000 2.1 160 22:56 14.03.2020
1018 Clear 4 1022 80 10000 2.1 160 22:37 14.03.2020
1019 Clear 4 1022 80 10000 2.1 160 22:37 14.03.2020
1020 Clear 4 1022 80 10000 3.1 150 22:19 14.03.2020
1021 Clear 5 1022 80 10000 3.1 150 21:55 14.03.2020
1022 Clear 5 1022 80 10000 3.1 150 21:36 14.03.2020
1023 Clear 5 1022 80 10000 3.1 150 21:36 14.03.2020
1024 Clear 5 1022 75 10000 2.6 140 21:18 14.03.2020
1025 Clear 5 1022 70 10000 2.6 150 20:56 14.03.2020
1026 Clear 5 1022 70 10000 2.6 150 20:38 14.03.2020
1027 Clouds 6 1022 70 10000 2.6 150 20:18 14.03.2020
1028 Clouds 6 1022 65 10000 2.6 140 19:41 14.03.2020
1029 Clouds 7 1022 61 10000 2.6 140 19:21 14.03.2020
1030 Clouds 8 1021 61 10000 2.6 140 18:40 14.03.2020
1031 Clouds 9 1021 57 10000 4.1 140 18:21 14.03.2020
1032 Clouds 10 1021 57 10000 3.1 130 17:43 14.03.2020
1033 Rain 10 1021 57 10000 3.6 150 17:24 14.03.2020
1034 Rain 10 1021 57 10000 4.1 140 16:59 14.03.2020
1035 Rain 10 1021 57 10000 4.1 140 16:40 14.03.2020
1036 Rain 10 1021 57 10000 5.1 140 16:21 14.03.2020
1037 Rain 10 1021 54 10000 4.1 140 15:51 14.03.2020
1038 Rain 10 1021 41 10000 2.1 0 15:25 14.03.2020
1039 Rain 10 1021 53 10000 1 0 14:46 14.03.2020
1040 Rain 10 1021 57 10000 0.5 0 14:23 14.03.2020
1041 Clouds 10 1022 57 10000 1.5 220 13:57 14.03.2020
1042 Clouds 10 1022 57 10000 1.5 220 13:39 14.03.2020
1043 Clouds 10 1022 61 10000 2.6 120 13:20 14.03.2020
1044 Clouds 9 1022 61 10000 1.5 0 12:46 14.03.2020
1045 Clouds 9 1022 66 10000 1.5 80 12:27 14.03.2020
1046 Clouds 8 1022 70 10000 1.5 50 11:56 14.03.2020
1047 Clouds 8 1022 75 10000 2.1 90 11:38 14.03.2020
1048 Clouds 7 1022 75 10000 2.1 90 11:19 14.03.2020
1049 Clouds 7 1022 81 10000 1.5 50 10:44 14.03.2020
1050 Clouds 6 1022 86 10000 2.6 80 10:25 14.03.2020
1051 Clouds 6 1022 86 10000 2.6 80 09:57 14.03.2020
1052 Clouds 5 1022 86 10000 2.1 60 09:39 14.03.2020
1053 Clouds 4 1022 86 10000 1.5 20 09:19 14.03.2020
1054 Clouds 3 1022 93 10000 2.1 70 08:42 14.03.2020
1055 Clouds 3 1022 86 10000 2.6 80 08:21 14.03.2020
1056 Clouds 2 1021 86 10000 2.1 100 07:39 14.03.2020
1057 Clouds 2 1021 93 10000 1 0 07:20 14.03.2020
1058 Clouds 2 1021 100 10000 1 280 06:41 14.03.2020
1059 Clouds 2 1021 100 10000 0.5 180 05:47 14.03.2020
1060 Clouds 2 1021 100 10000 0.5 180 05:47 14.03.2020
1061 Clouds 2 1021 93 10000 1.5 180 04:43 14.03.2020
1062 Clouds 2 1021 78 10000 2.6 70 03:24 14.03.2020
1063 Clouds 3 1021 78 10000 1 0 02:28 14.03.2020
1064 Clouds 3 1021 93 10000 1.5 160 01:20 14.03.2020
1065 Clouds 4 1021 86 10000 1.5 300 23:56 13.03.2020
1066 Clouds 4 1021 86 10000 1.5 300 23:31 13.03.2020
1067 Clouds 5 1021 80 10000 3.1 310 22:57 13.03.2020
1068 Clouds 5 1021 75 10000 3.1 230 22:38 13.03.2020
1069 Clouds 5 1021 70 10000 3.6 230 22:19 13.03.2020
1070 Clouds 6 1021 70 10000 4.1 220 21:39 13.03.2020
1071 Clouds 6 1021 70 10000 3.6 230 21:18 13.03.2020
1072 Clouds 6 1021 65 10000 3.6 230 20:41 13.03.2020
1073 Rain 7 1021 75 10000 2.6 240 20:22 13.03.2020
1074 Clouds 7 1020 75 10000 2.6 260 19:55 13.03.2020
1075 Clouds 7 1020 75 10000 2.6 260 19:36 13.03.2020
1076 Clouds 7 1020 65 10000 3.1 230 19:18 13.03.2020
1077 Rain 8 1020 61 10000 3.6 240 18:39 13.03.2020
1078 Clouds 8 1020 70 10000 3.6 290 18:21 13.03.2020
1079 Rain 9 1020 61 10000 5.7 230 17:42 13.03.2020
1080 Rain 9 1020 61 10000 4.6 230 17:21 13.03.2020
1081 Rain 9 1020 61 10000 7.2 240 16:56 13.03.2020
1082 Rain 9 1020 61 10000 7.2 240 16:38 13.03.2020
1083 Rain 9 1020 57 10000 6.7 260 16:20 13.03.2020
1084 Rain 10 1020 61 10000 8.2 240 15:43 13.03.2020
1085 Rain 9 1020 61 10000 8.2 240 15:22 13.03.2020
1086 Clouds 9 1020 61 10000 5.1 260 14:56 13.03.2020
1087 Clouds 9 1020 61 10000 5.1 260 14:38 13.03.2020
1088 Rain 9 1019 57 7000 8.7 250 14:18 13.03.2020
1089 Rain 9 1020 57 10000 8.2 310 13:42 13.03.2020
1090 Clouds 9 1019 53 10000 10.3 240 13:22 13.03.2020
1091 Clouds 9 1019 53 10000 10.3 240 12:59 13.03.2020
1092 Clouds 9 1019 57 10000 9.3 240 12:38 13.03.2020
1093 Clouds 9 1019 57 10000 9.8 240 12:19 13.03.2020
1094 Clouds 8 1019 57 10000 11.3 240 11:56 13.03.2020
1095 Clouds 8 1019 57 10000 11.3 240 11:36 13.03.2020
1096 Clouds 8 1019 57 10000 10.3 230 11:36 13.03.2020
1097 Clouds 8 1019 57 10000 10.3 230 11:18 13.03.2020
1098 Clouds 8 1019 61 10000 9.3 230 10:46 13.03.2020
1099 Clouds 7 1018 61 10000 9.8 220 10:26 13.03.2020
1100 Clouds 7 1019 65 10000 7.7 220 09:48 13.03.2020
1101 Clouds 7 1019 65 10000 7.7 220 09:30 13.03.2020
1102 Rain 6 1018 70 10000 6.2 210 08:59 13.03.2020
1103 Clouds 6 1018 70 10000 7.2 210 08:41 13.03.2020
1104 Clouds 6 1017 62 10000 7.2 210 08:22 13.03.2020
1105 Clouds 5 1017 64 10000 6.7 220 07:44 13.03.2020
1106 Clouds 5 1017 64 10000 5.7 210 07:25 13.03.2020
1107 Clouds 5 1017 64 10000 4.1 230 06:46 13.03.2020
1108 Clouds 5 1017 64 10000 4.1 230 06:46 13.03.2020
1109 Clouds 5 1017 64 10000 5.1 220 06:23 13.03.2020
1110 Clouds 5 1017 64 10000 4.6 220 05:46 13.03.2020
1111 Clouds 5 1016 60 10000 6.7 220 04:57 13.03.2020
1112 Clouds 5 1016 60 10000 5.1 230 04:26 13.03.2020
1113 Clouds 6 1016 60 10000 4.6 240 02:58 13.03.2020
1114 Clouds 7 1015 65 10000 6.2 260 01:41 13.03.2020
1115 Clouds 7 1015 65 10000 6.2 230 01:18 13.03.2020
1116 Clouds 7 1015 75 10000 6.7 230 00:43 13.03.2020
1117 Rain 7 1015 70 10000 5.7 220 00:20 13.03.2020
1118 Rain 7 1015 81 10000 2.6 230 23:45 12.03.2020
1119 Clouds 7 1014 75 10000 5.7 210 23:26 12.03.2020
1120 Clouds 6 1014 75 10000 5.1 210 22:55 12.03.2020
1121 Clouds 7 1014 75 10000 5.1 210 22:37 12.03.2020
1122 Clouds 7 1014 75 10000 5.1 210 22:37 12.03.2020
1123 Clouds 7 1014 70 10000 4.1 210 22:18 12.03.2020
1124 Clouds 7 1014 70 10000 5.1 210 21:42 12.03.2020
1125 Clouds 8 1014 66 10000 5.7 220 21:24 12.03.2020
1126 Clouds 8 1014 66 10000 5.7 220 20:55 12.03.2020
1127 Clouds 8 1014 66 10000 6.2 230 20:37 12.03.2020
1128 Clouds 9 1014 61 10000 6.7 240 20:18 12.03.2020
1129 Clouds 9 1013 61 10000 5.7 230 19:39 12.03.2020
1130 Clouds 9 1013 57 10000 6.2 230 19:19 12.03.2020
1131 Clouds 10 1013 53 10000 7.7 230 18:43 12.03.2020
1132 Clouds 10 1013 50 10000 6.7 240 18:23 12.03.2020
1133 Clouds 10 1013 57 10000 8.7 270 17:56 12.03.2020
1134 Clouds 11 1012 54 10000 5.7 240 17:37 12.03.2020
1135 Clouds 11 1012 54 10000 5.7 240 17:18 12.03.2020
1136 Clouds 12 1012 54 10000 6.2 240 16:54 12.03.2020
1137 Clouds 11 1012 54 10000 6.2 240 16:36 12.03.2020
1138 Clouds 12 1012 47 10000 7.2 240 16:18 12.03.2020
1139 Clouds 11 1013 50 10000 8.7 250 15:41 12.03.2020
1140 Clouds 11 1013 54 10000 8.7 260 15:22 12.03.2020
1141 Clouds 11 1013 50 10000 10.3 250 14:39 12.03.2020
1142 Clouds 12 1013 58 10000 6.2 240 14:19 12.03.2020
1143 Rain 11 1013 66 10000 6.7 230 13:41 12.03.2020
1144 Rain 11 1013 66 10000 7.2 250 13:22 12.03.2020
1145 Clouds 11 1013 66 10000 6.7 290 12:56 12.03.2020
1146 Rain 11 1013 62 10000 8.7 250 12:38 12.03.2020
1147 Drizzle 11 1013 71 10000 8.7 280 12:19 12.03.2020
1148 Rain 12 1013 71 10000 8.7 240 11:56 12.03.2020
1149 Rain 12 1013 71 10000 8.7 240 11:37 12.03.2020
1150 Rain 12 1012 71 10000 9.3 250 11:19 12.03.2020
1151 Rain 12 1012 71 10000 9.3 250 10:58 12.03.2020
1152 Clouds 12 1012 81 10000 6.2 250 10:40 12.03.2020
1153 Rain 12 1011 76 10000 9.8 210 10:22 12.03.2020
1154 Rain 12 1012 81 10000 10.3 290 09:45 12.03.2020
1155 Rain 12 1011 76 10000 7.2 240 09:25 12.03.2020
1156 Rain 11 1011 76 10000 6.2 200 08:43 12.03.2020
1157 Rain 11 1011 76 10000 6.2 200 08:20 12.03.2020
1158 Rain 11 1011 76 10000 6.2 250 07:56 12.03.2020
1159 Rain 11 1011 81 9000 5.7 210 07:38 12.03.2020
1160 Rain 11 1011 71 9000 8.2 210 07:20 12.03.2020
1161 Clouds 12 1011 58 10000 8.7 220 05:48 12.03.2020
1162 Clouds 12 1011 62 10000 9.3 220 05:25 12.03.2020
1163 Clouds 12 1012 71 10000 7.2 220 02:41 12.03.2020
1164 Clouds 12 1012 71 10000 7.7 210 01:32 12.03.2020
1165 Clouds 12 1012 76 10000 9.3 210 00:47 12.03.2020
1166 Clouds 12 1013 76 10000 7.7 210 00:27 12.03.2020
1167 Clouds 12 1013 76 10000 7.7 210 23:47 11.03.2020
1168 Clouds 13 1013 67 10000 6.7 200 23:25 11.03.2020
1169 Clouds 13 1014 71 10000 6.2 220 22:55 11.03.2020
1170 Clouds 13 1014 71 10000 6.2 220 22:37 11.03.2020
1171 Clouds 13 1014 71 10000 6.2 210 22:18 11.03.2020
1172 Clouds 13 1014 71 10000 5.1 220 21:41 11.03.2020
1173 Clouds 13 1014 76 10000 6.7 250 21:23 11.03.2020
1174 Clouds 13 1014 71 10000 6.2 220 20:59 11.03.2020
1175 Clouds 13 1014 76 10000 5.1 210 20:40 11.03.2020
1176 Clouds 13 1015 76 10000 5.1 210 20:20 11.03.2020
1177 Clouds 13 1015 76 10000 5.1 210 19:58 11.03.2020
1178 Clouds 13 1015 76 10000 5.1 220 19:39 11.03.2020
1179 Clouds 13 1015 76 10000 5.7 210 19:21 11.03.2020
1180 Drizzle 13 1015 76 10000 7.7 220 18:44 11.03.2020
1181 Rain 13 1015 76 10000 7.2 240 18:25 11.03.2020
1182 Clouds 13 1015 72 10000 6.2 230 17:59 11.03.2020
1183 Clouds 14 1015 82 10000 5.7 270 17:40 11.03.2020
1184 Clouds 14 1014 72 10000 8.2 220 17:21 11.03.2020
1185 Clouds 14 1014 72 10000 7.2 220 16:55 11.03.2020
1186 Clouds 14 1014 72 10000 7.2 220 16:37 11.03.2020
1187 Clouds 14 1014 72 10000 6.7 220 16:19 11.03.2020
1188 Clouds 14 1014 72 10000 8.2 220 15:42 11.03.2020
1189 Clouds 14 1014 72 10000 7.7 220 15:22 11.03.2020
1190 Rain 14 1014 72 10000 8.2 220 14:44 11.03.2020
1191 Clouds 14 1015 76 10000 6.7 250 14:23 11.03.2020
1192 Rain 14 1014 72 10000 9.3 220 13:58 11.03.2020
1193 Rain 14 1014 72 10000 8.7 230 13:39 11.03.2020
1194 Rain 14 1014 72 10000 9.3 230 13:21 11.03.2020
1195 Clouds 14 1014 72 10000 9.8 230 12:41 11.03.2020
1196 Clouds 14 1014 72 10000 10.3 230 12:21 11.03.2020
1197 Clouds 14 1014 72 10000 8.7 220 11:57 11.03.2020
1198 Clouds 14 1014 72 10000 8.7 220 11:57 11.03.2020
1199 Clouds 14 1014 72 10000 8.7 220 11:38 11.03.2020
1200 Clouds 14 1014 76 10000 6.7 220 11:19 11.03.2020
1201 Clouds 13 1014 71 10000 8.7 220 10:43 11.03.2020
1202 Clouds 13 1014 71 10000 8.7 220 10:19 11.03.2020
1203 Clouds 13 1013 71 10000 9.3 220 09:54 11.03.2020
1204 Clouds 13 1013 71 10000 9.3 220 09:36 11.03.2020
1205 Clouds 13 1013 71 10000 8.7 220 09:18 11.03.2020
1206 Rain 13 1013 71 10000 8.2 220 08:40 11.03.2020
1207 Clouds 13 1012 71 10000 8.7 220 08:22 11.03.2020
1208 Rain 13 1012 76 10000 9.3 220 07:45 11.03.2020
1209 Clouds 13 1012 76 10000 8.2 220 07:20 11.03.2020
1210 Clouds 12 1011 82 10000 8.2 220 06:48 11.03.2020
1211 Rain 12 1011 76 10000 9.3 220 06:20 11.03.2020
1212 Clouds 12 1011 76 10000 7.7 210 05:23 11.03.2020
1213 Clouds 12 1010 82 10000 8.7 220 02:36 11.03.2020
1214 Clouds 12 1010 87 10000 7.7 220 01:44 11.03.2020
1215 Rain 12 1010 87 10000 7.7 200 00:53 11.03.2020
1216 Rain 12 1010 87 10000 7.7 200 00:31 11.03.2020
1217 Clouds 12 1010 87 10000 7.2 190 23:47 10.03.2020
1218 Rain 11 1010 87 10000 7.2 200 23:22 10.03.2020
1219 Rain 11 1010 87 10000 7.2 200 22:55 10.03.2020
1220 Rain 11 1010 87 10000 7.2 200 22:36 10.03.2020
1221 Rain 11 1009 87 10000 8.2 200 22:18 10.03.2020
1222 Rain 11 1009 87 10000 8.2 200 21:55 10.03.2020
1223 Rain 11 1009 87 10000 8.2 200 21:37 10.03.2020
1224 Rain 11 1009 87 10000 9.8 200 21:18 10.03.2020
1225 Rain 11 1009 87 10000 8.7 200 20:42 10.03.2020
1226 Rain 11 1009 87 10000 8.7 200 20:42 10.03.2020
1227 Clouds 10 1009 87 10000 7.7 200 20:19 10.03.2020
1228 Clouds 10 1009 87 10000 7.7 200 19:58 10.03.2020
1229 Clouds 10 1009 93 10000 6.7 190 19:40 10.03.2020
1230 Clouds 10 1009 93 10000 7.2 190 19:22 10.03.2020
1231 Clouds 10 1008 93 10000 7.2 190 18:55 10.03.2020
1232 Clouds 10 1008 93 10000 7.2 190 18:37 10.03.2020
1233 Clouds 10 1008 93 10000 6.7 190 18:18 10.03.2020
1234 Clouds 10 1008 87 10000 5.1 250 17:41 10.03.2020
1235 Clouds 10 1008 93 10000 6.7 190 17:22 10.03.2020
1236 Clouds 9 1008 93 10000 3.6 230 16:57 10.03.2020
1237 Clouds 9 1008 93 10000 3.6 230 16:37 10.03.2020
1238 Clouds 9 1008 87 10000 3.6 240 16:18 10.03.2020
1239 Drizzle 9 1008 93 6000 6.7 190 15:41 10.03.2020
1240 Rain 9 1009 93 10000 6.2 190 15:20 10.03.2020
1241 Rain 9 1009 93 10000 6.2 190 14:58 10.03.2020
1242 Rain 8 1009 93 10000 6.2 190 14:40 10.03.2020
1243 Rain 8 1009 100 10000 6.7 200 14:19 10.03.2020
1244 Rain 8 1009 93 10000 5.7 190 13:44 10.03.2020
1245 Rain 8 1010 93 10000 6.2 190 13:26 10.03.2020
1246 Rain 8 1010 93 10000 6.2 190 12:56 10.03.2020
1247 Rain 8 1010 93 10000 7.2 200 12:37 10.03.2020
1248 Rain 7 1010 93 10000 6.7 200 12:18 10.03.2020
1249 Rain 7 1010 93 10000 6.2 200 11:42 10.03.2020
1250 Drizzle 7 1010 100 9000 6.2 190 11:24 10.03.2020
1251 Drizzle 6 1010 100 9000 6.2 190 10:58 10.03.2020
1252 Rain 6 1010 93 10000 5.7 190 10:39 10.03.2020
1253 Rain 6 1010 93 10000 5.1 190 10:19 10.03.2020
1254 Drizzle 5 1010 100 8000 5.1 190 09:56 10.03.2020
1255 Drizzle 5 1010 100 8000 5.1 190 09:37 10.03.2020
1256 Rain 5 1011 87 10000 4.1 220 09:18 10.03.2020
1257 Rain 5 1010 93 10000 6.2 200 08:43 10.03.2020
1258 Rain 5 1010 93 10000 6.2 200 08:25 10.03.2020
1259 Rain 5 1011 93 10000 6.7 200 07:45 10.03.2020
1260 Rain 5 1011 93 9000 7.2 200 07:27 10.03.2020
1261 Rain 5 1011 93 8000 6.7 190 06:38 10.03.2020
1262 Rain 5 1012 93 10000 6.2 180 05:59 10.03.2020
1263 Rain 5 1012 93 10000 6.2 180 05:38 10.03.2020
1264 Rain 5 1014 87 10000 5.1 190 04:34 10.03.2020
1265 Clouds 5 1014 81 10000 4.1 200 03:34 10.03.2020
1266 Clouds 5 1016 86 10000 4.1 190 01:55 10.03.2020
1267 Clouds 4 1016 86 10000 0.5 0 00:53 10.03.2020
1268 Clouds 5 1017 86 10000 2.1 210 00:30 10.03.2020
1269 Clouds 5 1017 80 10000 3.1 200 23:57 09.03.2020
1270 Clouds 5 1017 80 10000 3.1 200 23:38 09.03.2020
1271 Clouds 5 1017 80 10000 3.6 210 23:20 09.03.2020
1272 Clouds 5 1017 75 10000 4.1 210 22:40 09.03.2020
1273 Clouds 5 1017 70 10000 5.1 230 22:22 09.03.2020
1274 Clouds 6 1017 70 10000 5.1 230 21:57 09.03.2020
1275 Clouds 6 1017 70 10000 4.6 220 21:38 09.03.2020
1276 Clouds 6 1017 70 10000 4.6 220 21:20 09.03.2020
1277 Clouds 6 1017 75 10000 3.1 190 20:56 09.03.2020
1278 Clouds 6 1017 75 10000 3.1 190 20:37 09.03.2020
1279 Clouds 6 1017 70 10000 3.1 210 20:18 09.03.2020
1280 Clouds 6 1017 70 10000 3.1 210 19:44 09.03.2020
1281 Clouds 7 1016 61 10000 4.1 230 19:21 09.03.2020
1282 Clouds 8 1016 61 10000 3.6 230 18:57 09.03.2020
1283 Clouds 8 1016 61 10000 3.6 230 18:38 09.03.2020
1284 Clouds 8 1016 66 10000 4.6 230 18:19 09.03.2020
1285 Clouds 9 1015 61 10000 6.7 230 17:57 09.03.2020
1286 Clouds 9 1015 61 10000 6.7 230 17:38 09.03.2020
1287 Clouds 9 1015 50 10000 6.2 250 17:19 09.03.2020
1288 Rain 10 1015 50 10000 7.2 250 16:57 09.03.2020
1289 Rain 10 1015 50 10000 7.2 250 16:39 09.03.2020
1290 Rain 10 1015 53 10000 6.7 270 16:20 09.03.2020
1291 Clouds 10 1015 66 10000 2.6 300 15:57 09.03.2020
1292 Clouds 10 1015 66 10000 2.6 300 15:57 09.03.2020
1293 Clouds 10 1015 66 10000 2.6 300 15:38 09.03.2020
1294 Rain 10 1014 50 10000 8.7 300 15:19 09.03.2020
1295 Clouds 10 1014 46 10000 6.7 250 14:54 09.03.2020
1296 Rain 10 1014 61 10000 7.2 260 14:36 09.03.2020
1297 Rain 10 1014 61 10000 7.2 260 14:36 09.03.2020
1298 Rain 9 1014 61 10000 7.2 260 14:18 09.03.2020
1299 Rain 9 1014 57 10000 5.7 250 13:54 09.03.2020
1300 Rain 9 1014 61 10000 5.7 240 13:36 09.03.2020
1301 Rain 9 1014 61 10000 5.7 240 13:18 09.03.2020
1302 Clouds 9 1014 61 10000 3.1 300 12:41 09.03.2020
1303 Rain 9 1014 61 10000 5.1 230 12:21 09.03.2020
1304 Rain 9 1014 61 10000 5.1 230 12:21 09.03.2020
1305 Clouds 9 1014 61 10000 4.6 270 11:41 09.03.2020
1306 Clouds 9 1014 61 10000 4.6 270 11:21 09.03.2020
1307 Clouds 9 1013 66 10000 5.1 240 10:58 09.03.2020
1308 Clouds 9 1013 70 10000 4.6 240 10:40 09.03.2020
1309 Clouds 9 1013 70 10000 4.6 240 10:20 09.03.2020
1310 Clouds 9 1013 70 10000 4.6 240 10:20 09.03.2020
1311 Clouds 8 1013 70 10000 4.6 250 09:57 09.03.2020
1312 Clouds 8 1013 87 10000 2.1 210 09:37 09.03.2020
1313 Clouds 8 1013 87 10000 2.1 210 09:19 09.03.2020
1314 Clouds 7 1012 93 10000 3.6 210 08:42 09.03.2020
1315 Clouds 7 1012 93 10000 3.6 220 08:23 09.03.2020
1316 Clouds 6 1012 93 10000 3.6 230 07:41 09.03.2020
1317 Clouds 6 1012 93 10000 3.6 270 07:21 09.03.2020
1318 Clouds 6 1011 93 10000 2.6 210 06:44 09.03.2020
1319 Clouds 6 1011 93 10000 3.6 210 06:25 09.03.2020
1320 Rain 7 1011 93 10000 3.1 210 05:47 09.03.2020
1321 Rain 7 1011 93 10000 3.1 220 05:22 09.03.2020
1322 Rain 7 1010 93 10000 3.1 230 04:43 09.03.2020
1323 Clouds 7 1010 100 10000 3.1 210 04:22 09.03.2020
1324 Rain 8 1010 93 10000 3.6 230 03:20 09.03.2020
1325 Clouds 8 1010 87 10000 4.6 190 01:41 09.03.2020
1326 Clouds 8 1011 76 10000 3.1 220 00:39 09.03.2020
1327 Rain 8 1011 81 10000 5.7 190 00:20 09.03.2020
1328 Clouds 8 1011 71 10000 4.6 190 23:51 08.03.2020
1329 Clouds 9 1011 76 10000 4.6 190 23:23 08.03.2020
1330 Clouds 9 1011 76 10000 4.1 180 22:57 08.03.2020
1331 Rain 9 1012 76 10000 3.6 180 22:38 08.03.2020
1332 Rain 9 1012 76 10000 3.6 180 22:20 08.03.2020
1333 Rain 9 1012 76 10000 3.6 220 21:56 08.03.2020
1334 Rain 9 1012 76 10000 3.6 220 21:38 08.03.2020
1335 Rain 9 1012 76 10000 4.1 190 21:19 08.03.2020
1336 Rain 9 1013 76 10000 2.6 210 20:40 08.03.2020
1337 Rain 9 1013 76 10000 2.6 210 20:40 08.03.2020
1338 Clouds 9 1013 76 10000 4.1 200 20:21 08.03.2020
1339 Clouds 9 1013 76 10000 4.1 200 20:21 08.03.2020
1340 Clouds 9 1013 62 10000 4.6 190 19:57 08.03.2020
1341 Clouds 9 1013 62 10000 4.6 190 19:37 08.03.2020
1342 Clouds 10 1013 62 10000 4.6 190 19:19 08.03.2020
1343 Clouds 10 1013 62 10000 5.7 200 18:42 08.03.2020
1344 Clouds 10 1013 62 10000 5.7 200 18:24 08.03.2020
1345 Clouds 10 1013 62 10000 5.7 200 18:24 08.03.2020
1346 Clouds 10 1013 62 10000 5.1 190 17:57 08.03.2020
1347 Clouds 11 1013 54 10000 5.1 220 17:38 08.03.2020
1348 Clouds 11 1013 54 10000 5.1 220 17:19 08.03.2020
1349 Clouds 11 1013 62 10000 5.7 190 16:47 08.03.2020
1350 Clouds 11 1013 62 10000 5.7 190 16:28 08.03.2020
1351 Clouds 11 1013 62 10000 6.2 170 15:59 08.03.2020
1352 Clouds 11 1015 57 10000 6.7 190 15:40 08.03.2020
1353 Clouds 11 1015 57 10000 6.7 190 15:21 08.03.2020
1354 Clouds 11 1015 57 10000 6.7 190 14:56 08.03.2020
1355 Clouds 11 1015 61 10000 7.2 200 14:37 08.03.2020
1356 Clouds 10 1015 61 10000 7.2 200 14:19 08.03.2020
1357 Clouds 10 1016 61 10000 7.7 190 13:41 08.03.2020
1358 Clouds 10 1016 61 10000 7.7 190 13:20 08.03.2020
1359 Clouds 10 1017 66 10000 5.1 200 12:43 08.03.2020
1360 Clouds 9 1017 66 10000 6.7 180 12:25 08.03.2020
1361 Clouds 9 1018 65 10000 4.6 180 11:58 08.03.2020
1362 Clouds 8 1018 70 10000 4.6 180 11:39 08.03.2020
1363 Clouds 8 1018 70 10000 4.6 180 11:39 08.03.2020
1364 Clouds 8 1018 70 10000 4.6 180 11:21 08.03.2020
1365 Clouds 7 1018 70 10000 4.6 180 11:21 08.03.2020
1366 Clouds 7 1019 70 10000 4.6 190 10:42 08.03.2020
1367 Clouds 7 1019 70 10000 4.6 190 10:23 08.03.2020
1368 Clouds 7 1019 70 10000 4.1 190 09:59 08.03.2020
1369 Clouds 6 1019 75 10000 4.1 200 09:37 08.03.2020
1370 Clouds 6 1019 70 10000 4.6 190 09:18 08.03.2020
1371 Clouds 5 1019 75 10000 4.6 190 08:41 08.03.2020
1372 Clouds 5 1019 75 10000 5.1 190 08:20 08.03.2020
1373 Clouds 5 1019 75 10000 3.6 200 07:45 08.03.2020
1374 Clouds 5 1019 80 10000 1.5 190 07:25 08.03.2020
1375 Clouds 4 1019 75 10000 4.6 190 06:43 08.03.2020
1376 Clouds 4 1019 75 10000 4.6 190 06:24 08.03.2020
1377 Clouds 4 1019 75 10000 5.1 190 05:43 08.03.2020
1378 Clouds 5 1019 75 10000 4.6 180 03:52 08.03.2020
1379 Clouds 4 1020 75 10000 3.1 190 02:38 08.03.2020
1380 Clouds 4 1021 80 10000 1 0 01:37 08.03.2020
1381 Clouds 4 1021 80 10000 1 220 01:18 08.03.2020
1382 Clouds 4 1021 80 10000 0.5 0 00:30 08.03.2020
1383 Clouds 4 1022 69 10000 1 220 23:57 07.03.2020
1384 Clouds 4 1022 69 10000 1.5 200 23:36 07.03.2020
1385 Clouds 4 1022 68 10000 1.5 200 23:18 07.03.2020
1386 Clouds 4 1022 68 10000 2.1 230 22:38 07.03.2020
1387 Clouds 4 1022 68 10000 2.1 230 22:19 07.03.2020
1388 Clouds 4 1022 68 10000 2.1 210 21:44 07.03.2020
1389 Clouds 4 1022 68 10000 2.1 210 21:22 07.03.2020
1390 Clouds 5 1021 70 10000 2.6 220 20:41 07.03.2020
1391 Clouds 5 1021 70 10000 2.6 220 20:22 07.03.2020
1392 Clouds 6 1021 54 10000 2.6 220 19:54 07.03.2020
1393 Clouds 6 1021 61 10000 2.6 230 19:36 07.03.2020
1394 Clouds 7 1021 61 10000 2.6 230 19:18 07.03.2020
1395 Clouds 7 1020 61 10000 5.7 250 18:39 07.03.2020
1396 Clouds 7 1020 61 10000 5.7 250 18:21 07.03.2020
1397 Clouds 8 1020 57 10000 5.1 250 17:42 07.03.2020
1398 Clouds 8 1020 57 10000 4.1 250 17:20 07.03.2020
1399 Clouds 8 1019 44 10000 4.1 250 16:59 07.03.2020
1400 Clouds 8 1019 44 10000 3.6 260 16:40 07.03.2020
1401 Clouds 8 1019 44 10000 3.6 260 16:22 07.03.2020
1402 Clouds 9 1019 44 10000 3.6 290 15:57 07.03.2020
1403 Clouds 9 1019 44 10000 3.6 290 15:37 07.03.2020
1404 Clouds 9 1019 44 10000 4.1 250 15:19 07.03.2020
1405 Clouds 9 1019 44 10000 6.2 240 14:46 07.03.2020
1406 Clouds 9 1019 44 10000 5.7 250 14:25 07.03.2020
1407 Clouds 8 1019 46 10000 4.6 260 13:58 07.03.2020
1408 Clouds 8 1019 46 10000 5.7 290 13:38 07.03.2020
1409 Clouds 8 1019 47 10000 5.7 290 13:19 07.03.2020
1410 Clouds 8 1019 47 10000 4.1 300 12:41 07.03.2020
1411 Clouds 8 1019 47 10000 4.6 280 12:20 07.03.2020
1412 Clouds 7 1018 47 10000 3.6 310 11:57 07.03.2020
1413 Clouds 7 1018 47 10000 4.6 260 11:39 07.03.2020
1414 Clouds 7 1018 62 10000 4.6 260 11:20 07.03.2020
1415 Clouds 6 1018 62 10000 3.6 300 10:41 07.03.2020
1416 Clouds 6 1018 56 10000 3.1 310 10:20 07.03.2020
1417 Clouds 6 1017 62 10000 4.6 240 09:57 07.03.2020
1418 Clouds 5 1017 62 10000 4.6 240 09:38 07.03.2020
1419 Clouds 5 1017 62 10000 2.6 260 09:18 07.03.2020
1420 Clouds 4 1016 62 10000 3.6 280 08:44 07.03.2020
1421 Clouds 4 1015 76 10000 6.2 290 08:21 07.03.2020
1422 Clouds 4 1015 79 10000 6.7 280 07:51 07.03.2020
1423 Clouds 4 1014 75 10000 5.7 270 07:23 07.03.2020
1424 Clouds 4 1007 78 0 3.01 287 06:57 07.03.2020
1425 Clouds 4 1007 77 0 3.01 287 06:33 07.03.2020
1426 Clouds 4 1013 79 10000 4.6 310 05:53 07.03.2020
1427 Clouds 4 1012 75 10000 4.6 270 04:47 07.03.2020
1428 Clouds 4 1010 75 10000 5.7 270 02:58 07.03.2020
1429 Clouds 5 1010 73 10000 7.2 310 02:34 07.03.2020
1430 Clouds 5 1010 75 10000 4.6 270 01:45 07.03.2020
1431 Clouds 5 1009 75 10000 4.1 290 00:40 07.03.2020
1432 Clouds 5 1008 80 10000 6.2 260 00:22 07.03.2020
1433 Clouds 5 1008 70 10000 4.1 280 23:54 06.03.2020
1434 Clouds 5 1007 86 10000 4.1 270 23:26 06.03.2020
1435 Clouds 5 1007 70 10000 5.1 290 22:58 06.03.2020
1436 Clouds 5 1007 70 10000 5.1 290 22:40 06.03.2020
1437 Clouds 5 1006 93 10000 2.1 220 22:18 06.03.2020
1438 Clouds 5 1006 75 10000 3.6 290 21:45 06.03.2020
1439 Rain 5 1005 81 10000 3.6 250 21:19 06.03.2020
1440 Clouds 5 1004 70 10000 5.1 260 20:40 06.03.2020
1441 Rain 5 1004 70 10000 4.6 250 20:21 06.03.2020
1442 Clouds 5 1004 75 10000 3.1 270 19:54 06.03.2020
1443 Clouds 5 1004 75 10000 3.1 270 19:34 06.03.2020
1444 Clouds 5 1003 81 10000 4.6 250 18:59 06.03.2020
1445 Clouds 6 1002 81 10000 4.1 240 18:41 06.03.2020
1446 Clouds 5 1001 81 10000 5.7 250 18:19 06.03.2020
1447 Clouds 5 1001 81 10000 5.7 250 18:19 06.03.2020
1448 Clouds 5 1001 81 10000 5.1 240 17:56 06.03.2020
1449 Clouds 5 1001 81 10000 5.1 240 17:36 06.03.2020
1450 Rain 6 1000 75 10000 6.7 250 17:18 06.03.2020
1451 Clouds 5 1000 75 10000 5.1 280 16:42 06.03.2020
1452 Clouds 5 1000 75 10000 4.1 290 16:21 06.03.2020
1453 Clouds 5 999 80 10000 6.7 290 15:58 06.03.2020
1454 Clouds 5 999 80 10000 6.7 290 15:39 06.03.2020
1455 Rain 5 998 81 10000 4.6 270 15:20 06.03.2020
1456 Clouds 5 997 80 10000 5.7 300 14:39 06.03.2020
1457 Clouds 5 997 80 10000 5.7 300 14:21 06.03.2020
1458 Rain 5 996 81 10000 7.2 260 13:43 06.03.2020
1459 Clouds 6 995 87 10000 6.7 250 13:23 06.03.2020
1460 Rain 6 995 87 10000 5.1 240 12:59 06.03.2020
1461 Rain 6 995 87 10000 5.1 240 12:39 06.03.2020
1462 Rain 6 994 87 10000 7.7 250 12:20 06.03.2020
1463 Rain 6 993 87 10000 6.7 230 11:59 06.03.2020
1464 Rain 6 993 87 10000 6.7 230 11:40 06.03.2020
1465 Clouds 6 993 86 10000 6.7 270 11:20 06.03.2020
1466 Rain 6 992 81 10000 5.1 270 10:42 06.03.2020
1467 Rain 6 991 93 10000 6.7 230 10:21 06.03.2020
1468 Rain 6 990 93 10000 8.2 220 09:58 06.03.2020
1469 Rain 6 990 93 10000 8.2 220 09:39 06.03.2020
1470 Rain 6 990 87 10000 8.2 210 09:21 06.03.2020
1471 Rain 5 989 87 10000 7.7 210 08:47 06.03.2020
1472 Rain 5 989 93 10000 6.7 210 08:28 06.03.2020
1473 Rain 5 988 93 9000 4.1 190 07:59 06.03.2020
1474 Rain 5 988 100 10000 4.6 190 07:40 06.03.2020
1475 Rain 5 988 100 10000 4.6 190 07:20 06.03.2020
1476 Rain 6 988 87 10000 6.2 210 06:42 06.03.2020
1477 Rain 6 987 81 10000 5.1 230 05:59 06.03.2020
1478 Rain 6 987 81 10000 5.1 230 05:37 06.03.2020
1479 Clouds 6 987 81 10000 6.2 190 05:18 06.03.2020
1480 Clouds 6 987 81 10000 6.7 220 04:25 06.03.2020
1481 Clouds 8 987 81 10000 6.7 190 01:43 06.03.2020
1482 Clouds 8 987 87 10000 5.1 180 01:25 06.03.2020
1483 Rain 7 987 93 10000 6.2 170 00:49 06.03.2020
1484 Rain 7 987 93 10000 4.1 170 00:30 06.03.2020
1485 Rain 7 987 93 10000 4.1 170 23:43 05.03.2020
1486 Rain 7 988 100 10000 3.6 170 23:24 05.03.2020
1487 Mist 7 988 100 9000 2.1 160 22:55 05.03.2020
1488 Mist 7 988 100 9000 2.1 160 22:37 05.03.2020
1489 Rain 7 988 100 8000 1.5 160 22:18 05.03.2020
1490 Rain 7 988 100 9000 3.1 190 21:55 05.03.2020
1491 Rain 7 988 100 9000 3.1 190 21:37 05.03.2020
1492 Rain 6 988 93 10000 2.6 210 21:19 05.03.2020
1493 Rain 6 989 93 10000 2.6 60 20:42 05.03.2020
1494 Rain 6 989 93 10000 2.6 60 20:21 05.03.2020
1495 Rain 6 989 93 8000 2.6 70 19:59 05.03.2020
1496 Rain 6 989 93 8000 2.6 70 19:40 05.03.2020
1497 Rain 6 989 93 8000 3.1 60 19:21 05.03.2020
1498 Rain 6 989 93 10000 4.6 70 18:58 05.03.2020
1499 Rain 6 989 93 10000 5.7 80 18:37 05.03.2020
1500 Rain 6 989 93 10000 5.7 80 18:19 05.03.2020
1501 Rain 6 990 93 10000 5.7 80 17:57 05.03.2020
1502 Rain 6 990 93 10000 5.7 80 17:39 05.03.2020
1503 Rain 6 990 93 10000 6.7 70 17:21 05.03.2020
1504 Rain 6 991 93 10000 7.2 70 16:42 05.03.2020
1505 Rain 6 992 93 10000 6.2 80 16:24 05.03.2020
1506 Rain 6 993 93 10000 5.7 90 15:59 05.03.2020
1507 Rain 6 994 87 10000 4.6 100 15:39 05.03.2020
1508 Rain 6 994 87 10000 4.6 100 15:20 05.03.2020
1509 Rain 7 994 87 10000 4.6 90 14:54 05.03.2020
1510 Rain 7 994 87 10000 5.1 70 14:36 05.03.2020
1511 Rain 7 995 81 10000 4.6 90 14:18 05.03.2020
1512 Rain 7 995 100 10000 4.6 70 13:41 05.03.2020
1513 Rain 7 997 87 10000 3.6 110 13:21 05.03.2020
1514 Rain 7 997 87 10000 3.6 110 13:21 05.03.2020
1515 Rain 6 998 93 10000 3.1 110 12:56 05.03.2020
1516 Rain 7 998 100 9000 3.1 90 12:38 05.03.2020
1517 Mist 6 998 100 5000 4.1 100 12:19 05.03.2020
1518 Mist 6 999 100 3200 4.6 110 11:56 05.03.2020
1519 Rain 6 999 100 5000 4.6 120 11:37 05.03.2020
1520 Rain 6 999 100 5000 4.6 120 11:18 05.03.2020
1521 Rain 6 1000 93 3000 3.1 120 10:56 05.03.2020
1522 Rain 5 1000 93 3000 3.1 120 10:38 05.03.2020
1523 Clouds 5 1000 75 10000 2.1 120 10:20 05.03.2020
1524 Clouds 5 1001 75 10000 2.1 140 09:45 05.03.2020
1525 Clouds 5 1001 80 10000 3.1 140 09:26 05.03.2020
1526 Clouds 5 1002 80 10000 2.1 120 08:47 05.03.2020
1527 Clouds 4 1003 80 10000 2.1 110 08:29 05.03.2020
1528 Clouds 4 1003 86 10000 2.1 90 07:49 05.03.2020
1529 Clouds 4 1003 80 10000 1 90 07:22 05.03.2020
1530 Clouds 4 1003 86 10000 2.1 90 06:50 05.03.2020
1531 Clouds 3 1004 75 10000 1.5 120 06:23 05.03.2020
1532 Clouds 4 1004 86 10000 1.5 130 05:57 05.03.2020
1533 Clouds 3 1005 86 10000 3.1 100 05:32 05.03.2020
1534 Rain 3 1006 86 10000 2.6 40 04:23 05.03.2020
1535 Rain 3 1006 86 10000 2.1 90 03:58 05.03.2020
1536 Clouds 3 1007 93 10000 2.1 60 02:25 05.03.2020
1537 Clouds 3 1009 80 10000 1.04 188 01:24 05.03.2020
1538 Clouds 3 1009 93 10000 1.04 188 00:43 05.03.2020
1539 Clouds 3 1010 93 10000 0.5 0 23:56 04.03.2020
1540 Clouds 3 1010 93 10000 0.5 0 23:38 04.03.2020
1541 Clouds 3 1010 93 10000 2.15 181 23:19 04.03.2020
1542 Clouds 3 1010 93 10000 0.5 250 22:54 04.03.2020
1543 Clouds 3 1011 86 10000 0.5 0 22:36 04.03.2020
1544 Clouds 3 1011 86 10000 0.5 0 22:18 04.03.2020
1545 Clouds 4 1011 86 10000 1 190 21:41 04.03.2020
1546 Clouds 4 1011 80 10000 1.5 190 21:21 04.03.2020
1547 Clouds 4 1011 75 10000 2.1 170 20:58 04.03.2020
1548 Clouds 4 1011 75 10000 2.1 170 20:58 04.03.2020
1549 Clouds 4 1011 81 10000 2.6 170 20:39 04.03.2020
1550 Clouds 5 1011 81 10000 2.6 170 20:21 04.03.2020
1551 Clouds 5 1011 75 10000 3.1 180 19:43 04.03.2020
1552 Clouds 5 1011 70 10000 3.1 200 19:24 04.03.2020
1553 Clouds 5 1011 70 10000 4.6 210 18:59 04.03.2020
1554 Clouds 6 1011 70 10000 4.6 210 18:41 04.03.2020
1555 Clouds 6 1011 70 10000 5.1 220 18:22 04.03.2020
1556 Rain 6 1011 65 10000 6.7 220 17:57 04.03.2020
1557 Rain 7 1011 70 10000 6.2 230 17:38 04.03.2020
1558 Rain 7 1011 70 10000 6.2 230 17:20 04.03.2020
1559 Rain 7 1011 65 10000 6.2 210 16:54 04.03.2020
1560 Rain 7 1011 61 10000 7.2 220 16:36 04.03.2020
1561 Rain 7 1011 61 10000 7.2 220 16:18 04.03.2020
1562 Rain 8 1011 70 10000 2.1 0 15:42 04.03.2020
1563 Rain 8 1012 70 6000 5.7 320 15:23 04.03.2020
1564 Clouds 8 1012 65 10000 3.84 242 14:56 04.03.2020
1565 Clouds 9 1012 65 10000 3.84 242 14:38 04.03.2020
1566 Rain 9 1012 61 10000 5.1 250 14:19 04.03.2020
1567 Clouds 9 1012 61 10000 6.2 220 13:57 04.03.2020
1568 Clouds 9 1012 61 10000 6.2 220 13:39 04.03.2020
1569 Clouds 8 1012 65 10000 6.2 210 13:20 04.03.2020
1570 Clouds 8 1012 65 10000 4.6 210 12:45 04.03.2020
1571 Clouds 8 1012 65 10000 4.6 210 12:27 04.03.2020
1572 Clouds 8 1012 75 10000 5.7 210 11:59 04.03.2020
1573 Clouds 7 1013 75 10000 5.1 210 11:41 04.03.2020
1574 Clouds 6 1013 75 10000 5.1 210 11:23 04.03.2020
1575 Clouds 6 1013 81 10000 5.7 200 10:57 04.03.2020
1576 Clouds 5 1013 81 10000 5.7 200 10:39 04.03.2020
1577 Clouds 5 1013 86 10000 5.1 210 10:18 04.03.2020
1578 Clouds 4 1013 86 10000 5.1 200 09:42 04.03.2020
1579 Clouds 3 1012 93 10000 4.1 190 09:21 04.03.2020
1580 Rain 3 1012 93 10000 4.1 190 08:47 04.03.2020
1581 Rain 3 1012 93 10000 3.1 180 08:27 04.03.2020
1582 Rain 2 1012 93 10000 2.6 190 07:56 04.03.2020
1583 Clouds 2 1012 81 10000 3.28 229 07:37 04.03.2020
1584 Clouds 2 1012 81 10000 3.28 229 07:18 04.03.2020
1585 Rain 2 1012 93 10000 1.5 220 06:43 04.03.2020
1586 Clouds 2 1012 81 10000 3.28 229 06:23 04.03.2020
1587 Clouds 1 1011 93 10000 2.1 180 05:48 04.03.2020
1588 Clouds 1 1011 77 10000 3.6 190 04:30 04.03.2020
1589 Clouds 1 1011 77 10000 2.6 210 03:44 04.03.2020
1590 Clouds 1 1011 77 10000 2.6 200 03:25 04.03.2020
1591 Clouds 1 1011 77 10000 3.1 190 02:55 04.03.2020
1592 Clouds 1 1011 69 10000 3.1 180 02:21 04.03.2020
1593 Clouds 1 1010 69 10000 3.6 170 01:54 04.03.2020
1594 Clouds 1 1010 100 10000 1.5 200 00:52 04.03.2020
1595 Clouds 1 1010 71 10000 0.5 0 00:27 04.03.2020
1596 Clouds 1 1009 71 10000 1.5 190 23:47 03.03.2020
1597 Clouds 1 1009 71 10000 2.1 150 23:28 03.03.2020
1598 Clouds 2 1009 69 10000 2.1 150 22:59 03.03.2020
1599 Clouds 2 1009 69 10000 2.1 150 22:40 03.03.2020
1600 Clouds 2 1008 69 10000 1.5 160 22:20 03.03.2020
1601 Clouds 2 1008 69 10000 1.5 160 22:20 03.03.2020
1602 Clouds 2 1008 69 10000 2.1 190 21:58 03.03.2020
1603 Clouds 2 1008 69 10000 2.1 190 21:39 03.03.2020
1604 Clouds 2 1008 86 10000 2.6 210 21:20 03.03.2020
1605 Clouds 3 1007 86 10000 3.1 200 20:55 03.03.2020
1606 Clouds 3 1007 86 10000 3.1 200 20:37 03.03.2020
1607 Clouds 3 1007 80 10000 3.1 200 20:18 03.03.2020
1608 Clouds 3 1007 80 10000 3.1 200 20:18 03.03.2020
1609 Clouds 3 1007 80 10000 3.1 200 20:18 03.03.2020
1610 Clouds 4 1007 75 10000 3.1 210 19:54 03.03.2020
1611 Clouds 4 1007 75 10000 3.6 210 19:36 03.03.2020
1612 Clouds 4 1007 75 10000 3.6 210 19:18 03.03.2020
1613 Clouds 5 1006 58 10000 2.6 230 18:55 03.03.2020
1614 Clouds 5 1006 59 10000 2.6 230 18:37 03.03.2020
1615 Clouds 6 1005 65 10000 2.1 230 18:18 03.03.2020
1616 Clouds 6 1005 59 10000 2.6 250 17:40 03.03.2020
1617 Clouds 7 1004 52 10000 3.1 300 17:21 03.03.2020
1618 Clouds 7 1004 52 10000 4.6 280 16:59 03.03.2020
1619 Clouds 7 1004 52 10000 4.6 280 16:38 03.03.2020
1620 Rain 7 1004 52 10000 4.6 260 16:38 03.03.2020
1621 Rain 7 1004 52 10000 4.6 260 16:20 03.03.2020
1622 Clouds 7 1004 52 10000 3.6 320 15:57 03.03.2020
1623 Clouds 7 1004 52 10000 3.6 320 15:39 03.03.2020
1624 Rain 7 1004 52 10000 7.7 250 15:20 03.03.2020
1625 Clouds 7 1003 61 10000 5.1 220 14:43 03.03.2020
1626 Clouds 7 1003 75 10000 4.6 240 14:20 03.03.2020
1627 Rain 6 1004 49 0 5.7 270 13:58 03.03.2020
1628 Rain 6 1003 65 10000 5.7 250 13:40 03.03.2020
1629 Rain 6 1003 65 10000 5.7 250 13:21 03.03.2020
1630 -273 0 0 0 0 0 13:21 03.03.2020
1631 Rain 7 1003 61 10000 6.7 220 12:47 03.03.2020
1632 Rain 7 1004 56 10000 5.7 260 12:27 03.03.2020
1633 Clouds 7 1003 65 10000 5.1 240 11:58 03.03.2020
1634 Clouds 7 1003 70 10000 6.2 250 11:38 03.03.2020
1635 Clouds 7 1003 70 10000 6.2 250 11:19 03.03.2020
1636 Clouds 6 1003 62 10000 3.6 260 10:56 03.03.2020
1637 Clouds 6 1003 62 10000 3.6 260 10:56 03.03.2020
1638 Clouds 6 1003 62 10000 3.6 260 10:56 03.03.2020
1639 Clouds 6 1003 62 10000 3.6 260 10:38 03.03.2020
1640 Clouds 6 1003 70 10000 5.7 260 10:19 03.03.2020
1641 Clouds 5 1003 80 10000 4.6 200 09:45 03.03.2020
1642 Clouds 5 1003 80 10000 3.6 190 09:23 03.03.2020
1643 Clouds 5 1003 86 10000 3.6 200 08:59 03.03.2020
1644 Clouds 4 1003 86 10000 3.6 200 08:39 03.03.2020
1645 Clouds 3 1002 86 10000 4.1 210 08:21 03.03.2020
1646 Clouds 3 1002 86 10000 3.1 210 07:44 03.03.2020
1647 Clouds 3 1001 69 10000 4.1 220 07:23 03.03.2020
1648 Clouds 3 1001 69 10000 3.6 230 06:53 03.03.2020
1649 Clouds 4 1000 80 10000 4.6 260 06:27 03.03.2020
1650 Clouds 4 1000 75 10000 6.2 260 05:48 03.03.2020
1651 Clouds 4 999 80 10000 5.1 270 05:30 03.03.2020
1652 Clouds 5 998 80 10000 7.2 270 04:38 03.03.2020
1653 Rain 5 995 93 10000 3.6 260 02:24 03.03.2020
1654 Rain 5 994 93 10000 3.1 250 01:20 03.03.2020
1655 Rain 6 994 93 10000 2.6 270 00:38 03.03.2020
1656 Rain 6 993 93 10000 3.6 260 00:19 03.03.2020
1657 Rain 6 993 100 10000 4.1 260 23:43 02.03.2020
1658 Rain 6 993 100 10000 4.1 260 23:23 02.03.2020
1659 Rain 6 992 100 10000 3.1 260 22:56 02.03.2020
1660 Rain 6 992 100 10000 3.1 260 22:56 02.03.2020
1661 Rain 6 992 100 10000 3.1 260 22:56 02.03.2020
1662 Rain 6 992 100 10000 2.6 260 22:38 02.03.2020
1663 Rain 6 992 100 10000 2.6 260 22:19 02.03.2020
1664 Rain 6 991 93 10000 3.1 250 21:55 02.03.2020
1665 Rain 6 991 87 10000 3.1 220 21:36 02.03.2020
1666 Rain 7 991 87 10000 3.1 220 21:18 02.03.2020
1667 Rain 7 991 87 10000 2.1 210 20:41 02.03.2020
1668 Rain 7 990 81 10000 1.5 260 20:22 02.03.2020
1669 Rain 7 990 75 10000 3.1 350 19:59 02.03.2020
1670 Clouds 7 990 75 10000 2.6 0 19:39 02.03.2020
1671 Clouds 8 990 75 10000 2.6 0 19:21 02.03.2020
1672 Clouds 8 990 70 10000 2.6 340 18:56 02.03.2020
1673 Clouds 8 990 75 10000 2.6 320 18:38 02.03.2020
1674 Clouds 8 989 70 10000 2.1 340 18:18 02.03.2020
1675 Clouds 8 989 70 10000 4.1 350 17:56 02.03.2020
1676 Clouds 9 989 70 10000 4.1 350 17:38 02.03.2020
1677 Clouds 9 989 66 10000 1.5 70 17:20 02.03.2020
1678 Rain 9 989 61 10000 2.1 110 16:42 02.03.2020
1679 Rain 10 989 57 10000 3.1 80 16:23 02.03.2020
1680 Clouds 10 989 57 10000 3.1 100 15:57 02.03.2020
1681 Clouds 10 989 57 10000 3.1 100 15:38 02.03.2020
1682 Clouds 10 989 57 10000 4.1 120 15:18 02.03.2020
1683 Clouds 10 990 57 10000 5.7 100 14:39 02.03.2020
1684 Clouds 10 990 57 10000 5.7 100 14:19 02.03.2020
1685 Clouds 10 990 57 10000 6.2 100 13:55 02.03.2020
1686 Clouds 10 990 61 10000 5.1 100 13:36 02.03.2020
1687 Clouds 10 990 61 10000 5.1 100 13:18 02.03.2020
1688 Clouds 10 991 61 10000 4.6 80 12:41 02.03.2020
1689 Clouds 10 991 57 10000 4.1 90 12:19 02.03.2020
1690 Clouds 9 993 66 10000 3.6 60 11:40 02.03.2020
1691 Clouds 8 993 66 10000 3.6 60 11:21 02.03.2020
1692 Clouds 8 993 75 10000 2.6 70 10:58 02.03.2020
1693 Clouds 7 993 75 10000 2.6 70 10:40 02.03.2020
1694 Clouds 6 994 75 10000 2.1 60 10:19 02.03.2020
1695 Clouds 6 994 75 10000 1.5 100 09:55 02.03.2020
1696 Clouds 6 994 80 10000 2.6 90 09:37 02.03.2020
1697 Clouds 5 994 80 10000 2.6 90 09:18 02.03.2020
1698 Clouds 4 994 80 10000 3.1 110 08:40 02.03.2020
1699 Clouds 3 995 86 10000 1.5 130 08:19 02.03.2020
1700 Clouds 2 995 93 10000 2.1 140 07:40 02.03.2020
1701 Clouds 2 995 93 10000 2.6 140 06:57 02.03.2020
1702 Clouds 2 995 93 10000 2.6 140 06:37 02.03.2020
1703 Clouds 3 996 86 10000 4.6 190 05:52 02.03.2020
1704 Clouds 4 997 80 10000 3.6 210 04:19 02.03.2020
1705 Clouds 4 997 86 10000 7.7 210 03:20 02.03.2020
1706 Clouds 4 997 86 10000 7.2 250 02:36 02.03.2020
1707 Rain 4 996 80 10000 8.2 270 01:45 02.03.2020
1708 Rain 4 994 86 10000 9.3 230 01:26 02.03.2020
1709 Clouds 5 992 81 10000 8.7 200 00:23 02.03.2020
1710 Rain 6 992 81 10000 8.2 200 23:56 01.03.2020
1711 Rain 6 992 81 10000 8.2 200 23:38 01.03.2020
1712 Clouds 7 992 75 10000 7.2 220 23:19 01.03.2020
1713 Clouds 7 992 87 10000 3.6 170 22:42 01.03.2020
1714 Rain 7 992 100 6000 4.1 160 22:19 01.03.2020
1715 Rain 7 992 93 10000 1 0 21:55 01.03.2020
1716 Rain 7 992 87 10000 2.1 130 21:37 01.03.2020
1717 Rain 7 992 87 10000 2.1 130 21:18 01.03.2020
1718 Rain 7 993 93 10000 3.1 200 20:43 01.03.2020
1719 Rain 8 994 87 10000 8.7 220 20:25 01.03.2020
1720 Rain 8 993 61 10000 3.6 120 19:55 01.03.2020
1721 Rain 9 993 66 10000 2.6 240 19:36 01.03.2020
1722 Clouds 9 993 61 10000 2.6 110 19:18 01.03.2020
1723 Rain 9 993 61 10000 2.1 120 18:40 01.03.2020
1724 Rain 9 994 61 10000 2.1 120 18:20 01.03.2020
1725 Rain 10 994 61 10000 2.1 150 17:58 01.03.2020
1726 Rain 10 994 61 10000 2.1 150 17:40 01.03.2020
1727 Clouds 10 995 57 10000 2.1 160 17:21 01.03.2020
1728 Clouds 11 995 57 10000 3.6 200 16:57 01.03.2020
1729 Clouds 10 995 57 10000 3.6 200 16:39 01.03.2020
1730 Clouds 11 996 53 10000 6.2 220 16:18 01.03.2020
1731 Clouds 11 996 53 10000 6.2 220 16:18 01.03.2020
1732 Clouds 11 997 53 10000 9.3 220 15:57 01.03.2020
1733 Clouds 11 997 53 10000 9.3 220 15:39 01.03.2020
1734 Clouds 11 997 50 10000 7.2 230 15:20 01.03.2020
1735 Clouds 11 997 57 10000 7.7 240 14:57 01.03.2020
1736 Clouds 10 998 57 10000 7.7 240 14:38 01.03.2020
1737 Clouds 11 998 57 10000 7.7 240 14:20 01.03.2020
1738 Rain 10 998 53 10000 8.7 220 13:56 01.03.2020
1739 Rain 10 998 53 10000 8.7 220 13:37 01.03.2020
1740 Rain 10 998 53 10000 8.2 230 13:19 01.03.2020
1741 Rain 10 998 50 10000 8.7 210 12:43 01.03.2020
1742 Rain 10 998 50 10000 8.7 210 12:43 01.03.2020
1743 Rain 10 999 57 10000 8.2 220 12:23 01.03.2020
1744 Rain 9 999 61 10000 8.7 220 11:58 01.03.2020
1745 Clouds 9 999 61 10000 8.7 220 11:39 01.03.2020
1746 Clouds 9 999 61 10000 10.3 220 11:19 01.03.2020
1747 Rain 8 998 66 10000 9.3 210 10:55 01.03.2020
1748 Rain 8 999 75 10000 5.7 210 10:36 01.03.2020
1749 Rain 8 999 75 10000 5.7 210 10:18 01.03.2020
1750 Rain 7 998 70 10000 5.7 200 09:42 01.03.2020
1751 Rain 7 998 70 10000 5.7 200 09:42 01.03.2020
1752 Clouds 7 998 75 10000 6.7 230 09:23 01.03.2020
1753 Clouds 7 999 75 10000 5.7 200 08:46 01.03.2020
1754 Clouds 7 999 75 10000 5.7 200 08:28 01.03.2020
1755 Clouds 6 999 75 10000 7.2 210 07:56 01.03.2020
1756 Clouds 6 999 81 10000 5.7 230 07:38 01.03.2020
1757 Clouds 6 999 81 10000 5.7 230 07:19 01.03.2020
1758 Clouds 6 999 70 10000 7.7 210 06:41 01.03.2020
1759 Clouds 6 999 75 10000 7.7 200 05:58 01.03.2020
1760 Clouds 6 999 75 10000 6.7 200 03:38 01.03.2020
1761 Clouds 6 1000 75 10000 6.7 200 02:23 01.03.2020
1762 Clouds 6 1000 75 10000 7.2 210 01:45 01.03.2020
1763 Rain 6 1000 87 10000 5.1 210 00:59 01.03.2020
1764 Rain 6 1000 87 10000 5.1 210 00:39 01.03.2020
1765 Rain 5 1000 75 10000 3.1 260 00:18 01.03.2020
1766 Rain 5 1000 81 10000 4.6 190 23:40 29.02.2020
1767 Clouds 5 1000 87 10000 5.1 200 23:22 29.02.2020
1768 Clouds 5 999 93 10000 3.6 190 22:39 29.02.2020
1769 Clouds 6 999 93 10000 5.7 220 22:21 29.02.2020
1770 Rain 6 999 87 10000 6.7 220 21:41 29.02.2020
1771 Rain 6 999 87 10000 7.7 220 21:21 29.02.2020
1772 Rain 7 999 70 10000 7.7 210 20:42 29.02.2020
1773 Rain 7 999 75 10000 6.2 300 20:21 29.02.2020
1774 Rain 8 997 70 10000 7.2 230 19:56 29.02.2020
1775 Clouds 9 996 71 10000 7.7 230 19:37 29.02.2020
1776 Clouds 9 996 71 10000 7.7 230 19:19 29.02.2020
1777 Clouds 9 995 71 10000 8.2 230 18:42 29.02.2020
1778 Clouds 10 994 71 10000 9.8 260 18:23 29.02.2020
1779 Clouds 10 993 81 10000 9.8 220 17:57 29.02.2020
1780 Rain 10 993 87 10000 10.3 220 17:39 29.02.2020
1781 Rain 10 993 87 10000 10.3 220 17:19 29.02.2020
1782 Rain 10 994 81 10000 11.8 230 16:45 29.02.2020
1783 Rain 12 993 66 10000 15.4 270 16:21 29.02.2020
1784 Rain 13 993 66 10000 6.2 190 15:58 29.02.2020
1785 Rain 13 993 66 10000 6.2 190 15:39 29.02.2020
1786 Rain 13 993 66 10000 7.2 190 15:21 29.02.2020
1787 Clouds 13 994 58 10000 6.7 190 14:41 29.02.2020
1788 Clouds 13 994 58 10000 6.7 190 14:22 29.02.2020
1789 Clouds 13 995 58 10000 6.2 180 13:46 29.02.2020
1790 Clouds 13 995 62 10000 4.1 180 13:28 29.02.2020
1791 Clouds 12 996 62 10000 4.6 180 12:59 29.02.2020
1792 Clouds 12 996 62 10000 4.6 180 12:40 29.02.2020
1793 Clouds 12 997 66 10000 5.7 180 12:21 29.02.2020
1794 Clouds 12 997 71 10000 4.1 180 11:56 29.02.2020
1795 Clouds 11 997 71 10000 4.1 180 11:38 29.02.2020
1796 Clouds 10 998 66 10000 5.7 180 11:20 29.02.2020
1797 Clouds 10 998 71 10000 3.6 180 10:44 29.02.2020
1798 Clouds 9 999 76 10000 3.1 180 10:26 29.02.2020
1799 Clouds 8 1000 81 10000 1.5 130 09:47 29.02.2020
1800 Clouds 8 1000 81 10000 1.5 130 09:23 29.02.2020
1801 Clouds 7 1001 81 10000 1.5 150 08:42 29.02.2020
1802 Clouds 7 1001 87 10000 2.6 160 08:22 29.02.2020
1803 Clouds 6 1001 87 10000 3.6 190 07:58 29.02.2020
1804 Clouds 6 1001 87 10000 3.6 190 07:40 29.02.2020
1805 Clouds 6 1002 81 10000 4.1 190 07:18 29.02.2020
1806 Clouds 6 1003 81 10000 5.7 180 06:44 29.02.2020
1807 Clouds 6 1003 81 10000 4.1 170 06:23 29.02.2020
1808 Clouds 6 1003 81 10000 5.1 170 05:46 29.02.2020
1809 Rain 6 1004 75 10000 4.1 190 04:46 29.02.2020
1810 Rain 5 1005 86 10000 2.1 180 03:40 29.02.2020
1811 Rain 5 1006 100 10000 2.6 180 03:22 29.02.2020
1812 Rain 5 1006 100 10000 1.5 170 02:37 29.02.2020
1813 Rain 5 1008 80 10000 3.6 190 00:59 29.02.2020
1814 Rain 5 1008 80 10000 3.6 190 00:37 29.02.2020
1815 Rain 5 1009 80 10000 3.6 180 23:56 28.02.2020
1816 Rain 5 1010 67 10000 9.3 210 23:36 28.02.2020
1817 Rain 5 1010 56 10000 9.3 210 23:18 28.02.2020
1818 Rain 5 1010 52 10000 7.7 190 22:41 28.02.2020
1819 Clouds 5 1011 49 10000 4.1 190 22:18 28.02.2020
1820 Rain 5 1012 52 10000 6.2 180 21:41 28.02.2020
1821 Clouds 5 1012 52 10000 4.1 180 21:21 28.02.2020
1822 Clouds 5 1012 56 10000 5.7 150 20:41 28.02.2020
1823 Clouds 5 1013 60 10000 3.1 190 20:23 28.02.2020
1824 Clouds 5 1014 60 10000 3.6 180 19:59 28.02.2020
1825 Clouds 5 1014 60 10000 3.6 180 19:40 28.02.2020
1826 Clouds 5 1014 56 10000 3.6 170 19:21 28.02.2020
1827 Clouds 5 1015 60 10000 3.1 170 18:58 28.02.2020
1828 Clouds 5 1015 56 10000 3.1 170 18:39 28.02.2020
1829 Clouds 6 1015 56 10000 3.1 170 18:21 28.02.2020
1830 Clouds 6 1016 58 10000 3.1 180 17:41 28.02.2020
1831 Clouds 6 1016 52 10000 4.1 180 17:22 28.02.2020
1832 Clouds 6 1017 56 10000 4.6 200 16:55 28.02.2020
1833 Clouds 6 1017 52 10000 5.1 210 16:36 28.02.2020
1834 Clouds 6 1017 60 10000 4.1 210 16:18 28.02.2020
1835 Clouds 6 1017 52 10000 6.7 210 15:42 28.02.2020
1836 Clouds 6 1018 52 10000 6.2 200 15:20 28.02.2020
1837 Clouds 6 1018 52 10000 6.7 220 14:59 28.02.2020
1838 Clouds 6 1019 52 10000 7.2 200 14:41 28.02.2020
1839 Clouds 6 1019 55 10000 7.2 200 14:19 28.02.2020
1840 Rain 6 1019 55 10000 7.2 210 13:57 28.02.2020
1841 Rain 6 1019 55 10000 7.2 210 13:39 28.02.2020
1842 Rain 5 1019 55 10000 5.1 200 13:19 28.02.2020
1843 Clouds 5 1020 75 10000 5.7 210 12:43 28.02.2020
1844 Clouds 6 1020 65 10000 3.6 230 12:25 28.02.2020
1845 Clouds 5 1020 55 10000 4.6 230 11:55 28.02.2020
1846 Clouds 4 1020 55 10000 7.2 240 11:37 28.02.2020
1847 Clouds 4 1020 68 10000 7.2 240 11:18 28.02.2020
1848 Clouds 3 1019 68 10000 6.2 250 10:43 28.02.2020
1849 Clouds 3 1019 74 10000 7.2 250 10:23 28.02.2020
1850 Clouds 2 1019 80 10000 5.1 190 09:47 28.02.2020
1851 Clouds 2 1019 80 10000 5.1 190 09:22 28.02.2020
1852 Clouds 2 1019 86 10000 4.6 180 08:58 28.02.2020
1853 Clouds 1 1018 86 10000 4.1 180 08:40 28.02.2020
1854 Clouds 1 1018 86 10000 4.1 180 08:20 28.02.2020
1855 Clouds 1 1017 80 10000 3.6 180 07:42 28.02.2020
1856 Clouds 1 1017 80 10000 3.6 180 07:24 28.02.2020
1857 Clouds 1 1017 80 10000 4.6 170 06:47 28.02.2020
1858 Clouds 1 1016 74 10000 5.1 220 06:28 28.02.2020
1859 Clouds 2 1015 86 10000 3.6 210 04:50 28.02.2020
1860 Clouds 2 1014 86 10000 3.6 260 04:20 28.02.2020
1861 Clouds 2 1012 86 10000 4.1 250 02:47 28.02.2020
1862 Clouds 2 1012 86 10000 3.6 240 02:28 28.02.2020
1863 Clouds 2 1010 97 10000 3.6 240 01:33 28.02.2020
1864 Clouds 2 1008 86 10000 4.6 250 00:30 28.02.2020
1865 Clouds 2 1007 93 10000 7.2 260 23:45 27.02.2020
1866 Rain 2 1006 93 10000 5.1 250 23:22 27.02.2020
1867 Rain 1 1005 93 10000 5.1 270 22:56 27.02.2020
1868 Rain 1 1005 93 10000 5.1 270 22:37 27.02.2020
1869 Rain 1 1003 93 10000 3.6 290 22:19 27.02.2020
1870 Rain 1 1003 97 10000 3.6 310 21:41 27.02.2020
1871 Rain 1 1000 97 10000 3.6 320 21:22 27.02.2020
1872 Rain 1 999 100 10000 5.1 330 20:59 27.02.2020
1873 Rain 1 999 100 10000 5.1 330 20:41 27.02.2020
1874 Rain 1 997 99 6000 6.7 350 20:21 27.02.2020
1875 Rain 0 995 99 3500 7.2 360 19:57 27.02.2020
1876 Rain 0 993 99 1800 6.7 360 19:38 27.02.2020
1877 Rain 0 993 99 1800 6.7 360 19:19 27.02.2020
1878 Rain 0 991 99 1400 6.7 20 18:54 27.02.2020
1879 Rain 0 991 99 2000 6.7 20 18:36 27.02.2020
1880 Rain 0 991 99 2000 6.7 20 18:18 27.02.2020
1881 Snow 0 991 99 1200 6.2 50 17:40 27.02.2020
1882 Snow 0 991 99 1200 6.2 50 17:40 27.02.2020
1883 Snow 0 991 93 2000 5.1 60 17:20 27.02.2020
1884 Snow 1 992 93 3500 5.1 80 16:59 27.02.2020
1885 Snow 1 993 93 6000 6.7 110 16:40 27.02.2020
1886 Snow 1 993 93 6000 6.7 110 16:20 27.02.2020
1887 Rain 1 994 93 7000 6.2 100 15:59 27.02.2020
1888 Rain 1 994 93 7000 6.2 100 15:38 27.02.2020
1889 Rain 1 994 93 7000 6.2 100 15:38 27.02.2020
1890 Rain 2 994 93 8000 5.1 130 15:19 27.02.2020
1891 Rain 2 996 86 8000 4.6 120 14:58 27.02.2020
1892 Rain 2 997 93 8000 4.6 150 14:37 27.02.2020
1893 Rain 3 997 93 8000 4.6 150 14:19 27.02.2020
1894 Rain 3 997 86 10000 5.1 170 13:42 27.02.2020
1895 Rain 4 1000 93 10000 4.1 170 13:21 27.02.2020
1896 Rain 4 1000 86 10000 4.6 190 12:56 27.02.2020
1897 Rain 4 1001 80 10000 4.6 170 12:38 27.02.2020
1898 Rain 4 1001 80 10000 4.6 170 12:18 27.02.2020
1899 Rain 4 1002 72 10000 3.6 180 11:41 27.02.2020
1900 Clouds 4 1003 80 10000 4.6 190 11:22 27.02.2020
1901 Clouds 4 1005 80 10000 4.6 190 10:44 27.02.2020
1902 Clouds 4 1005 80 10000 4.6 190 10:24 27.02.2020
1903 Clouds 4 1005 80 10000 5.1 200 09:49 27.02.2020
1904 Clouds 3 1006 80 10000 5.7 200 09:30 27.02.2020
1905 Clouds 3 1006 80 10000 5.7 200 09:30 27.02.2020
1906 Clouds 3 1006 71 10000 5.7 190 08:59 27.02.2020
1907 Clouds 3 1006 71 10000 5.7 190 08:41 27.02.2020
1908 Clouds 3 1006 76 10000 7.2 200 08:22 27.02.2020
1909 Clouds 3 1006 86 10000 4.6 200 07:45 27.02.2020
1910 Clouds 3 1007 86 10000 5.1 210 07:25 27.02.2020
1911 Clouds 3 1007 76 10000 4.6 210 06:48 27.02.2020
1912 Clouds 3 1007 76 10000 4.6 200 05:58 27.02.2020
1913 Rain 2 1008 79 10000 3.6 200 04:21 27.02.2020
1914 Clouds 3 1008 69 10000 5.1 210 02:35 27.02.2020
1915 Clouds 3 1008 73 10000 5.7 220 00:47 27.02.2020
1916 Clouds 3 1008 73 10000 5.1 210 00:28 27.02.2020
1917 Clouds 3 1007 73 10000 5.1 220 23:40 26.02.2020
1918 Clouds 3 1007 67 10000 5.7 210 23:20 26.02.2020
1919 Clouds 3 1007 67 10000 5.7 210 22:58 26.02.2020
1920 Clouds 3 1007 67 10000 5.7 210 22:58 26.02.2020
1921 Clouds 3 1007 67 10000 5.7 210 22:39 26.02.2020
1922 -273 0 0 0 0 0 22:21 26.02.2020
1923 Clouds 3 1007 74 10000 5.7 210 21:57 26.02.2020
1924 Clouds 3 1006 74 10000 4.6 200 21:38 26.02.2020
1925 Clouds 3 1006 74 10000 4.6 200 21:19 26.02.2020
1926 Clouds 3 1006 69 10000 4.6 220 20:55 26.02.2020
1927 Clouds 3 1006 69 10000 4.6 220 20:37 26.02.2020
1928 Clouds 3 1006 65 10000 5.7 240 20:18 26.02.2020
1929 Clouds 3 1005 65 10000 5.7 230 19:47 26.02.2020
1930 Clouds 3 1005 65 10000 5.1 230 19:21 26.02.2020
1931 Clouds 3 1004 65 10000 7.2 250 18:59 26.02.2020
1932 Clouds 3 1004 65 10000 7.2 250 18:41 26.02.2020
1933 -273 0 0 0 0 0 18:41 26.02.2020
1934 Clouds 4 1004 60 10000 7.2 250 18:22 26.02.2020
1935 Clouds 4 1003 61 10000 6.2 250 17:59 26.02.2020
1936 Clouds 4 1003 65 10000 7.2 280 17:39 26.02.2020
1937 Clouds 4 1003 62 10000 7.7 260 17:18 26.02.2020
1938 Clouds 5 1003 70 10000 9.3 250 16:56 26.02.2020
1939 Clouds 5 1003 75 10000 5.7 280 16:37 26.02.2020
1940 Clouds 4 1003 75 10000 5.7 280 16:18 26.02.2020
1941 Rain 5 1002 75 10000 7.7 250 15:43 26.02.2020
1942 Drizzle 5 1001 75 10000 7.2 280 15:25 26.02.2020
1943 Rain 4 1001 62 10000 8.2 270 14:43 26.02.2020
1944 Rain 4 1000 66 10000 6.7 240 14:23 26.02.2020
1945 Rain 4 1000 66 10000 7.2 240 13:44 26.02.2020
1946 Rain 4 1000 65 10000 7.7 250 13:23 26.02.2020
1947 Clouds 4 999 88 10000 8.2 240 12:59 26.02.2020
1948 Rain 4 999 88 10000 8.2 240 12:38 26.02.2020
1949 Rain 4 999 88 10000 8.2 240 12:19 26.02.2020
1950 Clouds 3 998 88 10000 8.7 240 11:43 26.02.2020
1951 Clouds 3 998 69 10000 8.2 230 11:23 26.02.2020
1952 Rain 3 997 69 10000 9.8 230 10:59 26.02.2020
1953 Rain 3 997 65 10000 9.8 220 10:39 26.02.2020
1954 Rain 3 997 65 10000 9.8 220 10:21 26.02.2020
1955 Rain 4 997 65 10000 9.3 220 09:44 26.02.2020
1956 Rain 3 996 65 10000 9.3 220 09:25 26.02.2020
1957 Clouds 3 996 65 10000 9.3 220 08:59 26.02.2020
1958 Clouds 3 996 65 10000 7.2 220 08:38 26.02.2020
1959 Clouds 3 996 88 10000 7.2 220 08:19 26.02.2020
1960 Clouds 3 996 88 10000 6.7 210 07:45 26.02.2020
1961 Clouds 2 996 88 10000 6.7 210 07:26 26.02.2020
1962 Rain 2 996 88 10000 7.7 200 06:53 26.02.2020
1963 Rain 2 996 74 10000 8.2 240 06:34 26.02.2020
1964 Clouds 2 996 86 10000 7.2 200 05:53 26.02.2020
1965 Clouds 3 996 63 10000 5.1 240 05:28 26.02.2020
1966 Rain 3 996 93 10000 7.7 220 04:36 26.02.2020
1967 Rain 4 996 80 10000 6.2 240 02:33 26.02.2020
1968 Clouds 5 996 80 10000 3.1 180 01:49 26.02.2020
1969 Clouds 4 997 80 10000 4.6 200 00:51 26.02.2020
1970 Clouds 4 996 86 10000 3.6 200 00:27 26.02.2020
1971 Clouds 4 996 86 10000 3.6 200 00:27 26.02.2020
1972 Clouds 5 997 86 10000 6.2 250 23:59 25.02.2020
1973 Clouds 5 997 86 10000 6.2 250 23:38 25.02.2020
1974 Rain 5 997 87 10000 6.2 270 23:20 25.02.2020
1975 Rain 6 998 86 10000 4.1 300 22:43 25.02.2020
1976 Clouds 6 997 75 10000 7.2 220 22:20 25.02.2020
1977 Clouds 6 998 75 10000 7.7 220 21:58 25.02.2020
1978 Rain 6 998 75 10000 8.7 220 21:37 25.02.2020
1979 Rain 6 998 75 10000 8.7 220 21:19 25.02.2020
1980 Drizzle 7 998 70 10000 7.7 250 20:56 25.02.2020
1981 Drizzle 7 998 70 10000 7.7 250 20:37 25.02.2020
1982 Rain 7 999 70 10000 4.6 230 20:19 25.02.2020
1983 Clouds 6 999 75 10000 3.6 190 19:43 25.02.2020
1984 Clouds 6 999 75 10000 3.6 190 19:22 25.02.2020
1985 Clouds 6 999 81 10000 4.1 230 18:59 25.02.2020
1986 Rain 7 1000 81 10000 4.6 260 18:39 25.02.2020
1987 Rain 7 1000 81 10000 4.6 260 18:20 25.02.2020
1988 Clouds 8 1000 75 10000 2.6 270 17:55 25.02.2020
1989 Clouds 8 1000 75 10000 2.6 270 17:37 25.02.2020
1990 Rain 9 1000 61 10000 4.6 290 17:18 25.02.2020
1991 Rain 9 1000 57 10000 3.1 250 16:55 25.02.2020
1992 Rain 9 1000 57 10000 3.1 250 16:37 25.02.2020
1993 Rain 10 1000 50 10000 9.8 230 16:19 25.02.2020
1994 Clouds 9 1001 57 10000 9.8 230 15:45 25.02.2020
1995 Clouds 9 1001 57 10000 9.8 230 15:45 25.02.2020
1996 Clouds 9 1001 57 10000 9.8 230 15:20 25.02.2020
1997 Clouds 10 1001 66 10000 9.8 230 14:59 25.02.2020
1998 Clouds 9 1001 66 10000 8.7 230 14:39 25.02.2020
1999 Clouds 9 1001 66 10000 8.7 230 14:18 25.02.2020
2000 Clouds 9 1002 70 10000 8.2 260 13:58 25.02.2020
2001 Clouds 9 1002 70 10000 8.2 260 13:40 25.02.2020
2002 Rain 9 1002 76 10000 7.2 240 13:20 25.02.2020
2003 Rain 9 1002 81 10000 7.7 250 12:59 25.02.2020
2004 Rain 9 1002 76 10000 4.6 270 12:39 25.02.2020
2005 Rain 9 1003 76 10000 4.6 290 12:20 25.02.2020
2006 Rain 9 1003 93 10000 6.7 230 11:56 25.02.2020
2007 Rain 8 1003 93 10000 6.7 230 11:37 25.02.2020
2008 Rain 8 1003 87 10000 6.2 220 11:18 25.02.2020
2009 Clouds 8 1003 87 10000 4.6 240 10:42 25.02.2020
2010 Clouds 8 1003 93 10000 4.6 250 10:23 25.02.2020
2011 Clouds 8 1003 93 10000 7.2 250 09:56 25.02.2020
2012 Clouds 8 1003 93 10000 7.2 250 09:38 25.02.2020
2013 Rain 8 1003 93 10000 6.2 250 09:18 25.02.2020
2014 Rain 8 1003 81 10000 7.7 210 08:42 25.02.2020
2015 Rain 8 1003 87 10000 6.7 210 08:24 25.02.2020
2016 Rain 8 1003 87 10000 6.7 200 07:49 25.02.2020
2017 Clouds 8 1004 87 10000 7.2 210 07:24 25.02.2020
2018 Rain 8 1004 87 10000 7.2 210 06:56 25.02.2020
2019 Clouds 8 1004 87 10000 6.7 240 05:54 25.02.2020
2020 Rain 8 1004 93 10000 6.2 200 05:22 25.02.2020
2021 Rain 9 1006 93 10000 4.6 240 02:37 25.02.2020
2022 Rain 10 1008 71 10000 8.2 220 00:58 25.02.2020
2023 Rain 10 1008 71 10000 9.8 210 00:32 25.02.2020
2024 Rain 10 1008 66 10000 8.7 210 23:56 24.02.2020
2025 Clouds 10 1008 66 10000 5.7 230 23:37 24.02.2020
2026 Clouds 10 1008 66 10000 8.2 220 23:18 24.02.2020
2027 Rain 10 1009 71 10000 7.7 250 22:37 24.02.2020
2028 Clouds 10 1009 66 10000 9.3 220 22:18 24.02.2020
2029 Clouds 11 1009 62 10000 10.3 220 21:55 24.02.2020
2030 Clouds 11 1009 62 10000 9.8 220 21:37 24.02.2020
2031 Clouds 11 1009 62 10000 9.8 220 21:18 24.02.2020
2032 Clouds 11 1009 66 10000 9.3 220 20:55 24.02.2020
2033 Clouds 11 1010 66 10000 8.7 220 20:37 24.02.2020
2034 Clouds 11 1010 66 10000 8.7 220 20:18 24.02.2020
2035 Clouds 11 1010 66 10000 8.2 230 19:55 24.02.2020
2036 Clouds 11 1009 71 10000 10.8 220 19:37 24.02.2020
2037 Rain 11 1010 71 10000 9.8 250 19:19 24.02.2020
2038 Rain 11 1009 81 10000 7.7 210 18:41 24.02.2020
2039 Rain 10 1009 81 10000 7.7 210 18:23 24.02.2020
2040 Clouds 10 1010 87 10000 4.6 190 17:57 24.02.2020
2041 Clouds 10 1010 87 10000 4.6 190 17:38 24.02.2020
2042 Clouds 10 1011 93 10000 3.6 190 17:19 24.02.2020
2043 Clouds 9 1012 93 10000 4.6 190 16:55 24.02.2020
2044 Clouds 9 1012 100 10000 3.1 170 16:37 24.02.2020
2045 Rain 8 1012 100 10000 3.1 170 16:18 24.02.2020
2046 Rain 8 1013 93 9000 4.1 180 15:55 24.02.2020
2047 Rain 8 1013 93 9000 4.1 180 15:37 24.02.2020
2048 Rain 8 1014 93 4200 3.6 190 15:19 24.02.2020
2049 Mist 7 1015 100 5000 2.6 200 14:41 24.02.2020
2050 Mist 7 1016 100 5000 3.6 200 14:23 24.02.2020
2051 Drizzle 7 1017 93 4000 3.6 160 13:59 24.02.2020
2052 Mist 6 1018 100 8000 4.1 180 13:40 24.02.2020
2053 Drizzle 6 1018 100 3700 3.1 180 13:22 24.02.2020
2054 Rain 6 1019 100 4500 3.6 170 12:58 24.02.2020
2055 Rain 6 1019 100 4500 3.6 170 12:40 24.02.2020
2056 Rain 6 1020 93 4500 3.1 170 12:22 24.02.2020
2057 Drizzle 6 1020 87 9000 2.6 180 11:48 24.02.2020
2058 Clouds 6 1021 87 10000 2.1 170 11:29 24.02.2020
2059 Rain 6 1022 87 10000 4.1 210 10:51 24.02.2020
2060 Clouds 6 1022 81 10000 2.6 240 10:31 24.02.2020
2061 Clouds 6 1023 81 10000 2.1 220 09:58 24.02.2020
2062 Clouds 6 1023 81 10000 2.1 220 09:39 24.02.2020
2063 Clouds 6 1023 75 10000 2.1 150 09:19 24.02.2020
2064 Clouds 5 1023 75 10000 2.1 150 09:19 24.02.2020
2065 Clouds 5 1023 75 10000 2.61 195 08:48 24.02.2020
2066 Clouds 5 1024 80 10000 1 0 08:28 24.02.2020
2067 Clouds 5 1024 75 10000 1.5 220 07:54 24.02.2020
2068 Clouds 5 1024 70 10000 2.6 210 07:32 24.02.2020
2069 Clouds 5 1024 61 10000 3.1 250 06:50 24.02.2020
2070 Clouds 5 1024 70 10000 4.6 260 06:23 24.02.2020
2071 Clouds 5 1025 70 10000 4.1 260 05:44 24.02.2020
2072 Clouds 5 1024 75 10000 3.1 250 05:24 24.02.2020
2073 Clouds 5 1024 65 10000 3.6 310 02:57 24.02.2020
2074 Clouds 6 1024 65 10000 3.6 320 01:55 24.02.2020
2075 Clouds 6 1024 61 10000 4.1 300 01:30 24.02.2020
2076 Clouds 6 1024 61 10000 4.1 300 01:30 24.02.2020
2077 Clouds 7 1024 61 10000 4.6 280 00:44 24.02.2020
2078 Clouds 7 1023 61 10000 3.6 300 00:20 24.02.2020
2079 Clouds 7 1021 70 10000 4.1 310 23:42 23.02.2020
2080 Rain 7 1021 70 10000 4.1 310 23:24 23.02.2020
2081 Rain 8 1020 66 10000 6.7 300 22:59 23.02.2020
2082 Rain 8 1020 66 10000 6.7 300 22:41 23.02.2020
2083 Rain 8 1019 76 10000 8.2 300 22:21 23.02.2020
2084 Rain 8 1018 76 10000 8.2 300 21:55 23.02.2020
2085 Drizzle 9 1019 75 10000 6.7 310 21:36 23.02.2020
2086 Clouds 9 1018 76 10000 7.7 330 21:18 23.02.2020
2087 Rain 10 1016 76 7000 10.3 240 20:55 23.02.2020
2088 Rain 10 1017 81 10000 9.3 310 20:36 23.02.2020
2089 Clouds 11 1016 76 10000 10.8 270 20:18 23.02.2020
2090 Rain 12 1015 76 10000 9.3 270 19:41 23.02.2020
2091 Clouds 12 1014 71 10000 9.8 240 19:20 23.02.2020
2092 Clouds 12 1014 71 10000 11.8 240 18:59 23.02.2020
2093 Clouds 12 1014 71 10000 11.8 240 18:40 23.02.2020
2094 Clouds 12 1014 71 10000 12.9 240 18:20 23.02.2020
2095 Rain 12 1014 71 10000 11.8 240 17:58 23.02.2020
2096 Rain 12 1014 71 10000 11.8 240 17:40 23.02.2020
2097 Rain 12 1014 71 10000 11.8 230 17:21 23.02.2020
2098 Rain 12 1013 71 10000 12.3 230 16:56 23.02.2020
2099 Rain 12 1014 71 10000 12.9 230 16:38 23.02.2020
2100 Rain 12 1014 71 10000 12.9 230 16:19 23.02.2020
2101 Rain 12 1014 71 10000 12.9 230 15:54 23.02.2020
2102 Clouds 12 1014 71 10000 11.3 230 15:36 23.02.2020
2103 Clouds 12 1014 71 10000 11.3 230 15:18 23.02.2020
2104 Rain 12 1014 71 10000 11.8 220 14:55 23.02.2020
2105 Rain 12 1015 71 10000 11.8 220 14:37 23.02.2020
2106 Rain 12 1015 71 10000 11.8 220 14:18 23.02.2020
2107 Rain 12 1015 76 10000 11.3 220 13:54 23.02.2020
2108 Clouds 12 1015 76 10000 12.9 220 13:36 23.02.2020
2109 Clouds 12 1015 76 10000 12.9 220 13:18 23.02.2020
2110 Clouds 11 1016 81 10000 10.8 250 12:39 23.02.2020
2111 Clouds 11 1016 81 10000 10.8 250 12:20 23.02.2020
2112 Clouds 10 1016 87 10000 8.7 250 11:39 23.02.2020
2113 Clouds 10 1016 87 10000 8.7 250 11:20 23.02.2020
2114 Rain 10 1017 81 10000 10.3 220 10:58 23.02.2020
2115 Rain 10 1017 81 10000 10.3 220 10:40 23.02.2020
2116 Rain 10 1017 81 10000 10.8 220 10:22 23.02.2020
2117 Rain 9 1017 81 10000 12.3 210 09:56 23.02.2020
2118 Clouds 9 1018 81 10000 7.2 230 09:38 23.02.2020
2119 Clouds 9 1018 81 10000 7.2 220 09:18 23.02.2020
2120 Rain 9 1018 76 10000 7.2 220 08:46 23.02.2020
2121 Rain 9 1019 87 10000 6.7 200 08:25 23.02.2020
2122 Rain 9 1020 76 10000 8.2 210 07:47 23.02.2020
2123 Rain 9 1020 76 10000 7.7 210 07:28 23.02.2020
2124 Rain 9 1021 76 10000 7.7 210 06:25 23.02.2020
2125 Rain 9 1022 81 10000 6.2 210 05:34 23.02.2020
2126 Rain 9 1022 81 10000 7.7 210 04:23 23.02.2020
2127 Clouds 9 1023 81 10000 6.7 210 02:53 23.02.2020
2128 Rain 9 1023 81 10000 6.7 200 01:43 23.02.2020
2129 Rain 9 1024 71 10000 6.2 250 01:21 23.02.2020
2130 Rain 10 1023 71 10000 5.1 250 00:44 23.02.2020
2131 Clouds 10 1023 76 10000 7.7 200 00:23 23.02.2020
2132 Clouds 10 1023 71 10000 7.7 200 23:43 22.02.2020
2133 Clouds 10 1023 71 10000 7.7 200 23:24 22.02.2020
2134 Rain 10 1024 71 10000 7.2 200 22:46 22.02.2020
2135 Rain 10 1024 71 10000 7.2 200 22:46 22.02.2020
2136 Clouds 10 1024 66 10000 7.2 210 22:22 22.02.2020
2137 Clouds 10 1024 66 10000 7.7 220 21:59 22.02.2020
2138 Clouds 10 1024 66 10000 7.7 220 21:40 22.02.2020
2139 Clouds 10 1024 62 10000 7.7 230 21:21 22.02.2020
2140 Clouds 10 1024 62 10000 9.3 230 20:43 22.02.2020
2141 Clouds 10 1024 62 10000 9.3 230 20:24 22.02.2020
2142 Clouds 10 1024 62 10000 7.7 230 19:54 22.02.2020
2143 Clouds 10 1024 62 10000 7.7 230 19:54 22.02.2020
2144 Clouds 10 1024 62 10000 7.7 230 19:54 22.02.2020
2145 Clouds 10 1023 57 10000 6.7 220 19:36 22.02.2020
2146 Clouds 10 1023 57 10000 6.7 220 19:18 22.02.2020
2147 Clouds 10 1023 57 10000 6.7 220 19:18 22.02.2020
2148 Clouds 10 1023 53 10000 5.7 220 18:39 22.02.2020
2149 Clouds 10 1023 53 10000 5.7 220 18:21 22.02.2020
2150 Clouds 10 1023 53 10000 5.7 220 18:21 22.02.2020
2151 Clouds 10 1023 53 10000 5.7 220 18:21 22.02.2020
2152 Clouds 10 1023 53 10000 6.7 220 17:57 22.02.2020
2153 Clouds 10 1023 53 10000 7.7 220 17:38 22.02.2020
2154 Clouds 10 1023 53 10000 7.7 220 17:19 22.02.2020
2155 Clouds 10 1022 53 10000 8.2 220 16:57 22.02.2020
2156 Clouds 11 1022 53 10000 8.2 220 16:38 22.02.2020
2157 Clouds 11 1022 50 10000 8.7 210 16:19 22.02.2020
2158 Clouds 10 1023 53 10000 6.7 210 15:43 22.02.2020
2159 Clouds 10 1023 53 10000 6.7 210 15:24 22.02.2020
2160 Clouds 10 1023 53 10000 8.2 210 14:44 22.02.2020
2161 Rain 10 1023 57 10000 7.2 210 14:24 22.02.2020
2162 Rain 10 1023 57 10000 9.8 210 13:58 22.02.2020
2163 Clouds 10 1023 57 10000 9.8 210 13:40 22.02.2020
2164 Clouds 10 1023 53 10000 9.8 210 13:18 22.02.2020
2165 Clouds 10 1024 57 10000 8.7 210 12:44 22.02.2020
2166 Clouds 10 1025 57 10000 7.7 200 12:24 22.02.2020
2167 Clouds 10 1025 57 10000 7.7 200 12:24 22.02.2020
2168 Clouds 9 1025 57 10000 9.3 200 11:55 22.02.2020
2169 Clouds 9 1025 61 10000 8.7 210 11:36 22.02.2020
2170 Clouds 8 1025 61 10000 8.7 210 11:18 22.02.2020
2171 Clouds 7 1026 61 10000 8.2 210 10:40 22.02.2020
2172 Clouds 7 1026 70 10000 6.7 190 10:20 22.02.2020
2173 Clouds 6 1026 61 10000 6.7 200 09:58 22.02.2020
2174 Clouds 6 1026 61 10000 5.1 200 09:39 22.02.2020
2175 Clouds 5 1026 61 10000 5.1 200 09:20 22.02.2020
2176 Clouds 4 1026 61 10000 7.2 200 08:48 22.02.2020
2177 Clouds 4 1026 61 10000 7.2 210 08:28 22.02.2020
2178 Clouds 3 1025 73 10000 4.1 200 07:50 22.02.2020
2179 Clouds 3 1025 73 10000 5.1 200 07:20 22.02.2020
2180 Clouds 3 1025 73 10000 6.2 200 06:48 22.02.2020
2181 Clouds 3 1025 73 10000 6.2 200 06:29 22.02.2020
2182 Clear 3 1026 74 10000 5.1 190 04:33 22.02.2020
2183 Clear 3 1027 74 10000 3.6 200 03:24 22.02.2020
2184 Clear 3 1027 74 10000 4.6 190 02:33 22.02.2020
2185 Clouds 4 1027 75 10000 4.1 190 01:46 22.02.2020
2186 Clouds 4 1027 75 10000 4.1 190 01:27 22.02.2020
2187 Clouds 4 1027 72 10000 4.1 180 00:45 22.02.2020
2188 Clouds 4 1028 72 10000 3.6 190 00:27 22.02.2020
2189 Clouds 5 1028 72 10000 4.6 180 23:47 21.02.2020
2190 Clouds 5 1028 72 10000 5.7 190 23:23 21.02.2020
2191 Clouds 5 1028 67 10000 5.7 190 22:56 21.02.2020
2192 Clouds 5 1028 67 10000 5.7 190 22:38 21.02.2020
2193 Clouds 5 1028 67 10000 5.1 190 22:18 21.02.2020
2194 Clouds 6 1028 67 10000 4.6 200 21:42 21.02.2020
2195 Clouds 6 1028 67 10000 4.6 200 21:42 21.02.2020
2196 Clouds 6 1028 67 10000 5.1 200 21:24 21.02.2020
2197 Clouds 6 1028 67 10000 5.1 200 21:24 21.02.2020
2198 Clouds 6 1028 67 10000 4.6 210 20:50 21.02.2020
2199 Clouds 6 1028 67 10000 5.1 220 20:31 21.02.2020
2200 Clouds 6 1028 61 10000 5.7 220 19:59 21.02.2020
2201 Clouds 6 1028 61 10000 5.7 220 19:39 21.02.2020
2202 Clouds 7 1028 61 10000 5.7 210 19:19 21.02.2020
2203 Clouds 7 1028 61 10000 4.6 220 18:40 21.02.2020
2204 Clouds 7 1028 61 10000 4.6 220 18:22 21.02.2020
2205 Clouds 7 1028 61 10000 5.7 220 17:55 21.02.2020
2206 Clouds 8 1028 61 10000 6.2 240 17:36 21.02.2020
2207 Clouds 8 1028 50 10000 6.2 240 17:18 21.02.2020
2208 Clouds 8 1028 50 10000 5.7 240 16:41 21.02.2020
2209 Clouds 8 1028 50 10000 7.7 230 16:22 21.02.2020
2210 Clouds 8 1028 50 10000 6.2 220 15:57 21.02.2020
2211 Clouds 8 1028 50 10000 6.2 220 15:38 21.02.2020
2212 Clouds 8 1028 50 10000 6.2 220 15:18 21.02.2020
2213 Clouds 8 1028 50 10000 6.2 220 15:18 21.02.2020
2214 Clouds 8 1029 50 10000 7.2 240 14:42 21.02.2020
2215 Clouds 8 1029 52 10000 7.7 240 14:21 21.02.2020
2216 Clouds 8 1029 51 10000 6.7 240 13:59 21.02.2020
2217 Clouds 8 1029 56 10000 8.2 240 13:39 21.02.2020
2218 Clouds 8 1029 56 10000 8.2 240 13:20 21.02.2020
2219 Clouds 8 1029 53 10000 6.7 230 12:43 21.02.2020
2220 Clouds 8 1029 53 10000 6.2 240 12:24 21.02.2020
2221 Clouds 7 1029 53 10000 7.2 250 11:56 21.02.2020
2222 Clouds 7 1029 53 10000 7.2 250 11:37 21.02.2020
2223 Clouds 6 1029 61 10000 6.7 240 11:19 21.02.2020
2224 Clouds 5 1028 61 10000 7.2 240 10:42 21.02.2020
2225 Clouds 5 1028 61 10000 7.2 240 10:42 21.02.2020
2226 Clouds 5 1028 61 10000 7.2 240 10:22 21.02.2020
2227 Clouds 5 1028 61 10000 7.2 230 09:58 21.02.2020
2228 Clouds 4 1028 61 10000 5.1 220 09:39 21.02.2020
2229 Clouds 4 1028 61 10000 5.1 220 09:20 21.02.2020
2230 Clouds 4 1028 74 10000 5.7 230 08:55 21.02.2020
2231 Clouds 3 1027 74 10000 5.7 210 08:36 21.02.2020
2232 Clouds 2 1027 74 10000 5.7 210 08:18 21.02.2020
2233 Clouds 2 1027 80 10000 4.1 230 07:41 21.02.2020
2234 Clouds 2 1026 80 10000 4.6 220 07:21 21.02.2020
2235 Clouds 3 1026 65 10000 4.6 200 06:56 21.02.2020
2236 Clouds 3 1025 65 10000 5.1 200 06:33 21.02.2020
2237 Clouds 3 1025 65 10000 5.7 210 05:56 21.02.2020
2238 Clouds 3 1024 65 10000 6.2 210 05:30 21.02.2020
2239 Clouds 3 1024 65 10000 6.2 210 05:30 21.02.2020
2240 Clouds 3 1023 59 10000 4.1 220 04:26 21.02.2020
2241 Clouds 4 1022 59 10000 5.1 250 03:47 21.02.2020
2242 Rain 4 1021 75 10000 7.2 270 02:59 21.02.2020
2243 Rain 5 1019 80 10000 8.7 260 01:43 21.02.2020
2244 Rain 5 1018 80 10000 7.7 290 01:22 21.02.2020
2245 Rain 6 1015 81 10000 11.3 270 00:39 21.02.2020
2246 Rain 6 1015 81 10000 11.3 270 00:20 21.02.2020
2247 Rain 7 1015 81 10000 11.8 300 23:42 20.02.2020
2248 Rain 7 1014 75 10000 7.7 220 23:22 20.02.2020
2249 Rain 8 1014 75 10000 7.2 250 22:42 20.02.2020
2250 Rain 8 1014 61 10000 8.7 210 22:24 20.02.2020
2251 Rain 8 1014 61 10000 5.1 240 21:58 20.02.2020
2252 Rain 9 1014 61 10000 5.1 240 21:40 20.02.2020
2253 Clouds 8 1014 61 10000 9.3 210 21:20 20.02.2020
2254 Clouds 8 1014 61 10000 8.2 210 20:57 20.02.2020
2255 Clouds 8 1014 61 10000 8.2 210 20:39 20.02.2020
2256 Clouds 8 1015 61 10000 8.2 200 20:20 20.02.2020
2257 Clouds 8 1015 66 10000 7.2 200 19:59 20.02.2020
2258 Clouds 8 1015 66 10000 7.2 200 19:41 20.02.2020
2259 Clouds 8 1016 66 10000 7.7 200 19:23 20.02.2020
2260 Clouds 8 1016 61 10000 7.7 200 18:58 20.02.2020
2261 Clouds 8 1016 66 10000 6.7 200 18:37 20.02.2020
2262 Clouds 8 1016 66 10000 6.7 200 18:19 20.02.2020
2263 Rain 8 1017 66 10000 6.7 210 17:39 20.02.2020
2264 Rain 8 1017 66 10000 6.7 210 17:39 20.02.2020
2265 Rain 9 1017 61 10000 8.2 210 17:20 20.02.2020
2266 Clouds 9 1017 61 10000 8.2 210 16:58 20.02.2020
2267 Clouds 9 1017 61 10000 8.7 220 16:39 20.02.2020
2268 Clouds 9 1017 61 10000 8.7 220 16:19 20.02.2020
2269 Clouds 9 1017 70 10000 8.2 220 15:57 20.02.2020
2270 Rain 9 1017 66 10000 8.7 220 15:39 20.02.2020
2271 Rain 9 1017 66 10000 8.7 220 15:20 20.02.2020
2272 Rain 9 1018 66 10000 7.2 250 14:54 20.02.2020
2273 Rain 9 1018 81 10000 6.7 220 14:36 20.02.2020
2274 Clouds 9 1018 66 10000 5.7 230 14:18 20.02.2020
2275 Rain 9 1018 87 10000 4.6 200 13:42 20.02.2020
2276 Rain 8 1019 81 10000 6.7 200 13:19 20.02.2020
2277 Clouds 8 1019 87 10000 5.1 220 12:43 20.02.2020
2278 Rain 8 1020 93 10000 5.1 190 12:22 20.02.2020
2279 Rain 7 1020 87 10000 6.7 190 11:59 20.02.2020
2280 Clouds 7 1020 87 10000 5.7 200 11:41 20.02.2020
2281 Clouds 7 1020 87 10000 5.7 200 11:22 20.02.2020
2282 Rain 7 1020 81 10000 3.6 180 10:57 20.02.2020
2283 Rain 7 1020 81 10000 4.1 210 10:39 20.02.2020
2284 Clouds 6 1021 87 10000 4.1 190 10:20 20.02.2020
2285 Clouds 6 1021 87 10000 4.6 180 09:46 20.02.2020
2286 Clouds 6 1021 81 10000 4.6 180 09:25 20.02.2020
2287 Rain 6 1021 81 10000 4.1 180 08:59 20.02.2020
2288 Rain 6 1021 81 10000 4.1 180 08:38 20.02.2020
2289 Rain 5 1021 81 10000 4.1 190 08:20 20.02.2020
2290 Clouds 5 1021 81 10000 4.1 190 07:45 20.02.2020
2291 Rain 5 1021 86 10000 4.1 190 07:23 20.02.2020
2292 Rain 5 1021 80 10000 4.1 180 06:53 20.02.2020
2293 Clouds 5 1021 80 10000 4.1 180 06:27 20.02.2020
2294 Clouds 5 1021 80 10000 4.6 180 05:46 20.02.2020
2295 Clouds 5 1021 80 10000 4.6 180 04:55 20.02.2020
2296 Clouds 5 1021 75 10000 4.1 180 04:19 20.02.2020
2297 Clouds 5 1022 75 10000 4.1 180 03:30 20.02.2020
2298 Clouds 4 1022 80 10000 4.6 200 02:26 20.02.2020
2299 Clouds 4 1023 83 10000 5.1 180 01:18 20.02.2020
2300 Clouds 3 1023 74 10000 3.1 200 00:34 20.02.2020
2301 Clouds 3 1023 74 10000 4.1 170 23:52 19.02.2020
2302 Clouds 3 1023 74 10000 2.6 180 23:23 19.02.2020
2303 Clouds 3 1024 74 10000 3.6 170 22:56 19.02.2020
2304 Clouds 3 1024 80 10000 3.6 150 22:38 19.02.2020
2305 Clouds 3 1024 80 10000 3.6 150 22:20 19.02.2020
2306 Clouds 3 1023 69 10000 2.1 180 21:55 19.02.2020
2307 Clouds 3 1023 69 10000 2.6 180 21:37 19.02.2020
2308 Clouds 3 1023 69 10000 2.6 180 21:18 19.02.2020
2309 Clouds 4 1024 64 10000 2.1 170 20:55 19.02.2020
2310 Clouds 4 1023 60 10000 2.1 200 20:36 19.02.2020
2311 Clouds 4 1023 60 10000 2.1 200 20:18 19.02.2020
2312 Clouds 5 1024 56 10000 3.1 230 19:54 19.02.2020
2313 Clouds 5 1024 56 10000 3.1 210 19:36 19.02.2020
2314 Clouds 5 1024 56 10000 3.1 210 19:18 19.02.2020
2315 Clouds 6 1023 56 10000 3.6 230 18:55 19.02.2020
2316 Clouds 6 1023 56 10000 3.6 230 18:37 19.02.2020
2317 Clouds 6 1023 52 10000 4.1 230 18:37 19.02.2020
2318 Clouds 6 1023 52 10000 4.1 230 18:19 19.02.2020
2319 Clouds 6 1022 52 10000 7.2 260 17:42 19.02.2020
2320 Clouds 7 1022 49 10000 5.7 250 17:19 19.02.2020
2321 Clouds 7 1022 49 10000 6.2 250 16:44 19.02.2020
2322 Clouds 8 1022 49 10000 8.2 270 16:20 19.02.2020
2323 Clouds 8 1022 45 10000 6.7 260 15:58 19.02.2020
2324 Clouds 8 1021 49 10000 7.2 270 15:39 19.02.2020
2325 Clouds 8 1021 49 10000 7.2 270 15:20 19.02.2020
2326 Clouds 8 1021 49 10000 6.2 240 14:55 19.02.2020
2327 Clouds 8 1021 49 10000 5.7 260 14:36 19.02.2020
2328 Clouds 7 1021 49 10000 5.7 260 14:18 19.02.2020
2329 Clouds 7 1021 45 10000 7.2 270 13:41 19.02.2020
2330 Rain 7 1020 49 9000 7.7 310 13:20 19.02.2020
2331 Rain 7 1020 47 10000 8.2 270 12:42 19.02.2020
2332 Rain 7 1020 56 10000 9.8 280 12:19 19.02.2020
2333 Rain 7 1019 65 10000 5.7 270 11:58 19.02.2020
2334 Clouds 7 1019 70 10000 5.1 260 11:37 19.02.2020
2335 Clouds 6 1019 70 10000 5.1 260 11:19 19.02.2020
2336 Rain 6 1019 75 10000 7.2 260 10:57 19.02.2020
2337 Rain 5 1019 75 10000 7.2 260 10:38 19.02.2020
2338 Rain 5 1018 80 10000 4.6 290 10:19 19.02.2020
2339 Rain 5 1018 70 6000 8.7 270 09:57 19.02.2020
2340 Rain 5 1017 75 10000 8.2 280 09:37 19.02.2020
2341 Rain 5 1017 75 10000 8.2 280 09:18 19.02.2020
2342 Rain 5 1017 75 10000 8.2 280 09:18 19.02.2020
2343 Rain 5 1017 75 10000 8.2 280 09:18 19.02.2020
2344 Rain 5 1017 75 10000 7.2 240 08:45 19.02.2020
2345 Rain 5 1016 75 10000 7.7 250 08:24 19.02.2020
2346 Clouds 5 1015 81 10000 7.2 230 07:42 19.02.2020
2347 Rain 5 1015 87 10000 5.7 230 07:21 19.02.2020
2348 Clouds 6 1015 87 10000 4.6 270 06:53 19.02.2020
2349 Rain 6 1015 87 10000 8.7 210 06:27 19.02.2020
2350 Rain 6 1016 70 10000 6.7 220 04:24 19.02.2020
2351 Clouds 6 1018 75 10000 6.7 200 02:58 19.02.2020
2352 Clouds 6 1019 75 10000 7.2 200 02:31 19.02.2020
2353 Clouds 6 1020 75 10000 3.6 220 01:24 19.02.2020
2354 Clouds 6 1020 70 10000 6.2 190 00:51 19.02.2020
2355 Clouds 6 1020 70 10000 6.2 190 00:51 19.02.2020
2356 Clouds 6 1020 70 10000 6.2 190 00:51 19.02.2020
2357 Clouds 6 1021 70 10000 5.1 190 00:32 19.02.2020
2358 Clouds 6 1021 70 10000 3.1 230 23:56 18.02.2020
2359 Clouds 6 1022 70 10000 5.1 200 23:37 18.02.2020
2360 Clouds 6 1022 70 10000 5.1 200 23:19 18.02.2020
2361 Clouds 6 1022 70 10000 5.1 200 22:43 18.02.2020
2362 Clouds 6 1023 65 10000 5.1 240 22:20 18.02.2020
2363 Clouds 6 1023 70 10000 5.7 200 21:58 18.02.2020
2364 Clouds 6 1023 70 10000 5.7 200 21:38 18.02.2020
2365 Clouds 6 1023 70 10000 5.1 200 21:19 18.02.2020
2366 Clouds 6 1023 70 10000 5.1 200 20:58 18.02.2020
2367 Clouds 6 1024 75 10000 3.6 200 20:38 18.02.2020
2368 Clouds 6 1024 75 10000 3.6 200 20:20 18.02.2020
2369 Clouds 6 1024 81 10000 3.1 200 19:56 18.02.2020
2370 Rain 6 1024 61 10000 4.6 210 19:37 18.02.2020
2371 Rain 7 1024 61 10000 4.6 210 19:18 18.02.2020
2372 Rain 7 1024 61 10000 5.7 260 18:41 18.02.2020
2373 Clouds 7 1024 61 10000 6.7 220 18:21 18.02.2020
2374 Clouds 7 1024 61 10000 6.2 220 17:57 18.02.2020
2375 Clouds 7 1024 61 10000 7.2 210 17:38 18.02.2020
2376 Clouds 8 1024 61 10000 7.2 210 17:19 18.02.2020
2377 Clouds 8 1024 61 10000 8.2 230 16:40 18.02.2020
2378 Clouds 8 1024 61 10000 8.2 230 16:40 18.02.2020
2379 Clouds 8 1024 57 10000 8.2 230 16:21 18.02.2020
2380 Clouds 8 1024 57 10000 8.7 230 15:42 18.02.2020
2381 Clouds 8 1025 55 10000 9.8 230 15:21 18.02.2020
2382 Clouds 8 1025 61 10000 7.2 230 14:59 18.02.2020
2383 Clouds 8 1025 61 10000 7.2 230 14:41 18.02.2020
2384 Clouds 8 1025 61 10000 9.3 230 14:21 18.02.2020
2385 Clouds 8 1025 61 10000 9.3 240 13:59 18.02.2020
2386 Clouds 8 1025 61 10000 8.7 230 13:40 18.02.2020
2387 Clouds 8 1025 61 10000 8.7 230 13:21 18.02.2020
2388 Clouds 8 1026 61 10000 7.7 230 12:44 18.02.2020
2389 Clouds 8 1026 61 10000 7.7 230 12:25 18.02.2020
2390 Clouds 8 1026 61 10000 8.7 220 11:56 18.02.2020
2391 Rain 7 1026 65 10000 8.7 220 11:38 18.02.2020
2392 Rain 7 1026 65 10000 8.7 220 11:20 18.02.2020
2393 Rain 7 1026 65 10000 8.2 220 10:44 18.02.2020
2394 Clouds 7 1025 65 10000 9.8 220 10:23 18.02.2020
2395 Clouds 6 1025 70 10000 8.7 220 09:57 18.02.2020
2396 Clouds 6 1025 70 10000 8.7 220 09:38 18.02.2020
2397 Rain 6 1025 75 10000 8.2 220 09:20 18.02.2020
2398 Rain 6 1025 75 10000 8.2 210 08:57 18.02.2020
2399 Rain 6 1025 75 10000 8.2 210 08:38 18.02.2020
2400 Clouds 6 1024 75 10000 8.2 210 08:19 18.02.2020
2401 Clouds 6 1024 70 10000 7.7 210 07:48 18.02.2020
2402 Clouds 6 1023 70 10000 6.7 200 07:25 18.02.2020
2403 Clouds 6 1023 70 10000 6.2 210 06:55 18.02.2020
2404 Clouds 6 1023 70 10000 6.7 200 06:29 18.02.2020
2405 Clouds 6 1023 75 10000 5.7 190 05:48 18.02.2020
2406 -273 0 0 0 0 0 05:21 18.02.2020
2407 Clouds 6 1022 75 10000 5.7 200 03:52 18.02.2020
2408 Clouds 7 1022 81 10000 5.1 190 02:58 18.02.2020
2409 Clouds 7 1021 75 10000 7.7 210 01:27 18.02.2020
2410 Rain 7 1021 75 10000 6.7 260 00:43 18.02.2020
2411 Rain 7 1020 75 10000 7.7 210 00:18 18.02.2020
2412 Drizzle 7 1020 81 10000 3.6 220 23:39 17.02.2020
2413 Rain 7 1020 81 10000 3.6 230 23:20 17.02.2020
2414 Clouds 7 1019 87 10000 5.1 180 22:58 17.02.2020
2415 Clouds 6 1019 87 10000 2.6 200 22:40 17.02.2020
2416 Clouds 6 1019 87 10000 2.6 200 22:18 17.02.2020
2417 Clouds 6 1018 93 10000 2.1 190 21:39 17.02.2020
2418 Clouds 6 1018 93 10000 2.1 190 21:19 17.02.2020
2419 Clouds 6 1018 93 10000 2.6 190 20:57 17.02.2020
2420 Rain 6 1018 93 10000 3.6 240 20:38 17.02.2020
2421 Rain 6 1018 93 10000 3.6 240 20:19 17.02.2020
2422 Rain 6 1018 87 10000 8.2 270 19:43 17.02.2020
2423 Rain 7 1017 76 10000 6.2 200 19:22 17.02.2020
2424 Rain 7 1017 76 10000 6.2 200 19:22 17.02.2020
2425 Clouds 8 1017 76 10000 6.2 190 18:58 17.02.2020
2426 Clouds 8 1016 76 10000 6.2 190 18:37 17.02.2020
2427 Clouds 8 1017 70 10000 5.7 220 18:18 17.02.2020
2428 Clouds 8 1016 76 10000 6.7 190 17:54 17.02.2020
2429 Clouds 9 1016 71 10000 6.2 200 17:36 17.02.2020
2430 Clouds 9 1016 71 10000 6.2 200 17:18 17.02.2020
2431 Clouds 9 1016 71 10000 6.2 210 16:43 17.02.2020
2432 Clouds 9 1016 76 10000 6.2 210 16:22 17.02.2020
2433 Clouds 9 1016 76 10000 6.2 210 15:58 17.02.2020
2434 Clouds 9 1016 76 10000 6.2 200 15:40 17.02.2020
2435 Clouds 9 1016 76 10000 6.2 200 15:21 17.02.2020
2436 Clouds 9 1016 81 10000 5.1 190 14:44 17.02.2020
2437 Clouds 8 1016 87 10000 4.1 190 14:26 17.02.2020
2438 Rain 8 1017 87 10000 4.1 190 13:58 17.02.2020
2439 Rain 8 1017 87 10000 4.1 190 13:39 17.02.2020
2440 Clouds 8 1017 75 10000 6.7 250 13:19 17.02.2020
2441 Rain 8 1017 87 10000 3.1 180 12:47 17.02.2020
2442 Rain 8 1017 87 10000 3.1 180 12:47 17.02.2020
2443 Clouds 8 1017 81 10000 2.6 180 12:26 17.02.2020
2444 Clouds 8 1017 75 10000 3.1 200 11:59 17.02.2020
2445 Clouds 8 1017 75 10000 3.1 200 11:41 17.02.2020
2446 Rain 8 1017 70 10000 3.1 180 11:22 17.02.2020
2447 Rain 8 1017 70 10000 3.6 180 10:56 17.02.2020
2448 Rain 8 1017 70 10000 3.6 180 10:37 17.02.2020
2449 Rain 8 1017 70 10000 3.6 200 10:19 17.02.2020
2450 Rain 8 1017 70 10000 3.6 200 10:19 17.02.2020
2451 Clouds 8 1017 70 10000 3.6 210 09:42 17.02.2020
2452 Clouds 8 1016 75 10000 4.1 200 09:23 17.02.2020
2453 Clouds 8 1017 75 10000 5.1 200 08:59 17.02.2020
2454 Clouds 8 1016 70 10000 3.6 190 08:41 17.02.2020
2455 Clouds 8 1016 70 10000 3.6 190 08:22 17.02.2020
2456 Clouds 8 1016 70 10000 5.1 200 07:55 17.02.2020
2457 Clouds 8 1016 76 10000 4.6 190 07:26 17.02.2020
2458 Clouds 8 1016 76 10000 4.6 200 06:56 17.02.2020
2459 Clouds 8 1016 70 10000 3.6 210 06:36 17.02.2020
2460 Clouds 8 1016 70 10000 3.6 210 06:18 17.02.2020
2461 Clouds 8 1015 70 10000 5.1 230 05:38 17.02.2020
2462 Rain 9 1015 76 10000 6.2 220 03:55 17.02.2020
2463 Rain 10 1013 76 10000 3.1 250 02:37 17.02.2020
2464 Clouds 12 1010 55 10000 7.7 210 00:59 17.02.2020
2465 Clouds 13 1009 55 10000 8.2 220 00:25 17.02.2020
2466 Clouds 14 1009 55 10000 7.7 200 23:56 16.02.2020
2467 Clouds 14 1009 51 10000 10.8 200 23:36 16.02.2020
2468 Rain 15 1009 51 10000 10.8 200 23:18 16.02.2020
2469 Rain 14 1008 51 10000 11.3 210 22:54 16.02.2020
2470 Rain 14 1008 48 10000 12.3 210 22:36 16.02.2020
2471 Rain 15 1008 48 10000 12.3 210 22:18 16.02.2020
2472 Rain 14 1008 51 10000 8.2 220 21:42 16.02.2020
2473 Clouds 15 1008 45 10000 10.3 200 21:24 16.02.2020
2474 Clouds 15 1009 45 10000 7.7 200 20:58 16.02.2020
2475 Clouds 15 1009 48 10000 7.7 200 20:40 16.02.2020
2476 Clouds 15 1009 48 10000 7.7 200 20:40 16.02.2020
2477 Clouds 15 1009 48 10000 7.7 200 20:40 16.02.2020
2478 Clouds 15 1009 48 10000 7.7 200 20:22 16.02.2020
2479 Clouds 15 1009 42 10000 7.7 200 19:59 16.02.2020
2480 Clear 14 1009 47 10000 6.7 230 19:40 16.02.2020
2481 Clouds 15 1009 42 10000 8.7 200 19:19 16.02.2020
2482 Clouds 15 1009 42 10000 10.8 210 18:59 16.02.2020
2483 Clouds 15 1009 42 10000 10.8 210 18:40 16.02.2020
2484 Rain 15 1009 42 10000 11.8 210 18:22 16.02.2020
2485 Rain 15 1009 42 10000 11.8 210 17:44 16.02.2020
2486 Rain 16 1009 39 10000 10.3 210 17:20 16.02.2020
2487 Clouds 16 1009 42 10000 8.7 200 16:57 16.02.2020
2488 Clouds 16 1009 42 10000 11.3 210 16:39 16.02.2020
2489 Clouds 16 1009 42 10000 11.3 210 16:21 16.02.2020
2490 Clouds 16 1010 45 10000 8.2 210 15:56 16.02.2020
2491 Clouds 16 1010 45 10000 8.2 210 15:37 16.02.2020
2492 Clouds 16 1010 45 10000 7.2 190 15:18 16.02.2020
2493 Clouds 16 1010 47 10000 7.7 200 14:39 16.02.2020
2494 Clouds 15 1010 47 10000 7.7 200 14:21 16.02.2020
2495 Clouds 15 1011 50 10000 7.7 200 13:46 16.02.2020
2496 Clouds 14 1011 50 10000 8.2 200 13:24 16.02.2020
2497 Clouds 14 1012 50 10000 8.2 200 12:56 16.02.2020
2498 Clouds 14 1012 54 10000 6.7 200 12:38 16.02.2020
2499 Clouds 13 1012 54 10000 6.7 200 12:19 16.02.2020
2500 Clouds 13 1013 54 10000 7.2 190 11:39 16.02.2020
2501 Clouds 12 1013 62 10000 6.2 180 11:18 16.02.2020
2502 Clouds 12 1014 62 10000 5.7 200 10:56 16.02.2020
2503 Clouds 12 1014 62 10000 6.2 200 10:38 16.02.2020
2504 Clouds 12 1014 62 10000 6.2 200 10:20 16.02.2020
2505 Clouds 11 1014 62 10000 6.7 200 09:57 16.02.2020
2506 Clouds 11 1014 62 10000 7.7 200 09:37 16.02.2020
2507 Clouds 11 1014 62 10000 7.7 200 09:19 16.02.2020
2508 Clouds 11 1014 62 10000 7.2 200 08:46 16.02.2020
2509 Clouds 10 1014 62 10000 7.2 200 08:21 16.02.2020
2510 Clouds 10 1014 62 10000 3.6 200 07:55 16.02.2020
2511 Clouds 10 1014 66 10000 5.1 190 07:34 16.02.2020
2512 Clouds 9 1015 66 10000 4.6 200 06:35 16.02.2020
2513 Clouds 9 1015 70 10000 3.1 200 04:57 16.02.2020
2514 Clouds 9 1016 66 10000 4.6 190 03:34 16.02.2020
2515 Clouds 9 1016 66 10000 3.6 200 02:35 16.02.2020
2516 Clouds 8 1016 61 10000 3.1 190 01:57 16.02.2020
2517 Clouds 9 1017 61 10000 3.6 180 01:37 16.02.2020
2518 Clouds 9 1017 61 10000 3.6 180 01:18 16.02.2020
2519 Clouds 8 1017 70 10000 3.1 190 00:41 16.02.2020
2520 Clouds 8 1017 70 10000 3.1 190 00:21 16.02.2020
2521 Clouds 8 1017 70 10000 4.6 200 23:42 15.02.2020
2522 Clouds 8 1017 70 10000 4.6 220 23:24 15.02.2020
2523 Clouds 8 1017 70 10000 4.1 200 22:56 15.02.2020
2524 Clouds 8 1017 70 10000 4.1 200 22:38 15.02.2020
2525 Clouds 8 1018 70 10000 2.6 190 22:19 15.02.2020
2526 Clouds 7 1018 86 10000 2.6 200 21:43 15.02.2020
2527 Clouds 7 1018 70 10000 2.6 200 21:43 15.02.2020
2528 Clouds 7 1018 86 10000 2.6 200 21:24 15.02.2020
2529 Clouds 7 1018 75 10000 2.1 180 20:56 15.02.2020
2530 Clouds 7 1018 86 10000 1 0 20:37 15.02.2020
2531 Clouds 7 1018 86 10000 1 0 20:19 15.02.2020
2532 Clouds 7 1019 75 10000 1 0 19:41 15.02.2020
2533 Clouds 7 1019 75 10000 1 0 19:22 15.02.2020
2534 Clouds 8 1019 75 10000 1.5 150 18:41 15.02.2020
2535 Clouds 8 1019 70 10000 3.1 160 18:21 15.02.2020
2536 Clouds 8 1020 66 10000 3.1 180 17:56 15.02.2020
2537 Clouds 8 1020 66 10000 4.1 170 17:37 15.02.2020
2538 Clouds 9 1020 66 10000 4.1 170 17:19 15.02.2020
2539 Clouds 10 1020 66 10000 4.6 170 16:41 15.02.2020
2540 Clouds 10 1021 66 10000 5.1 190 16:23 15.02.2020
2541 Clouds 10 1020 62 10000 5.7 190 15:56 15.02.2020
2542 Clouds 10 1020 62 10000 5.7 190 15:38 15.02.2020
2543 Rain 11 1020 66 10000 5.7 190 15:20 15.02.2020
2544 Rain 10 1021 66 10000 4.6 190 14:43 15.02.2020
2545 Clouds 10 1021 66 10000 4.6 190 14:18 15.02.2020
2546 Clouds 10 1022 70 10000 1.5 190 13:43 15.02.2020
2547 Clouds 9 1022 66 10000 4.6 190 13:25 15.02.2020
2548 Clouds 9 1023 75 10000 4.6 190 12:59 15.02.2020
2549 Clouds 9 1023 75 10000 4.6 190 12:40 15.02.2020
2550 Clouds 8 1023 75 10000 4.1 190 12:22 15.02.2020
2551 Clouds 7 1024 81 10000 2.1 180 11:47 15.02.2020
2552 Clouds 7 1024 81 10000 2.1 180 11:47 15.02.2020
2553 Clouds 7 1024 87 10000 1.5 220 11:27 15.02.2020
2554 Clouds 6 1024 93 10000 2.1 210 10:51 15.02.2020
2555 Clouds 5 1024 93 8000 1.5 200 10:30 15.02.2020
2556 Fog 4 1024 100 400 2.68 191 09:58 15.02.2020
2557 Fog 4 1024 100 400 2.68 191 09:39 15.02.2020
2558 Fog 4 1024 100 400 2.68 191 09:39 15.02.2020
2559 Fog 3 1024 100 400 2.68 191 09:21 15.02.2020
2560 Clouds 3 1017 92 0 2.68 191 08:43 15.02.2020
2561 Fog 2 1024 80 5000 1 0 08:25 15.02.2020
2562 Fog 2 1024 92 3500 1 210 07:56 15.02.2020
2563 Fog 2 1024 92 3500 1 210 07:56 15.02.2020
2564 Fog 2 1024 92 3000 0.5 0 07:34 15.02.2020
2565 Fog 2 1024 92 3000 0.5 200 06:58 15.02.2020
2566 Fog 3 1024 92 10000 1 230 06:36 15.02.2020
2567 Fog 3 1024 92 10000 1 0 05:46 15.02.2020
2568 Clouds 3 1024 100 10000 0.5 0 04:46 15.02.2020
2569 Clouds 3 1024 100 10000 0.5 160 03:43 15.02.2020
2570 Clouds 3 1025 93 10000 0.5 0 02:52 15.02.2020
2571 Clouds 3 1025 100 10000 1 0 02:23 15.02.2020
2572 Clouds 3 1025 100 10000 0.5 0 01:41 15.02.2020
2573 Clouds 4 1026 93 10000 1 270 00:56 15.02.2020
2574 Clouds 4 1026 86 10000 1.5 220 00:26 15.02.2020
2575 Clouds 5 1026 86 10000 1.5 260 23:44 14.02.2020
2576 Clouds 5 1026 86 10000 1 210 23:20 14.02.2020
2577 Clouds 5 1026 86 10000 1 0 22:54 14.02.2020
2578 Clouds 5 1026 80 10000 1 0 22:36 14.02.2020
2579 Clouds 5 1026 80 10000 1 0 22:18 14.02.2020
2580 Clouds 5 1026 86 10000 0.5 0 21:40 14.02.2020
2581 Clouds 5 1026 86 10000 0.5 310 21:21 14.02.2020
2582 Clouds 5 1025 80 10000 1.5 190 20:44 14.02.2020
2583 Clouds 5 1025 80 10000 1.5 200 20:20 14.02.2020
2584 Clouds 5 1025 81 10000 2.1 160 19:57 14.02.2020
2585 Clouds 6 1025 70 10000 2.6 180 19:38 14.02.2020
2586 Clouds 6 1025 70 10000 2.6 180 19:19 14.02.2020
2587 Clouds 6 1024 70 10000 2.1 170 18:56 14.02.2020
2588 Clouds 6 1024 70 10000 1 0 18:38 14.02.2020
2589 Clouds 6 1024 70 10000 1 0 18:18 14.02.2020
2590 Clouds 7 1024 65 10000 1.5 240 17:42 14.02.2020
2591 Clouds 7 1023 65 10000 3.1 260 17:20 14.02.2020
2592 Clouds 7 1023 65 10000 4.6 290 16:57 14.02.2020
2593 Clouds 7 1023 65 10000 4.6 290 16:39 14.02.2020
2594 Clouds 8 1023 65 10000 5.1 250 16:21 14.02.2020
2595 Clouds 8 1023 65 10000 4.6 240 15:56 14.02.2020
2596 Clouds 8 1023 65 10000 4.6 260 15:37 14.02.2020
2597 Clouds 8 1023 65 10000 4.6 260 15:37 14.02.2020
2598 Clouds 8 1023 65 10000 4.6 240 15:37 14.02.2020
2599 Clouds 8 1023 65 10000 4.6 260 15:37 14.02.2020
2600 Clouds 7 1023 65 10000 4.6 260 15:19 14.02.2020
2601 Clouds 7 1022 65 10000 5.7 250 14:57 14.02.2020
2602 Rain 7 1022 70 10000 6.7 250 14:38 14.02.2020
2603 Rain 7 1022 70 10000 6.7 250 14:20 14.02.2020
2604 Clouds 7 1022 65 10000 5.7 250 13:40 14.02.2020
2605 Clouds 7 1022 65 10000 5.1 250 13:21 14.02.2020
2606 Clouds 7 1021 65 10000 6.2 250 12:58 14.02.2020
2607 Clouds 7 1021 65 10000 6.2 260 12:40 14.02.2020
2608 Clouds 7 1021 65 10000 6.2 260 12:21 14.02.2020
2609 Rain 7 1021 65 10000 6.2 260 11:59 14.02.2020
2610 Rain 7 1021 65 10000 6.2 260 11:41 14.02.2020
2611 Clouds 7 1020 70 10000 5.7 260 11:20 14.02.2020
2612 Clouds 7 1020 70 10000 6.2 260 10:56 14.02.2020
2613 Clouds 7 1019 81 10000 4.6 230 10:37 14.02.2020
2614 Clouds 6 1019 81 10000 4.6 230 10:19 14.02.2020
2615 Clouds 6 1019 81 10000 5.1 230 09:42 14.02.2020
2616 Clouds 6 1018 81 10000 5.1 220 09:21 14.02.2020
2617 Rain 5 1017 87 10000 4.6 200 08:55 14.02.2020
2618 Clouds 5 1016 87 10000 4.1 190 08:37 14.02.2020
2619 Clouds 5 1016 87 10000 4.1 190 08:18 14.02.2020
2620 Clouds 5 1016 87 10000 3.1 200 07:43 14.02.2020
2621 Clouds 5 1015 87 10000 4.1 210 07:24 14.02.2020
2622 Clouds 5 1014 87 10000 4.1 230 06:32 14.02.2020
2623 Clouds 5 1013 81 10000 4.6 240 05:48 14.02.2020
2624 Clouds 5 1012 87 10000 4.6 210 05:25 14.02.2020
2625 Clouds 6 1010 81 10000 5.1 250 03:31 14.02.2020
2626 Drizzle 6 1009 75 10000 6.7 280 02:42 14.02.2020
2627 Rain 6 1007 93 10000 5.1 240 01:50 14.02.2020
2628 Rain 5 1005 100 10000 2.6 270 00:44 14.02.2020
2629 Rain 5 1005 100 10000 2.6 270 00:44 14.02.2020
2630 Rain 5 1004 93 10000 4.6 210 00:24 14.02.2020
2631 Rain 5 1004 93 10000 6.5 266 23:52 13.02.2020
2632 Drizzle 5 1003 93 10000 6.5 266 23:23 13.02.2020
2633 Rain 5 1002 93 10000 5.1 180 22:59 13.02.2020
2634 Clouds 5 1002 100 10000 2.6 160 22:38 13.02.2020
2635 Clouds 5 1002 100 10000 2.6 160 22:19 13.02.2020
2636 Rain 4 1002 93 8000 3.6 170 21:43 13.02.2020
2637 Rain 4 1002 93 10000 3.6 180 21:24 13.02.2020
2638 Rain 4 1002 86 10000 5.1 190 20:58 13.02.2020
2639 Rain 4 1002 86 10000 5.1 190 20:40 13.02.2020
2640 Clouds 5 1002 80 10000 3.6 200 20:22 13.02.2020
2641 Clouds 4 1002 80 10000 3.6 200 19:57 13.02.2020
2642 Clouds 4 1002 81 10000 3.1 180 19:37 13.02.2020
2643 Clouds 4 1002 81 10000 3.1 180 19:19 13.02.2020
2644 Clouds 4 1002 86 10000 5.7 190 18:56 13.02.2020
2645 Clouds 5 1002 87 10000 6.7 200 18:37 13.02.2020
2646 Clouds 5 1002 87 10000 6.7 200 18:19 13.02.2020
2647 Clouds 5 1002 87 10000 5.1 200 17:57 13.02.2020
2648 Clouds 5 1001 86 10000 2.1 90 17:37 13.02.2020
2649 Rain 4 1001 93 0 3.1 190 17:18 13.02.2020
2650 Clouds 4 1002 93 10000 3.6 180 16:42 13.02.2020
2651 Clouds 4 1002 93 10000 3.6 180 16:21 13.02.2020
2652 Rain 4 1003 86 10000 4.1 180 15:57 13.02.2020
2653 Clouds 4 1003 86 10000 3.6 190 15:39 13.02.2020
2654 Clouds 4 1003 86 10000 3.6 190 15:19 13.02.2020
2655 Rain 4 1004 86 6000 4.6 190 14:59 13.02.2020
2656 Rain 4 1004 86 6000 4.6 190 14:40 13.02.2020
2657 -273 0 0 0 0 0 14:21 13.02.2020
2658 Rain 5 1005 80 10000 2.6 160 13:48 13.02.2020
2659 Rain 5 1006 63 10000 2.6 190 13:20 13.02.2020
2660 Clouds 5 1007 63 10000 2.6 160 12:58 13.02.2020
2661 Clouds 5 1007 63 10000 2.6 160 12:40 13.02.2020
2662 Clouds 5 1008 70 10000 5.1 160 12:22 13.02.2020
2663 Clouds 4 1009 75 10000 4.1 170 11:57 13.02.2020
2664 Clouds 4 1010 80 10000 2.6 170 11:39 13.02.2020
2665 Clouds 4 1010 80 10000 2.6 170 11:18 13.02.2020
2666 Clouds 3 1010 86 10000 2.1 70 10:43 13.02.2020
2667 Clouds 2 1011 93 10000 1 0 10:23 13.02.2020
2668 Clouds 2 1012 74 10000 2.6 70 09:46 13.02.2020
2669 Clouds 1 1013 74 10000 2.6 80 09:24 13.02.2020
2670 Fog 1 1013 100 10000 0.5 0 08:47 13.02.2020
2671 Fog 0 1014 89 10000 1 310 08:20 13.02.2020
2672 Clouds 0 1015 100 10000 2.45 187 07:44 13.02.2020
2673 Clouds 0 1015 100 10000 2.45 187 07:44 13.02.2020
2674 Clouds 0 1015 88 10000 0.5 0 07:24 13.02.2020
2675 Clouds 0 1015 88 10000 0.5 0 07:24 13.02.2020
2676 Clouds 0 1016 88 10000 2.45 187 06:56 13.02.2020
2677 Clouds 0 1016 88 10000 0.5 0 06:38 13.02.2020
2678 Clouds 0 1017 88 10000 2.1 240 05:56 13.02.2020
2679 Clouds 0 1017 85 10000 2.77 203 04:50 13.02.2020
2680 Clouds 0 1018 100 10000 1.5 260 04:24 13.02.2020
2681 Clouds 0 1018 92 10000 1 230 03:45 13.02.2020
2682 Clouds 1 1018 85 10000 0.5 0 02:59 13.02.2020
2683 Clouds 1 1019 85 10000 2.1 180 02:37 13.02.2020
2684 Clouds 1 1019 77 10000 2.1 180 02:18 13.02.2020
2685 Clouds 1 1019 80 10000 1.5 160 01:27 13.02.2020
2686 Clouds 1 1020 80 10000 1.5 110 00:32 13.02.2020
2687 Clouds 1 1019 80 10000 2.1 190 23:58 12.02.2020
2688 Clouds 1 1019 86 10000 1 0 23:37 12.02.2020
2689 Clouds 1 1019 86 10000 1 0 23:18 12.02.2020
2690 Clouds 1 1019 74 10000 2.1 130 22:44 12.02.2020
2691 Clouds 1 1019 74 10000 2.6 150 22:24 12.02.2020
2692 Clouds 1 1019 74 10000 3.6 150 21:57 12.02.2020
2693 Clouds 2 1019 74 10000 3.6 150 21:39 12.02.2020
2694 Clouds 2 1019 74 10000 4.1 140 21:19 12.02.2020
2695 Clouds 2 1019 74 10000 4.1 190 20:55 12.02.2020
2696 Clouds 2 1018 74 10000 5.1 220 20:37 12.02.2020
2697 Clouds 2 1018 66 10000 5.1 220 20:18 12.02.2020
2698 Clouds 3 1018 66 10000 5.1 220 19:44 12.02.2020
2699 Clouds 3 1018 80 10000 6.2 230 19:23 12.02.2020
2700 Clouds 3 1017 80 10000 6.7 230 18:54 12.02.2020
2701 Clouds 3 1017 80 10000 7.2 230 18:36 12.02.2020
2702 Clouds 3 1017 80 10000 7.2 230 18:18 12.02.2020
2703 Clouds 4 1017 80 10000 6.7 220 17:42 12.02.2020
2704 Clouds 4 1017 75 10000 6.7 230 17:20 12.02.2020
2705 Clouds 5 1017 75 10000 6.2 230 16:58 12.02.2020
2706 Clouds 5 1017 80 10000 5.7 230 16:37 12.02.2020
2707 Clouds 4 1017 80 10000 5.7 230 16:18 12.02.2020
2708 Clouds 5 1017 83 10000 8.2 260 15:41 12.02.2020
2709 Clouds 5 1017 86 10000 8.2 260 15:20 12.02.2020
2710 Rain 6 1016 70 10000 7.7 230 14:57 12.02.2020
2711 Rain 6 1016 70 10000 7.7 230 14:39 12.02.2020
2712 Rain 6 1016 70 10000 6.7 240 14:19 12.02.2020
2713 Rain 6 1016 56 10000 7.2 250 13:56 12.02.2020
2714 Rain 6 1016 56 10000 7.2 250 13:56 12.02.2020
2715 Rain 6 1016 77 10000 7.2 250 13:37 12.02.2020
2716 Clouds 6 1016 75 10000 8.2 240 13:19 12.02.2020
2717 Rain 6 1016 86 10000 6.2 230 12:56 12.02.2020
2718 Rain 5 1017 93 10000 7.7 260 12:37 12.02.2020
2719 Rain 5 1017 93 10000 7.7 260 12:18 12.02.2020
2720 Rain 5 1017 77 10000 6.7 290 11:55 12.02.2020
2721 Rain 5 1017 77 10000 6.7 290 11:37 12.02.2020
2722 Rain 5 1016 86 10000 7.7 260 11:19 12.02.2020
2723 Clouds 5 1016 70 10000 9.8 240 10:54 12.02.2020
2724 Clouds 5 1016 86 10000 9.3 240 10:36 12.02.2020
2725 Clouds 4 1016 86 10000 9.3 240 10:18 12.02.2020
2726 Rain 4 1015 86 10000 8.2 230 09:41 12.02.2020
2727 Rain 4 1015 86 10000 8.7 230 09:41 12.02.2020
2728 Rain 4 1015 86 10000 8.2 230 09:21 12.02.2020
2729 Rain 4 1015 86 10000 8.2 230 09:21 12.02.2020
2730 Rain 4 1015 86 10000 7.7 220 08:57 12.02.2020
2731 Clouds 4 1015 86 10000 9.8 220 08:37 12.02.2020
2732 Clouds 3 1015 65 10000 9.8 220 08:19 12.02.2020
2733 Clouds 3 1014 65 10000 8.2 220 07:44 12.02.2020
2734 Clouds 3 1014 65 10000 8.2 220 07:23 12.02.2020
2735 Clouds 3 1014 69 10000 8.2 220 06:53 12.02.2020
2736 Clouds 3 1014 69 10000 8.7 220 06:23 12.02.2020
2737 Clouds 3 1014 69 10000 7.7 220 05:38 12.02.2020
2738 Clouds 3 1014 69 10000 7.2 220 04:58 12.02.2020
2739 Clouds 3 1014 69 10000 7.2 220 04:39 12.02.2020
2740 Clouds 3 1014 69 10000 8.2 230 03:33 12.02.2020
2741 Clouds 3 1014 74 10000 7.2 220 02:58 12.02.2020
2742 Clouds 3 1014 69 10000 5.7 220 02:30 12.02.2020
2743 Rain 3 1013 69 10000 8.2 230 01:51 12.02.2020
2744 Clouds 3 1013 60 10000 7.7 230 00:46 12.02.2020
2745 Clouds 3 1013 60 10000 8.2 230 00:26 12.02.2020
2746 Clouds 3 1013 69 10000 6.7 230 23:58 11.02.2020
2747 Clouds 3 1013 69 10000 6.7 230 23:40 11.02.2020
2748 Clouds 3 1013 60 10000 7.7 240 23:22 11.02.2020
2749 Clouds 3 1012 60 10000 7.7 240 22:55 11.02.2020
2750 Clouds 3 1012 60 10000 8.2 240 22:37 11.02.2020
2751 Clouds 3 1012 60 10000 8.2 240 22:19 11.02.2020
2752 Rain 3 1011 60 10000 10.3 240 21:56 11.02.2020
2753 Rain 3 1011 60 10000 11.8 240 21:37 11.02.2020
2754 Rain 3 1011 60 10000 11.8 240 21:18 11.02.2020
2755 Rain 3 1011 60 10000 11.8 240 21:18 11.02.2020
2756 Rain 3 1011 65 10000 9.8 230 20:55 11.02.2020
2757 Rain 3 1010 57 10000 8.2 230 20:37 11.02.2020
2758 Rain 3 1010 58 10000 8.2 230 20:18 11.02.2020
2759 Clouds 3 1010 52 10000 8.2 220 19:42 11.02.2020
2760 Clouds 4 1010 52 10000 11.3 230 19:24 11.02.2020
2761 Clouds 4 1010 52 10000 11.3 230 19:24 11.02.2020
2762 Clouds 4 1009 52 10000 6.2 230 18:57 11.02.2020
2763 Clouds 4 1009 52 10000 6.2 230 18:39 11.02.2020
2764 Clouds 5 1009 52 10000 8.2 230 18:20 11.02.2020
2765 Rain 5 1009 52 10000 8.7 230 17:55 11.02.2020
2766 Rain 5 1009 52 10000 8.7 250 17:36 11.02.2020
2767 Rain 5 1009 58 10000 8.7 250 17:18 11.02.2020
2768 Rain 5 1009 75 10000 10.3 250 16:57 11.02.2020
2769 Clouds 5 1008 58 10000 7.7 270 16:37 11.02.2020
2770 Rain 5 1008 70 10000 5.7 270 16:19 11.02.2020
2771 Clouds 6 1008 58 10000 3.1 320 15:45 11.02.2020
2772 Drizzle 6 1008 56 10000 8.7 320 15:26 11.02.2020
2773 Rain 7 1008 49 10000 11.8 250 14:58 11.02.2020
2774 Clouds 7 1008 52 10000 9.8 250 14:39 11.02.2020
2775 Clouds 7 1008 52 10000 9.8 250 14:18 11.02.2020
2776 Clouds 7 1007 60 10000 5.7 290 13:42 11.02.2020
2777 Clouds 6 1007 60 10000 5.7 290 13:22 11.02.2020
2778 Rain 7 1008 60 10000 9.3 310 12:59 11.02.2020
2779 Rain 7 1008 60 10000 9.3 310 12:40 11.02.2020
2780 Clouds 7 1008 49 10000 12.9 250 12:21 11.02.2020
2781 Clouds 7 1007 52 10000 11.8 250 11:55 11.02.2020
2782 Clouds 7 1008 40 10000 8.2 240 11:37 11.02.2020
2783 Clouds 7 1008 40 10000 8.2 240 11:37 11.02.2020
2784 Clouds 6 1008 54 10000 8.2 240 11:18 11.02.2020
2785 Clouds 6 1007 54 10000 9.3 280 10:39 11.02.2020
2786 Rain 5 1007 65 10000 13.9 250 10:20 11.02.2020
2787 Clouds 5 1007 54 10000 9.3 240 09:57 11.02.2020
2788 Clouds 5 1007 69 10000 7.7 260 09:39 11.02.2020
2789 Clouds 5 1007 69 10000 7.7 260 09:21 11.02.2020
2790 Clouds 5 1006 60 10000 6.7 230 08:49 11.02.2020
2791 Clouds 5 1006 60 10000 3.6 270 08:25 11.02.2020
2792 Clouds 5 1006 60 10000 3.6 270 08:25 11.02.2020
2793 Clouds 4 1006 60 10000 4.1 310 07:54 11.02.2020
2794 Clouds 4 1006 60 10000 4.1 310 07:54 11.02.2020
2795 Clouds 5 1005 56 10000 9.3 240 07:33 11.02.2020
2796 Clouds 4 1005 60 10000 6.7 220 06:57 11.02.2020
2797 Rain 5 1005 60 10000 9.3 240 06:38 11.02.2020
2798 Rain 5 1005 60 10000 9.3 240 06:20 11.02.2020
2799 Clouds 5 1005 56 10000 10.3 230 05:41 11.02.2020
2800 Clouds 5 1004 56 10000 9.3 240 05:20 11.02.2020
2801 Clouds 5 1002 52 10000 11.3 260 03:32 11.02.2020
2802 Clouds 5 1001 52 10000 9.8 260 02:38 11.02.2020
2803 Rain 6 1000 53 10000 13.4 250 01:53 11.02.2020
2804 Rain 6 999 61 10000 10.3 240 01:30 11.02.2020
2805 Clouds 6 998 65 10000 11.8 240 00:26 11.02.2020
2806 Rain 7 998 61 10000 13.4 230 23:48 10.02.2020
2807 Rain 7 998 65 10000 11.8 230 23:30 10.02.2020
2808 Clouds 7 999 70 10000 8.7 220 22:58 10.02.2020
2809 Clouds 7 999 75 10000 9.8 210 22:37 10.02.2020
2810 Clouds 7 999 75 10000 9.8 210 22:37 10.02.2020
2811 Clouds 6 999 75 10000 9.8 210 22:19 10.02.2020
2812 Rain 6 999 81 10000 10.8 210 21:41 10.02.2020
2813 Rain 6 999 75 10000 11.3 210 21:23 10.02.2020
2814 Rain 6 1000 81 10000 8.2 210 20:56 10.02.2020
2815 Rain 6 1000 81 10000 8.2 210 20:38 10.02.2020
2816 Rain 6 1001 87 10000 4.6 190 20:20 10.02.2020
2817 Rain 6 1001 87 10000 3.1 200 19:58 10.02.2020
2818 Rain 6 1003 87 10000 4.1 220 19:38 10.02.2020
2819 Rain 6 1003 87 10000 4.1 220 19:18 10.02.2020
2820 Rain 6 1004 87 10000 8.2 220 18:58 10.02.2020
2821 Rain 6 1005 75 10000 5.7 220 18:39 10.02.2020
2822 Rain 7 1005 75 10000 5.7 220 18:20 10.02.2020
2823 Rain 7 1005 75 10000 7.2 230 17:56 10.02.2020
2824 Clouds 7 1006 65 10000 10.3 230 17:37 10.02.2020
2825 Clouds 7 1006 65 10000 10.3 230 17:19 10.02.2020
2826 Clouds 7 1006 65 10000 10.3 230 17:19 10.02.2020
2827 Rain 8 1006 57 10000 11.3 240 16:58 10.02.2020
2828 Rain 8 1006 57 10000 11.3 240 16:38 10.02.2020
2829 Rain 8 1005 52 10000 15.4 240 16:19 10.02.2020
2830 Rain 8 1005 66 10000 6.2 240 15:55 10.02.2020
2831 Rain 8 1006 65 10000 17.5 250 15:37 10.02.2020
2832 Rain 8 1006 65 10000 17.5 250 15:18 10.02.2020
2833 Rain 8 1005 57 10000 14.9 250 14:55 10.02.2020
2834 Rain 8 1005 57 10000 14.9 250 14:36 10.02.2020
2835 Clouds 8 1005 61 10000 9.3 270 14:18 10.02.2020
2836 Clouds 7 1005 75 10000 6.7 290 13:42 10.02.2020
2837 Clouds 7 1005 75 10000 6.7 290 13:23 10.02.2020
2838 Rain 8 1004 65 10000 12.9 290 12:48 10.02.2020
2839 Rain 9 1003 50 10000 14.9 250 12:26 10.02.2020
2840 Rain 9 1003 53 10000 11.3 250 11:56 10.02.2020
2841 Rain 8 1003 53 10000 13.9 270 11:38 10.02.2020
2842 Rain 8 1002 61 10000 12.3 250 11:19 10.02.2020
2843 Rain 8 1002 70 10000 9.8 250 10:46 10.02.2020
2844 Rain 8 1001 75 10000 12.9 260 10:27 10.02.2020
2845 Rain 7 1001 81 10000 14.4 280 09:48 10.02.2020
2846 Rain 8 999 57 10000 12.9 290 09:26 10.02.2020
2847 Rain 8 997 66 10000 9.3 240 08:57 10.02.2020
2848 Clouds 8 998 81 10000 3.6 270 08:37 10.02.2020
2849 Rain 8 997 76 10000 6.2 230 08:19 10.02.2020
2850 Rain 8 996 76 10000 9.8 250 07:50 10.02.2020
2851 Rain 8 996 87 10000 10.3 230 07:27 10.02.2020
2852 Rain 8 995 76 10000 9.8 230 06:23 10.02.2020
2853 Rain 9 995 76 10000 10.8 270 04:46 10.02.2020
2854 Rain 8 995 87 10000 6.7 270 03:52 10.02.2020
2855 Rain 11 994 66 10000 18 220 02:56 10.02.2020
2856 Clouds 12 994 71 10000 13.9 250 02:35 10.02.2020
2857 Clouds 12 997 62 10000 14.4 210 00:55 10.02.2020
2858 Clouds 12 998 58 10000 12.3 210 00:37 10.02.2020
2859 Clouds 12 998 58 10000 13.4 210 23:58 09.02.2020
2860 Clouds 12 1000 58 10000 11.3 210 23:40 09.02.2020
2861 Clouds 13 1000 58 10000 11.3 210 23:22 09.02.2020
2862 Rain 12 1000 58 10000 12.3 210 22:43 09.02.2020
2863 Clouds 13 1001 58 10000 12.3 210 22:21 09.02.2020
2864 Clouds 13 1001 54 10000 14.9 210 21:54 09.02.2020
2865 Rain 13 1002 54 10000 13.9 210 21:36 09.02.2020
2866 Rain 13 1002 54 10000 13.9 210 21:18 09.02.2020
2867 Clouds 13 1003 54 10000 12.9 210 20:43 09.02.2020
2868 Clouds 12 1003 54 10000 13.9 210 20:20 09.02.2020
2869 Clouds 12 1004 50 10000 12.3 210 19:54 09.02.2020
2870 Clouds 12 1005 54 10000 14.4 220 19:36 09.02.2020
2871 Clouds 12 1005 54 10000 14.4 220 19:18 09.02.2020
2872 Clouds 12 1006 54 10000 12.9 210 18:41 09.02.2020
2873 Clouds 12 1006 62 10000 9.3 200 18:23 09.02.2020
2874 Clouds 12 1007 62 10000 5.1 200 17:43 09.02.2020
2875 Clouds 11 1008 58 10000 6.7 200 17:23 09.02.2020
2876 Clouds 12 1008 54 10000 9.3 200 16:57 09.02.2020
2877 Clouds 12 1009 62 10000 7.7 190 16:39 09.02.2020
2878 Clouds 12 1009 62 10000 7.7 190 16:20 09.02.2020
2879 Clouds 12 1011 62 10000 7.2 190 15:57 09.02.2020
2880 Clouds 12 1011 62 10000 7.2 190 15:57 09.02.2020
2881 Clouds 12 1011 62 10000 7.2 200 15:39 09.02.2020
2882 Clouds 12 1011 62 10000 7.2 200 15:20 09.02.2020
2883 Clouds 12 1012 58 10000 7.7 190 14:55 09.02.2020
2884 Clouds 12 1013 58 10000 10.8 200 14:36 09.02.2020
2885 Clouds 12 1013 58 10000 10.8 200 14:18 09.02.2020
2886 Clouds 12 1014 62 10000 6.7 200 13:41 09.02.2020
2887 Clouds 11 1014 62 10000 6.7 200 13:21 09.02.2020
2888 Clouds 11 1016 66 10000 6.7 200 12:54 09.02.2020
2889 Clouds 11 1016 66 10000 7.2 220 12:36 09.02.2020
2890 Clouds 10 1017 66 10000 7.2 200 12:18 09.02.2020
2891 Clouds 9 1018 70 10000 6.2 190 11:39 09.02.2020
2892 Clouds 7 1018 70 10000 6.2 190 11:19 09.02.2020
2893 Clouds 6 1018 80 10000 3.6 190 10:43 09.02.2020
2894 Clouds 5 1018 80 10000 3.6 190 10:23 09.02.2020
2895 Clouds 5 1018 100 10000 2.1 240 09:57 09.02.2020
2896 Clouds 5 1019 93 10000 5.45 204 09:38 09.02.2020
2897 Clouds 5 1019 93 10000 5.45 204 09:20 09.02.2020
2898 Clear 4 1020 81 10000 2.1 80 08:41 09.02.2020
2899 Clouds 2 1020 100 8000 1 0 08:23 09.02.2020
2900 Clouds 2 1020 89 10000 0.5 0 07:52 09.02.2020
2901 Clouds 2 1021 89 10000 0.5 0 07:30 09.02.2020
2902 Clouds 2 1021 89 10000 0.5 0 06:38 09.02.2020
2903 Clouds 2 1021 92 10000 1.5 90 05:55 09.02.2020
2904 Clouds 2 1021 92 10000 1.5 40 05:34 09.02.2020
2905 Clouds 1 1021 100 10000 1.5 150 04:49 09.02.2020
2906 Clouds 2 1022 100 10000 0.5 0 02:58 09.02.2020
2907 Clouds 2 1022 100 10000 0.5 0 02:38 09.02.2020
2908 Clouds 2 1022 73 10000 1 0 01:44 09.02.2020
2909 Clouds 2 1023 100 10000 1.5 250 01:19 09.02.2020
2910 Clouds 2 1023 78 10000 0.5 0 00:38 09.02.2020
2911 Clouds 2 1023 78 10000 1.5 110 00:18 09.02.2020
2912 Clouds 2 1023 78 10000 1 0 23:41 08.02.2020
2913 Clouds 3 1023 68 10000 2.1 150 23:19 08.02.2020
2914 Clouds 3 1023 68 10000 1.5 180 22:40 08.02.2020
2915 Clouds 3 1023 86 10000 0.5 0 22:21 08.02.2020
2916 Clouds 4 1023 86 10000 1.5 200 21:54 08.02.2020
2917 Clouds 4 1023 86 10000 1.5 240 21:36 08.02.2020
2918 Clouds 4 1023 86 10000 1.5 240 21:18 08.02.2020
2919 Clouds 4 1023 86 10000 1.5 170 20:54 08.02.2020
2920 Clouds 4 1023 86 10000 0.5 0 20:36 08.02.2020
2921 Clouds 4 1023 86 10000 0.5 0 20:18 08.02.2020
2922 Clouds 4 1023 80 10000 0.5 230 19:40 08.02.2020
2923 Clouds 4 1023 80 10000 1 240 19:20 08.02.2020
2924 Clouds 4 1023 80 10000 1 0 18:58 08.02.2020
2925 Clouds 4 1023 80 10000 1 0 18:39 08.02.2020
2926 Clouds 4 1023 80 10000 1 0 18:21 08.02.2020
2927 Clouds 5 1023 80 10000 1.5 300 17:42 08.02.2020
2928 Clouds 5 1023 75 10000 2.1 290 17:21 08.02.2020
2929 Clouds 5 1023 57 10000 2.1 280 16:57 08.02.2020
2930 Clouds 5 1023 75 10000 1.5 280 16:38 08.02.2020
2931 Clouds 5 1023 75 10000 1.5 280 16:19 08.02.2020
2932 Clouds 5 1023 70 10000 1.5 220 15:41 08.02.2020
2933 Clouds 5 1023 70 10000 1.5 220 15:19 08.02.2020
2934 Clouds 5 1024 57 10000 1.5 210 14:57 08.02.2020
2935 Clouds 5 1024 57 10000 1.5 210 14:39 08.02.2020
2936 Clouds 5 1024 60 10000 1 0 14:18 08.02.2020
2937 Clouds 5 1024 60 10000 0.5 250 13:43 08.02.2020
2938 Clouds 4 1024 58 10000 0.5 250 13:23 08.02.2020
2939 Clouds 4 1024 69 10000 1.5 240 12:54 08.02.2020
2940 Clouds 4 1025 58 10000 2.1 210 12:36 08.02.2020
2941 Clouds 4 1025 58 10000 2.1 210 12:18 08.02.2020
2942 Clouds 3 1025 80 10000 0.5 0 11:41 08.02.2020
2943 Clouds 2 1025 80 10000 0.5 0 11:21 08.02.2020
2944 Clouds 2 1025 86 10000 1 150 10:43 08.02.2020
2945 Clouds 1 1025 66 10000 1 0 10:25 08.02.2020
2946 Clouds 1 1025 66 10000 0.5 0 09:55 08.02.2020
2947 Clouds 0 1024 92 10000 1 170 09:30 08.02.2020
2948 Clouds -1 1024 92 10000 1 230 08:59 08.02.2020
2949 Clouds -1 1024 92 10000 1 230 08:39 08.02.2020
2950 Clouds -2 1024 100 10000 1 0 08:21 08.02.2020
2951 Clouds -2 1024 92 10000 0.5 130 07:50 08.02.2020
2952 Clouds -2 1024 92 10000 1 0 07:32 08.02.2020
2953 Clouds -2 1024 92 10000 1 0 06:41 08.02.2020
2954 Clouds -2 1024 92 10000 0.5 0 06:18 08.02.2020
2955 Clouds -2 1024 92 10000 1.5 10 05:33 08.02.2020
2956 Clear -2 1024 92 10000 1.5 10 04:53 08.02.2020
2957 Clear -2 1024 92 10000 1 0 04:24 08.02.2020
2958 Clear -1 1024 86 10000 1.5 10 03:35 08.02.2020
2959 Clear -1 1024 73 10000 1 0 02:28 08.02.2020
2960 Clear -1 1025 86 10000 1 0 01:31 08.02.2020
2961 Clear -1 1025 86 10000 2.6 60 00:46 08.02.2020
2962 Clear 0 1025 71 10000 1.5 20 00:25 08.02.2020
2963 Clear 0 1025 71 10000 2.6 10 23:58 07.02.2020
2964 Clear 0 1025 71 10000 3.6 50 23:39 07.02.2020
2965 Clear 0 1025 67 10000 3.6 50 23:20 07.02.2020
2966 Clear 1 1025 80 10000 3.6 60 22:42 07.02.2020
2967 Clear 1 1025 80 10000 3.6 60 22:42 07.02.2020
2968 Clear 1 1025 80 10000 4.1 60 22:20 07.02.2020
2969 Clear 1 1025 80 10000 4.1 60 21:58 07.02.2020
2970 Clear 1 1025 80 10000 4.1 60 21:40 07.02.2020
2971 Clear 1 1025 74 10000 4.6 50 21:19 07.02.2020
2972 Clear 1 1025 80 10000 4.1 60 20:39 07.02.2020
2973 Clear 2 1026 74 10000 4.6 60 20:20 07.02.2020
2974 Clear 2 1026 74 10000 4.1 50 19:55 07.02.2020
2975 Clear 2 1026 74 10000 4.1 60 19:37 07.02.2020
2976 Clear 2 1026 74 10000 4.1 60 19:18 07.02.2020
2977 Clear 2 1026 74 10000 5.1 60 18:44 07.02.2020
2978 Clear 3 1026 65 10000 3.6 60 18:25 07.02.2020
2979 Clear 4 1026 60 10000 5.1 80 17:55 07.02.2020
2980 Clear 4 1026 60 10000 5.1 90 17:37 07.02.2020
2981 Clear 5 1026 60 10000 5.1 90 17:19 07.02.2020
2982 Clear 5 1026 60 10000 4.6 100 16:46 07.02.2020
2983 Clear 6 1026 56 10000 5.1 100 16:23 07.02.2020
2984 Clear 6 1026 56 10000 5.1 80 15:55 07.02.2020
2985 Clear 6 1027 56 10000 4.6 90 15:29 07.02.2020
2986 Clear 6 1027 56 10000 5.7 90 14:57 07.02.2020
2987 Clear 6 1027 60 10000 5.7 80 14:38 07.02.2020
2988 Clear 6 1027 60 10000 5.7 80 14:19 07.02.2020
2989 Clear 6 1028 60 10000 5.7 80 13:57 07.02.2020
2990 Clear 5 1028 65 10000 6.2 70 13:38 07.02.2020
2991 Clear 5 1028 65 10000 6.2 70 13:38 07.02.2020
2992 Clear 5 1028 65 10000 6.2 70 13:20 07.02.2020
2993 Clear 5 1029 69 10000 5.1 80 12:42 07.02.2020
2994 Clear 5 1029 69 10000 5.1 80 12:24 07.02.2020
2995 Clear 4 1029 69 10000 5.1 70 11:58 07.02.2020
2996 Clear 3 1029 74 10000 5.1 60 11:39 07.02.2020
2997 Clear 3 1029 74 10000 5.1 60 11:18 07.02.2020
2998 Clear 1 1030 86 10000 3.6 60 10:40 07.02.2020
2999 Clear 1 1030 86 10000 3.6 60 10:20 07.02.2020
3000 Clear 0 1030 73 10000 4.1 60 09:45 07.02.2020
3001 Clear -1 1030 92 10000 4.1 70 09:25 07.02.2020
3002 Clear -2 1030 92 10000 3.6 80 08:57 07.02.2020
3003 Clear -2 1030 92 10000 3.1 80 08:37 07.02.2020
3004 Clear -2 1030 92 10000 3.1 80 08:19 07.02.2020
3005 Clear -2 1030 86 10000 4.1 80 07:40 07.02.2020
3006 Clear -2 1030 86 10000 4.1 80 07:21 07.02.2020
3007 Clear -2 1030 92 10000 3.1 80 06:43 07.02.2020
3008 Clear -2 1030 92 10000 2.1 90 06:23 07.02.2020
3009 Clear -2 1030 92 10000 1.5 70 05:43 07.02.2020
3010 Clear -2 1030 92 10000 1.5 50 03:58 07.02.2020
3011 Clouds -2 1031 100 10000 1 0 02:32 07.02.2020
3012 Clouds -2 1031 86 10000 3.1 50 01:35 07.02.2020
3013 Clear -1 1031 86 10000 3.1 80 00:39 07.02.2020
3014 Clear -1 1031 92 10000 2.1 70 23:57 06.02.2020
3015 Clear -1 1031 100 10000 1 0 23:37 06.02.2020
3016 Clear -2 1031 100 10000 1 0 23:18 06.02.2020
3017 Clear -1 1031 100 10000 0.5 140 22:43 06.02.2020
3018 Clear -1 1031 74 10000 2.6 20 22:24 06.02.2020
3019 Clear -1 1031 92 10000 0.5 0 21:38 06.02.2020
3020 Clear -1 1031 92 10000 0.5 0 21:19 06.02.2020
3021 Clear 0 1031 92 10000 1 100 20:58 06.02.2020
3022 Clouds 0 1031 92 10000 0.5 0 20:39 06.02.2020
3023 Clouds 0 1031 92 10000 0.5 0 20:19 06.02.2020
3024 Clouds 0 1031 69 10000 1 95 19:59 06.02.2020
3025 Clouds 0 1031 69 10000 1 95 19:40 06.02.2020
3026 Clouds 1 1031 80 10000 1.5 210 19:22 06.02.2020
3027 Clouds 1 1031 69 10000 1.5 170 18:58 06.02.2020
3028 Clouds 1 1031 69 10000 2.1 140 18:40 06.02.2020
3029 Clouds 2 1031 69 10000 2.1 140 18:20 06.02.2020
3030 Clouds 3 1032 69 10000 2.6 100 17:44 06.02.2020
3031 Clouds 4 1032 65 10000 3.1 100 17:21 06.02.2020
3032 Clouds 4 1032 65 10000 3.1 90 16:59 06.02.2020
3033 Clouds 4 1032 65 10000 3.1 90 16:40 06.02.2020
3034 Clouds 5 1032 65 10000 3.1 30 16:22 06.02.2020
3035 Clouds 5 1032 60 10000 3.6 20 15:42 06.02.2020
3036 Clouds 5 1032 60 10000 1.5 350 15:22 06.02.2020
3037 Clouds 5 1032 60 10000 1.5 100 14:51 06.02.2020
3038 Clouds 5 1032 60 10000 1 0 14:28 06.02.2020
3039 Clouds 5 1032 75 10000 1.5 90 13:59 06.02.2020
3040 Clouds 5 1033 62 10000 0.5 0 13:40 06.02.2020
3041 Clouds 4 1033 57 10000 0.5 0 13:20 06.02.2020
3042 Clouds 4 1033 57 10000 0.5 0 12:44 06.02.2020
3043 Clouds 4 1033 57 10000 1 0 12:19 06.02.2020
3044 Clouds 4 1033 57 10000 1 0 12:19 06.02.2020
3045 Clouds 3 1033 57 10000 1 0 11:57 06.02.2020
3046 Clouds 3 1033 86 10000 1 0 11:39 06.02.2020
3047 Clouds 2 1033 86 10000 1 0 11:19 06.02.2020
3048 Clouds 1 1033 86 10000 1 0 10:56 06.02.2020
3049 Clouds 1 1033 68 10000 1 0 10:38 06.02.2020
3050 Clouds 1 1033 68 10000 1 0 10:19 06.02.2020
3051 Clouds 1 1033 68 10000 1 0 10:19 06.02.2020
3052 Clouds 0 1033 92 10000 1.5 170 09:56 06.02.2020
3053 Clouds 0 1033 80 10000 0.54 217 09:36 06.02.2020
3054 Clouds -1 1032 92 10000 2.1 190 09:18 06.02.2020
3055 Clouds -2 1033 92 10000 0.5 0 08:41 06.02.2020
3056 Clouds -2 1033 92 10000 2.1 190 08:22 06.02.2020
3057 Clouds -2 1033 92 10000 1.5 200 07:47 06.02.2020
3058 Clouds -2 1033 92 10000 2.1 170 07:25 06.02.2020
3059 Clouds -2 1033 92 10000 1 160 06:22 06.02.2020
3060 Clouds -2 1033 92 10000 1 160 06:22 06.02.2020
3061 Clouds -2 1033 92 10000 1 160 06:21 06.02.2020
3062 Clouds -2 1033 92 10000 1 160 06:21 06.02.2020
3063 Clouds -2 1033 92 10000 1 210 05:54 06.02.2020
3064 Clouds -2 1034 100 10000 0.5 0 04:23 06.02.2020
3065 Clouds -1 1034 92 10000 1 0 03:20 06.02.2020
3066 Clouds -1 1035 92 10000 0.5 0 02:29 06.02.2020
3067 Clouds -1 1035 92 10000 1 170 01:35 06.02.2020
3068 Clouds -1 1035 92 10000 1.5 170 00:58 06.02.2020
3069 Clouds -1 1035 92 10000 1 170 00:26 06.02.2020
3070 Clouds -1 1035 92 10000 1.5 220 23:46 05.02.2020
3071 Clouds -1 1035 92 10000 1.5 170 23:28 05.02.2020
3072 Clouds -1 1036 92 10000 2.1 160 22:58 05.02.2020
3073 Clouds -1 1036 86 10000 1.5 190 22:40 05.02.2020
3074 Clouds 0 1036 86 10000 1.5 190 22:21 05.02.2020
3075 Clouds 0 1036 86 10000 1 0 21:43 05.02.2020
3076 Clouds 0 1036 86 10000 1.5 240 21:25 05.02.2020
3077 Clouds 0 1036 67 10000 1.5 160 20:59 05.02.2020
3078 Clouds 1 1036 67 10000 1.5 160 20:39 05.02.2020
3079 Clouds 1 1036 67 10000 1.5 160 20:39 05.02.2020
3080 Clouds 1 1036 67 10000 1.5 160 20:39 05.02.2020
3081 Clear 1 1036 52 10000 2.1 200 20:19 05.02.2020
3082 Clear 1 1036 80 10000 1.5 230 19:57 05.02.2020
3083 Clear 1 1036 80 10000 1.5 230 19:38 05.02.2020
3084 Clear 2 1035 74 10000 1.5 290 19:19 05.02.2020
3085 Clear 2 1035 64 10000 1.5 300 18:55 05.02.2020
3086 Clear 3 1035 60 10000 2.1 300 18:36 05.02.2020
3087 Clear 3 1035 60 10000 2.1 300 18:18 05.02.2020
3088 Clear 4 1035 52 10000 3.1 290 17:38 05.02.2020
3089 Clear 4 1035 52 10000 3.1 290 17:38 05.02.2020
3090 Clear 6 1035 52 10000 3.1 290 17:18 05.02.2020
3091 Clear 6 1035 52 10000 3.1 260 16:57 05.02.2020
3092 Clear 6 1035 49 10000 2.6 280 16:38 05.02.2020
3093 Clear 7 1035 49 10000 2.6 280 16:19 05.02.2020
3094 Clouds 7 1035 52 10000 3.6 320 15:45 05.02.2020
3095 Clouds 7 1035 52 10000 3.6 320 15:20 05.02.2020
3096 Clouds 7 1035 52 10000 3.1 300 14:58 05.02.2020
3097 Clouds 7 1035 52 10000 3.1 300 14:39 05.02.2020
3098 Clouds 7 1035 52 10000 3.1 300 14:21 05.02.2020
3099 Clouds 6 1035 52 10000 2.6 300 13:43 05.02.2020
3100 Clouds 6 1035 56 10000 2.1 0 13:22 05.02.2020
3101 Clouds 6 1035 52 10000 3.6 30 12:57 05.02.2020
3102 Clouds 6 1035 52 10000 4.1 30 12:36 05.02.2020
3103 Clouds 6 1035 52 10000 4.1 30 12:18 05.02.2020
3104 Clouds 6 1035 52 10000 4.1 30 12:18 05.02.2020
3105 Clouds 5 1034 60 10000 4.1 30 11:41 05.02.2020
3106 Clouds 5 1034 60 10000 2.6 280 11:22 05.02.2020
3107 Clouds 4 1033 65 10000 3.1 0 10:57 05.02.2020
3108 Clouds 4 1033 66 10000 3.1 330 10:39 05.02.2020
3109 Clear 4 1034 65 10000 1.5 340 10:18 05.02.2020
3110 Clouds 3 1032 66 10000 5.1 0 09:39 05.02.2020
3111 Clouds 3 1032 66 10000 5.1 0 09:21 05.02.2020
3112 Clouds 2 1032 66 10000 4.1 0 08:55 05.02.2020
3113 Clouds 2 1031 66 10000 4.1 320 08:37 05.02.2020
3114 Clouds 2 1031 76 10000 4.1 320 08:18 05.02.2020
3115 Clouds 2 1031 76 10000 4.1 300 07:42 05.02.2020
3116 Clouds 3 1030 76 10000 5.1 310 07:18 05.02.2020
3117 Clouds 3 1030 69 10000 3.6 320 06:39 05.02.2020
3118 Clouds 3 1030 69 10000 2.6 320 06:20 05.02.2020
3119 Clouds 4 1028 75 10000 3.1 290 05:20 05.02.2020
3120 Clouds 4 1028 75 10000 1.5 0 04:58 05.02.2020
3121 Clouds 4 1027 75 10000 2.1 190 04:25 05.02.2020
3122 Clouds 4 1026 75 10000 3.1 240 02:52 05.02.2020
3123 Clouds 4 1026 75 10000 4.6 300 02:21 05.02.2020
3124 Clouds 4 1025 70 10000 3.6 310 01:29 05.02.2020
3125 Clouds 4 1024 75 10000 3.1 290 00:24 05.02.2020
3126 Clouds 3 1023 80 10000 2.6 280 23:40 04.02.2020
3127 Clouds 3 1023 80 10000 2.6 280 23:21 04.02.2020
3128 Clouds 3 1022 80 10000 3.1 280 22:57 04.02.2020
3129 Clouds 3 1022 75 10000 3.1 320 22:39 04.02.2020
3130 Clouds 4 1022 80 10000 3.6 280 22:20 04.02.2020
3131 Clouds 4 1022 75 10000 4.1 320 21:56 04.02.2020
3132 Clouds 4 1022 75 10000 4.1 320 21:38 04.02.2020
3133 Drizzle 4 1021 75 10000 3.1 320 21:18 04.02.2020
3134 Drizzle 4 1021 75 10000 3.1 320 21:18 04.02.2020
3135 Clouds 4 1021 75 10000 3.6 300 20:55 04.02.2020
3136 Clouds 4 1021 75 10000 3.6 300 20:37 04.02.2020
3137 Rain 4 1020 80 10000 4.1 240 20:18 04.02.2020
3138 Clouds 4 1020 86 10000 4.1 260 19:43 04.02.2020
3139 Clouds 4 1020 86 10000 4.1 260 19:25 04.02.2020
3140 Rain 4 1018 80 10000 5.1 270 18:59 04.02.2020
3141 Rain 4 1018 80 10000 3.1 270 18:40 04.02.2020
3142 Rain 4 1018 80 10000 5.7 290 18:21 04.02.2020
3143 Rain 5 1018 74 10000 4.6 290 17:58 04.02.2020
3144 Rain 5 1018 74 10000 4.6 290 17:40 04.02.2020
3145 Rain 5 1017 57 10000 5.1 300 17:19 04.02.2020
3146 Clouds 5 1015 57 10000 6.7 280 16:39 04.02.2020
3147 Clouds 5 1015 57 10000 6.7 280 16:20 04.02.2020
3148 Rain 5 1015 57 10000 6.2 280 15:57 04.02.2020
3149 Clouds 5 1015 57 10000 5.1 300 15:39 04.02.2020
3150 Clouds 5 1015 57 10000 5.1 300 15:20 04.02.2020
3151 Clouds 5 1015 57 10000 4.6 290 14:55 04.02.2020
3152 Clouds 5 1015 57 10000 4.6 290 14:37 04.02.2020
3153 Rain 5 1015 86 10000 7.2 270 14:18 04.02.2020
3154 Rain 5 1014 65 10000 7.7 250 13:41 04.02.2020
3155 Rain 5 1014 65 10000 7.7 250 13:23 04.02.2020
3156 Clouds 6 1014 65 10000 6.2 270 12:57 04.02.2020
3157 Clouds 6 1014 65 10000 6.2 270 12:38 04.02.2020
3158 Clouds 6 1014 75 10000 4.6 240 12:19 04.02.2020
3159 Rain 5 1014 80 10000 6.2 260 11:55 04.02.2020
3160 Rain 5 1014 86 10000 4.6 250 11:37 04.02.2020
3161 Rain 5 1014 86 10000 4.6 250 11:18 04.02.2020
3162 Rain 5 1014 70 4800 6.7 320 10:45 04.02.2020
3163 Rain 5 1013 75 10000 6.2 250 10:26 04.02.2020
3164 Clouds 5 1013 75 10000 6.2 230 09:57 04.02.2020
3165 Clouds 4 1013 75 10000 4.6 230 09:38 04.02.2020
3166 Clouds 4 1013 75 10000 4.6 230 09:19 04.02.2020
3167 Rain 4 1012 80 10000 3.6 200 08:45 04.02.2020
3168 Rain 4 1012 80 10000 3.6 200 08:27 04.02.2020
3169 Rain 4 1011 75 10000 5.7 280 07:50 04.02.2020
3170 Rain 4 1010 80 10000 3.1 210 07:24 04.02.2020
3171 Rain 4 1010 80 10000 3.1 210 07:24 04.02.2020
3172 Rain 4 1010 86 10000 6.7 260 06:53 04.02.2020
3173 Rain 4 1009 86 10000 5.1 250 06:34 04.02.2020
3174 Clouds 4 1007 80 10000 6.2 290 05:34 04.02.2020
3175 Rain 5 1006 81 10000 6.7 300 04:27 04.02.2020
3176 Rain 5 1005 81 10000 6.2 300 03:46 04.02.2020
3177 Rain 5 1004 93 10000 5.1 290 03:27 04.02.2020
3178 Rain 5 1003 87 10000 6.7 310 02:38 04.02.2020
3179 Rain 6 1003 93 10000 4.1 310 02:18 04.02.2020
3180 Rain 6 1003 87 10000 6.2 320 01:44 04.02.2020
3181 Rain 7 1003 100 10000 4.1 360 00:55 04.02.2020
3182 Rain 8 1003 100 10000 0.5 0 00:23 04.02.2020
3183 Rain 8 1004 100 10000 1 0 23:49 03.02.2020
3184 Rain 8 1006 100 10000 3.6 190 23:30 03.02.2020
3185 Rain 8 1007 100 10000 4.6 180 22:58 03.02.2020
3186 Rain 8 1008 100 10000 2.6 180 22:38 03.02.2020
3187 Rain 8 1008 100 10000 2.6 180 22:19 03.02.2020
3188 Rain 8 1009 93 10000 3.1 200 21:41 03.02.2020
3189 Rain 8 1011 87 10000 4.1 210 21:20 03.02.2020
3190 Rain 9 1012 87 10000 3.6 220 20:56 03.02.2020
3191 Rain 9 1012 76 10000 5.7 210 20:38 03.02.2020
3192 Rain 9 1012 76 10000 5.7 210 20:18 03.02.2020
3193 Clouds 10 1013 71 10000 4.6 200 19:42 03.02.2020
3194 Clouds 10 1013 71 10000 5.1 210 19:23 03.02.2020
3195 Clouds 10 1013 71 10000 4.6 210 18:59 03.02.2020
3196 Clouds 10 1013 71 10000 4.6 210 18:40 03.02.2020
3197 Clouds 10 1014 66 10000 5.7 220 18:21 03.02.2020
3198 Clouds 11 1014 62 10000 5.1 220 17:57 03.02.2020
3199 Clouds 11 1014 62 10000 7.7 240 17:39 03.02.2020
3200 Clouds 11 1014 62 10000 7.7 240 17:19 03.02.2020
3201 Clouds 11 1014 62 10000 7.2 230 16:40 03.02.2020
3202 Clouds 11 1014 62 10000 7.2 230 16:22 03.02.2020
3203 Clouds 11 1014 58 10000 7.7 240 15:58 03.02.2020
3204 Clouds 11 1014 58 10000 7.7 240 15:39 03.02.2020
3205 Clouds 11 1015 62 10000 7.7 230 15:20 03.02.2020
3206 Clouds 11 1015 58 10000 6.7 250 14:58 03.02.2020
3207 Clouds 11 1015 58 10000 6.7 250 14:58 03.02.2020
3208 Clouds 11 1015 58 10000 6.7 250 14:58 03.02.2020
3209 Clouds 11 1015 58 10000 6.7 250 14:39 03.02.2020
3210 Clouds 12 1015 58 10000 7.7 240 14:21 03.02.2020
3211 Clouds 12 1014 58 10000 7.7 240 13:43 03.02.2020
3212 Clouds 12 1015 58 10000 8.7 240 13:21 03.02.2020
3213 Clouds 12 1015 58 10000 9.3 240 12:59 03.02.2020
3214 Clouds 12 1015 66 10000 7.7 230 12:40 03.02.2020
3215 Clouds 11 1015 66 10000 7.7 230 12:21 03.02.2020
3216 Clouds 11 1015 71 10000 9.3 230 11:57 03.02.2020
3217 Clouds 11 1015 71 10000 8.7 230 11:37 03.02.2020
3218 Clouds 11 1015 71 10000 8.7 230 11:18 03.02.2020
3219 Clouds 10 1015 71 10000 7.2 230 10:41 03.02.2020
3220 Clouds 10 1014 76 10000 6.2 220 10:23 03.02.2020
3221 Clouds 10 1014 76 10000 6.2 220 10:23 03.02.2020
3222 Clouds 10 1014 76 10000 6.7 210 09:49 03.02.2020
3223 Clouds 9 1014 76 10000 6.2 230 09:27 03.02.2020
3224 Clouds 9 1014 76 10000 7.2 230 08:58 03.02.2020
3225 Clouds 9 1014 76 10000 7.2 230 08:40 03.02.2020
3226 Clouds 9 1014 76 10000 6.7 230 08:21 03.02.2020
3227 Rain 9 1013 76 10000 6.7 230 07:41 03.02.2020
3228 Rain 9 1013 81 10000 7.2 230 07:22 03.02.2020
3229 Rain 9 1013 81 10000 7.2 230 07:22 03.02.2020
3230 Rain 9 1013 81 10000 6.2 230 06:55 03.02.2020
3231 Rain 9 1013 81 10000 5.1 230 06:30 03.02.2020
3232 Clouds 9 1013 81 10000 4.6 230 05:51 03.02.2020
3233 Clouds 9 1013 87 10000 5.1 220 05:31 03.02.2020
3234 Rain 9 1012 93 10000 6.7 200 04:35 03.02.2020
3235 Rain 9 1013 81 10000 4.6 250 02:38 03.02.2020
3236 Rain 10 1013 71 10000 6.7 260 02:20 03.02.2020
3237 Clouds 10 1012 66 10000 6.2 250 00:49 03.02.2020
3238 Clouds 11 1012 66 10000 6.2 250 00:26 03.02.2020
3239 Clouds 11 1012 66 10000 7.2 250 23:55 02.02.2020
3240 Clouds 11 1011 66 10000 7.2 250 23:36 02.02.2020
3241 Clouds 11 1011 66 10000 7.2 250 23:18 02.02.2020
3242 Clouds 11 1012 62 10000 8.2 250 22:39 02.02.2020
3243 Clouds 11 1011 62 10000 7.7 250 22:21 02.02.2020
3244 Clouds 11 1011 66 10000 6.7 250 21:58 02.02.2020
3245 Clouds 11 1011 66 10000 4.6 250 21:39 02.02.2020
3246 Clouds 12 1011 66 10000 4.6 250 21:20 02.02.2020
3247 Clouds 12 1011 62 10000 7.7 250 20:57 02.02.2020
3248 Clouds 12 1011 62 10000 7.7 250 20:39 02.02.2020
3249 Clouds 12 1010 62 10000 6.2 250 20:20 02.02.2020
3250 Clouds 12 1010 67 10000 5.1 250 19:57 02.02.2020
3251 Clouds 12 1010 67 10000 6.2 250 19:38 02.02.2020
3252 Clouds 12 1010 67 10000 6.2 250 19:38 02.02.2020
3253 Clouds 12 1010 67 10000 6.2 250 19:20 02.02.2020
3254 Clouds 12 1009 67 10000 8.2 250 18:56 02.02.2020
3255 Clouds 13 1009 67 10000 10.3 260 18:37 02.02.2020
3256 Clouds 13 1009 67 10000 10.3 260 18:19 02.02.2020
3257 Clouds 13 1008 67 10000 8.7 250 17:57 02.02.2020
3258 Clouds 13 1008 67 10000 9.3 240 17:37 02.02.2020
3259 Clouds 13 1008 67 10000 9.3 240 17:18 02.02.2020
3260 Clouds 13 1007 82 10000 7.2 220 16:57 02.02.2020
3261 Rain 13 1007 87 10000 7.7 220 16:37 02.02.2020
3262 Rain 13 1007 87 10000 7.7 220 16:18 02.02.2020
3263 Rain 12 1007 87 10000 8.2 220 15:55 02.02.2020
3264 Rain 12 1006 93 10000 6.7 210 15:36 02.02.2020
3265 Rain 11 1006 93 10000 6.7 210 15:18 02.02.2020
3266 Rain 11 1007 93 10000 7.2 200 14:43 02.02.2020
3267 Rain 10 1007 87 10000 6.7 210 14:19 02.02.2020
3268 Clouds 10 1007 93 10000 6.7 200 13:59 02.02.2020
3269 Clouds 10 1007 93 10000 6.7 200 13:41 02.02.2020
3270 Clouds 10 1007 93 10000 6.2 200 13:20 02.02.2020
3271 Clouds 9 1008 100 10000 6.7 200 12:56 02.02.2020
3272 Drizzle 9 1008 100 8000 5.7 190 12:38 02.02.2020
3273 Drizzle 9 1008 100 8000 5.7 190 12:19 02.02.2020
3274 Rain 8 1009 93 10000 4.1 190 11:42 02.02.2020
3275 Rain 8 1009 100 10000 2.6 200 11:19 02.02.2020
3276 Rain 8 1010 100 8000 1.5 180 10:58 02.02.2020
3277 Rain 7 1010 93 8000 0.5 0 10:39 02.02.2020
3278 Rain 7 1010 93 8000 0.5 0 10:21 02.02.2020
3279 Rain 7 1011 100 10000 0.5 0 09:59 02.02.2020
3280 Rain 7 1011 100 10000 0.5 0 09:39 02.02.2020
3281 Rain 7 1011 100 8000 0.5 0 09:21 02.02.2020
3282 Rain 6 1012 100 8000 1.5 250 08:49 02.02.2020
3283 Rain 6 1012 87 10000 3.1 220 08:30 02.02.2020
3284 Clouds 6 1013 81 10000 3.6 200 07:49 02.02.2020
3285 Clouds 6 1013 81 10000 1.5 180 07:30 02.02.2020
3286 Clouds 6 1014 75 10000 2.6 200 06:57 02.02.2020
3287 Clouds 6 1014 75 10000 2.6 200 06:38 02.02.2020
3288 Clouds 6 1014 75 10000 2.1 190 06:18 02.02.2020
3289 Clouds 6 1014 81 10000 4.1 190 05:20 02.02.2020
3290 Clouds 7 1014 70 10000 5.7 210 03:43 02.02.2020
3291 Clouds 7 1014 70 10000 5.7 210 03:23 02.02.2020
3292 Clouds 7 1013 65 10000 6.2 230 02:20 02.02.2020
3293 Clouds 7 1013 65 10000 7.7 240 01:50 02.02.2020
3294 Clouds 8 1012 61 10000 7.2 250 00:51 02.02.2020
3295 Clouds 8 1012 66 10000 6.7 250 00:29 02.02.2020
3296 Clouds 8 1012 70 10000 5.1 230 23:58 01.02.2020
3297 Clouds 8 1011 81 10000 6.2 220 23:39 01.02.2020
3298 Clouds 8 1014 70 10000 5.7 310 23:21 01.02.2020
3299 Clouds 8 1010 76 10000 6.7 230 22:43 01.02.2020
3300 Clouds 8 1010 76 10000 6.7 230 22:19 01.02.2020
3301 Rain 8 1009 81 10000 9.8 230 21:42 01.02.2020
3302 Rain 9 1011 76 7000 14.9 270 21:19 01.02.2020
3303 Rain 9 1009 87 10000 4.6 200 20:56 01.02.2020
3304 Rain 9 1009 87 10000 4.6 200 20:38 01.02.2020
3305 Rain 10 1009 87 10000 5.1 210 20:19 01.02.2020
3306 Rain 10 1008 87 10000 5.1 210 19:56 01.02.2020
3307 Clouds 10 1008 87 10000 6.2 210 19:37 01.02.2020
3308 Clouds 10 1008 87 10000 6.2 210 19:18 01.02.2020
3309 Clouds 10 1008 87 10000 7.2 220 18:55 01.02.2020
3310 Clouds 10 1007 87 10000 5.7 210 18:37 01.02.2020
3311 Clouds 10 1007 87 10000 5.7 210 18:19 01.02.2020
3312 Clouds 10 1007 87 10000 6.2 220 17:55 01.02.2020
3313 Clouds 10 1006 93 10000 5.1 220 17:37 01.02.2020
3314 Clouds 11 1006 93 10000 5.1 220 17:18 01.02.2020
3315 Rain 11 1006 100 10000 4.1 230 16:41 01.02.2020
3316 Rain 11 1006 100 10000 5.7 270 16:21 01.02.2020
3317 Rain 11 1006 93 7000 7.7 230 15:55 01.02.2020
3318 Rain 11 1005 93 10000 7.2 210 15:37 01.02.2020
3319 Rain 11 1005 93 10000 7.2 210 15:18 01.02.2020
3320 Rain 11 1005 93 10000 7.2 200 14:40 01.02.2020
3321 Rain 11 1005 93 10000 7.2 200 14:21 01.02.2020
3322 Rain 11 1005 93 10000 7.7 200 13:45 01.02.2020
3323 Rain 11 1005 93 10000 7.2 200 13:24 01.02.2020
3324 Rain 11 1005 87 10000 7.2 200 12:57 01.02.2020
3325 Rain 12 1006 82 10000 8.7 210 12:39 01.02.2020
3326 Rain 12 1006 82 10000 8.7 210 12:21 01.02.2020
3327 Rain 12 1006 87 10000 6.7 210 11:42 01.02.2020
3328 Rain 12 1006 87 10000 6.7 210 11:23 01.02.2020
3329 Rain 11 1006 87 10000 5.7 200 10:59 01.02.2020
3330 Rain 11 1006 87 10000 5.7 200 10:40 01.02.2020
3331 Rain 11 1006 87 10000 6.7 200 10:22 01.02.2020
3332 Rain 11 1007 87 10000 5.7 190 09:59 01.02.2020
3333 Rain 11 1007 76 10000 6.2 190 09:40 01.02.2020
3334 Rain 11 1007 76 10000 6.2 190 09:21 01.02.2020
3335 Rain 12 1007 81 10000 6.7 200 08:49 01.02.2020
3336 Clouds 11 1008 81 10000 6.2 200 07:56 01.02.2020
3337 Clouds 11 1008 81 10000 4.6 200 07:38 01.02.2020
3338 Clouds 11 1008 81 10000 4.6 200 07:19 01.02.2020
3339 Clouds 11 1008 81 10000 3.1 180 06:42 01.02.2020
3340 Rain 11 1009 81 10000 7.7 220 05:53 01.02.2020
3341 Clouds 11 1009 87 10000 5.1 200 04:22 01.02.2020
3342 Clouds 11 1009 87 10000 5.1 200 04:22 01.02.2020
3343 Clouds 12 1011 81 10000 5.7 200 03:25 01.02.2020
3344 Clouds 12 1011 81 10000 4.6 190 02:53 01.02.2020
3345 Clouds 12 1011 81 10000 5.7 200 02:31 01.02.2020
3346 Clouds 12 1011 76 10000 6.2 210 01:59 01.02.2020
3347 Clouds 12 1011 76 10000 8.2 210 01:38 01.02.2020
3348 Clouds 12 1011 76 10000 5.7 200 00:47 01.02.2020
3349 Clouds 12 1011 76 10000 5.7 200 00:23 01.02.2020
3350 Clouds 12 1012 87 10000 5.1 190 23:40 31.01.2020
3351 Clouds 12 1012 87 10000 5.1 190 23:18 31.01.2020
3352 Clouds 12 1012 87 10000 4.1 190 22:56 31.01.2020
3353 Clouds 12 1012 87 10000 3.6 190 22:37 31.01.2020
3354 Clouds 12 1012 87 10000 3.6 190 22:19 31.01.2020
3355 Clouds 11 1012 87 10000 4.1 190 21:40 31.01.2020
3356 Clouds 11 1012 87 10000 4.1 190 21:40 31.01.2020
3357 Clouds 11 1012 87 10000 4.1 190 21:21 31.01.2020
3358 Clouds 11 1013 81 10000 4.1 190 20:58 31.01.2020
3359 Clouds 11 1013 81 10000 4.1 190 20:40 31.01.2020
3360 Clouds 11 1012 87 10000 4.1 190 20:22 31.01.2020
3361 Clouds 11 1012 81 10000 4.6 200 20:00 31.01.2020
3362 Clouds 11 1012 81 10000 4.6 200 19:40 31.01.2020
3363 Clouds 11 1012 76 10000 4.6 190 19:22 31.01.2020
3364 Clouds 11 1012 76 10000 4.6 190 19:22 31.01.2020
3365 Clouds 11 1012 76 10000 6.7 200 18:58 31.01.2020
3366 Clouds 12 1012 71 10000 8.7 220 18:38 31.01.2020
3367 Clouds 12 1012 71 10000 8.7 220 18:19 31.01.2020
3368 Clouds 12 1012 71 10000 5.1 210 17:44 31.01.2020
3369 Clouds 13 1012 71 10000 5.7 220 17:26 31.01.2020
3370 Clouds 13 1012 71 10000 5.7 220 16:57 31.01.2020
3371 Clouds 13 1013 67 10000 8.7 230 16:38 31.01.2020
3372 Clouds 13 1013 67 10000 8.7 230 16:19 31.01.2020
3373 Clouds 14 1012 67 10000 6.7 230 15:58 31.01.2020
3374 Clouds 14 1012 67 10000 7.7 230 15:39 31.01.2020
3375 Clouds 14 1012 67 10000 7.7 230 15:20 31.01.2020
3376 Clouds 14 1012 67 10000 7.7 220 14:43 31.01.2020
3377 Clouds 14 1012 67 10000 7.7 230 14:24 31.01.2020
3378 Clouds 14 1012 67 10000 9.3 220 13:56 31.01.2020
3379 Clouds 13 1012 71 10000 6.7 210 13:37 31.01.2020
3380 Clouds 13 1012 71 10000 6.7 210 13:18 31.01.2020
3381 Clouds 14 1012 71 10000 6.7 220 12:43 31.01.2020
3382 Clouds 13 1012 71 10000 7.7 210 12:23 31.01.2020
3383 Clouds 13 1012 71 10000 7.7 200 11:55 31.01.2020
3384 Clouds 13 1012 76 10000 6.7 200 11:37 31.01.2020
3385 Clouds 13 1012 76 10000 6.7 200 11:18 31.01.2020
3386 Clouds 12 1011 76 10000 5.7 200 10:43 31.01.2020
3387 Clouds 12 1011 76 10000 6.2 200 10:22 31.01.2020
3388 Clouds 12 1011 76 10000 6.7 210 09:57 31.01.2020
3389 Clouds 12 1011 76 10000 6.7 210 09:39 31.01.2020
3390 Clouds 12 1011 76 10000 6.7 210 09:39 31.01.2020
3391 Clouds 12 1011 76 10000 6.7 210 09:39 31.01.2020
3392 Clouds 12 1010 81 10000 6.2 220 09:19 31.01.2020
3393 Clouds 11 1010 81 10000 8.2 230 08:53 31.01.2020
3394 Clouds 11 1010 82 10000 8.7 220 08:28 31.01.2020
3395 Clouds 11 1009 87 10000 8.2 220 07:58 31.01.2020
3396 Clouds 11 1009 87 10000 7.7 220 07:39 31.01.2020
3397 Clouds 11 1009 87 10000 7.7 220 07:18 31.01.2020
3398 Rain 11 1008 87 10000 7.7 220 06:27 31.01.2020
3399 Rain 11 1008 87 10000 7.7 220 06:27 31.01.2020
3400 Rain 12 1008 82 10000 7.7 220 05:50 31.01.2020
3401 Clouds 12 1008 82 10000 7.2 210 04:57 31.01.2020
3402 Clouds 11 1006 81 10000 6.7 200 03:29 31.01.2020
3403 Rain 10 1007 93 10000 3.6 190 01:40 31.01.2020
3404 Rain 9 1007 93 4800 4.1 190 00:47 31.01.2020
3405 Clouds 9 1007 87 10000 5.7 200 00:28 31.01.2020
3406 Clouds 8 1007 93 10000 6.2 200 23:57 30.01.2020
3407 Clouds 8 1007 93 10000 6.7 200 23:26 30.01.2020
3408 Clouds 8 1007 93 10000 4.6 190 22:58 30.01.2020
3409 Clouds 8 1007 93 10000 4.6 190 22:38 30.01.2020
3410 Rain 8 1007 87 10000 4.6 190 22:19 30.01.2020
3411 Clouds 8 1007 87 10000 3.6 180 21:57 30.01.2020
3412 Clouds 8 1007 87 10000 4.1 180 21:39 30.01.2020
3413 Clouds 8 1009 87 10000 2.6 210 21:18 30.01.2020
3414 Clouds 8 1009 87 10000 2.6 210 21:18 30.01.2020
3415 Rain 8 1008 81 10000 5.7 190 20:55 30.01.2020
3416 Rain 8 1007 81 10000 5.1 190 20:37 30.01.2020
3417 Rain 8 1007 81 10000 5.1 190 20:18 30.01.2020
3418 Clouds 8 1008 70 10000 5.1 200 19:42 30.01.2020
3419 Rain 8 1008 70 10000 5.1 200 19:19 30.01.2020
3420 Rain 8 1008 66 10000 4.6 190 18:58 30.01.2020
3421 Clouds 8 1009 70 10000 3.6 190 18:36 30.01.2020
3422 Clouds 8 1009 70 10000 3.6 190 18:18 30.01.2020
3423 Clouds 8 1009 70 10000 3.1 170 17:41 30.01.2020
3424 Clouds 8 1009 70 10000 3.6 180 17:19 30.01.2020
3425 Clouds 8 1010 70 10000 4.1 180 16:58 30.01.2020
3426 Clouds 8 1010 70 10000 4.6 190 16:39 30.01.2020
3427 Clouds 8 1010 70 10000 4.6 190 16:21 30.01.2020
3428 Clouds 8 1010 76 10000 4.1 180 15:44 30.01.2020
3429 Clouds 8 1011 70 10000 4.1 190 15:21 30.01.2020
3430 Clouds 8 1011 70 10000 7.2 210 14:57 30.01.2020
3431 Clouds 8 1012 70 10000 6.2 210 14:38 30.01.2020
3432 Clouds 8 1012 70 10000 6.2 210 14:20 30.01.2020
3433 Clouds 8 1013 75 10000 6.2 200 13:41 30.01.2020
3434 Clouds 8 1013 75 10000 7.2 210 13:41 30.01.2020
3435 Clouds 8 1013 75 10000 6.2 200 13:23 30.01.2020
3436 Clouds 8 1014 81 10000 5.7 210 12:55 30.01.2020
3437 Clouds 8 1014 81 10000 5.7 200 12:37 30.01.2020
3438 Clouds 8 1014 81 10000 5.7 200 12:37 30.01.2020
3439 Clouds 7 1014 81 10000 5.7 200 12:18 30.01.2020
3440 Clouds 7 1014 81 10000 4.6 210 11:41 30.01.2020
3441 Clouds 6 1014 81 10000 4.6 210 11:22 30.01.2020
3442 Clouds 6 1015 81 10000 3.6 200 10:59 30.01.2020
3443 Clouds 5 1017 81 10000 1 190 10:40 30.01.2020
3444 Clouds 5 1017 81 10000 1 190 10:20 30.01.2020
3445 Clouds 5 1015 86 10000 3.6 200 09:45 30.01.2020
3446 Clouds 4 1015 86 10000 4.1 190 09:25 30.01.2020
3447 Clouds 4 1015 86 10000 5.1 210 08:43 30.01.2020
3448 Clouds 3 1015 86 10000 4.6 200 08:22 30.01.2020
3449 Clouds 3 1015 86 10000 4.6 200 07:59 30.01.2020
3450 Clouds 4 1015 86 10000 5.7 210 07:41 30.01.2020
3451 Clouds 4 1015 86 10000 5.7 210 07:18 30.01.2020
3452 Clouds 4 1015 80 10000 4.6 200 06:44 30.01.2020
3453 Clouds 4 1015 80 10000 5.1 200 06:26 30.01.2020
3454 Clouds 4 1015 86 10000 5.7 200 05:39 30.01.2020
3455 Clouds 4 1015 86 10000 6.2 200 05:19 30.01.2020
3456 Clouds 4 1015 86 10000 5.7 200 03:48 30.01.2020
3457 Clouds 5 1016 86 10000 4.6 200 03:24 30.01.2020
3458 Clouds 4 1016 86 10000 3.6 210 01:35 30.01.2020
3459 Clouds 3 1016 80 10000 4.1 200 00:37 30.01.2020
3460 Clouds 3 1016 80 10000 4.1 200 00:19 30.01.2020
3461 Clouds 3 1016 80 10000 4.1 200 00:19 30.01.2020
3462 Clouds 3 1016 80 10000 3.6 190 23:44 29.01.2020
3463 Clouds 3 1016 86 10000 2.6 160 23:20 29.01.2020
3464 Clouds 3 1016 78 10000 3.6 210 22:56 29.01.2020
3465 Clouds 3 1015 78 10000 4.1 210 22:38 29.01.2020
3466 Clouds 3 1015 78 10000 4.1 210 22:19 29.01.2020
3467 Clouds 3 1015 78 10000 5.7 210 21:57 29.01.2020
3468 Clouds 3 1015 78 10000 5.7 210 21:38 29.01.2020
3469 Clouds 3 1015 78 10000 5.1 210 21:18 29.01.2020
3470 Clouds 3 1015 78 10000 4.6 190 20:57 29.01.2020
3471 Clouds 3 1014 78 10000 4.6 180 20:37 29.01.2020
3472 Rain 3 1014 69 10000 4.6 180 20:18 29.01.2020
3473 Rain 3 1013 69 10000 4.6 200 19:55 29.01.2020
3474 Rain 4 1013 69 10000 4.6 220 19:36 29.01.2020
3475 Rain 4 1013 69 10000 4.6 220 19:18 29.01.2020
3476 Clouds 4 1012 69 10000 4.1 230 18:40 29.01.2020
3477 Clouds 4 1012 69 10000 4.1 230 18:19 29.01.2020
3478 Clouds 4 1011 60 10000 5.1 250 17:55 29.01.2020
3479 Rain 4 1011 56 10000 5.7 250 17:36 29.01.2020
3480 Rain 5 1011 56 10000 5.7 250 17:18 29.01.2020
3481 Rain 5 1011 55 10000 7.7 270 16:40 29.01.2020
3482 Rain 5 1010 55 10000 6.7 250 16:20 29.01.2020
3483 Rain 6 1009 55 10000 6.7 240 15:40 29.01.2020
3484 Rain 6 1009 56 10000 8.2 250 15:22 29.01.2020
3485 Rain 6 1009 56 10000 7.7 250 14:58 29.01.2020
3486 Rain 6 1009 56 10000 7.7 250 14:40 29.01.2020
3487 Rain 6 1009 56 10000 7.2 240 14:19 29.01.2020
3488 Rain 5 1009 80 10000 5.1 220 13:41 29.01.2020
3489 Rain 5 1009 80 10000 5.1 220 13:22 29.01.2020
3490 Rain 5 1009 75 10000 6.2 210 12:58 29.01.2020
3491 Rain 5 1009 75 10000 6.2 210 12:39 29.01.2020
3492 Rain 5 1009 75 10000 6.2 210 12:39 29.01.2020
3493 Clouds 5 1009 75 10000 7.2 210 12:21 29.01.2020
3494 Clouds 5 1009 75 10000 6.2 210 11:58 29.01.2020
3495 Clouds 5 1009 75 10000 6.2 210 11:39 29.01.2020
3496 Clouds 4 1009 75 10000 6.7 200 11:19 29.01.2020
3497 Clouds 4 1008 80 10000 6.2 190 10:46 29.01.2020
3498 Clouds 4 1008 80 10000 6.2 190 10:22 29.01.2020
3499 Clouds 4 1008 70 10000 6.7 200 09:57 29.01.2020
3500 Clouds 4 1008 70 10000 6.7 200 09:39 29.01.2020
3501 Clouds 3 1008 70 10000 6.7 200 09:18 29.01.2020
3502 Clouds 3 1007 70 10000 6.7 200 08:41 29.01.2020
3503 Clouds 3 1007 70 10000 6.7 200 08:22 29.01.2020
3504 Clouds 3 1007 86 10000 5.7 200 07:45 29.01.2020
3505 Clouds 3 1006 86 10000 6.2 200 07:26 29.01.2020
3506 Clouds 3 1006 86 10000 5.1 190 06:56 29.01.2020
3507 Clouds 3 1006 86 10000 5.1 190 06:56 29.01.2020
3508 Rain 2 1006 86 10000 5.7 200 06:37 29.01.2020
3509 Rain 2 1006 86 10000 5.7 200 06:19 29.01.2020
3510 Clouds 2 1006 93 10000 5.1 190 05:50 29.01.2020
3511 Clouds 2 1005 93 10000 3.6 180 05:31 29.01.2020
3512 Rain 2 1004 93 10000 4.6 200 04:38 29.01.2020
3513 Clouds 2 1003 93 10000 5.1 200 03:59 29.01.2020
3514 Rain 2 1001 93 9000 2.6 230 02:34 29.01.2020
3515 Rain 2 1002 86 10000 3.1 200 01:18 29.01.2020
3516 Clouds 3 1002 76 10000 7.2 200 00:38 29.01.2020
3517 Clouds 2 1002 76 10000 7.2 200 00:20 29.01.2020
3518 Clouds 2 1002 80 10000 5.1 190 23:39 28.01.2020
3519 Clouds 2 1002 80 10000 5.1 190 23:19 28.01.2020
3520 Clouds 2 1003 80 10000 5.7 190 22:49 28.01.2020
3521 Clouds 2 1003 80 10000 5.7 190 22:27 28.01.2020
3522 Clouds 2 1003 74 10000 5.7 190 21:57 28.01.2020
3523 Clouds 2 1003 74 10000 5.7 190 21:38 28.01.2020
3524 Clouds 3 1003 74 10000 5.1 180 21:19 28.01.2020
3525 Clouds 3 1003 74 10000 5.1 190 20:46 28.01.2020
3526 Clouds 3 1003 74 10000 5.7 190 20:26 28.01.2020
3527 Clouds 3 1003 58 10000 5.1 200 19:57 28.01.2020
3528 Clouds 3 1002 69 10000 5.1 220 19:38 28.01.2020
3529 Clouds 3 1002 69 10000 5.1 220 19:19 28.01.2020
3530 Clouds 3 1002 69 10000 5.1 220 19:19 28.01.2020
3531 Clouds 3 1002 58 10000 7.2 220 18:54 28.01.2020
3532 Rain 3 1002 58 10000 7.7 230 18:36 28.01.2020
3533 Rain 3 1002 58 10000 7.7 230 18:18 28.01.2020
3534 Rain 4 1001 58 10000 7.2 220 17:55 28.01.2020
3535 Rain 4 1001 58 10000 8.2 240 17:36 28.01.2020
3536 Rain 4 1001 54 10000 8.2 240 17:18 28.01.2020
3537 Rain 5 1000 75 10000 8.7 230 16:44 28.01.2020
3538 Rain 5 1000 70 10000 8.2 230 16:25 28.01.2020
3539 Rain 5 999 80 10000 9.3 230 15:59 28.01.2020
3540 Rain 5 999 80 10000 9.3 230 15:40 28.01.2020
3541 Clouds 5 999 80 10000 7.2 240 15:18 28.01.2020
3542 Rain 5 998 54 10000 6.7 260 14:44 28.01.2020
3543 Rain 6 998 56 10000 7.2 240 14:20 28.01.2020
3544 Rain 6 998 70 10000 8.7 230 13:43 28.01.2020
3545 Rain 6 998 70 10000 9.3 230 13:25 28.01.2020
3546 Rain 5 997 75 10000 9.8 230 12:58 28.01.2020
3547 Rain 5 997 75 10000 9.8 230 12:40 28.01.2020
3548 Rain 5 997 75 10000 8.2 230 12:22 28.01.2020
3549 Rain 4 997 80 10000 7.2 230 11:41 28.01.2020
3550 Rain 5 996 81 10000 7.7 250 11:22 28.01.2020
3551 Rain 5 995 80 10000 11.8 240 10:55 28.01.2020
3552 Rain 5 995 80 10000 8.2 270 10:37 28.01.2020
3553 Rain 5 995 86 10000 10.3 280 10:18 28.01.2020
3554 Clouds 5 994 93 10000 5.7 220 09:42 28.01.2020
3555 Rain 6 995 81 10000 7.7 240 09:20 28.01.2020
3556 Rain 6 995 81 10000 7.2 190 08:46 28.01.2020
3557 Rain 6 995 87 10000 5.1 210 08:26 28.01.2020
3558 Rain 6 995 81 10000 5.1 180 07:57 28.01.2020
3559 Clouds 6 996 100 10000 4.6 200 07:36 28.01.2020
3560 Rain 6 997 81 10000 6.7 190 06:49 28.01.2020
3561 Rain 6 997 87 10000 5.1 190 06:25 28.01.2020
3562 Rain 6 997 87 10000 5.1 190 06:25 28.01.2020
3563 Rain 6 998 93 10000 2.6 210 05:53 28.01.2020
3564 Rain 6 998 87 10000 4.6 190 05:25 28.01.2020
3565 Rain 6 999 87 10000 7.2 200 03:57 28.01.2020
3566 Rain 6 999 100 10000 4.6 200 02:58 28.01.2020
3567 Rain 6 999 100 10000 5.7 190 02:25 28.01.2020
3568 Rain 6 999 100 10000 5.1 200 01:57 28.01.2020
3569 Rain 6 1000 93 10000 6.7 180 01:24 28.01.2020
3570 Rain 6 1001 100 10000 4.1 190 00:48 28.01.2020
3571 Rain 6 1001 93 10000 6.2 180 00:28 28.01.2020
3572 Rain 6 1002 93 10000 5.1 190 23:49 27.01.2020
3573 Rain 6 1003 93 10000 4.6 190 23:30 27.01.2020
3574 Clouds 6 1003 93 10000 3.6 190 22:55 27.01.2020
3575 Clouds 6 1004 100 10000 5.1 200 22:36 27.01.2020
3576 Clouds 6 1004 93 10000 4.6 180 22:18 27.01.2020
3577 Clouds 6 1004 93 10000 4.6 180 22:18 27.01.2020
3578 Rain 6 1005 93 10000 5.1 180 21:54 27.01.2020
3579 Rain 6 1005 100 10000 4.1 200 21:36 27.01.2020
3580 Rain 6 1005 93 10000 5.1 180 21:18 27.01.2020
3581 Rain 6 1005 93 10000 5.7 180 20:43 27.01.2020
3582 Rain 6 1005 100 10000 3.1 200 20:22 27.01.2020
3583 Rain 6 1005 100 10000 3.1 200 20:22 27.01.2020
3584 Rain 6 1006 100 10000 3.1 190 19:59 27.01.2020
3585 Rain 6 1006 100 10000 3.1 190 19:40 27.01.2020
3586 Rain 6 1006 100 10000 3.6 200 19:22 27.01.2020
3587 Rain 6 1007 100 10000 3.6 200 18:56 27.01.2020
3588 Rain 6 1007 100 10000 3.6 200 18:38 27.01.2020
3589 Rain 6 1007 100 10000 4.1 180 18:19 27.01.2020
3590 Rain 6 1007 100 10000 4.6 210 17:39 27.01.2020
3591 Rain 6 1008 100 10000 3.1 200 17:21 27.01.2020
3592 Rain 6 1008 87 10000 5.7 200 16:59 27.01.2020
3593 Rain 6 1008 87 10000 5.7 200 16:41 27.01.2020
3594 Rain 7 1009 93 10000 5.1 200 16:23 27.01.2020
3595 Rain 7 1009 93 7000 4.6 180 15:55 27.01.2020
3596 Rain 7 1009 93 7000 4.6 180 15:55 27.01.2020
3597 Rain 7 1009 93 6000 4.6 190 15:37 27.01.2020
3598 Rain 7 1009 93 6000 4.6 190 15:36 27.01.2020
3599 Rain 7 1009 93 6000 4.6 190 15:18 27.01.2020
3600 Rain 7 1009 93 10000 5.1 180 14:42 27.01.2020
3601 Rain 7 1010 93 10000 4.6 180 14:22 27.01.2020
3602 Rain 7 1010 100 10000 1.5 180 13:58 27.01.2020
3603 Rain 7 1010 100 10000 1.5 180 13:39 27.01.2020
3604 Rain 7 1011 100 10000 2.1 190 13:19 27.01.2020
3605 Clouds 6 1011 81 10000 4.6 180 12:54 27.01.2020
3606 Rain 6 1012 93 10000 4.1 180 12:36 27.01.2020
3607 Rain 6 1012 93 10000 4.1 180 12:18 27.01.2020
3608 Rain 6 1012 87 10000 3.6 180 11:41 27.01.2020
3609 Rain 5 1013 93 10000 4.6 180 11:21 27.01.2020
3610 Mist 5 1013 100 4400 1.5 150 10:43 27.01.2020
3611 Rain 4 1013 100 2400 1.5 180 10:24 27.01.2020
3612 Mist 4 1014 100 2000 3.41 194 09:56 27.01.2020
3613 Mist 4 1014 100 2000 3.41 194 09:38 27.01.2020
3614 Fog 4 1014 100 1400 3.41 194 09:18 27.01.2020
3615 Mist 3 1014 100 4500 2.1 210 08:43 27.01.2020
3616 Mist 3 1014 100 4000 2.1 260 08:22 27.01.2020
3617 Mist 3 1014 100 4000 1.5 210 07:54 27.01.2020
3618 Fog 3 1015 100 800 2.97 186 07:35 27.01.2020
3619 Mist 2 1015 100 2800 2.6 230 06:53 27.01.2020
3620 Mist 2 1015 100 2200 2.1 160 06:27 27.01.2020
3621 Fog 2 1015 100 600 1.5 160 05:28 27.01.2020
3622 Mist 2 1016 100 1500 2.1 240 03:58 27.01.2020
3623 Fog 2 1016 100 300 1 0 02:43 27.01.2020
3624 Fog 2 1017 100 200 0.5 0 01:31 27.01.2020
3625 Fog 2 1017 100 200 1 0 00:59 27.01.2020
3626 Fog 2 1017 100 200 1 230 00:37 27.01.2020
3627 Fog 2 1017 100 200 1 230 00:19 27.01.2020
3628 Fog 2 1018 100 800 1.95 193 23:41 26.01.2020
3629 Fog 2 1018 100 800 1.56 178 23:19 26.01.2020
3630 Mist 2 1018 100 1100 2.1 210 22:57 26.01.2020
3631 Mist 2 1018 100 2200 2.1 160 22:37 26.01.2020
3632 Mist 2 1018 100 2200 2.1 160 22:18 26.01.2020
3633 Mist 2 1018 100 2500 2.1 190 21:56 26.01.2020
3634 Mist 2 1018 100 2000 1.5 210 21:38 26.01.2020
3635 Mist 2 1018 100 2000 1.5 210 21:19 26.01.2020
3636 Mist 2 1018 100 2000 1.5 210 21:19 26.01.2020
3637 Fog 2 1018 100 500 1 0 20:56 26.01.2020
3638 Fog 2 1018 100 500 1 0 20:38 26.01.2020
3639 Fog 2 1018 100 250 1.5 160 20:18 26.01.2020
3640 Fog 2 1018 100 250 1.5 210 19:57 26.01.2020
3641 Fog 2 1018 100 400 1.5 180 19:37 26.01.2020
3642 Fog 2 1018 100 400 1.5 180 19:18 26.01.2020
3643 Fog 2 1018 100 300 2.1 200 18:41 26.01.2020
3644 Fog 2 1018 100 300 2.1 220 18:22 26.01.2020
3645 Fog 2 1018 100 500 2.1 220 17:59 26.01.2020
3646 Fog 2 1018 100 400 1.34 182 17:40 26.01.2020
3647 Fog 2 1018 100 800 1.5 200 17:20 26.01.2020
3648 Fog 2 1018 100 800 1.5 200 17:20 26.01.2020
3649 Fog 2 1018 100 800 1 200 16:59 26.01.2020
3650 Fog 2 1018 100 800 1 200 16:40 26.01.2020
3651 Mist 3 1018 100 1000 1.5 210 16:22 26.01.2020
3652 Mist 3 1018 100 1000 1.5 210 16:22 26.01.2020
3653 Fog 2 1019 100 400 1.5 180 15:58 26.01.2020
3654 Fog 2 1019 100 400 1.5 180 15:58 26.01.2020
3655 Fog 3 1019 100 400 1.5 180 15:58 26.01.2020
3656 Fog 3 1019 100 400 1.5 180 15:40 26.01.2020
3657 Fog 3 1019 100 400 1.5 190 15:19 26.01.2020
3658 Fog 3 1019 100 400 1.5 190 14:41 26.01.2020
3659 Mist 2 1019 100 2200 1.5 170 14:23 26.01.2020
3660 Mist 2 1019 100 2200 1.5 170 13:59 26.01.2020
3661 Mist 2 1019 100 2200 1.5 170 13:59 26.01.2020
3662 Mist 2 1019 100 2200 1.5 170 13:38 26.01.2020
3663 Fog 2 1020 100 800 1.5 190 13:18 26.01.2020
3664 Fog 2 1020 100 800 1.5 190 12:43 26.01.2020
3665 Fog 2 1020 100 800 1.5 190 12:43 26.01.2020
3666 Fog 2 1020 100 800 1.5 190 12:24 26.01.2020
3667 Fog 2 1020 100 400 1.5 170 11:59 26.01.2020
3668 Fog 2 1020 100 400 1.5 170 11:40 26.01.2020
3669 Fog 1 1020 90 500 1.5 160 11:19 26.01.2020
3670 Fog 1 1020 90 500 1.5 160 10:59 26.01.2020
3671 Fog 1 1020 90 500 1.5 160 10:39 26.01.2020
3672 Fog 1 1020 90 500 1.5 160 10:21 26.01.2020
3673 Fog 1 1020 90 300 1.5 160 09:59 26.01.2020
3674 Fog 1 1020 90 300 1.5 160 09:41 26.01.2020
3675 Fog 0 1020 90 300 2.1 0 09:22 26.01.2020
3676 Fog 0 1020 90 300 1.5 120 08:45 26.01.2020
3677 Fog 0 1020 85 300 2.1 150 08:24 26.01.2020
3678 Fog 1 1020 90 400 2.1 160 07:59 26.01.2020
3679 Fog 1 1020 90 400 2.1 160 07:41 26.01.2020
3680 Fog 0 1020 100 300 2.1 150 07:22 26.01.2020
3681 Fog 1 1020 100 300 1.5 110 06:32 26.01.2020
3682 Mist 1 1020 100 1400 0.2 126 05:37 26.01.2020
3683 Fog 1 1020 100 400 1 0 04:58 26.01.2020
3684 Fog 0 1021 100 800 1 0 02:59 26.01.2020
3685 Fog 1 1021 100 700 1 0 01:59 26.01.2020
3686 Fog 1 1021 100 700 1 0 01:39 26.01.2020
3687 Fog 1 1021 100 700 0.5 0 01:19 26.01.2020
3688 Mist 1 1021 100 1000 1 80 00:39 26.01.2020
3689 Mist 1 1021 100 1200 1 110 00:20 26.01.2020
3690 Mist 1 1022 87 1600 0.03 260 23:38 25.01.2020
3691 Mist 1 1022 83 1600 0.22 26 23:20 25.01.2020
3692 Mist 1 1022 100 1600 1.5 10 22:43 25.01.2020
3693 Clouds 1 1015 93 0 0.22 26 22:21 25.01.2020
3694 Fog 1 1022 100 800 0.22 26 21:59 25.01.2020
3695 Fog 1 1022 100 800 0.22 26 21:59 25.01.2020
3696 Fog 1 1022 100 800 0.22 26 21:41 25.01.2020
3697 Fog 1 1022 100 800 0.22 26 21:22 25.01.2020
3698 Fog 1 1022 100 800 0.22 26 20:55 25.01.2020
3699 Fog 1 1022 100 800 0.22 26 20:36 25.01.2020
3700 Clouds 2 1022 79 0 0.29 120 20:18 25.01.2020
3701 Clouds 1 1015 91 0 0.08 135 19:42 25.01.2020
3702 Clouds 1 1015 90 0 0.08 135 19:20 25.01.2020
3703 Clouds 1 1015 90 0 0.08 135 19:20 25.01.2020
3704 Clouds 1 1015 89 0 0.29 120 18:57 25.01.2020
3705 Clouds 1 1015 89 0 0.29 120 18:57 25.01.2020
3706 Clouds 1 1015 89 0 0.29 120 18:38 25.01.2020
3707 Clouds 1 1015 89 0 0.29 120 18:20 25.01.2020
3708 Clouds 1 1015 88 0 0.08 135 17:40 25.01.2020
3709 Mist 1 1022 100 6000 0.39 182 17:20 25.01.2020
3710 Mist 1 1022 100 6000 0.39 182 16:58 25.01.2020
3711 Mist 2 1022 100 6000 0.39 182 16:39 25.01.2020
3712 Mist 2 1022 100 8000 0.39 182 16:19 25.01.2020
3713 Mist 2 1022 100 8000 0.39 182 15:47 25.01.2020
3714 Mist 2 1022 100 8000 0.39 182 15:25 25.01.2020
3715 Mist 1 1022 100 5000 0.39 182 14:59 25.01.2020
3716 Mist 2 1022 100 5000 0.39 182 14:41 25.01.2020
3717 Mist 2 1023 100 2800 0.88 203 14:18 25.01.2020
3718 Fog 1 1023 100 600 0.88 203 13:43 25.01.2020
3719 Fog 1 1023 100 800 0.88 203 13:24 25.01.2020
3720 Fog 1 1023 100 800 0.88 203 13:24 25.01.2020
3721 Drizzle 1 1024 74 2000 1 0 12:46 25.01.2020
3722 Drizzle 1 1024 74 2000 1 0 12:28 25.01.2020
3723 Drizzle 1 1024 74 2000 1 0 11:54 25.01.2020
3724 Mist 1 1024 74 1400 0.59 185 11:36 25.01.2020
3725 Fog 1 1024 78 800 1 0 11:18 25.01.2020
3726 Fog 0 1023 78 500 1 0 10:40 25.01.2020
3727 Fog 0 1023 78 400 1.5 170 10:21 25.01.2020
3728 Fog 0 1023 78 700 1.5 180 09:57 25.01.2020
3729 Fog 0 1023 78 400 0.62 203 09:37 25.01.2020
3730 Mist 0 1023 78 2300 1.5 180 09:18 25.01.2020
3731 Mist 0 1023 78 3500 2.1 170 08:42 25.01.2020
3732 Mist 0 1023 74 4000 1.5 180 07:54 25.01.2020
3733 Mist 0 1022 74 4500 1.5 210 07:21 25.01.2020
3734 Mist 0 1022 74 5000 1.5 210 06:31 25.01.2020
3735 Mist 0 1022 74 4500 1 0 05:57 25.01.2020
3736 Mist 0 1022 74 4500 1 0 05:38 25.01.2020
3737 Mist 0 1023 71 1200 1.5 180 03:58 25.01.2020
3738 Mist 0 1023 71 2500 1.5 210 03:39 25.01.2020
3739 Mist 0 1023 71 5000 2.1 240 02:36 25.01.2020
3740 Mist 0 1023 64 4000 1 0 01:57 25.01.2020
3741 Mist 0 1023 72 4500 1.5 200 01:23 25.01.2020
3742 Mist 0 1023 72 4500 1.5 220 00:39 25.01.2020
3743 Mist 0 1023 72 4000 0.3 96 00:18 25.01.2020
3744 Mist 0 1023 72 5000 1 150 23:42 24.01.2020
3745 Mist 0 1023 72 5000 1 150 23:42 24.01.2020
3746 Clouds 0 1023 72 6000 1 140 23:24 24.01.2020
3747 Clouds 0 1023 65 6000 1.5 150 22:46 24.01.2020
3748 Clouds 0 1023 65 6000 1.5 150 22:46 24.01.2020
3749 Clouds 0 1024 65 6000 1 150 22:28 24.01.2020
3750 Clouds 0 1024 86 6000 0.5 0 21:59 24.01.2020
3751 Clouds 0 1024 86 6000 0.5 0 21:40 24.01.2020
3752 Clouds 0 1024 65 6000 1 190 21:19 24.01.2020
3753 Clouds 0 1024 65 6000 1 0 20:44 24.01.2020
3754 Clouds 0 1024 60 6000 1 0 20:22 24.01.2020
3755 Clouds 0 1023 58 6000 1 0 19:59 24.01.2020
3756 Clouds 0 1023 58 6000 1 0 19:40 24.01.2020
3757 Clouds 0 1023 86 6000 1.5 190 19:22 24.01.2020
3758 Clouds 0 1023 86 6000 0.5 0 18:57 24.01.2020
3759 Clouds 0 1023 86 6000 0.5 0 18:39 24.01.2020
3760 Clouds 0 1024 86 6000 0.5 0 18:21 24.01.2020
3761 Mist 0 1023 86 5000 2.1 180 17:42 24.01.2020
3762 Mist 1 1023 86 5000 1.5 150 17:21 24.01.2020
3763 Clouds 1 1023 86 6000 2.1 170 16:57 24.01.2020
3764 Clouds 1 1023 86 6000 2.1 170 16:38 24.01.2020
3765 Clouds 1 1023 86 7000 2.1 170 16:18 24.01.2020
3766 Clouds 1 1023 86 7000 2.6 140 15:41 24.01.2020
3767 Clouds 1 1023 86 8000 2.1 220 15:21 24.01.2020
3768 Clouds 1 1024 86 9000 2.1 200 14:42 24.01.2020
3769 Clouds 1 1024 80 9000 1.5 200 14:24 24.01.2020
3770 Clouds 1 1024 80 9000 2.1 220 13:59 24.01.2020
3771 Clouds 1 1024 80 9000 2.1 220 13:40 24.01.2020
3772 Clouds 1 1025 80 8000 2.1 170 13:21 24.01.2020
3773 Clouds 1 1025 80 8000 3.1 180 12:42 24.01.2020
3774 Clouds 1 1025 80 8000 2.6 170 12:20 24.01.2020
3775 Clouds 1 1025 80 8000 2.1 170 11:44 24.01.2020
3776 Clouds 0 1025 66 8000 2.6 180 11:19 24.01.2020
3777 Clouds 0 1025 66 8000 3.1 180 10:56 24.01.2020
3778 Clouds 0 1025 66 8000 3.1 180 10:38 24.01.2020
3779 Clouds 0 1025 66 9000 2.6 190 10:18 24.01.2020
3780 Clouds 0 1025 66 9000 2.1 180 09:41 24.01.2020
3781 Clouds 0 1025 66 9000 2.6 180 09:23 24.01.2020
3782 Clouds 0 1025 66 8000 2.6 170 08:41 24.01.2020
3783 Clouds 0 1025 74 8000 2.1 190 08:21 24.01.2020
3784 Clouds 0 1025 74 8000 3.1 190 07:58 24.01.2020
3785 Clouds 0 1025 80 8000 2.6 160 07:39 24.01.2020
3786 Clouds 0 1025 86 8000 2.1 160 06:54 24.01.2020
3787 Clouds 0 1025 86 8000 1 0 06:33 24.01.2020
3788 Clouds 0 1025 86 8000 1 200 05:59 24.01.2020
3789 Clouds 0 1025 86 8000 1.5 230 05:18 24.01.2020
3790 Clouds 0 1026 74 10000 1.5 190 02:54 24.01.2020
3791 Clouds 0 1027 73 10000 2.6 210 02:27 24.01.2020
3792 Clouds 0 1027 80 10000 2.1 210 01:56 24.01.2020
3793 Clouds 0 1027 80 10000 2.1 180 01:35 24.01.2020
3794 Clouds 0 1027 86 10000 0.5 210 00:33 24.01.2020
3795 Clouds 0 1027 86 10000 0.5 0 23:58 23.01.2020
3796 Clouds 0 1027 86 10000 0.5 0 23:40 23.01.2020
3797 Clouds 0 1028 86 10000 2.1 150 23:21 23.01.2020
3798 Clouds 0 1028 86 10000 1.5 150 22:55 23.01.2020
3799 Clouds 0 1028 86 10000 1.5 150 22:55 23.01.2020
3800 Clouds 0 1028 80 10000 2.6 140 22:36 23.01.2020
3801 Clouds 0 1028 80 10000 2.6 140 22:36 23.01.2020
3802 Clouds 0 1028 80 10000 2.6 140 22:18 23.01.2020
3803 Clouds 0 1028 80 10000 3.6 110 21:55 23.01.2020
3804 Clouds 0 1028 80 10000 3.1 120 21:37 23.01.2020
3805 Clouds 0 1028 80 10000 3.1 120 21:18 23.01.2020
3806 Clouds 1 1028 80 10000 3.1 120 20:41 23.01.2020
3807 Clouds 1 1028 80 10000 3.1 120 20:22 23.01.2020
3808 Clouds 1 1028 86 10000 1.5 80 19:57 23.01.2020
3809 Clouds 1 1028 86 10000 1.5 80 19:39 23.01.2020
3810 Clouds 1 1028 80 10000 3.6 110 19:21 23.01.2020
3811 Clouds 1 1028 80 10000 3.1 70 18:56 23.01.2020
3812 Clouds 1 1028 80 10000 3.1 70 18:38 23.01.2020
3813 Clouds 1 1028 80 10000 3.1 70 18:19 23.01.2020
3814 Clouds 1 1028 80 10000 3.6 70 17:45 23.01.2020
3815 Clouds 2 1028 74 10000 3.6 100 17:21 23.01.2020
3816 Clouds 2 1029 74 10000 3.6 90 16:59 23.01.2020
3817 Clouds 3 1029 69 10000 3.1 100 16:39 23.01.2020
3818 Clouds 3 1029 69 10000 3.1 100 16:20 23.01.2020
3819 Clouds 3 1029 69 10000 3.6 20 15:58 23.01.2020
3820 Clouds 3 1030 69 10000 2.1 20 15:39 23.01.2020
3821 Clouds 3 1030 69 10000 2.6 10 15:19 23.01.2020
3822 Clouds 3 1030 69 10000 4.1 10 14:58 23.01.2020
3823 Clouds 3 1030 69 10000 4.1 10 14:40 23.01.2020
3824 Clouds 3 1031 69 10000 2.1 50 14:22 23.01.2020
3825 Clouds 3 1031 69 10000 3.1 60 13:56 23.01.2020
3826 Clouds 3 1032 69 10000 3.1 50 13:37 23.01.2020
3827 Clouds 2 1032 69 10000 3.1 50 13:18 23.01.2020
3828 Clouds 3 1032 74 10000 4.1 80 12:43 23.01.2020
3829 Clouds 2 1032 74 10000 4.1 60 12:24 23.01.2020
3830 Clouds 2 1033 74 10000 4.6 50 11:56 23.01.2020
3831 Clouds 2 1033 80 10000 4.6 70 11:37 23.01.2020
3832 Clouds 2 1033 80 10000 4.6 70 11:37 23.01.2020
3833 Clouds 2 1033 80 10000 4.6 70 11:18 23.01.2020
3834 Clouds 2 1033 80 10000 4.6 70 11:18 23.01.2020
3835 Clouds 1 1033 68 10000 4.6 60 10:43 23.01.2020
3836 Clouds 1 1033 71 10000 4.1 60 10:19 23.01.2020
3837 Clouds 1 1034 68 6000 3.1 60 09:43 23.01.2020
3838 Clouds 1 1034 68 6000 3.1 60 09:25 23.01.2020
3839 Clouds 1 1034 71 6000 3.1 30 08:58 23.01.2020
3840 Clouds 0 1034 71 8000 2.6 30 08:40 23.01.2020
3841 Clouds 0 1034 77 8000 2.6 30 08:21 23.01.2020
3842 Clouds 0 1034 77 8000 2.6 60 07:44 23.01.2020
3843 Clouds 0 1034 77 6000 3.6 30 07:24 23.01.2020
3844 Mist 0 1034 86 5000 3.6 10 06:51 23.01.2020
3845 Drizzle 0 1034 77 5000 2.1 50 06:22 23.01.2020
3846 Drizzle 0 1034 77 5000 2.6 360 05:44 23.01.2020
3847 Mist 0 1035 73 3700 1.5 60 04:24 23.01.2020
3848 Mist 0 1036 73 4000 1.97 51 02:34 23.01.2020
3849 Drizzle 0 1037 63 4400 1.5 100 01:19 23.01.2020
3850 Drizzle -1 1037 100 4500 0.5 0 00:27 23.01.2020
3851 Drizzle -1 1036 63 4600 1.5 140 23:48 22.01.2020
3852 Drizzle -1 1036 63 4600 1.5 140 23:29 22.01.2020
3853 Drizzle -1 1036 51 5000 2.1 40 22:59 22.01.2020
3854 Drizzle -1 1036 51 5000 2.1 40 22:40 22.01.2020
3855 Drizzle -1 1036 92 4700 2.6 20 22:22 22.01.2020
3856 Snow -1 1036 92 3900 2.6 20 21:40 22.01.2020
3857 Snow -1 1036 92 3900 2.6 20 21:22 22.01.2020
3858 Snow -1 1036 92 3900 1 70 20:57 22.01.2020
3859 Snow -1 1036 92 4000 1.5 90 20:39 22.01.2020
3860 Snow -1 1036 92 4000 1.5 90 20:21 22.01.2020
3861 Mist -2 1036 100 4000 1 0 19:57 22.01.2020
3862 Mist -1 1036 92 4000 1 150 19:38 22.01.2020
3863 Mist -1 1036 92 4000 1 150 19:18 22.01.2020
3864 Mist -1 1036 92 3500 1.5 100 18:56 22.01.2020
3865 Mist -2 1035 92 3500 1.5 150 18:38 22.01.2020
3866 Mist -2 1035 92 3500 1.5 150 18:19 22.01.2020
3867 Mist -2 1035 100 2500 1.5 120 17:54 22.01.2020
3868 Mist -2 1035 92 2500 2.1 20 17:36 22.01.2020
3869 Mist -1 1035 92 2500 2.1 20 17:18 22.01.2020
3870 Mist -1 1035 92 2500 2.1 20 17:18 22.01.2020
3871 Mist -1 1035 92 1700 1.5 70 16:43 22.01.2020
3872 Mist -1 1035 92 1400 1 0 16:22 22.01.2020
3873 Mist -1 1035 92 1200 1 0 15:58 22.01.2020
3874 Mist -1 1036 100 1200 1.5 200 15:39 22.01.2020
3875 Mist -1 1036 100 1200 1.5 200 15:21 22.01.2020
3876 Snow -1 1036 92 1400 1.5 170 14:56 22.01.2020
3877 Snow -1 1036 100 1400 1 170 14:36 22.01.2020
3878 Snow -1 1036 100 1400 1 170 14:18 22.01.2020
3879 Snow -1 1036 100 800 1 0 13:54 22.01.2020
3880 Mist -1 1036 92 2700 2.1 150 13:36 22.01.2020
3881 Mist -1 1036 92 2700 2.1 150 13:18 22.01.2020
3882 Mist -1 1036 92 2700 2.6 130 12:54 22.01.2020
3883 Fog -1 1037 100 1500 2.1 60 12:36 22.01.2020
3884 Fog -1 1037 100 1500 2.1 60 12:18 22.01.2020
3885 Fog -1 1037 100 1500 2.1 130 11:54 22.01.2020
3886 Mist -2 1037 92 1000 1.12 56 11:36 22.01.2020
3887 Fog -2 1036 100 1500 1 0 11:18 22.01.2020
3888 Fog -3 1036 92 900 2.1 200 10:42 22.01.2020
3889 Fog -3 1036 100 600 2.1 190 10:19 22.01.2020
3890 Fog -4 1036 92 800 1 0 09:43 22.01.2020
3891 Fog -4 1036 92 9000 2.1 180 09:24 22.01.2020
3892 Clouds -4 1036 85 9000 1 0 08:57 22.01.2020
3893 Clouds -4 1036 85 9000 1 0 08:57 22.01.2020
3894 Fog -4 1036 85 200 0.98 239 08:39 22.01.2020
3895 Clouds -4 1036 92 10000 0.33 11 08:20 22.01.2020
3896 Clouds -4 1036 85 10000 2.6 90 07:48 22.01.2020
3897 Clouds -5 1036 100 10000 1.5 50 07:30 22.01.2020
3898 Clouds -4 1035 92 10000 1 0 06:50 22.01.2020
3899 Clouds -5 1036 92 10000 1.5 100 06:26 22.01.2020
3900 Clouds -5 1036 92 10000 1 0 05:33 22.01.2020
3901 Clouds -4 1036 92 10000 1.5 80 04:18 22.01.2020
3902 Clouds -4 1037 92 10000 2.1 80 03:21 22.01.2020
3903 Clear -4 1037 92 10000 0.5 170 01:44 22.01.2020
3904 Clear -3 1038 100 10000 0.5 320 00:44 22.01.2020
3905 Clear -3 1038 92 10000 0.5 180 00:26 22.01.2020
3906 Clear -3 1038 92 10000 0.5 0 23:38 21.01.2020
3907 Clear -3 1038 92 10000 0.5 260 23:38 21.01.2020
3908 Clear -3 1038 92 10000 0.5 0 23:38 21.01.2020
3909 Clear -3 1038 92 10000 0.5 260 23:20 21.01.2020
3910 Clear -3 1038 100 10000 1 180 22:59 21.01.2020
3911 Clear -3 1038 100 10000 1 180 22:39 21.01.2020
3912 Clear -2 1039 92 10000 0.5 0 22:20 21.01.2020
3913 Clear -2 1038 92 10000 1 190 21:56 21.01.2020
3914 Clear -2 1039 92 10000 1 0 21:37 21.01.2020
3915 Clear -2 1039 92 10000 1 0 21:19 21.01.2020
3916 Clear -1 1039 86 10000 1 100 20:55 21.01.2020
3917 Clear -1 1039 86 10000 2.1 50 20:37 21.01.2020
3918 Clear -1 1039 86 10000 2.1 50 20:18 21.01.2020
3919 Clear -1 1039 86 10000 2.1 50 20:18 21.01.2020
3920 Clear -1 1039 86 10000 0.5 150 19:55 21.01.2020
3921 Clear -1 1039 63 10000 0.5 0 19:37 21.01.2020
3922 Clear -1 1039 63 10000 0.5 0 19:19 21.01.2020
3923 Clear 0 1039 74 10000 0.5 0 18:55 21.01.2020
3924 Clear 0 1039 69 10000 1 0 18:36 21.01.2020
3925 Clear 1 1039 69 10000 1 0 18:18 21.01.2020
3926 Clear 1 1039 80 10000 1 70 17:43 21.01.2020
3927 Clear 2 1040 60 10000 1 0 17:20 21.01.2020
3928 Clear 4 1040 60 10000 2.1 100 16:58 21.01.2020
3929 Clear 4 1040 60 10000 1.5 70 16:37 21.01.2020
3930 Clear 4 1040 60 10000 1.5 70 16:18 21.01.2020
3931 Clear 4 1040 60 10000 2.1 80 15:42 21.01.2020
3932 Clear 5 1040 60 10000 2.1 90 15:21 21.01.2020
3933 Clear 5 1040 60 10000 2.6 60 14:59 21.01.2020
3934 Clear 5 1041 60 10000 2.1 80 14:38 21.01.2020
3935 Clear 5 1041 60 10000 2.1 80 14:19 21.01.2020
3936 Clear 4 1041 64 10000 2.6 60 13:40 21.01.2020
3937 Clear 4 1041 64 10000 2.6 60 13:19 21.01.2020
3938 Clear 3 1042 69 10000 3.1 70 12:44 21.01.2020
3939 Clear 3 1042 74 10000 3.1 70 12:25 21.01.2020
3940 Clear 2 1043 74 10000 3.6 70 11:58 21.01.2020
3941 Clear 2 1043 74 10000 3.6 70 11:40 21.01.2020
3942 Clear 1 1043 86 10000 3.6 80 11:21 21.01.2020
3943 Clear 0 1043 74 10000 3.1 80 10:55 21.01.2020
3944 Clear 0 1043 74 10000 2.6 90 10:37 21.01.2020
3945 Clear -1 1043 74 10000 2.6 90 10:18 21.01.2020
3946 Clear -2 1043 92 10000 2.1 80 09:41 21.01.2020
3947 Clear -2 1043 92 10000 2.1 80 09:22 21.01.2020
3948 Clear -3 1043 92 10000 1.5 0 08:50 21.01.2020
3949 Clear -3 1043 92 10000 2.6 20 08:30 21.01.2020
3950 Clear -3 1043 86 10000 2.1 70 07:59 21.01.2020
3951 Clear -3 1043 86 10000 2.1 70 07:40 21.01.2020
3952 Clear -3 1043 86 10000 1.5 90 07:40 21.01.2020
3953 Clear -3 1043 86 10000 1.5 90 07:21 21.01.2020
3954 Clear -3 1043 92 10000 2.1 100 06:49 21.01.2020
3955 Clear -3 1043 92 10000 3.1 90 06:29 21.01.2020
3956 Clear -3 1043 86 10000 2.1 70 05:42 21.01.2020
3957 Clear -2 1043 86 10000 3.1 70 04:40 21.01.2020
3958 Clear -2 1044 80 10000 2.1 60 02:56 21.01.2020
3959 Clouds -1 1045 78 10000 1.5 50 01:55 21.01.2020
3960 Clouds -1 1045 86 10000 2.1 60 01:18 21.01.2020
3961 Clouds -1 1045 92 10000 1.5 60 00:37 21.01.2020
3962 Clouds -1 1045 86 10000 2.1 70 23:59 20.01.2020
3963 Clouds -1 1045 92 10000 1 0 23:39 20.01.2020
3964 Clouds -1 1045 92 10000 1 0 23:39 20.01.2020
3965 Clouds -1 1045 92 10000 1 0 23:19 20.01.2020
3966 Clouds -1 1045 80 10000 2.1 80 22:56 20.01.2020
3967 Clouds 0 1045 74 10000 3.1 20 22:38 20.01.2020
3968 Clouds 0 1045 74 10000 3.1 20 22:20 20.01.2020
3969 Clouds 0 1045 80 10000 3.6 20 21:57 20.01.2020
3970 Clouds 0 1045 80 10000 4.1 30 21:37 20.01.2020
3971 Clouds 0 1045 80 10000 4.1 30 21:19 20.01.2020
3972 Clouds 1 1045 80 10000 4.1 30 20:56 20.01.2020
3973 Clouds 0 1045 74 10000 5.7 20 20:38 20.01.2020
3974 Clouds 1 1045 74 10000 5.7 20 20:18 20.01.2020
3975 Clouds 1 1045 74 10000 4.6 20 19:56 20.01.2020
3976 Clouds 1 1045 74 10000 3.6 20 19:38 20.01.2020
3977 Clouds 1 1045 74 10000 3.6 20 19:18 20.01.2020
3978 Clouds 2 1045 69 10000 4.6 20 18:44 20.01.2020
3979 Clouds 2 1045 69 10000 5.1 30 18:22 20.01.2020
3980 Clouds 3 1045 65 10000 4.1 40 17:58 20.01.2020
3981 Clouds 3 1045 65 10000 4.6 30 17:36 20.01.2020
3982 Clouds 3 1045 65 10000 4.6 30 17:36 20.01.2020
3983 Clouds 3 1045 65 10000 4.6 30 17:18 20.01.2020
3984 Clouds 4 1045 60 10000 4.6 20 16:43 20.01.2020
3985 Clouds 5 1045 60 10000 4.6 10 16:25 20.01.2020
3986 Clouds 5 1045 60 10000 5.1 30 15:58 20.01.2020
3987 Clouds 5 1046 60 10000 4.1 60 15:39 20.01.2020
3988 Clouds 5 1046 60 10000 4.1 60 15:21 20.01.2020
3989 Clouds 5 1046 52 10000 3.6 70 14:42 20.01.2020
3990 Clouds 5 1046 56 10000 3.6 80 14:24 20.01.2020
3991 Clouds 5 1046 56 10000 4.1 60 13:59 20.01.2020
3992 Clouds 5 1046 56 10000 4.1 60 13:40 20.01.2020
3993 Clouds 5 1046 56 10000 4.6 50 13:22 20.01.2020
3994 Clouds 5 1047 60 10000 4.6 70 12:48 20.01.2020
3995 Clouds 5 1047 62 10000 4.6 60 12:29 20.01.2020
3996 Clouds 5 1047 62 10000 4.6 60 12:29 20.01.2020
3997 Clouds 5 1047 70 10000 4.6 50 11:59 20.01.2020
3998 Clouds 5 1047 75 10000 4.1 40 11:40 20.01.2020
3999 Clouds 4 1047 75 10000 4.1 40 11:22 20.01.2020
4000 Clouds 3 1047 80 10000 1.5 80 10:57 20.01.2020
4001 Clear 2 1047 86 0 1 0 10:39 20.01.2020
4002 Clear 2 1047 86 0 1 0 10:19 20.01.2020
4003 Clouds 1 1046 73 10000 0.5 0 09:41 20.01.2020
4004 Clouds 0 1046 92 10000 1.5 160 09:21 20.01.2020
4005 Clouds 0 1046 92 10000 1.5 150 08:49 20.01.2020
4006 Clouds 0 1046 73 10000 2.1 160 08:30 20.01.2020
4007 Clouds 0 1045 84 10000 1 0 07:54 20.01.2020
4008 Clouds 1 1046 84 10000 1 0 07:30 20.01.2020
4009 Clouds 1 1045 86 10000 1.5 130 06:59 20.01.2020
4010 Clouds 1 1045 84 10000 1 0 06:34 20.01.2020
4011 Clouds 1 1045 100 10000 0.5 0 05:49 20.01.2020
4012 Clouds 1 1045 92 10000 1 0 05:30 20.01.2020
4013 Clouds 1 1045 92 10000 1 0 05:30 20.01.2020
4014 Clear 1 1044 100 10000 1 0 04:58 20.01.2020
4015 Clear 1 1044 81 10000 1 240 03:46 20.01.2020
4016 Clouds 2 1044 79 10000 0.5 0 01:58 20.01.2020
4017 Clouds 2 1044 93 10000 1 0 01:38 20.01.2020
4018 Clouds 2 1044 93 10000 1 200 00:46 20.01.2020
4019 Clouds 2 1044 93 10000 1.5 260 00:27 20.01.2020
4020 Clouds 3 1043 86 10000 0.5 0 23:55 19.01.2020
4021 Clouds 3 1043 86 10000 0.5 0 23:36 19.01.2020
4022 Clouds 3 1043 86 10000 0.5 0 23:18 19.01.2020
4023 Clouds 3 1043 80 10000 1.5 60 22:54 19.01.2020
4024 Clouds 3 1043 75 10000 3.1 40 22:36 19.01.2020
4025 Clouds 3 1043 75 10000 3.1 40 22:18 19.01.2020
4026 Clouds 3 1043 75 10000 3.1 30 21:55 19.01.2020
4027 Clouds 3 1043 75 10000 3.1 30 21:55 19.01.2020
4028 Clouds 3 1043 75 10000 3.1 30 21:55 19.01.2020
4029 Rain 3 1042 86 10000 3.1 30 21:37 19.01.2020
4030 Rain 3 1042 86 10000 3.1 30 21:19 19.01.2020
4031 Rain 3 1042 75 10000 4.1 20 20:55 19.01.2020
4032 Rain 3 1042 75 10000 4.1 20 20:55 19.01.2020
4033 Rain 3 1042 80 10000 3.6 20 20:37 19.01.2020
4034 Rain 3 1042 80 10000 3.6 20 20:37 19.01.2020
4035 Clouds 3 1042 80 10000 3.6 20 20:18 19.01.2020
4036 Clouds 3 1041 86 10000 3.1 10 19:54 19.01.2020
4037 Clouds 3 1041 80 10000 2.6 20 19:36 19.01.2020
4038 Clouds 3 1041 80 10000 2.6 20 19:18 19.01.2020
4039 Rain 3 1040 80 10000 2.6 10 18:54 19.01.2020
4040 Rain 3 1040 75 10000 2.6 340 18:36 19.01.2020
4041 Rain 3 1040 80 10000 2.6 350 18:18 19.01.2020
4042 Clouds 3 1039 75 10000 2.6 350 17:56 19.01.2020
4043 Clouds 4 1039 75 10000 2.6 350 17:38 19.01.2020
4044 Rain 4 1039 80 10000 4.1 50 17:18 19.01.2020
4045 Clouds 4 1038 70 10000 4.1 30 16:55 19.01.2020
4046 Clouds 4 1038 70 10000 3.1 40 16:36 19.01.2020
4047 Clouds 5 1038 70 10000 3.1 40 16:18 19.01.2020
4048 Clouds 5 1037 70 10000 2.6 330 15:54 19.01.2020
4049 Clouds 5 1037 70 10000 2.6 30 15:36 19.01.2020
4050 Clouds 5 1037 70 10000 3.1 10 15:18 19.01.2020
4051 Clouds 5 1037 70 10000 2.6 30 15:18 19.01.2020
4052 Clouds 5 1037 70 10000 3.1 10 15:18 19.01.2020
4053 Clouds 5 1037 65 10000 3.6 10 14:40 19.01.2020
4054 Clouds 5 1037 75 10000 3.6 0 14:21 19.01.2020
4055 Clouds 5 1036 70 10000 2.6 350 13:59 19.01.2020
4056 Clouds 5 1036 70 10000 2.6 330 13:40 19.01.2020
4057 Clouds 5 1036 70 10000 2.6 330 13:22 19.01.2020
4058 Clouds 5 1036 70 10000 3.6 320 12:59 19.01.2020
4059 Rain 5 1036 75 10000 3.6 330 12:41 19.01.2020
4060 Rain 5 1036 75 10000 3.6 330 12:21 19.01.2020
4061 Clouds 4 1036 75 10000 3.6 320 11:57 19.01.2020
4062 Clouds 4 1036 75 10000 2.6 0 11:38 19.01.2020
4063 Clouds 4 1036 75 10000 2.6 0 11:18 19.01.2020
4064 Clouds 3 1035 86 10000 3.1 290 10:41 19.01.2020
4065 Clouds 2 1035 86 10000 3.1 290 10:21 19.01.2020
4066 Rain 2 1034 93 10000 2.6 290 09:58 19.01.2020
4067 Rain 2 1034 79 10000 3.6 320 09:39 19.01.2020
4068 Rain 2 1034 79 10000 3.6 320 09:21 19.01.2020
4069 Clouds 1 1033 79 10000 2.6 320 08:56 19.01.2020
4070 Clouds 1 1033 79 10000 2.1 310 08:38 19.01.2020
4071 Clouds 1 1033 84 10000 2.1 310 08:19 19.01.2020
4072 Clouds 1 1032 84 10000 2.6 290 07:30 19.01.2020
4073 Clouds 1 1032 84 10000 3.1 300 06:56 19.01.2020
4074 Clouds 1 1031 84 10000 3.1 300 06:25 19.01.2020
4075 Clouds 1 1031 83 10000 2.1 320 04:39 19.01.2020
4076 Clouds 1 1030 83 10000 3.1 230 02:37 19.01.2020
4077 Clouds 1 1030 79 10000 3.1 230 02:19 19.01.2020
4078 Clouds 1 1029 81 10000 2.1 200 01:24 19.01.2020
4079 Clouds 1 1029 81 10000 1.5 230 00:45 19.01.2020
4080 Clouds 1 1029 81 10000 1.5 300 00:27 19.01.2020
4081 Clouds 1 1028 81 10000 2.6 240 23:55 18.01.2020
4082 Rain 1 1028 81 10000 3.1 240 23:37 18.01.2020
4083 Rain 1 1028 77 10000 3.1 240 23:18 18.01.2020
4084 Clouds 2 1028 77 10000 3.1 240 22:54 18.01.2020
4085 Clouds 2 1028 77 10000 3.6 250 22:36 18.01.2020
4086 Clouds 2 1028 77 10000 3.6 250 22:18 18.01.2020
4087 Clouds 2 1028 77 10000 3.6 250 21:56 18.01.2020
4088 Clouds 1 1028 77 10000 1.5 220 21:36 18.01.2020
4089 Clouds 2 1028 77 10000 1.5 220 21:18 18.01.2020
4090 Clouds 2 1028 77 10000 1.5 180 20:42 18.01.2020
4091 Rain 2 1028 74 10000 1.5 240 20:20 18.01.2020
4092 Rain 2 1028 74 10000 2.1 220 19:55 18.01.2020
4093 Rain 2 1027 74 10000 3.1 200 19:37 18.01.2020
4094 Rain 3 1027 74 10000 3.1 200 19:19 18.01.2020
4095 Clouds 3 1027 86 10000 2.1 210 18:42 18.01.2020
4096 Clouds 4 1027 80 10000 3.1 220 18:21 18.01.2020
4097 Clouds 4 1026 80 10000 3.1 200 17:54 18.01.2020
4098 Clouds 4 1026 75 10000 4.1 220 17:36 18.01.2020
4099 Clouds 4 1026 75 10000 4.1 220 17:18 18.01.2020
4100 Clouds 5 1025 75 10000 2.1 200 16:41 18.01.2020
4101 Clouds 5 1025 75 10000 2.1 200 16:23 18.01.2020
4102 Rain 5 1025 75 10000 3.1 210 15:59 18.01.2020
4103 Rain 5 1025 75 10000 3.6 220 15:41 18.01.2020
4104 Rain 5 1025 75 10000 3.6 220 15:22 18.01.2020
4105 Rain 5 1025 81 10000 4.6 220 14:55 18.01.2020
4106 Rain 5 1026 86 10000 4.6 220 14:37 18.01.2020
4107 Rain 5 1026 86 10000 4.6 220 14:18 18.01.2020
4108 Rain 5 1026 75 10000 6.2 230 13:43 18.01.2020
4109 Rain 5 1026 81 10000 5.7 260 13:24 18.01.2020
4110 Rain 5 1026 86 10000 6.2 230 12:57 18.01.2020
4111 Rain 6 1026 80 10000 4.6 270 12:38 18.01.2020
4112 Clouds 6 1026 86 10000 5.1 260 12:19 18.01.2020
4113 Clouds 5 1026 70 10000 5.1 210 11:44 18.01.2020
4114 Clouds 5 1026 75 10000 3.6 200 11:21 18.01.2020
4115 Clouds 4 1026 80 10000 3.1 190 10:56 18.01.2020
4116 Clouds 4 1026 86 10000 2.1 250 10:38 18.01.2020
4117 Clouds 4 1026 86 10000 2.1 250 10:19 18.01.2020
4118 Clouds 3 1026 93 10000 3.87 216 09:42 18.01.2020
4119 Clouds 3 1026 86 10000 3.1 200 09:24 18.01.2020
4120 Clouds 3 1025 93 10000 3.6 170 08:55 18.01.2020
4121 Clouds 2 1025 74 10000 2.6 150 08:37 18.01.2020
4122 Clouds 2 1025 82 10000 2.6 150 08:18 18.01.2020
4123 Clouds 2 1025 82 10000 2.6 150 08:18 18.01.2020
4124 Clouds 3 1025 80 10000 3.1 160 07:45 18.01.2020
4125 Clouds 3 1025 80 10000 4.6 200 07:26 18.01.2020
4126 Clouds 3 1025 80 10000 5.7 210 06:47 18.01.2020
4127 Clouds 3 1025 80 10000 5.7 210 06:47 18.01.2020
4128 Clouds 3 1024 86 10000 3.6 210 05:59 18.01.2020
4129 Clouds 3 1024 93 10000 3.1 280 05:19 18.01.2020
4130 Clouds 4 1023 80 10000 3.6 210 02:53 18.01.2020
4131 Clouds 5 1022 75 10000 4.6 240 01:52 18.01.2020
4132 Clouds 5 1022 75 10000 4.1 230 01:30 18.01.2020
4133 Clouds 5 1021 81 10000 4.1 210 00:37 18.01.2020
4134 Clouds 5 1021 81 10000 4.1 210 00:18 18.01.2020
4135 Clouds 6 1021 81 10000 4.6 220 23:41 17.01.2020
4136 Clouds 6 1021 81 10000 4.6 220 23:20 17.01.2020
4137 Clouds 6 1020 87 10000 4.1 220 22:45 17.01.2020
4138 Clouds 7 1020 81 10000 4.6 210 22:22 17.01.2020
4139 Clouds 7 1020 81 10000 4.1 230 21:59 17.01.2020
4140 Clouds 7 1020 81 10000 4.1 230 21:41 17.01.2020
4141 Clouds 7 1019 93 10000 3.1 200 21:22 17.01.2020
4142 Clouds 7 1019 93 10000 2.6 210 20:58 17.01.2020
4143 Clouds 7 1019 93 10000 2.6 210 20:38 17.01.2020
4144 Clouds 7 1019 87 10000 1.5 240 20:20 17.01.2020
4145 Clouds 7 1018 87 10000 1 0 19:55 17.01.2020
4146 Clouds 7 1018 87 10000 1 0 19:55 17.01.2020
4147 Clouds 7 1019 93 10000 3.51 225 19:37 17.01.2020
4148 Clouds 7 1018 87 10000 2.6 270 19:19 17.01.2020
4149 Clouds 7 1018 87 10000 2.1 240 18:56 17.01.2020
4150 Clouds 7 1018 87 10000 2.1 240 18:56 17.01.2020
4151 Clouds 7 1018 87 10000 3.51 225 18:36 17.01.2020
4152 Clouds 7 1018 87 10000 3.51 225 18:18 17.01.2020
4153 Clouds 7 1018 87 10000 3.51 225 17:39 17.01.2020
4154 Rain 7 1017 81 10000 3.1 210 17:20 17.01.2020
4155 Rain 8 1018 81 10000 3.7 211 16:44 17.01.2020
4156 Clouds 8 1017 75 10000 2.1 220 16:21 17.01.2020
4157 Clouds 8 1017 75 10000 2.1 220 16:21 17.01.2020
4158 Clouds 8 1017 75 10000 2.1 220 15:58 17.01.2020
4159 Clouds 8 1017 81 10000 3.7 211 15:40 17.01.2020
4160 Clouds 8 1017 81 10000 2.6 210 15:21 17.01.2020
4161 Clouds 7 1018 81 10000 3.7 211 14:43 17.01.2020
4162 Clouds 7 1018 75 10000 3.1 210 14:24 17.01.2020
4163 Clouds 8 1018 75 10000 3.1 210 13:45 17.01.2020
4164 Clouds 7 1018 81 10000 3.6 210 13:23 17.01.2020
4165 Clouds 7 1018 81 10000 2.1 200 12:48 17.01.2020
4166 Clouds 7 1019 86 10000 2.1 200 12:24 17.01.2020
4167 Clouds 6 1019 86 10000 2.1 210 11:56 17.01.2020
4168 Clouds 6 1019 86 10000 1.5 210 11:37 17.01.2020
4169 Clouds 5 1019 86 10000 1.5 210 11:18 17.01.2020
4170 Clouds 5 1019 86 10000 0.5 0 10:42 17.01.2020
4171 Fog 4 1020 100 10000 0.5 0 10:42 17.01.2020
4172 Fog 3 1020 100 10000 0.5 0 10:22 17.01.2020
4173 Clouds 3 1020 87 10000 1 0 09:57 17.01.2020
4174 Clouds 2 1020 87 10000 2.8 178 09:37 17.01.2020
4175 Clouds 2 1020 87 10000 2.8 178 09:18 17.01.2020
4176 Clouds 2 1020 100 10000 0.5 0 08:42 17.01.2020
4177 Clouds 1 1020 100 10000 0.5 0 08:24 17.01.2020
4178 Clouds 1 1020 100 10000 0.5 0 07:53 17.01.2020
4179 Clouds 1 1020 100 10000 0.5 0 07:31 17.01.2020
4180 Clouds 2 1020 100 10000 0.5 0 06:57 17.01.2020
4181 Clouds 1 1021 92 10000 0.5 80 06:37 17.01.2020
4182 Clouds 2 1021 92 10000 0.5 0 05:28 17.01.2020
4183 Clear 2 1022 100 10000 0.43 123 03:39 17.01.2020
4184 Clear 3 1022 100 10000 0.43 123 02:45 17.01.2020
4185 Clear 4 1023 93 10000 0.76 91 01:46 17.01.2020
4186 Clear 4 1023 93 10000 0.85 79 01:27 17.01.2020
4187 Clear 4 1023 93 10000 3.1 100 00:46 17.01.2020
4188 Clear 4 1023 93 10000 3.1 100 00:21 17.01.2020
4189 Clear 4 1024 100 10000 1 40 23:43 16.01.2020
4190 Clear 5 1024 100 10000 1 40 23:25 16.01.2020
4191 Clear 5 1024 93 10000 1.5 50 22:56 16.01.2020
4192 Clear 5 1024 93 10000 1.5 50 22:38 16.01.2020
4193 Clear 5 1024 93 10000 2.1 70 22:19 16.01.2020
4194 Clear 5 1025 100 10000 1 0 21:54 16.01.2020
4195 Clear 5 1025 100 10000 0.5 300 21:36 16.01.2020
4196 Clear 5 1025 100 10000 0.5 300 21:36 16.01.2020
4197 Clear 5 1025 100 10000 0.5 300 21:18 16.01.2020
4198 Clear 5 1025 93 10000 1 0 20:40 16.01.2020
4199 Clear 6 1025 93 10000 1 0 20:21 16.01.2020
4200 Clear 6 1025 93 10000 0.5 0 19:59 16.01.2020
4201 Clear 7 1025 87 10000 1.5 60 19:41 16.01.2020
4202 Clear 7 1025 87 10000 1.5 60 19:22 16.01.2020
4203 Clear 7 1025 87 10000 1.5 60 19:22 16.01.2020
4204 Clear 7 1025 87 10000 1.5 60 19:22 16.01.2020
4205 Clear 7 1025 87 10000 1.5 90 18:57 16.01.2020
4206 Clear 7 1025 87 10000 0.5 0 18:38 16.01.2020
4207 Clear 8 1025 87 10000 0.5 0 18:20 16.01.2020
4208 Clear 8 1025 81 10000 1 0 17:59 16.01.2020
4209 Clouds 9 1025 71 10000 1.5 180 17:40 16.01.2020
4210 Clouds 10 1025 71 10000 1.5 180 17:20 16.01.2020
4211 Clouds 10 1025 66 10000 2.6 160 16:56 16.01.2020
4212 Clouds 11 1026 62 10000 2.6 170 16:36 16.01.2020
4213 Clouds 11 1026 62 10000 2.6 170 16:18 16.01.2020
4214 Clouds 12 1026 58 10000 2.6 190 15:42 16.01.2020
4215 Clouds 12 1026 58 10000 3.1 180 15:21 16.01.2020
4216 Clouds 11 1026 62 10000 3.1 190 14:45 16.01.2020
4217 Clouds 11 1026 66 10000 4.1 190 14:24 16.01.2020
4218 Clouds 12 1027 66 10000 3.1 170 13:57 16.01.2020
4219 Clouds 11 1027 71 10000 3.6 200 13:39 16.01.2020
4220 Clouds 11 1027 71 10000 3.6 200 13:21 16.01.2020
4221 Clouds 12 1027 71 10000 3.1 200 12:45 16.01.2020
4222 Clouds 12 1028 66 10000 2.1 200 12:27 16.01.2020
4223 Clouds 11 1028 71 10000 2.1 170 11:56 16.01.2020
4224 Clouds 10 1028 76 10000 1.5 180 11:37 16.01.2020
4225 Clouds 9 1028 76 10000 1.5 180 11:19 16.01.2020
4226 Clouds 8 1028 81 10000 1.5 170 10:39 16.01.2020
4227 Clouds 8 1028 81 10000 1 0 10:21 16.01.2020
4228 Clouds 7 1028 87 10000 1 0 09:58 16.01.2020
4229 Clouds 7 1028 87 10000 1 0 09:39 16.01.2020
4230 Clouds 7 1028 93 10000 1.5 140 09:21 16.01.2020
4231 Clouds 6 1027 93 10000 0.5 0 08:52 16.01.2020
4232 Clouds 6 1027 100 10000 1 0 08:34 16.01.2020
4233 Mist 7 1027 100 2200 1.88 199 07:59 16.01.2020
4234 Mist 7 1027 100 2200 1.88 199 07:39 16.01.2020
4235 Rain 7 1027 93 10000 2.1 200 07:21 16.01.2020
4236 Rain 7 1027 93 10000 1.5 230 06:43 16.01.2020
4237 Rain 8 1026 87 10000 2.1 250 06:22 16.01.2020
4238 Rain 8 1026 87 10000 1.5 190 05:46 16.01.2020
4239 Clouds 8 1026 87 10000 2.1 220 04:40 16.01.2020
4240 Clouds 8 1026 87 10000 2.1 220 04:40 16.01.2020
4241 Rain 9 1025 87 10000 1 0 03:28 16.01.2020
4242 Clouds 9 1025 81 10000 1 0 02:43 16.01.2020
4243 Rain 10 1024 76 10000 3.6 210 01:24 16.01.2020
4244 Rain 10 1023 71 10000 2.6 190 00:25 16.01.2020
4245 Clouds 10 1022 66 0 5.1 220 23:56 15.01.2020
4246 Clouds 10 1022 66 0 5.1 220 23:38 15.01.2020
4247 Rain 11 1022 76 10000 5.7 260 23:18 15.01.2020
4248 Clouds 11 1021 62 10000 4.6 210 22:56 15.01.2020
4249 Clouds 11 1021 62 10000 4.6 200 22:36 15.01.2020
4250 Clouds 11 1021 62 10000 4.6 200 22:18 15.01.2020
4251 Clouds 11 1020 62 10000 4.6 200 21:55 15.01.2020
4252 Clouds 11 1020 62 10000 3.1 160 21:36 15.01.2020
4253 Clouds 11 1020 62 10000 3.1 160 21:18 15.01.2020
4254 Clouds 11 1020 62 10000 2.6 170 20:54 15.01.2020
4255 Clouds 11 1020 66 10000 3.6 180 20:36 15.01.2020
4256 Clouds 10 1020 66 10000 3.6 180 20:18 15.01.2020
4257 Clouds 10 1019 62 10000 5.1 180 19:54 15.01.2020
4258 Clouds 10 1019 62 10000 4.1 190 19:36 15.01.2020
4259 Clouds 10 1019 62 10000 4.1 190 19:18 15.01.2020
4260 Clouds 10 1018 58 10000 5.7 190 18:54 15.01.2020
4261 Clouds 10 1018 58 10000 5.1 200 18:36 15.01.2020
4262 Clouds 10 1018 58 10000 5.1 200 18:18 15.01.2020
4263 Clouds 10 1018 58 10000 3.6 190 17:40 15.01.2020
4264 Clouds 11 1018 58 10000 3.6 190 17:21 15.01.2020
4265 Clouds 11 1017 58 10000 3.6 180 16:56 15.01.2020
4266 -273 0 0 0 0 0 16:38 15.01.2020
4267 Clouds 11 1017 54 10000 4.6 180 16:20 15.01.2020
4268 Clouds 11 1017 54 10000 4.6 180 16:20 15.01.2020
4269 Clouds 11 1016 58 10000 5.7 160 15:43 15.01.2020
4270 Clouds 12 1016 58 10000 4.6 190 15:21 15.01.2020
4271 Clouds 11 1016 54 10000 4.1 190 14:56 15.01.2020
4272 Clouds 12 1017 58 10000 4.1 200 14:37 15.01.2020
4273 Clouds 12 1017 58 10000 4.1 200 14:18 15.01.2020
4274 Clouds 11 1017 58 10000 3.6 190 13:44 15.01.2020
4275 Clear 11 1017 62 10000 3.6 190 13:23 15.01.2020
4276 Clear 11 1017 57 10000 4.6 190 12:56 15.01.2020
4277 Clear 11 1017 57 10000 4.6 190 12:37 15.01.2020
4278 Clear 11 1017 57 10000 4.6 190 12:19 15.01.2020
4279 Clear 10 1017 61 10000 4.1 200 11:55 15.01.2020
4280 Clear 10 1017 61 10000 4.1 200 11:36 15.01.2020
4281 Clear 9 1017 61 10000 4.1 200 11:18 15.01.2020
4282 Clear 8 1017 70 10000 1.5 200 10:41 15.01.2020
4283 Clear 8 1017 70 10000 1.5 200 10:21 15.01.2020
4284 Clear 7 1017 70 10000 1.5 240 09:42 15.01.2020
4285 Clear 6 1017 70 10000 3.1 190 09:22 15.01.2020
4286 Clear 6 1017 70 10000 3.1 190 08:46 15.01.2020
4287 Clouds 6 1016 70 10000 3.6 180 08:28 15.01.2020
4288 Clouds 7 1016 70 10000 2.6 180 07:59 15.01.2020
4289 Clouds 7 1016 70 10000 2.6 180 07:40 15.01.2020
4290 Clouds 7 1016 65 10000 4.1 170 07:21 15.01.2020
4291 Clouds 7 1016 70 10000 4.6 170 06:43 15.01.2020
4292 Clouds 8 1016 70 10000 3.1 160 05:52 15.01.2020
4293 Clouds 8 1016 66 10000 4.1 200 03:56 15.01.2020
4294 Clouds 8 1015 66 10000 3.6 190 02:28 15.01.2020
4295 Clouds 8 1015 66 10000 4.1 200 01:22 15.01.2020
4296 Clouds 9 1015 61 10000 4.1 200 00:45 15.01.2020
4297 Clouds 9 1015 61 10000 5.1 200 00:26 15.01.2020
4298 Clouds 9 1015 61 10000 5.7 200 23:47 14.01.2020
4299 Clouds 9 1015 61 10000 4.1 190 23:29 14.01.2020
4300 Clouds 9 1015 61 10000 4.1 180 22:59 14.01.2020
4301 Clouds 9 1015 61 10000 4.1 180 22:40 14.01.2020
4302 Clouds 9 1014 66 10000 4.1 180 22:19 14.01.2020
4303 Clouds 9 1014 61 10000 5.1 180 21:58 14.01.2020
4304 Clouds 9 1014 61 10000 4.1 180 21:39 14.01.2020
4305 Clouds 9 1014 61 10000 4.1 180 21:39 14.01.2020
4306 Clouds 9 1014 61 10000 4.1 180 21:20 14.01.2020
4307 Clouds 9 1014 61 10000 5.1 200 20:56 14.01.2020
4308 Clouds 9 1014 71 10000 3.6 230 20:38 14.01.2020
4309 Clouds 9 1014 71 10000 3.6 230 20:19 14.01.2020
4310 Clouds 9 1014 61 10000 7.2 200 19:55 14.01.2020
4311 Clouds 9 1014 61 10000 6.7 190 19:37 14.01.2020
4312 Clouds 9 1014 61 10000 6.7 190 19:18 14.01.2020
4313 Clouds 9 1014 57 10000 6.7 190 18:41 14.01.2020
4314 Clouds 9 1014 57 10000 6.2 200 18:20 14.01.2020
4315 Clouds 9 1014 57 10000 6.2 200 17:59 14.01.2020
4316 Clouds 9 1013 61 10000 5.7 190 17:37 14.01.2020
4317 Clouds 9 1013 61 10000 5.7 190 17:18 14.01.2020
4318 Clouds 9 1013 61 10000 5.7 190 17:18 14.01.2020
4319 Clouds 9 1013 61 10000 6.7 190 16:55 14.01.2020
4320 Clouds 9 1013 61 10000 6.2 190 16:37 14.01.2020
4321 Clouds 9 1013 61 10000 6.2 190 16:18 14.01.2020
4322 Clouds 9 1013 61 10000 5.1 190 15:42 14.01.2020
4323 Clouds 9 1013 57 10000 3.1 180 15:19 14.01.2020
4324 Clouds 10 1013 57 10000 4.6 190 14:47 14.01.2020
4325 Clouds 9 1013 57 10000 6.2 200 14:23 14.01.2020
4326 Clouds 9 1013 61 10000 7.2 200 13:59 14.01.2020
4327 Clouds 9 1013 61 10000 6.2 190 13:40 14.01.2020
4328 Clouds 9 1013 61 10000 6.2 190 13:19 14.01.2020
4329 Clouds 9 1013 61 10000 6.2 190 12:42 14.01.2020
4330 Clouds 9 1013 65 10000 5.7 190 12:23 14.01.2020
4331 Clouds 8 1014 65 10000 5.7 200 11:58 14.01.2020
4332 Clouds 8 1013 65 10000 4.6 200 11:40 14.01.2020
4333 Clouds 7 1013 65 10000 4.6 200 11:22 14.01.2020
4334 Clouds 7 1013 70 10000 5.1 190 10:56 14.01.2020
4335 Clouds 7 1013 70 10000 5.1 190 10:37 14.01.2020
4336 Clouds 7 1013 70 10000 5.1 190 10:19 14.01.2020
4337 Clouds 6 1013 70 10000 3.1 190 09:43 14.01.2020
4338 Clouds 6 1013 75 10000 2.6 200 09:24 14.01.2020
4339 Clouds 6 1013 75 10000 3.1 210 08:58 14.01.2020
4340 Clouds 6 1013 75 10000 4.1 180 08:39 14.01.2020
4341 Clouds 5 1013 75 10000 4.1 180 08:20 14.01.2020
4342 Clouds 5 1013 75 10000 5.1 180 07:51 14.01.2020
4343 Clouds 5 1013 81 10000 4.1 170 07:18 14.01.2020
4344 Rain 5 1013 75 10000 4.6 180 06:42 14.01.2020
4345 Clouds 5 1013 81 10000 3.6 200 05:58 14.01.2020
4346 Clouds 5 1013 81 10000 4.6 200 04:50 14.01.2020
4347 Clouds 5 1013 81 10000 2.6 200 03:46 14.01.2020
4348 Clouds 5 1014 87 10000 1.5 270 02:33 14.01.2020
4349 Clouds 5 1015 100 10000 1.5 250 01:21 14.01.2020
4350 Clouds 5 1015 100 10000 1.5 270 00:48 14.01.2020
4351 Clouds 5 1015 100 10000 1 0 00:21 14.01.2020
4352 Clouds 5 1016 93 10000 1 280 23:44 13.01.2020
4353 Rain 5 1015 87 10000 2.1 200 23:19 13.01.2020
4354 Rain 5 1016 87 10000 1.5 210 22:58 13.01.2020
4355 Clouds 5 1016 87 10000 1 0 22:39 13.01.2020
4356 Clouds 5 1016 87 10000 1 0 22:20 13.01.2020
4357 Clouds 5 1016 87 10000 1 0 21:56 13.01.2020
4358 Clouds 5 1016 87 10000 1 0 21:56 13.01.2020
4359 Clouds 5 1017 87 10000 2.1 190 21:37 13.01.2020
4360 Clouds 5 1017 87 10000 2.1 190 21:18 13.01.2020
4361 Clouds 5 1017 87 10000 2.1 190 21:18 13.01.2020
4362 Clouds 5 1017 87 10000 2.1 180 20:56 13.01.2020
4363 Rain 5 1017 87 10000 3.1 190 20:38 13.01.2020
4364 Rain 5 1017 87 10000 3.1 190 20:19 13.01.2020
4365 Clouds 5 1017 87 10000 4.1 190 19:56 13.01.2020
4366 Clouds 5 1017 87 10000 4.1 190 19:37 13.01.2020
4367 Clouds 5 1018 93 10000 3.6 180 19:18 13.01.2020
4368 Clouds 5 1018 93 10000 3.1 140 18:55 13.01.2020
4369 Clouds 5 1018 87 10000 3.1 190 18:36 13.01.2020
4370 Clouds 5 1018 87 10000 3.1 190 18:18 13.01.2020
4371 Clouds 5 1018 87 10000 3.1 170 17:40 13.01.2020
4372 Clouds 6 1019 87 10000 3.6 190 17:21 13.01.2020
4373 Clouds 6 1019 81 10000 3.1 190 16:56 13.01.2020
4374 Clouds 6 1019 93 10000 2.1 180 16:37 13.01.2020
4375 Clouds 6 1019 93 10000 2.1 180 16:18 13.01.2020
4376 Clouds 6 1019 87 10000 2.1 170 15:43 13.01.2020
4377 Clouds 6 1019 87 10000 2.1 170 15:22 13.01.2020
4378 Clouds 6 1019 87 10000 2.1 170 15:22 13.01.2020
4379 Clouds 6 1020 93 10000 3.1 180 14:57 13.01.2020
4380 Clouds 6 1020 93 10000 3.1 180 14:37 13.01.2020
4381 Clouds 6 1020 93 10000 3.1 180 14:18 13.01.2020
4382 Clouds 6 1021 93 10000 3.1 180 13:41 13.01.2020
4383 Clouds 6 1001 81 0 2.39 202 13:23 13.01.2020
4384 Clouds 6 1022 86 10000 4.1 190 12:58 13.01.2020
4385 Clouds 6 1022 86 10000 4.1 190 12:40 13.01.2020
4386 -273 0 0 0 0 0 12:22 13.01.2020
4387 Clouds 5 1022 86 10000 4.1 190 11:57 13.01.2020
4388 Clouds 5 1022 86 10000 2.6 200 11:37 13.01.2020
4389 Clouds 5 1022 86 10000 2.6 200 11:19 13.01.2020
4390 Clouds 5 1022 86 10000 3.1 190 10:55 13.01.2020
4391 Clouds 5 1023 86 10000 3.1 200 10:37 13.01.2020
4392 Clouds 5 1023 86 10000 3.1 200 10:19 13.01.2020
4393 Clouds 4 1023 93 10000 3.6 200 09:43 13.01.2020
4394 Clouds 4 1023 93 10000 2.6 220 09:23 13.01.2020
4395 Clouds 4 1023 93 10000 2.1 230 08:56 13.01.2020
4396 Clouds 4 1023 100 10000 1.5 110 08:36 13.01.2020
4397 Clouds 4 1023 100 10000 1.5 110 08:18 13.01.2020
4398 Clouds 4 1023 100 10000 2.6 160 07:42 13.01.2020
4399 Clouds 4 1023 86 10000 3.6 180 07:21 13.01.2020
4400 Clouds 4 1024 86 10000 4.1 190 06:37 13.01.2020
4401 Clouds 5 1024 100 10000 2.1 190 05:37 13.01.2020
4402 Clouds 5 1024 86 10000 4.1 190 05:18 13.01.2020
4403 Clouds 5 1025 93 10000 4.6 190 03:41 13.01.2020
4404 Clouds 5 1025 87 10000 4.1 190 02:50 13.01.2020
4405 Clouds 5 1025 93 10000 3.6 190 02:30 13.01.2020
4406 Clouds 5 1026 93 10000 4.6 200 01:33 13.01.2020
4407 Clouds 5 1026 86 10000 4.1 200 00:46 13.01.2020
4408 Clouds 5 1026 93 10000 2.1 270 00:26 13.01.2020
4409 Clouds 4 1026 86 10000 4.6 180 23:59 12.01.2020
4410 Clouds 4 1026 86 10000 6.2 190 23:40 12.01.2020
4411 Clouds 4 1026 86 10000 6.2 190 23:21 12.01.2020
4412 Clouds 4 1026 86 10000 3.6 250 22:56 12.01.2020
4413 Clouds 4 1026 86 10000 3.6 250 22:37 12.01.2020
4414 Clouds 4 1026 86 10000 6.2 190 22:19 12.01.2020
4415 Clouds 4 1026 80 10000 5.1 190 21:54 12.01.2020
4416 Clouds 4 1026 86 10000 3.6 240 21:36 12.01.2020
4417 Clouds 4 1026 86 10000 3.6 240 21:18 12.01.2020
4418 Clouds 4 1026 80 10000 4.1 190 20:54 12.01.2020
4419 Clouds 4 1025 80 10000 6.7 190 20:36 12.01.2020
4420 Clouds 4 1025 86 10000 4.1 240 20:18 12.01.2020
4421 Clouds 4 1026 80 10000 5.1 190 19:54 12.01.2020
4422 Clouds 4 1026 86 10000 5.1 190 19:36 12.01.2020
4423 Clouds 4 1026 86 10000 5.1 190 19:18 12.01.2020
4424 Rain 4 1025 93 10000 6.7 190 18:54 12.01.2020
4425 Clouds 4 1025 86 10000 3.1 230 18:36 12.01.2020
4426 Clouds 4 1025 86 10000 3.1 230 18:18 12.01.2020
4427 Rain 4 1025 86 10000 3.6 220 17:42 12.01.2020
4428 Rain 4 1025 75 10000 5.7 200 17:21 12.01.2020
4429 Clouds 4 1025 75 10000 4.1 220 16:57 12.01.2020
4430 Clouds 4 1024 75 10000 4.6 190 16:38 12.01.2020
4431 Clouds 4 1024 75 10000 4.6 190 16:20 12.01.2020
4432 Clouds 5 1024 75 10000 5.7 190 15:55 12.01.2020
4433 Clouds 5 1025 75 10000 5.7 190 15:37 12.01.2020
4434 Clouds 5 1025 75 10000 5.7 190 15:19 12.01.2020
4435 Clouds 4 1025 75 10000 6.2 200 14:42 12.01.2020
4436 Clouds 4 1025 75 10000 7.2 220 14:23 12.01.2020
4437 Clouds 4 1025 86 10000 5.1 200 13:57 12.01.2020
4438 Clouds 4 1026 80 10000 6.2 200 13:39 12.01.2020
4439 Clouds 4 1026 80 10000 6.2 200 13:20 12.01.2020
4440 Clouds 4 1026 80 10000 5.1 190 12:55 12.01.2020
4441 Clouds 4 1026 80 10000 4.6 190 12:37 12.01.2020
4442 Clouds 4 1026 80 10000 4.6 190 12:18 12.01.2020
4443 Clouds 3 1026 80 10000 5.1 200 11:42 12.01.2020
4444 Clouds 3 1026 81 10000 5.1 200 11:22 12.01.2020
4445 Clouds 2 1026 81 10000 4.6 180 10:56 12.01.2020
4446 Clouds 2 1026 81 10000 4.6 180 10:37 12.01.2020
4447 Clouds 2 1026 81 10000 4.6 180 10:19 12.01.2020
4448 Clouds 1 1027 81 10000 3.1 180 09:42 12.01.2020
4449 Clouds 1 1027 81 10000 3.1 180 09:23 12.01.2020
4450 Clouds 1 1027 81 10000 4.1 190 08:48 12.01.2020
4451 Clouds 1 1027 81 10000 3.6 180 08:25 12.01.2020
4452 Clouds 0 1027 87 10000 4.1 170 07:58 12.01.2020
4453 Clouds 0 1027 87 10000 2.6 180 07:38 12.01.2020
4454 Clouds 0 1027 87 10000 2.6 180 07:19 12.01.2020
4455 Clouds 0 1027 100 10000 1 260 06:40 12.01.2020
4456 Clouds -1 1027 100 10000 1.5 220 05:58 12.01.2020
4457 Clouds -1 1027 92 8000 1 220 05:18 12.01.2020
4458 Clouds -1 1028 100 10000 2.1 260 03:44 12.01.2020
4459 Clouds -1 1028 100 10000 0.5 0 02:55 12.01.2020
4460 Clouds -1 1029 100 10000 0.5 0 02:30 12.01.2020
4461 Clouds -1 1029 100 10000 1 0 01:40 12.01.2020
4462 Clouds -1 1029 100 10000 0.5 210 01:21 12.01.2020
4463 Clouds 0 1030 100 10000 1 280 00:40 12.01.2020
4464 Clouds 0 1030 92 10000 1.5 210 00:18 12.01.2020
4465 Clouds 0 1030 100 10000 1.5 250 23:41 11.01.2020
4466 Clouds 0 1030 86 10000 2.1 180 23:19 11.01.2020
4467 Clouds 1 1030 84 10000 3.1 170 22:57 11.01.2020
4468 Clouds 1 1030 84 10000 3.1 170 22:39 11.01.2020
4469 Clouds 1 1030 86 10000 2.6 160 22:20 11.01.2020
4470 Clouds 1 1031 86 10000 2.6 160 21:54 11.01.2020
4471 Clouds 1 1031 86 10000 2.6 160 21:54 11.01.2020
4472 Clouds 1 1031 84 10000 1 0 21:36 11.01.2020
4473 Clouds 1 1031 84 10000 1 0 21:18 11.01.2020
4474 Clouds 2 1031 84 10000 1.5 170 20:40 11.01.2020
4475 Clouds 2 1031 79 10000 1.5 170 20:22 11.01.2020
4476 Clouds 2 1031 79 10000 2.6 190 19:58 11.01.2020
4477 Clouds 2 1031 79 10000 2.6 190 19:38 11.01.2020
4478 Clouds 2 1031 79 10000 2.1 190 19:38 11.01.2020
4479 Clouds 2 1031 79 10000 2.1 190 19:38 11.01.2020
4480 Clouds 2 1032 79 10000 1.5 190 19:20 11.01.2020
4481 Clouds 2 1032 79 10000 1.5 190 18:57 11.01.2020
4482 Clouds 3 1032 86 10000 2.1 180 18:38 11.01.2020
4483 Clouds 3 1032 86 10000 2.1 180 18:19 11.01.2020
4484 Clouds 3 1032 86 10000 2.6 190 17:57 11.01.2020
4485 Clouds 4 1032 79 10000 2.1 180 17:39 11.01.2020
4486 Clouds 4 1032 72 10000 2.1 180 17:19 11.01.2020
4487 Clouds 5 1032 70 10000 2.1 220 16:45 11.01.2020
4488 Clouds 5 1032 70 10000 2.6 230 16:27 11.01.2020
4489 Clouds 5 1032 70 10000 3.1 220 15:58 11.01.2020
4490 Clouds 5 1032 72 10000 3.1 200 15:40 11.01.2020
4491 Clouds 6 1032 72 10000 3.1 200 15:22 11.01.2020
4492 Clouds 6 1032 70 10000 2.6 200 14:57 11.01.2020
4493 Clouds 6 1033 70 10000 3.1 200 14:38 11.01.2020
4494 Clouds 6 1033 70 10000 3.1 200 14:20 11.01.2020
4495 Clouds 6 1033 65 10000 4.1 220 13:40 11.01.2020
4496 Clouds 6 1034 70 10000 2.1 220 13:20 11.01.2020
4497 Clouds 6 1034 75 10000 2.6 200 12:58 11.01.2020
4498 Clouds 6 1034 75 10000 2.6 200 12:40 11.01.2020
4499 Clouds 5 1034 80 10000 1 0 12:21 11.01.2020
4500 Clouds 5 1034 93 10000 1.5 190 11:48 11.01.2020
4501 Clouds 5 1034 93 10000 1.5 190 11:26 11.01.2020
4502 Clouds 3 1035 82 10000 1.5 250 10:51 11.01.2020
4503 Clouds 2 1034 82 10000 1.5 160 10:30 11.01.2020
4504 Clouds 2 1034 82 10000 1 0 09:58 11.01.2020
4505 Fog 1 1034 100 10000 1 0 09:38 11.01.2020
4506 Fog 1 1034 100 10000 1 0 09:20 11.01.2020
4507 Clouds 1 1033 100 10000 0.5 0 08:42 11.01.2020
4508 Clouds 1 1034 100 10000 1 0 08:22 11.01.2020
4509 Clouds 1 1034 87 10000 0.67 255 07:44 11.01.2020
4510 Clouds 1 1034 100 10000 0.5 0 07:25 11.01.2020
4511 Clouds 1 1033 87 10000 1 0 06:51 11.01.2020
4512 Clouds 2 1033 87 10000 1 0 05:48 11.01.2020
4513 Clouds 2 1032 86 10000 1 180 04:47 11.01.2020
4514 Clouds 2 1032 86 10000 0.5 0 04:28 11.01.2020
4515 Clouds 3 1032 93 10000 1.5 260 02:58 11.01.2020
4516 Clouds 4 1032 100 10000 1 0 02:38 11.01.2020
4517 Clouds 4 1031 93 10000 1.5 230 01:43 11.01.2020
4518 Clouds 5 1031 86 10000 1 0 01:20 11.01.2020
4519 Clouds 5 1030 86 10000 3.1 220 00:43 11.01.2020
4520 Clouds 5 1030 81 10000 3.1 240 00:18 11.01.2020
4521 Clouds 5 1030 81 10000 3.6 260 23:40 10.01.2020
4522 Clouds 5 1029 75 10000 3.1 260 23:40 10.01.2020
4523 Clouds 5 1029 75 10000 3.1 260 23:22 10.01.2020
4524 Clouds 5 1029 81 10000 3.1 260 22:59 10.01.2020
4525 Clouds 5 1029 81 10000 3.1 260 22:40 10.01.2020
4526 Clouds 6 1028 75 10000 4.1 240 22:20 10.01.2020
4527 Clouds 6 1028 81 10000 3.1 260 21:57 10.01.2020
4528 Clouds 6 1028 75 10000 5.7 300 21:37 10.01.2020
4529 Clouds 6 1027 81 10000 2.6 270 21:19 10.01.2020
4530 Clouds 6 1026 81 10000 4.6 290 20:43 10.01.2020
4531 Clouds 6 1026 81 10000 3.6 250 20:25 10.01.2020
4532 Clouds 6 1026 81 10000 3.6 250 20:25 10.01.2020
4533 Clouds 6 1025 81 10000 2.6 270 19:59 10.01.2020
4534 Clouds 7 1025 87 10000 4.1 260 19:38 10.01.2020
4535 Clouds 7 1025 87 10000 4.1 260 19:19 10.01.2020
4536 Rain 7 1024 81 10000 5.1 270 18:44 10.01.2020
4537 Rain 7 1024 81 10000 5.7 270 18:20 10.01.2020
4538 Clouds 7 1023 81 10000 5.7 260 17:58 10.01.2020
4539 Clouds 7 1023 81 10000 2.6 270 17:39 10.01.2020
4540 Clouds 7 1023 81 10000 2.6 270 17:21 10.01.2020
4541 Rain 8 1021 87 10000 4.1 270 16:59 10.01.2020
4542 Rain 8 1021 93 10000 3.1 240 16:40 10.01.2020
4543 Rain 8 1021 93 10000 3.1 240 16:21 10.01.2020
4544 Rain 8 1021 93 10000 3.1 240 16:21 10.01.2020
4545 Rain 8 1020 93 6000 4.6 250 15:56 10.01.2020
4546 Rain 9 1020 87 10000 4.1 290 15:37 10.01.2020
4547 Rain 9 1019 71 10000 6.2 210 15:19 10.01.2020
4548 Rain 9 1019 87 10000 5.7 260 14:56 10.01.2020
4549 Clouds 9 1019 87 10000 5.7 260 14:38 10.01.2020
4550 Rain 10 1018 81 10000 6.2 270 14:19 10.01.2020
4551 Rain 10 1018 81 10000 6.7 270 13:45 10.01.2020
4552 Clouds 10 1018 66 10000 9.3 220 13:26 10.01.2020
4553 Clouds 10 1018 71 10000 8.2 220 12:59 10.01.2020
4554 Clouds 10 1018 71 10000 8.2 230 12:40 10.01.2020
4555 Clouds 10 1018 71 10000 8.2 230 12:21 10.01.2020
4556 Clouds 10 1018 76 10000 5.1 230 11:58 10.01.2020
4557 Clouds 9 1018 76 10000 5.1 230 11:40 10.01.2020
4558 Clouds 9 1018 81 10000 3.6 180 11:19 10.01.2020
4559 Clouds 9 1017 87 10000 4.1 180 10:59 10.01.2020
4560 Clouds 8 1017 87 10000 4.6 200 10:38 10.01.2020
4561 Clouds 8 1017 87 10000 4.6 200 10:19 10.01.2020
4562 Rain 8 1017 87 10000 4.1 180 09:46 10.01.2020
4563 Rain 7 1017 87 10000 3.6 180 09:26 10.01.2020
4564 Clouds 7 1017 87 10000 2.6 180 08:58 10.01.2020
4565 Clouds 7 1017 87 10000 2.6 180 08:38 10.01.2020
4566 Clouds 7 1016 93 10000 2.6 170 08:20 10.01.2020
4567 Clouds 7 1016 87 10000 2.1 180 07:41 10.01.2020
4568 Clouds 7 1016 87 10000 2.1 180 07:41 10.01.2020
4569 Clouds 7 1016 87 10000 2.1 180 07:22 10.01.2020
4570 Clouds 7 1016 87 10000 3.1 190 06:43 10.01.2020
4571 Clouds 7 1016 87 10000 3.1 200 06:24 10.01.2020
4572 Clouds 8 1015 87 10000 3.6 200 05:33 10.01.2020
4573 Clouds 8 1016 87 10000 4.1 230 05:33 10.01.2020
4574 Rain 8 1015 93 10000 7.2 200 03:34 10.01.2020
4575 Rain 8 1015 93 10000 7.2 200 03:34 10.01.2020
4576 Rain 8 1014 93 10000 6.2 200 02:57 10.01.2020
4577 Rain 8 1015 87 10000 5.1 210 02:36 10.01.2020
4578 Rain 9 1014 93 10000 1.5 240 01:38 10.01.2020
4579 Rain 9 1014 100 10000 2.1 170 00:57 10.01.2020
4580 Rain 9 1014 100 10000 2.1 170 00:38 10.01.2020
4581 Clouds 9 1014 100 10000 4.4 209 23:57 09.01.2020
4582 Clouds 9 1014 100 10000 4.4 209 23:38 09.01.2020
4583 Clouds 9 1014 100 10000 4.4 209 23:38 09.01.2020
4584 Clouds 9 1014 100 10000 4.4 209 23:38 09.01.2020
4585 Clouds 9 1014 100 10000 4.4 209 23:38 09.01.2020
4586 Clouds 9 1014 100 10000 4.4 209 23:38 09.01.2020
4587 Rain 9 1014 100 10000 3.05 195 23:19 09.01.2020
4588 Rain 9 1014 100 10000 3.05 195 22:57 09.01.2020
4589 Rain 9 1014 100 10000 3.05 195 22:37 09.01.2020
4590 Rain 9 1014 100 10000 2.1 180 22:18 09.01.2020
4591 Rain 9 1014 100 10000 1.5 180 21:56 09.01.2020
4592 Rain 9 1014 93 10000 1.5 180 21:37 09.01.2020
4593 Rain 9 1014 100 10000 3.05 195 21:37 09.01.2020
4594 Rain 9 1014 100 10000 3.05 195 21:37 09.01.2020
4595 Rain 9 1014 100 10000 3.05 195 21:37 09.01.2020
4596 Rain 9 1015 100 10000 3.05 195 21:18 09.01.2020
4597 Rain 9 1014 93 10000 2.6 210 20:56 09.01.2020
4598 Rain 9 1014 93 10000 2.6 210 20:38 09.01.2020
4599 Rain 9 1014 93 10000 2.6 210 20:19 09.01.2020
4600 Rain 10 1015 93 10000 2.6 200 19:55 09.01.2020
4601 Rain 10 1015 93 10000 2.6 200 19:36 09.01.2020
4602 Rain 10 1015 93 10000 2.6 190 19:18 09.01.2020
4603 Rain 10 1015 93 10000 4.1 200 18:54 09.01.2020
4604 Rain 10 1015 93 10000 4.1 200 18:36 09.01.2020
4605 Rain 10 1015 100 10000 3.6 200 18:18 09.01.2020
4606 Rain 10 1015 93 10000 3.1 180 17:41 09.01.2020
4607 Rain 10 1016 87 10000 3.1 190 17:18 09.01.2020
4608 Rain 10 1016 87 10000 5.7 200 16:47 09.01.2020
4609 Rain 10 1016 87 10000 5.7 200 16:23 09.01.2020
4610 Rain 10 1016 87 10000 5.7 200 16:23 09.01.2020
4611 Rain 10 1016 87 10000 5.7 200 16:23 09.01.2020
4612 Drizzle 11 1016 93 10000 3.6 180 15:57 09.01.2020
4613 Drizzle 11 1016 93 10000 3.6 180 15:39 09.01.2020
4614 Drizzle 10 1016 93 10000 4.1 170 15:18 09.01.2020
4615 Drizzle 10 1016 93 10000 3.6 180 14:42 09.01.2020
4616 Drizzle 10 1016 93 10000 4.6 180 14:22 09.01.2020
4617 Drizzle 10 1017 93 10000 4.1 190 13:57 09.01.2020
4618 Drizzle 10 1017 93 10000 4.1 190 13:39 09.01.2020
4619 Drizzle 10 1017 100 4800 3.6 190 13:20 09.01.2020
4620 Drizzle 10 1018 100 4400 4.1 190 12:58 09.01.2020
4621 Drizzle 10 1018 100 4400 4.1 190 12:39 09.01.2020
4622 Drizzle 10 1018 93 4100 4.1 190 12:19 09.01.2020
4623 Drizzle 10 1018 93 4100 4.1 190 11:57 09.01.2020
4624 Drizzle 10 1019 93 10000 5.1 190 11:38 09.01.2020
4625 Drizzle 9 1019 100 4600 4.1 190 11:20 09.01.2020
4626 Drizzle 9 1019 100 10000 4.1 190 10:43 09.01.2020
4627 Drizzle 9 1019 100 10000 3.6 180 10:22 09.01.2020
4628 Drizzle 9 1020 100 5000 2.1 180 09:58 09.01.2020
4629 Drizzle 9 1020 93 10000 4.1 180 09:38 09.01.2020
4630 Rain 8 1020 100 3200 1.5 170 09:19 09.01.2020
4631 Mist 8 1020 100 2600 1.5 160 08:55 09.01.2020
4632 Drizzle 8 1020 93 3200 4.1 180 08:37 09.01.2020
4633 Rain 8 1020 100 4000 2.1 170 08:19 09.01.2020
4634 Drizzle 8 1021 93 4400 4.6 180 07:42 09.01.2020
4635 Rain 8 1021 100 1800 1.5 170 07:23 09.01.2020
4636 Rain 8 1021 100 6000 4.6 180 06:39 09.01.2020
4637 Rain 8 1022 100 5000 3.6 180 06:20 09.01.2020
4638 Rain 8 1022 100 4500 4.1 180 05:49 09.01.2020
4639 Drizzle 7 1023 100 3800 3.6 180 04:44 09.01.2020
4640 Rain 7 1024 100 3200 1.5 110 03:38 09.01.2020
4641 Drizzle 7 1024 100 3200 2.6 200 02:54 09.01.2020
4642 Drizzle 7 1024 100 3200 2.6 200 02:28 09.01.2020
4643 Rain 7 1025 100 2800 2.47 201 01:39 09.01.2020
4644 Rain 7 1025 100 3000 2.27 193 00:43 09.01.2020
4645 Rain 7 1025 100 1800 2.27 193 00:21 09.01.2020
4646 Drizzle 7 1025 100 3200 2.1 200 23:44 08.01.2020
4647 Drizzle 7 1025 100 3200 2.1 200 23:25 08.01.2020
4648 Rain 7 1026 100 5000 2.6 220 22:59 08.01.2020
4649 Mist 6 1026 100 1800 2.42 201 22:39 08.01.2020
4650 Rain 6 1026 93 9000 2.1 200 22:21 08.01.2020
4651 Rain 6 1026 93 9000 2.1 200 21:57 08.01.2020
4652 Drizzle 6 1026 100 6000 2.42 201 21:38 08.01.2020
4653 Mist 6 1026 100 6000 2.42 201 21:20 08.01.2020
4654 Clouds 6 1027 93 10000 3.6 210 20:58 08.01.2020
4655 Clouds 6 1026 93 10000 3.1 200 20:39 08.01.2020
4656 Clouds 6 1027 93 10000 2.6 220 20:20 08.01.2020
4657 Clouds 6 1027 93 10000 2.6 220 19:56 08.01.2020
4658 Clouds 6 1027 100 10000 2.6 220 19:56 08.01.2020
4659 Clouds 6 1027 100 10000 2.6 220 19:37 08.01.2020
4660 Clouds 6 1027 100 10000 2.6 210 19:19 08.01.2020
4661 Clouds 6 1027 100 10000 2.6 210 18:56 08.01.2020
4662 Clouds 6 1027 100 10000 2.1 220 18:37 08.01.2020
4663 Mist 6 1027 100 5000 2.59 209 18:18 08.01.2020
4664 Mist 6 1027 100 5000 2.59 209 17:55 08.01.2020
4665 Clouds 6 1027 93 10000 2.6 210 17:36 08.01.2020
4666 Clouds 6 1026 93 10000 3.6 190 17:18 08.01.2020
4667 Mist 6 1027 100 2400 3.24 207 16:54 08.01.2020
4668 Clouds 6 1027 93 9000 4.1 190 16:36 08.01.2020
4669 Clouds 6 1027 100 9000 4.6 200 16:18 08.01.2020
4670 Clouds 6 1027 100 9000 3.6 190 15:41 08.01.2020
4671 Clouds 5 1027 100 9000 4.1 190 15:21 08.01.2020
4672 Drizzle 5 1027 100 8000 3.6 200 14:57 08.01.2020
4673 Drizzle 5 1027 100 8000 3.6 200 14:39 08.01.2020
4674 Drizzle 5 1027 100 7000 4.6 190 14:20 08.01.2020
4675 Drizzle 5 1027 100 3100 4.1 200 13:40 08.01.2020
4676 Drizzle 5 1027 93 3100 4.1 190 13:19 08.01.2020
4677 Drizzle 5 1027 93 2700 5.1 200 12:42 08.01.2020
4678 Drizzle 5 1028 93 4200 5.1 200 12:19 08.01.2020
4679 Drizzle 5 1028 93 4200 5.1 200 11:55 08.01.2020
4680 Rain 5 1028 86 10000 4.1 210 11:37 08.01.2020
4681 Rain 5 1028 93 10000 4.6 190 11:19 08.01.2020
4682 Rain 5 1028 93 10000 3.6 190 10:55 08.01.2020
4683 Rain 4 1028 93 10000 3.6 190 10:37 08.01.2020
4684 Rain 4 1028 93 10000 3.6 190 10:37 08.01.2020
4685 Clouds 4 1028 100 10000 2.1 180 10:19 08.01.2020
4686 Rain 4 1028 100 10000 1.5 180 09:42 08.01.2020
4687 Clouds 4 1028 100 10000 1.5 190 09:20 08.01.2020
4688 Drizzle 4 1027 86 10000 4.1 200 08:57 08.01.2020
4689 Drizzle 4 1027 86 10000 4.1 200 08:37 08.01.2020
4690 Rain 4 1027 100 10000 4.26 203 08:19 08.01.2020
4691 Drizzle 4 1027 86 10000 4.1 200 07:50 08.01.2020
4692 Drizzle 4 1027 86 10000 4.1 200 07:32 08.01.2020
4693 Clouds 3 1027 86 10000 3.6 210 06:49 08.01.2020
4694 Clouds 3 1027 86 10000 3.6 210 06:25 08.01.2020
4695 Clouds 3 1027 86 10000 4.1 190 05:54 08.01.2020
4696 Clouds 3 1027 93 10000 3.6 190 05:18 08.01.2020
4697 Clouds 3 1028 86 10000 3.1 190 04:27 08.01.2020
4698 Clouds 3 1028 100 10000 2.6 170 02:45 08.01.2020
4699 Clouds 3 1028 100 10000 2.6 170 02:27 08.01.2020
4700 Clouds 3 1028 100 10000 3.1 180 01:52 08.01.2020
4701 Clouds 3 1028 100 10000 3.1 180 01:26 08.01.2020
4702 Clouds 3 1028 93 10000 3.6 190 00:42 08.01.2020
4703 Clouds 3 1029 100 10000 3.1 200 00:21 08.01.2020
4704 Clouds 3 1029 93 10000 3.1 200 23:45 07.01.2020
4705 Clouds 3 1029 100 10000 2.6 200 23:20 07.01.2020
4706 Clouds 3 1029 93 10000 3.1 180 22:41 07.01.2020
4707 Clouds 3 1029 100 10000 3.1 190 22:21 07.01.2020
4708 Clouds 3 1029 93 10000 3.6 180 21:59 07.01.2020
4709 Clouds 3 1029 100 10000 3.1 190 21:59 07.01.2020
4710 Clouds 3 1029 93 10000 3.6 180 21:41 07.01.2020
4711 Clouds 3 1029 100 10000 2.1 240 21:21 07.01.2020
4712 Clouds 3 1029 100 10000 2.1 240 20:57 07.01.2020
4713 Clouds 3 1029 93 10000 2.6 180 20:39 07.01.2020
4714 Clouds 3 1029 93 10000 2.6 180 20:39 07.01.2020
4715 Clouds 3 1030 93 10000 2.1 240 20:21 07.01.2020
4716 Clouds 4 1030 93 10000 2.1 240 19:57 07.01.2020
4717 Clouds 4 1030 93 10000 2.1 180 19:37 07.01.2020
4718 Clouds 4 1030 86 10000 2.6 180 19:19 07.01.2020
4719 Clouds 4 1030 86 10000 2.6 180 18:56 07.01.2020
4720 Clouds 4 1030 93 10000 2.1 180 18:37 07.01.2020
4721 Clouds 5 1030 87 10000 1.5 200 18:18 07.01.2020
4722 Clouds 5 1030 87 10000 1.5 200 17:54 07.01.2020
4723 Clouds 5 1030 81 10000 2.6 200 17:36 07.01.2020
4724 Clouds 6 1030 81 10000 3.1 180 17:18 07.01.2020
4725 Clouds 6 1030 87 10000 2.6 160 16:54 07.01.2020
4726 Clouds 6 1030 87 10000 2.6 160 16:36 07.01.2020
4727 Clouds 6 1029 52 10000 1.5 290 16:18 07.01.2020
4728 Clouds 6 1029 87 10000 2.1 170 15:42 07.01.2020
4729 Clouds 6 1029 87 10000 3.1 190 15:23 07.01.2020
4730 Clouds 6 1029 87 10000 3.1 190 14:58 07.01.2020
4731 Clouds 6 1029 81 10000 3.1 190 14:38 07.01.2020
4732 Clouds 6 1029 81 10000 2.6 180 14:19 07.01.2020
4733 Clouds 6 1029 81 10000 2.6 180 14:19 07.01.2020
4734 Clouds 6 1029 75 10000 3.1 190 13:46 07.01.2020
4735 Clouds 6 1029 81 10000 3.1 170 13:20 07.01.2020
4736 Clouds 6 1029 81 10000 3.1 170 12:56 07.01.2020
4737 Rain 6 1029 81 10000 4.1 220 12:37 07.01.2020
4738 Rain 5 1029 87 10000 3.1 200 12:18 07.01.2020
4739 Clouds 5 1029 87 10000 4.1 230 11:41 07.01.2020
4740 Clouds 4 1029 93 10000 3.6 210 11:23 07.01.2020
4741 Clouds 4 1029 93 10000 3.6 210 10:57 07.01.2020
4742 Clouds 4 1029 93 10000 3.6 210 10:57 07.01.2020
4743 Clouds 3 1029 93 8000 3.1 210 10:39 07.01.2020
4744 Clouds 3 1029 100 7000 3.6 210 10:20 07.01.2020
4745 Clouds 3 1028 100 7000 3.1 210 09:39 07.01.2020
4746 Clouds 2 1028 93 6000 1 0 09:21 07.01.2020
4747 Clouds 2 1028 93 6000 1 0 09:21 07.01.2020
4748 Clouds 2 1028 93 6000 1 0 08:57 07.01.2020
4749 Mist 2 1028 100 6000 2 239 08:38 07.01.2020
4750 Drizzle 2 1027 100 4500 3.1 230 08:18 07.01.2020
4751 Mist 2 1027 100 5000 2.05 218 07:42 07.01.2020
4752 Mist 2 1026 100 5000 2.6 230 07:20 07.01.2020
4753 Mist 2 1026 93 4500 2.1 230 06:49 07.01.2020
4754 Mist 2 1026 93 4500 2.1 230 06:29 07.01.2020
4755 Drizzle 1 1025 100 3500 2.6 200 05:41 07.01.2020
4756 Rain 0 1025 87 5000 1.5 180 03:47 07.01.2020
4757 Fog 0 1025 87 800 2.1 180 03:25 07.01.2020
4758 Fog 0 1025 82 800 2.6 180 02:20 07.01.2020
4759 Mist 0 1025 82 1600 2.1 210 01:40 07.01.2020
4760 Mist 0 1025 82 1600 2.1 210 01:40 07.01.2020
4761 Mist 0 1025 82 1600 2.1 210 01:40 07.01.2020
4762 Fog 0 1025 83 500 2.6 210 00:59 07.01.2020
4763 Fog 0 1024 83 500 3.1 200 00:21 07.01.2020
4764 Fog 0 1024 83 500 3.1 200 23:57 06.01.2020
4765 Fog 0 1025 83 400 3.6 220 23:38 06.01.2020
4766 Fog 0 1024 81 800 2.1 180 23:20 06.01.2020
4767 Fog 0 1025 81 900 2.6 220 22:55 06.01.2020
4768 Fog 0 1025 81 900 2.6 220 22:37 06.01.2020
4769 Fog 0 1025 81 500 3.1 210 22:18 06.01.2020
4770 Fog 0 1026 81 500 3.1 230 21:54 06.01.2020
4771 Fog 0 1026 81 500 3.1 230 21:36 06.01.2020
4772 Fog 0 1025 81 500 3.6 210 21:18 06.01.2020
4773 Fog 0 1025 81 500 3.6 210 20:54 06.01.2020
4774 Fog 0 1025 100 400 3.6 190 20:36 06.01.2020
4775 Fog 0 1026 100 450 3.6 200 20:18 06.01.2020
4776 Mist 0 1026 77 1400 4.1 210 19:55 06.01.2020
4777 Mist 0 1026 77 1400 4.1 210 19:36 06.01.2020
4778 Fog 0 1026 77 400 2.6 190 19:18 06.01.2020
4779 Mist 1 1026 100 1600 2.6 230 18:43 06.01.2020
4780 Mist 1 1026 100 1600 3.1 230 18:20 06.01.2020
4781 Mist 1 1026 100 2800 2.6 230 17:39 06.01.2020
4782 Mist 1 1026 100 1600 1.66 199 17:20 06.01.2020
4783 Mist 1 1026 100 3500 2.1 170 16:57 06.01.2020
4784 Clouds 1 1027 100 6000 2.1 160 16:38 06.01.2020
4785 Clouds 1 1027 100 7000 1.5 190 16:19 06.01.2020
4786 Clouds 2 1027 93 8000 2.1 170 15:44 06.01.2020
4787 Clouds 2 1027 93 10000 2.6 190 15:22 06.01.2020
4788 Clouds 1 1027 93 10000 2.6 190 15:00 06.01.2020
4789 Clouds 2 1027 93 10000 2.1 210 14:41 06.01.2020
4790 Clouds 2 1027 100 10000 2.1 210 14:22 06.01.2020
4791 Clouds 2 1027 100 10000 2.1 210 13:59 06.01.2020
4792 Mist 2 1028 93 3200 2.6 210 13:39 06.01.2020
4793 Fog 2 1028 100 600 1.5 190 13:20 06.01.2020
4794 Mist 2 1028 100 1800 2.1 160 12:55 06.01.2020
4795 Fog 2 1029 100 500 2.6 190 12:37 06.01.2020
4796 Fog 2 1029 100 400 2.1 170 12:18 06.01.2020
4797 Fog 2 1030 100 400 2.1 150 11:42 06.01.2020
4798 Fog 1 1030 100 500 1.5 0 11:24 06.01.2020
4799 Fog 1 1030 100 500 1.5 0 10:59 06.01.2020
4800 Fog 1 1030 100 700 2.1 80 10:40 06.01.2020
4801 Fog 1 1030 91 400 0.44 98 10:20 06.01.2020
4802 Mist 0 1030 91 1400 0.44 98 09:39 06.01.2020
4803 Fog 0 1030 100 150 1.5 0 09:21 06.01.2020
4804 Fog 0 1030 100 150 1 0 08:52 06.01.2020
4805 Fog 0 1030 100 150 1 0 08:34 06.01.2020
4806 Fog 0 1030 100 50 0.5 0 07:57 06.01.2020
4807 Fog 0 1031 100 50 0.5 330 07:39 06.01.2020
4808 Fog 0 1031 95 50 0.5 0 06:53 06.01.2020
4809 Fog 0 1031 95 50 0.5 0 06:35 06.01.2020
4810 Fog 0 1031 95 600 1.5 300 05:48 06.01.2020
4811 Fog 1 1031 100 100 1 250 05:23 06.01.2020
4812 Fog 1 1031 95 50 0.5 190 04:23 06.01.2020
4813 Fog 2 1032 100 1200 0.5 210 03:51 06.01.2020
4814 Clouds 3 1032 100 10000 1 180 02:28 06.01.2020
4815 Clouds 3 1032 93 10000 1.5 210 01:53 06.01.2020
4816 Clouds 3 1033 93 10000 1.5 210 01:30 06.01.2020
4817 Clouds 3 1033 93 10000 1.5 200 00:46 06.01.2020
4818 Clouds 4 1033 93 10000 1.5 200 00:28 06.01.2020
4819 Clouds 4 1033 93 10000 1.5 200 23:58 05.01.2020
4820 Clouds 4 1034 93 10000 1.5 210 23:39 05.01.2020
4821 Clouds 4 1034 93 10000 2.1 200 23:21 05.01.2020
4822 Clouds 4 1034 93 10000 2.6 190 22:40 05.01.2020
4823 Clouds 4 1034 93 10000 2.6 190 22:40 05.01.2020
4824 Clouds 4 1034 93 10000 3.1 180 22:21 05.01.2020
4825 Clouds 4 1034 93 10000 3.1 180 21:59 05.01.2020
4826 Clouds 5 1034 93 10000 3.1 170 21:40 05.01.2020
4827 Clouds 4 1034 93 10000 3.1 170 21:20 05.01.2020
4828 Clouds 5 1035 93 10000 2.6 180 20:58 05.01.2020
4829 Clouds 5 1035 93 10000 2.6 180 20:39 05.01.2020
4830 Clouds 5 1035 93 10000 2.1 190 20:20 05.01.2020
4831 Clouds 5 1035 93 10000 2.1 190 19:59 05.01.2020
4832 Clouds 5 1035 93 10000 1.5 200 19:40 05.01.2020
4833 Clouds 5 1035 93 10000 2.1 190 19:21 05.01.2020
4834 Clouds 5 1035 93 10000 2.1 190 18:56 05.01.2020
4835 Clouds 5 1035 93 10000 2.1 190 18:38 05.01.2020
4836 Clouds 5 1035 93 10000 2.1 180 18:19 05.01.2020
4837 Clouds 5 1035 100 10000 1.5 210 17:59 05.01.2020
4838 Clouds 5 1035 93 10000 2.1 180 17:59 05.01.2020
4839 Clouds 5 1035 100 10000 1.5 210 17:39 05.01.2020
4840 Clouds 5 1035 100 10000 1.5 200 17:20 05.01.2020
4841 Clouds 5 1035 100 10000 1.5 200 16:57 05.01.2020
4842 Clouds 5 1035 93 10000 1.5 190 16:39 05.01.2020
4843 Clouds 5 1035 93 10000 1.5 190 16:39 05.01.2020
4844 Clouds 5 1035 93 10000 1.5 190 16:20 05.01.2020
4845 Clouds 6 1035 93 10000 1.5 180 15:40 05.01.2020
4846 Clouds 6 1035 93 10000 1.5 180 15:22 05.01.2020
4847 Clouds 6 1035 93 10000 1.5 180 15:22 05.01.2020
4848 Clouds 6 1035 93 10000 1.5 170 15:22 05.01.2020
4849 Clouds 6 1035 93 10000 1.5 170 14:57 05.01.2020
4850 Clouds 6 1035 93 10000 1.5 190 14:39 05.01.2020
4851 Clouds 6 1035 93 10000 1 180 14:21 05.01.2020
4852 Clouds 6 1035 93 10000 1 180 13:58 05.01.2020
4853 Clouds 6 1035 93 10000 2.1 190 13:38 05.01.2020
4854 Rain 6 1036 100 9000 1.5 200 13:20 05.01.2020
4855 Rain 5 1036 100 9000 1.5 200 12:57 05.01.2020
4856 Rain 5 1036 100 7000 2.1 210 12:38 05.01.2020
4857 Rain 5 1036 100 5000 2.1 180 12:20 05.01.2020
4858 Rain 5 1036 100 5000 2.1 180 12:20 05.01.2020
4859 Drizzle 5 1036 100 4800 1.5 170 11:55 05.01.2020
4860 Drizzle 5 1036 100 4800 1.5 170 11:36 05.01.2020
4861 Drizzle 5 1036 93 4800 1 0 11:18 05.01.2020
4862 Clouds 5 1036 93 6000 1 0 10:41 05.01.2020
4863 Mist 4 1036 100 5000 1.5 190 10:20 05.01.2020
4864 Mist 4 1036 100 5000 1.5 190 09:57 05.01.2020
4865 Drizzle 4 1036 100 3400 1 200 09:38 05.01.2020
4866 Mist 4 1036 100 5000 1.14 214 09:20 05.01.2020
4867 Rain 4 1036 100 4000 1.5 90 08:45 05.01.2020
4868 Drizzle 4 1036 100 10000 1.5 150 08:21 05.01.2020
4869 Drizzle 4 1035 93 10000 1.5 110 07:47 05.01.2020
4870 Rain 4 1035 100 8000 1.5 150 07:29 05.01.2020
4871 Clouds 4 1035 87 10000 2.1 280 06:55 05.01.2020
4872 Clouds 4 1034 93 10000 1 0 05:52 05.01.2020
4873 Rain 4 1034 86 10000 2.1 190 04:57 05.01.2020
4874 Clouds 4 1034 86 10000 1 0 04:19 05.01.2020
4875 Clouds 4 1034 86 10000 1 0 04:19 05.01.2020
4876 Clouds 4 1034 86 10000 1.57 259 03:40 05.01.2020
4877 Clouds 4 1034 86 10000 2.1 150 02:41 05.01.2020
4878 Clouds 5 1034 86 10000 1.99 264 02:19 05.01.2020
4879 Clouds 5 1033 80 10000 3.6 200 01:36 05.01.2020
4880 Clouds 5 1033 81 10000 3.1 230 01:18 05.01.2020
4881 Clouds 5 1033 81 10000 5.1 240 00:40 05.01.2020
4882 Clouds 5 1033 81 10000 3.6 200 00:21 05.01.2020
4883 Clouds 5 1033 81 10000 3.6 200 00:21 05.01.2020
4884 Clouds 5 1033 81 10000 4.6 320 23:59 04.01.2020
4885 Clouds 5 1033 81 10000 4.6 320 23:39 04.01.2020
4886 Clouds 5 1032 80 10000 3.6 190 23:18 04.01.2020
4887 Clouds 5 1032 75 10000 3.6 230 22:39 04.01.2020
4888 Clouds 5 1032 75 10000 3.6 230 22:39 04.01.2020
4889 Clouds 5 1031 75 10000 6.2 250 22:21 04.01.2020
4890 Clouds 5 1031 75 10000 6.2 250 21:57 04.01.2020
4891 Clouds 5 1032 75 10000 6.7 240 21:38 04.01.2020
4892 Clouds 5 1031 75 10000 4.6 220 21:19 04.01.2020
4893 Clouds 5 1031 75 10000 4.6 220 20:57 04.01.2020
4894 Clouds 5 1031 75 10000 3.1 230 20:38 04.01.2020
4895 Clouds 5 1031 75 10000 3.1 210 20:19 04.01.2020
4896 Clouds 5 1031 75 10000 5.1 280 19:42 04.01.2020
4897 Clouds 5 1031 75 10000 5.1 280 19:42 04.01.2020
4898 Clouds 5 1030 75 10000 5.1 240 19:24 04.01.2020
4899 Clouds 5 1031 75 10000 4.6 280 18:58 04.01.2020
4900 Clouds 5 1030 75 10000 3.6 230 18:39 04.01.2020
4901 Clouds 5 1030 70 10000 3.6 240 18:21 04.01.2020
4902 Drizzle 5 1030 75 10000 5.7 290 17:58 04.01.2020
4903 Drizzle 5 1030 75 10000 5.7 290 17:40 04.01.2020
4904 Clouds 5 1029 75 10000 7.2 280 17:22 04.01.2020
4905 Clouds 5 1029 70 10000 5.1 230 16:54 04.01.2020
4906 Clouds 5 1029 70 10000 5.1 230 16:36 04.01.2020
4907 Drizzle 6 1029 75 10000 5.7 290 16:18 04.01.2020
4908 Clouds 6 1029 70 10000 8.2 250 15:42 04.01.2020
4909 Clouds 6 1029 70 10000 8.2 250 15:42 04.01.2020
4910 Clouds 6 1029 70 10000 9.3 250 15:20 04.01.2020
4911 Clouds 6 1029 70 10000 9.3 250 15:20 04.01.2020
4912 Clouds 6 1029 70 10000 9.3 250 14:59 04.01.2020
4913 Clouds 6 1029 70 10000 9.3 250 14:59 04.01.2020
4914 Clouds 6 1029 70 10000 8.7 250 14:40 04.01.2020
4915 Clouds 6 1029 70 10000 8.7 250 14:40 04.01.2020
4916 Clouds 6 1029 75 10000 8.7 250 14:20 04.01.2020
4917 Rain 5 1029 70 10000 8.2 240 13:58 04.01.2020
4918 Rain 5 1029 70 10000 8.2 240 13:37 04.01.2020
4919 Rain 5 1029 75 10000 7.7 250 13:19 04.01.2020
4920 Rain 5 1029 75 10000 7.7 250 12:56 04.01.2020
4921 Clouds 5 1030 70 10000 7.2 230 12:38 04.01.2020
4922 Clouds 5 1030 70 10000 7.2 240 12:18 04.01.2020
4923 Clouds 5 1030 70 10000 7.2 240 11:55 04.01.2020
4924 Clouds 5 1030 75 10000 6.7 230 11:36 04.01.2020
4925 Clouds 4 1030 75 10000 4.6 210 11:18 04.01.2020
4926 Clouds 4 1030 80 10000 3.6 170 10:40 04.01.2020
4927 Clouds 4 1030 80 10000 3.6 180 10:21 04.01.2020
4928 Clouds 3 1030 86 10000 3.1 190 09:44 04.01.2020
4929 Clouds 3 1030 86 10000 3.1 190 09:25 04.01.2020
4930 Clouds 3 1030 86 10000 4.1 180 08:49 04.01.2020
4931 Clouds 3 1030 86 10000 4.1 180 08:29 04.01.2020
4932 Clouds 3 1030 80 10000 4.1 190 07:56 04.01.2020
4933 Clouds 3 1030 80 10000 4.1 190 07:55 04.01.2020
4934 Clouds 3 1029 80 10000 4.6 190 07:37 04.01.2020
4935 Clouds 3 1029 93 10000 3.1 190 06:43 04.01.2020
4936 Clouds 3 1029 80 10000 2.6 270 05:59 04.01.2020
4937 Clouds 3 1028 86 10000 2.6 310 04:51 04.01.2020
4938 Clouds 3 1028 86 10000 2.6 310 04:30 04.01.2020
4939 Rain 4 1028 80 10000 3.1 290 03:29 04.01.2020
4940 Rain 4 1028 81 10000 2.1 310 02:49 04.01.2020
4941 Rain 5 1028 81 10000 5.1 320 02:18 04.01.2020
4942 Rain 5 1028 81 10000 5.1 320 02:18 04.01.2020
4943 Clouds 5 1027 81 10000 1 0 01:45 04.01.2020
4944 Clouds 6 1027 75 10000 2.1 0 01:27 04.01.2020
4945 Clouds 7 1026 81 10000 5.7 310 00:29 04.01.2020
4946 Rain 7 1025 87 10000 5.7 290 23:59 03.01.2020
4947 Rain 7 1025 87 10000 5.7 290 23:59 03.01.2020
4948 Rain 7 1025 87 10000 5.7 290 23:37 03.01.2020
4949 Rain 8 1024 93 10000 5.7 250 23:19 03.01.2020
4950 Rain 8 1024 100 10000 4.1 270 22:41 03.01.2020
4951 Rain 8 1024 100 10000 2.6 290 22:19 03.01.2020
4952 Rain 8 1023 100 10000 2.6 270 21:58 03.01.2020
4953 Rain 8 1023 100 10000 2.6 270 21:38 03.01.2020
4954 Rain 8 1023 100 10000 2.6 270 21:38 03.01.2020
4955 Rain 8 1023 100 10000 2.6 270 21:38 03.01.2020
4956 Rain 8 1023 100 10000 3.6 260 21:19 03.01.2020
4957 Rain 8 1023 100 10000 3.6 260 21:19 03.01.2020
4958 Rain 8 1023 93 10000 3.6 210 20:57 03.01.2020
4959 Rain 8 1022 87 10000 6.2 210 20:39 03.01.2020
4960 Rain 8 1022 87 10000 5.1 190 20:18 03.01.2020
4961 Clouds 8 1022 87 10000 4.6 190 19:55 03.01.2020
4962 Clouds 8 1022 87 10000 4.6 190 19:37 03.01.2020
4963 Clouds 8 1022 93 10000 5.1 240 19:18 03.01.2020
4964 Clouds 8 1022 93 10000 4.6 240 18:41 03.01.2020
4965 Rain 8 1021 87 10000 5.1 240 18:23 03.01.2020
4966 Clouds 8 1021 87 10000 7.2 200 17:55 03.01.2020
4967 Clouds 7 1021 87 10000 7.2 200 17:36 03.01.2020
4968 Clouds 7 1021 87 10000 3.6 220 17:18 03.01.2020
4969 Clouds 7 1021 81 10000 6.2 210 16:42 03.01.2020
4970 Clouds 7 1021 81 10000 6.7 210 16:22 03.01.2020
4971 Clouds 7 1021 81 10000 7.2 210 15:44 03.01.2020
4972 Clouds 7 1021 81 10000 7.2 220 15:19 03.01.2020
4973 Clouds 7 1021 81 10000 7.2 220 14:59 03.01.2020
4974 Clouds 7 1021 81 10000 6.7 210 14:38 03.01.2020
4975 Clouds 7 1021 81 10000 6.7 210 14:19 03.01.2020
4976 Clouds 7 1021 75 10000 5.7 210 13:44 03.01.2020
4977 Clouds 6 1021 81 10000 5.7 190 13:24 03.01.2020
4978 Clouds 6 1021 81 10000 5.7 190 12:59 03.01.2020
4979 Clouds 6 1021 81 10000 5.7 200 12:39 03.01.2020
4980 Clouds 6 1021 81 10000 5.7 200 12:21 03.01.2020
4981 Clouds 5 1021 87 10000 5.1 190 11:44 03.01.2020
4982 Clouds 5 1022 87 10000 5.1 200 11:21 03.01.2020
4983 Clouds 4 1022 86 10000 3.6 200 10:45 03.01.2020
4984 Clouds 4 1022 86 10000 4.6 210 10:26 03.01.2020
4985 Clouds 4 1022 93 10000 3.1 200 09:58 03.01.2020
4986 Clouds 4 1022 93 10000 3.1 200 09:39 03.01.2020
4987 Clouds 4 1022 93 10000 3.6 230 09:21 03.01.2020
4988 Clouds 4 1022 93 10000 4.1 200 08:57 03.01.2020
4989 Clouds 3 1022 93 10000 4.1 200 08:38 03.01.2020
4990 Clouds 3 1022 93 10000 3.6 200 08:19 03.01.2020
4991 Clouds 3 1022 100 10000 3.82 205 07:40 03.01.2020
4992 Clouds 3 1022 93 9000 1.5 210 07:19 03.01.2020
4993 Mist 3 1023 100 8000 1.5 60 06:50 03.01.2020
4994 Clouds 3 1023 93 9000 2.1 230 06:32 03.01.2020
4995 Clouds 2 1023 100 7000 1.5 210 05:46 03.01.2020
4996 Clouds 2 1024 93 6000 2.6 200 04:24 03.01.2020
4997 Mist 2 1024 93 5000 2.1 210 02:59 03.01.2020
4998 Mist 2 1025 100 5000 1.5 60 02:41 03.01.2020
4999 Mist 2 1025 100 4500 2.6 250 01:45 03.01.2020
5000 Mist 2 1026 100 4500 2.1 230 00:53 03.01.2020
5001 Mist 1 1026 100 4500 1 0 00:31 03.01.2020
5002 Drizzle 1 1026 100 3500 1.5 180 23:57 02.01.2020
5003 Drizzle 1 1026 100 3500 1.5 180 23:38 02.01.2020
5004 Rain 1 1026 100 3000 2.88 195 23:19 02.01.2020
5005 Drizzle 1 1026 100 3500 2.1 250 22:57 02.01.2020
5006 Mist 1 1026 74 4500 1.5 200 22:39 02.01.2020
5007 Mist 1 1027 100 4000 2.88 195 22:18 02.01.2020
5008 Mist 1 1027 74 4500 1 250 21:42 02.01.2020
5009 Mist 1 1027 74 4500 1 250 21:23 02.01.2020
5010 Mist 1 1027 74 4000 0.5 0 21:00 02.01.2020
5011 Mist 1 1027 74 4000 0.5 0 21:00 02.01.2020
5012 Mist 1 1027 74 4000 0.5 200 20:40 02.01.2020
5013 Mist 1 1027 77 4000 0.5 0 20:21 02.01.2020
5014 Mist 1 1027 77 4000 0.5 0 19:56 02.01.2020
5015 Mist 1 1028 77 4000 1 0 19:38 02.01.2020
5016 Mist 1 1028 77 5000 2.13 193 19:19 02.01.2020
5017 Mist 1 1027 77 3800 1 0 18:58 02.01.2020
5018 Mist 1 1027 77 4400 2.13 193 18:40 02.01.2020
5019 Mist 0 1028 77 3500 0.5 0 18:22 02.01.2020
5020 Mist 0 1028 77 3500 0.5 0 18:22 02.01.2020
5021 Mist 0 1028 77 3500 0.5 0 17:57 02.01.2020
5022 Mist 0 1028 77 3200 0.5 0 17:37 02.01.2020
5023 Mist 0 1028 72 4000 2.02 199 17:19 02.01.2020
5024 Mist 1 1028 72 2400 2.02 199 16:57 02.01.2020
5025 Mist 0 1028 72 2400 2.02 199 16:38 02.01.2020
5026 Mist 0 1028 72 2400 2.02 199 16:38 02.01.2020
5027 Mist 0 1028 72 2400 1 0 16:20 02.01.2020
5028 Mist 0 1028 72 2400 1.5 190 15:56 02.01.2020
5029 Mist 1 1028 72 2400 1.5 190 15:37 02.01.2020
5030 Drizzle 0 1028 72 2200 1.5 200 15:19 02.01.2020
5031 Mist 0 1028 72 1800 2.02 199 14:54 02.01.2020
5032 Drizzle 0 1029 72 2800 2.1 200 14:36 02.01.2020
5033 Mist 0 1029 75 3000 1.94 187 14:18 02.01.2020
5034 Drizzle 0 1029 75 4400 1.5 190 13:47 02.01.2020
5035 Drizzle 0 1029 75 4400 1.5 190 13:47 02.01.2020
5036 Snow 0 1030 73 2300 2.6 190 13:29 02.01.2020
5037 Mist 0 1030 73 2800 1.5 190 12:44 02.01.2020
5038 Mist -1 1030 73 2400 2.6 190 12:25 02.01.2020
5039 Mist 0 1030 73 2400 2.6 190 12:25 02.01.2020
5040 Mist -1 1031 100 1500 2.1 180 11:44 02.01.2020
5041 Mist -1 1031 100 1000 2.1 180 11:26 02.01.2020
5042 Mist -1 1031 100 1500 2.1 180 10:58 02.01.2020
5043 Mist -1 1031 100 1500 2.6 190 10:39 02.01.2020
5044 Fog -1 1031 100 800 3.1 180 10:19 02.01.2020
5045 Fog -1 1030 100 400 2.6 180 09:42 02.01.2020
5046 Mist -1 1031 100 1300 2.6 170 09:24 02.01.2020
5047 Fog -2 1030 100 800 2.6 170 08:45 02.01.2020
5048 Mist -2 1030 92 1500 2.1 180 08:27 02.01.2020
5049 Mist -2 1030 100 2000 3.1 200 07:50 02.01.2020
5050 Mist -2 1030 100 2000 3.1 200 07:30 02.01.2020
5051 Mist -2 1030 100 3600 2.6 180 06:45 02.01.2020
5052 Mist -2 1030 92 1800 3.6 220 06:26 02.01.2020
5053 Fog -2 1030 100 250 1 0 05:21 02.01.2020
5054 Fog -2 1031 100 350 3.1 220 04:31 02.01.2020
5055 Fog -2 1031 100 150 1.5 190 02:37 02.01.2020
5056 Fog -2 1031 92 400 0.52 211 01:59 02.01.2020
5057 Fog -2 1031 100 150 2.6 180 01:33 02.01.2020
5058 Fog -2 1031 92 400 2.1 170 00:57 02.01.2020
5059 Mist -2 1031 92 5000 1 0 00:33 02.01.2020
5060 Clear -2 1031 92 7000 2.6 20 23:52 01.01.2020
5061 Clear -2 1031 92 7000 2.6 20 23:28 01.01.2020
5062 Clear -2 1031 100 8000 3.1 10 22:59 01.01.2020
5063 Clear -2 1031 100 8000 3.1 10 22:38 01.01.2020
5064 Clear -2 1032 92 8000 1.5 50 22:19 01.01.2020
5065 Clear -1 1032 92 9000 2.1 60 21:56 01.01.2020
5066 Clear -1 1032 92 9000 2.1 60 21:37 01.01.2020
5067 Clear -1 1032 92 10000 2.6 60 21:19 01.01.2020
5068 Clear -1 1033 84 10000 2.1 40 20:55 01.01.2020
5069 Clear -1 1033 84 10000 2.1 40 20:37 01.01.2020
5070 Clear -1 1032 83 10000 3.1 60 20:19 01.01.2020
5071 Clear -1 1032 86 10000 4.1 60 19:55 01.01.2020
5072 Clear -1 1032 86 10000 4.1 60 19:37 01.01.2020
5073 Clear -1 1032 83 10000 4.1 50 19:19 01.01.2020
5074 Clear -1 1032 83 10000 3.6 70 18:55 01.01.2020
5075 Clear 0 1032 83 10000 3.6 70 18:36 01.01.2020
5076 Clear 0 1032 86 10000 2.6 80 18:18 01.01.2020
5077 Clear 0 1032 86 10000 1.5 70 17:56 01.01.2020
5078 Clear 0 1032 86 10000 1.5 70 17:37 01.01.2020
5079 Clear 1 1032 80 10000 1.5 40 17:18 01.01.2020
5080 Clear 2 1032 74 10000 2.1 40 16:40 01.01.2020
5081 Clear 1 1032 74 10000 2.1 40 16:40 01.01.2020
5082 Clear 2 1032 77 10000 3.1 40 16:21 01.01.2020
5083 Clear 3 1032 77 10000 3.1 60 15:58 01.01.2020
5084 Clear 3 1032 77 10000 3.1 60 15:40 01.01.2020
5085 Clear 4 1032 77 10000 3.6 70 15:21 01.01.2020
5086 Clear 4 1032 77 10000 3.6 70 14:58 01.01.2020
5087 Clear 4 1032 77 10000 4.1 70 14:40 01.01.2020
5088 Clear 4 1033 76 10000 3.6 70 14:21 01.01.2020
5089 Clear 4 1033 76 10000 4.1 70 13:56 01.01.2020
5090 Clear 4 1033 73 10000 4.1 70 13:37 01.01.2020
5091 Clear 4 1033 76 10000 4.1 70 13:37 01.01.2020
5092 Clear 4 1033 76 10000 4.1 70 13:37 01.01.2020
5093 Clear 3 1033 73 10000 4.6 50 13:18 01.01.2020
5094 Clear 3 1033 73 10000 4.6 50 12:57 01.01.2020
5095 Clear 3 1034 73 10000 3.6 50 12:39 01.01.2020
5096 Clear 2 1034 74 10000 3.6 50 12:19 01.01.2020
5097 Clear 2 1035 86 10000 3.1 50 11:43 01.01.2020
5098 Clear 0 1035 86 9000 3.6 20 11:23 01.01.2020
5099 Clear 0 1035 86 9000 3.6 20 10:59 01.01.2020
5100 Clear 0 1035 85 8000 3.6 10 10:41 01.01.2020
5101 Clear -1 1035 85 7000 3.1 20 10:21 01.01.2020
5102 Clear -1 1035 85 7000 3.1 20 10:21 01.01.2020
5103 Clear -1 1035 85 7000 3.1 20 09:58 01.01.2020
5104 Mist -2 1035 92 5000 3.1 30 09:38 01.01.2020
5105 Mist -1 1035 92 5000 3.1 30 09:38 01.01.2020
5106 Mist -2 1034 92 4500 2.6 40 09:18 01.01.2020
5107 Mist -2 1034 92 4000 3.6 20 08:55 01.01.2020
5108 Mist -2 1034 92 4000 3.6 20 08:36 01.01.2020
5109 Mist -2 1034 92 4500 3.1 10 08:18 01.01.2020
5110 Mist -2 1034 92 4500 3.1 10 07:54 01.01.2020
5111 Mist -2 1034 92 4500 2.6 10 07:36 01.01.2020
5112 Mist -2 1034 92 4000 3.1 50 06:45 01.01.2020
5113 Mist -2 1034 92 3500 2.6 60 06:21 01.01.2020
5114 Mist -1 1034 91 3000 1.5 40 05:22 01.01.2020
5115 Mist -1 1035 91 1200 2.1 70 03:45 01.01.2020
5116 Mist -1 1035 92 1200 2.6 50 03:23 01.01.2020
5117 Mist -1 1035 92 1200 2.6 50 02:57 01.01.2020
5118 Mist -1 1035 91 1200 2.6 50 02:36 01.01.2020
5119 Mist 0 1035 90 1000 1.5 60 01:57 01.01.2020
5120 Mist 0 1035 85 2500 3.6 10 01:38 01.01.2020
5121 Clouds 0 1035 85 8000 3.1 10 01:20 01.01.2020
5122 Clouds 0 1035 85 10000 2.6 70 00:44 01.01.2020
5123 Clouds 0 1036 85 10000 2.1 70 00:25 01.01.2020
5124 Clouds 0 1036 86 10000 2.1 60 23:41 31.12.2019
5125 Clouds 0 1036 80 10000 2.1 80 23:21 31.12.2019
5126 Clouds 1 1036 86 10000 3.1 40 22:57 31.12.2019
5127 Clouds 1 1036 78 10000 3.1 50 22:39 31.12.2019
5128 Clouds 1 1036 78 10000 3.1 50 22:39 31.12.2019
5129 Clouds 1 1036 78 10000 4.1 50 22:20 31.12.2019
5130 Clouds 1 1036 78 10000 4.1 50 21:58 31.12.2019
5131 Clouds 1 1036 78 9000 2.6 30 21:39 31.12.2019
5132 Clouds 1 1036 78 10000 1 0 21:21 31.12.2019
5133 Clouds 1 1036 78 10000 1 0 20:56 31.12.2019
5134 Clouds 2 1036 78 10000 2.6 70 20:37 31.12.2019
5135 Clouds 2 1036 62 9000 2.1 40 20:19 31.12.2019
5136 Clouds 2 1036 62 9000 2.1 40 19:55 31.12.2019
5137 Clouds 2 1036 62 9000 2.6 40 19:36 31.12.2019
5138 Clouds 2 1036 62 9000 2.1 20 19:18 31.12.2019
5139 Clouds 2 1036 80 9000 2.6 20 18:54 31.12.2019
5140 Clouds 2 1036 80 9000 2.6 20 18:36 31.12.2019
5141 Clouds 2 1035 80 8000 2.6 10 18:18 31.12.2019
5142 Clouds 2 1035 62 9000 2.6 360 17:54 31.12.2019
5143 Clouds 2 1035 62 9000 2.6 360 17:36 31.12.2019
5144 Clouds 2 1034 46 10000 2.6 60 17:18 31.12.2019
5145 Clouds 2 1034 46 10000 2.6 60 16:55 31.12.2019
5146 Clouds 2 1034 46 10000 1 0 16:36 31.12.2019
5147 Clouds 2 1034 46 10000 3.1 80 16:18 31.12.2019
5148 Clouds 2 1034 46 10000 3.1 80 15:55 31.12.2019
5149 Clouds 2 1034 46 10000 3.6 50 15:55 31.12.2019
5150 Clouds 2 1034 46 10000 3.6 50 15:55 31.12.2019
5151 Clouds 2 1034 46 10000 3.6 50 15:37 31.12.2019
5152 Clouds 2 1034 46 10000 2.6 90 15:19 31.12.2019
5153 Clouds 2 1034 46 10000 2.6 90 14:55 31.12.2019
5154 Clouds 2 1034 80 10000 2.1 90 14:37 31.12.2019
5155 Clouds 2 1034 80 10000 1 0 14:18 31.12.2019
5156 Clouds 2 1034 86 10000 1 0 13:55 31.12.2019
5157 Clouds 2 1034 86 10000 1 0 13:37 31.12.2019
5158 Clouds 2 1034 43 10000 0.5 0 13:19 31.12.2019
5159 Clouds 2 1034 43 8000 1 0 12:55 31.12.2019
5160 Clouds 2 1034 43 8000 1 0 12:37 31.12.2019
5161 Clouds 2 1034 43 7000 0.5 220 12:18 31.12.2019
5162 Clouds 1 1034 43 6000 1.5 190 11:54 31.12.2019
5163 Clouds 1 1034 43 6000 1.5 190 11:36 31.12.2019
5164 Mist 0 1034 100 5000 1.5 220 11:18 31.12.2019
5165 Mist 0 1034 100 4300 1 0 10:54 31.12.2019
5166 Mist 0 1034 100 4300 1 0 10:36 31.12.2019
5167 Mist 0 1034 100 4300 1 0 10:36 31.12.2019
5168 Mist -1 1034 100 3300 1 240 10:18 31.12.2019
5169 Mist -1 1034 100 3300 1 240 09:55 31.12.2019
5170 Mist -1 1033 100 2800 1 230 09:37 31.12.2019
5171 Mist -1 1033 100 2800 1 230 09:37 31.12.2019
5172 Mist -1 1033 100 1000 1.03 226 09:18 31.12.2019
5173 Fog -2 1033 100 200 1.03 226 08:42 31.12.2019
5174 Mist -2 1032 100 2100 1.5 210 08:22 31.12.2019
5175 Mist -2 1032 100 2100 1.5 210 07:56 31.12.2019
5176 Mist -2 1032 100 2300 1 0 07:37 31.12.2019
5177 Mist -2 1031 100 2100 2.6 220 07:18 31.12.2019
5178 Mist -2 1031 100 1700 3.6 220 06:29 31.12.2019
5179 Fog -2 1031 100 400 1.5 290 04:55 31.12.2019
5180 Mist -1 1031 100 1200 4.6 220 04:25 31.12.2019
5181 Fog -2 1031 100 600 5.1 200 02:58 31.12.2019
5182 Fog -2 1031 100 350 3.6 200 02:21 31.12.2019
5183 Fog -2 1030 100 300 4.1 190 01:51 31.12.2019
5184 Fog -2 1030 100 300 4.1 190 01:32 31.12.2019
5185 Fog -2 1031 100 300 4.1 210 00:54 31.12.2019
5186 Fog -1 1031 100 300 4.1 210 00:36 31.12.2019
5187 Fog -2 1031 100 700 3.6 210 00:18 31.12.2019
5188 Mist -1 1031 100 1600 3.6 190 23:54 30.12.2019
5189 Mist -2 1031 100 1600 3.6 190 23:36 30.12.2019
5190 Mist -1 1031 92 3800 2.6 190 23:18 30.12.2019
5191 Clear -1 1031 92 9000 2.1 190 22:54 30.12.2019
5192 Clear -1 1031 92 9000 2.1 190 22:36 30.12.2019
5193 Clear -1 1031 86 10000 1.5 170 22:18 30.12.2019
5194 Clear -1 1031 86 10000 1.5 170 21:55 30.12.2019
5195 Clear -1 1031 92 10000 1.5 190 21:37 30.12.2019
5196 Clear -1 1032 92 10000 1 210 21:18 30.12.2019
5197 Clear 0 1032 51 10000 1.5 220 20:54 30.12.2019
5198 Clear 0 1032 51 10000 1.5 220 20:36 30.12.2019
5199 Clouds 0 1032 92 10000 2.1 200 20:18 30.12.2019
5200 Clouds 0 1032 92 10000 2.1 200 19:55 30.12.2019
5201 Clouds 0 1032 92 10000 2.1 210 19:36 30.12.2019
5202 Clouds 0 1032 86 10000 2.6 180 19:18 30.12.2019
5203 Clouds 0 1032 86 10000 1.5 210 18:41 30.12.2019
5204 Clouds 1 1032 42 10000 1 0 18:21 30.12.2019
5205 Clouds 1 1032 42 10000 1 0 17:59 30.12.2019
5206 Clouds 1 1032 42 10000 1.5 170 17:41 30.12.2019
5207 Clouds 1 1032 40 10000 2.1 170 17:20 30.12.2019
5208 Clouds 2 1032 80 10000 1.5 200 16:59 30.12.2019
5209 Clouds 2 1032 40 10000 2.1 170 16:59 30.12.2019
5210 Clouds 2 1032 80 10000 1.5 200 16:40 30.12.2019
5211 Clouds 2 1033 69 10000 1.5 210 16:20 30.12.2019
5212 Clouds 2 1033 69 10000 1.5 210 15:57 30.12.2019
5213 Clouds 3 1032 69 10000 1.5 200 15:39 30.12.2019
5214 Clouds 3 1033 64 10000 1.5 170 15:19 30.12.2019
5215 Clouds 3 1033 64 10000 1.5 170 15:19 30.12.2019
5216 Clouds 3 1033 64 10000 1.5 170 14:55 30.12.2019
5217 Clouds 3 1033 69 10000 1.5 180 14:37 30.12.2019
5218 Clouds 3 1033 69 10000 1.5 180 14:37 30.12.2019
5219 Clear 3 1033 64 10000 1.5 190 14:18 30.12.2019
5220 Clear 3 1034 69 10000 1.5 180 13:42 30.12.2019
5221 Clear 3 1034 69 10000 1.5 190 13:24 30.12.2019
5222 Clear 3 1034 69 10000 1.5 180 13:24 30.12.2019
5223 Clear 3 1034 69 10000 1.5 190 12:59 30.12.2019
5224 Clear 3 1034 74 10000 1.5 180 12:41 30.12.2019
5225 Clear 3 1035 74 10000 1.5 200 12:19 30.12.2019
5226 Clear 2 1035 74 10000 1.5 200 11:56 30.12.2019
5227 Clear 2 1035 74 10000 1.5 180 11:38 30.12.2019
5228 Clear 1 1035 80 10000 1 0 11:18 30.12.2019
5229 Clear -1 1035 50 10000 0.5 0 10:43 30.12.2019
5230 Clear -2 1035 92 10000 0.5 0 10:20 30.12.2019
5231 Clear -2 1035 92 10000 0.5 0 09:55 30.12.2019
5232 Clear -3 1035 92 10000 0.5 0 09:37 30.12.2019
5233 Clear -3 1035 92 10000 0.5 250 09:19 30.12.2019
5234 Clear -3 1035 92 10000 0.5 0 08:46 30.12.2019
5235 Clouds -4 1035 92 10000 1 0 08:23 30.12.2019
5236 Clouds -4 1035 92 10000 1 0 07:55 30.12.2019
5237 Clouds -4 1035 92 10000 0.5 360 07:33 30.12.2019
5238 Clouds -3 1035 86 10000 1 0 06:51 30.12.2019
5239 Clear -3 1036 92 10000 0.5 0 04:56 30.12.2019
5240 Clear -3 1036 92 10000 1 0 03:53 30.12.2019
5241 Clear -3 1036 92 10000 2.6 90 02:56 30.12.2019
5242 Clear -3 1037 86 10000 2.1 80 02:37 30.12.2019
5243 Clear -3 1037 86 10000 1 0 01:50 30.12.2019
5244 Clouds -3 1037 86 10000 2.6 80 01:21 30.12.2019
5245 Clouds -2 1037 86 10000 2.1 70 00:44 30.12.2019
5246 Clouds -2 1038 86 10000 2.6 70 00:19 30.12.2019
5247 Clouds -2 1037 61 10000 2.6 10 23:39 29.12.2019
5248 Clouds -2 1037 80 10000 2.6 50 23:21 29.12.2019
5249 Clouds -2 1038 64 10000 3.1 50 22:54 29.12.2019
5250 Clouds -1 1038 64 10000 3.1 50 22:36 29.12.2019
5251 Clouds -1 1038 64 10000 3.1 50 22:36 29.12.2019
5252 Clouds -1 1038 64 10000 3.1 60 22:18 29.12.2019
5253 Clouds -1 1038 64 10000 3.6 60 21:42 29.12.2019
5254 Clouds -1 1038 80 10000 4.1 60 21:21 29.12.2019
5255 Clouds -1 1038 80 10000 4.1 60 20:57 29.12.2019
5256 Clouds -1 1038 74 10000 2.6 80 20:39 29.12.2019
5257 Clouds -1 1038 64 10000 3.1 60 20:21 29.12.2019
5258 Clouds -1 1038 62 10000 3.1 60 19:59 29.12.2019
5259 Clouds -1 1038 74 10000 3.1 20 19:40 29.12.2019
5260 Clouds -1 1038 62 10000 3.1 40 19:21 29.12.2019
5261 Clouds -1 1038 62 10000 3.1 40 18:58 29.12.2019
5262 Clouds 0 1038 74 10000 3.6 360 18:39 29.12.2019
5263 Clouds 0 1038 74 10000 2.6 50 18:20 29.12.2019
5264 Clouds 0 1038 74 10000 2.6 50 17:58 29.12.2019
5265 Clouds 0 1038 74 10000 2.6 80 17:39 29.12.2019
5266 Clouds 1 1038 69 10000 2.1 70 17:20 29.12.2019
5267 Clouds 1 1038 69 10000 3.1 60 16:57 29.12.2019
5268 Clouds 1 1038 69 10000 3.1 60 16:39 29.12.2019
5269 Clouds 2 1038 64 10000 2.1 60 16:21 29.12.2019
5270 Clouds 2 1038 64 10000 2.1 60 15:58 29.12.2019
5271 Clouds 2 1038 64 10000 2.1 60 15:58 29.12.2019
5272 Clouds 2 1038 64 10000 2.1 50 15:39 29.12.2019
5273 Clouds 2 1038 64 10000 2.1 60 15:20 29.12.2019
5274 Clouds 2 1038 64 10000 2.6 40 14:58 29.12.2019
5275 Clouds 2 1038 64 10000 2.6 40 14:39 29.12.2019
5276 Clouds 2 1038 64 10000 3.1 60 14:18 29.12.2019
5277 Clouds 2 1039 69 10000 3.1 90 13:58 29.12.2019
5278 Clouds 2 1039 69 10000 3.1 90 13:39 29.12.2019
5279 Clouds 2 1039 64 10000 2.1 80 13:21 29.12.2019
5280 Clouds 2 1039 64 10000 2.6 70 12:56 29.12.2019
5281 Clouds 2 1039 64 10000 2.6 70 12:38 29.12.2019
5282 Clouds 1 1039 74 10000 3.1 80 12:20 29.12.2019
5283 Clouds 1 1040 69 10000 3.6 70 11:41 29.12.2019
5284 Clouds 0 1040 71 10000 3.1 60 11:21 29.12.2019
5285 Clouds -1 1040 71 10000 3.1 60 10:57 29.12.2019
5286 Clouds -1 1040 71 10000 2.6 30 10:38 29.12.2019
5287 Clouds -2 1040 86 10000 2.6 50 10:18 29.12.2019
5288 Clouds -3 1040 86 10000 3.1 60 09:45 29.12.2019
5289 Clouds -3 1040 86 10000 3.1 60 09:27 29.12.2019
5290 Clouds -4 1040 86 10000 3.1 40 08:55 29.12.2019
5291 Clouds -4 1040 86 10000 3.1 40 08:37 29.12.2019
5292 Clear -4 1040 86 10000 2.6 20 08:18 29.12.2019
5293 Clear -4 1040 86 10000 2.1 10 07:43 29.12.2019
5294 Clear -4 1040 86 10000 2.1 10 07:25 29.12.2019
5295 Clear -3 1040 86 10000 2.1 10 06:38 29.12.2019
5296 Clear -3 1040 86 10000 2.6 70 06:18 29.12.2019
5297 Clear -3 1040 86 10000 3.1 70 05:44 29.12.2019
5298 Clouds -3 1040 86 10000 2.6 80 04:32 29.12.2019
5299 Clouds -3 1040 86 10000 3.6 40 03:35 29.12.2019
5300 Clouds -2 1040 92 10000 3.1 60 02:27 29.12.2019
5301 Clouds -2 1040 92 10000 4.6 50 01:52 29.12.2019
5302 Clouds -2 1040 92 10000 4.6 50 01:29 29.12.2019
5303 Clouds -2 1040 86 10000 3.1 70 00:45 29.12.2019
5304 Clouds -2 1040 86 10000 3.1 70 00:25 29.12.2019
5305 Clouds -2 1040 86 10000 3.1 70 00:25 29.12.2019
5306 Clouds -1 1041 86 10000 3.6 50 23:55 28.12.2019
5307 Clouds -1 1041 86 10000 3.6 50 23:37 28.12.2019
5308 Clouds -1 1041 86 10000 3.1 60 23:18 28.12.2019
5309 Clouds -1 1041 86 10000 3.6 70 22:37 28.12.2019
5310 Clouds -1 1041 86 10000 3.1 60 22:18 28.12.2019
5311 Clouds -1 1041 86 10000 3.6 80 21:57 28.12.2019
5312 Clouds -1 1041 86 10000 3.6 80 21:38 28.12.2019
5313 Clouds -1 1041 71 10000 3.1 70 21:19 28.12.2019
5314 Clouds -1 1041 71 10000 3.1 70 20:54 28.12.2019
5315 Clouds -1 1041 71 10000 3.1 70 20:36 28.12.2019
5316 Clouds -1 1041 74 10000 2.6 70 20:18 28.12.2019
5317 Clouds -1 1041 69 10000 2.1 80 19:54 28.12.2019
5318 Clouds -1 1041 69 10000 2.1 80 19:36 28.12.2019
5319 Clouds 0 1041 69 10000 1 0 19:18 28.12.2019
5320 Clouds 0 1041 69 10000 1 0 18:42 28.12.2019
5321 Clouds 0 1041 74 10000 1.5 80 18:20 28.12.2019
5322 Clouds 0 1041 74 10000 1.5 80 17:59 28.12.2019
5323 Clouds 0 1041 64 10000 2.1 80 17:40 28.12.2019
5324 Clouds 1 1041 80 10000 2.1 60 17:21 28.12.2019
5325 Clouds 1 1040 64 10000 2.6 70 16:54 28.12.2019
5326 Clouds 2 1040 64 10000 2.6 70 16:36 28.12.2019
5327 Clouds 2 1040 64 10000 3.1 80 16:18 28.12.2019
5328 Clouds 2 1040 69 10000 3.6 80 15:41 28.12.2019
5329 Clouds 3 1040 60 10000 3.1 90 15:21 28.12.2019
5330 Clouds 3 1040 64 10000 3.6 80 14:48 28.12.2019
5331 Clouds 3 1041 60 10000 3.1 90 14:26 28.12.2019
5332 Clouds 3 1041 60 10000 3.1 90 13:58 28.12.2019
5333 Clouds 3 1041 64 10000 3.1 80 13:40 28.12.2019
5334 Clouds 3 1041 69 10000 3.6 80 13:21 28.12.2019
5335 Clouds 3 1041 69 10000 3.6 80 12:58 28.12.2019
5336 Clouds 3 1041 74 10000 2.6 80 12:40 28.12.2019
5337 Clouds 3 1041 74 10000 2.6 100 12:21 28.12.2019
5338 Clouds 2 1041 74 10000 2.6 100 11:40 28.12.2019
5339 Clouds 2 1041 74 10000 2.6 100 11:40 28.12.2019
5340 Clouds 1 1041 80 10000 2.1 50 11:21 28.12.2019
5341 Clouds 1 1041 86 10000 2.6 20 10:56 28.12.2019
5342 Clouds 1 1041 86 10000 2.6 20 10:38 28.12.2019
5343 Clouds 0 1040 80 10000 2.6 80 10:19 28.12.2019
5344 Clouds 0 1040 73 10000 2.6 80 09:54 28.12.2019
5345 Clouds -1 1040 73 10000 2.6 80 09:36 28.12.2019
5346 Clouds -1 1040 92 10000 2.6 10 09:18 28.12.2019
5347 Clouds -1 1040 100 10000 1.5 10 08:42 28.12.2019
5348 Clouds -1 1039 92 10000 1 0 08:23 28.12.2019
5349 Clouds -1 1039 86 10000 1.5 20 07:47 28.12.2019
5350 Clouds -1 1039 92 10000 2.6 70 07:22 28.12.2019
5351 Clouds -1 1039 92 10000 1.5 60 05:51 28.12.2019
5352 Clouds 0 1038 81 10000 4.1 10 03:48 28.12.2019
5353 Clouds 0 1037 81 10000 1.5 40 02:51 28.12.2019
5354 Clear 0 1037 79 10000 1.5 60 02:20 28.12.2019
5355 Clear 0 1037 79 10000 1.5 60 01:56 28.12.2019
5356 Clear 0 1037 74 10000 1.5 20 01:23 28.12.2019
5357 Clouds 0 1037 79 10000 1.5 60 00:50 28.12.2019
5358 Clouds 1 1037 79 10000 1.5 60 00:30 28.12.2019
5359 Clouds 1 1036 74 10000 4.1 40 23:58 27.12.2019
5360 Clouds 1 1036 80 10000 4.6 30 23:58 27.12.2019
5361 Clouds 1 1036 80 10000 4.6 30 23:39 27.12.2019
5362 Clouds 1 1036 74 10000 4.1 30 23:19 27.12.2019
5363 Clouds 2 1036 74 10000 4.1 30 22:57 27.12.2019
5364 Clouds 2 1036 69 10000 4.6 30 22:38 27.12.2019
5365 Clouds 2 1036 69 10000 4.6 30 22:38 27.12.2019
5366 Clouds 2 1035 69 10000 4.6 30 22:19 27.12.2019
5367 Clouds 3 1035 77 10000 5.7 20 21:43 27.12.2019
5368 Clouds 3 1035 77 10000 5.7 20 21:43 27.12.2019
5369 Clouds 2 1035 77 10000 5.7 20 21:25 27.12.2019
5370 Clouds 3 1035 77 10000 5.1 20 20:58 27.12.2019
5371 Clouds 3 1034 77 10000 4.6 20 20:40 27.12.2019
5372 Clouds 3 1034 75 10000 4.6 30 20:21 27.12.2019
5373 Clouds 4 1033 75 10000 3.6 30 19:42 27.12.2019
5374 Clouds 4 1033 75 10000 3.1 30 19:20 27.12.2019
5375 Clouds 4 1033 75 10000 3.1 30 19:20 27.12.2019
5376 Clouds 4 1032 75 10000 3.1 20 18:58 27.12.2019
5377 Clouds 4 1032 75 10000 3.1 20 18:37 27.12.2019
5378 Clouds 4 1032 75 10000 2.6 360 18:19 27.12.2019
5379 Clouds 4 1032 75 10000 2.6 360 17:57 27.12.2019
5380 Clouds 4 1032 75 10000 2.6 360 17:38 27.12.2019
5381 Clouds 5 1031 75 10000 3.1 360 17:19 27.12.2019
5382 Clouds 5 1030 81 10000 2.6 20 16:58 27.12.2019
5383 Clouds 5 1030 81 10000 2.6 20 16:38 27.12.2019
5384 Clouds 5 1030 81 10000 3.6 50 16:19 27.12.2019
5385 Clouds 6 1029 81 10000 3.6 60 15:43 27.12.2019
5386 Clouds 6 1029 81 10000 4.1 60 15:20 27.12.2019
5387 Clouds 6 1029 81 10000 4.1 60 14:57 27.12.2019
5388 Clouds 6 1028 81 10000 4.1 80 14:39 27.12.2019
5389 Clouds 6 1028 81 10000 5.1 30 14:20 27.12.2019
5390 Rain 6 1028 87 10000 3.1 70 13:48 27.12.2019
5391 Rain 6 1028 81 10000 4.6 30 13:25 27.12.2019
5392 Clouds 6 1027 93 10000 3.6 80 12:58 27.12.2019
5393 Clouds 6 1027 93 10000 3.6 80 12:40 27.12.2019
5394 Clouds 5 1027 93 10000 2.6 40 12:21 27.12.2019
5395 Clouds 5 1026 93 10000 4.6 20 11:46 27.12.2019
5396 Clouds 5 1026 93 10000 4.6 20 11:26 27.12.2019
5397 Clouds 5 1025 93 10000 5.1 30 10:58 27.12.2019
5398 Clouds 5 1025 93 10000 5.7 30 10:39 27.12.2019
5399 Clouds 5 1024 93 10000 4.6 30 10:21 27.12.2019
5400 Clouds 5 1024 93 10000 3.6 20 09:44 27.12.2019
5401 Clouds 4 1023 93 10000 4.1 50 09:22 27.12.2019
5402 Clouds 4 1023 93 10000 4.1 50 09:22 27.12.2019
5403 Clouds 4 1023 100 10000 2.6 80 08:59 27.12.2019
5404 Rain 4 1023 93 8000 3.6 50 08:37 27.12.2019
5405 Rain 4 1022 100 9000 2.6 80 07:53 27.12.2019
5406 Clouds 4 1022 93 7000 2.6 60 07:34 27.12.2019
5407 Drizzle 4 1022 100 6000 2.6 50 06:39 27.12.2019
5408 Drizzle 4 1021 100 4500 2.1 70 05:52 27.12.2019
5409 Rain 4 1021 100 3200 1.36 157 04:20 27.12.2019
5410 Clouds 4 1022 100 7000 1.5 140 02:26 27.12.2019
5411 Clouds 4 1022 93 8000 3.1 190 01:42 27.12.2019
5412 Clouds 4 1022 93 8000 2.1 180 01:20 27.12.2019
5413 Rain 4 1022 93 6000 2.6 190 00:46 27.12.2019
5414 Rain 4 1023 93 10000 3.1 180 00:25 27.12.2019
5415 Clouds 4 1023 93 10000 3.6 180 23:54 26.12.2019
5416 Clouds 4 1023 93 10000 3.6 180 23:36 26.12.2019
5417 Clouds 4 1023 93 10000 3.1 160 23:18 26.12.2019
5418 Clouds 4 1023 93 10000 2.6 170 22:38 26.12.2019
5419 Clouds 4 1023 93 10000 3.1 190 22:18 26.12.2019
5420 Clouds 4 1023 86 10000 3.6 190 21:40 26.12.2019
5421 Clouds 4 1023 86 10000 3.6 170 21:21 26.12.2019
5422 Clouds 4 1023 86 10000 3.6 170 20:58 26.12.2019
5423 Clouds 4 1023 86 10000 1.5 190 20:38 26.12.2019
5424 Clouds 4 1023 93 10000 1.5 180 20:20 26.12.2019
5425 Clouds 4 1023 93 10000 0.5 0 19:55 26.12.2019
5426 Clouds 4 1023 93 10000 0.5 0 19:37 26.12.2019
5427 Clouds 4 1023 93 10000 1.5 210 19:19 26.12.2019
5428 Clouds 4 1023 100 10000 2.1 210 18:56 26.12.2019
5429 Clouds 4 1023 100 10000 2.1 210 18:36 26.12.2019
5430 Clouds 4 1023 93 10000 1 0 18:18 26.12.2019
5431 Clouds 5 1023 93 10000 1 190 17:41 26.12.2019
5432 Clouds 5 1023 93 10000 1 220 17:22 26.12.2019
5433 Clouds 5 1023 93 10000 0.5 0 16:50 26.12.2019
5434 Clouds 5 1023 93 10000 0.5 0 16:28 26.12.2019
5435 Clouds 5 1023 87 10000 1.5 70 15:58 26.12.2019
5436 Clouds 5 1023 87 10000 2.1 90 15:40 26.12.2019
5437 Clouds 5 1023 81 10000 0.5 0 15:19 26.12.2019
5438 Clouds 6 1023 81 10000 1 0 14:42 26.12.2019
5439 Clouds 6 1024 81 10000 1.5 220 14:23 26.12.2019
5440 Clouds 6 1024 81 10000 1.5 220 13:58 26.12.2019
5441 Clouds 6 1024 81 10000 1.5 110 13:39 26.12.2019
5442 Clouds 6 1024 81 10000 1.5 90 13:18 26.12.2019
5443 Clouds 6 1025 87 10000 0.5 0 12:56 26.12.2019
5444 Clouds 6 1025 87 10000 0.5 0 12:36 26.12.2019
5445 Clouds 5 1025 87 10000 1.5 80 12:18 26.12.2019
5446 Clouds 5 1025 87 10000 2.1 100 11:42 26.12.2019
5447 Clouds 5 1025 87 10000 2.1 100 11:42 26.12.2019
5448 Clouds 5 1025 87 10000 1 0 11:23 26.12.2019
5449 Clouds 4 1026 93 10000 1 0 10:57 26.12.2019
5450 Clouds 4 1026 93 10000 1 0 10:39 26.12.2019
5451 Clouds 4 1026 93 10000 1 0 10:18 26.12.2019
5452 Clouds 3 1026 100 10000 1.38 84 09:42 26.12.2019
5453 Clouds 3 1026 100 10000 1.38 84 09:24 26.12.2019
5454 Clouds 3 1025 93 10000 0.5 0 08:42 26.12.2019
5455 Clouds 3 1025 100 10000 0.5 0 08:23 26.12.2019
5456 Clouds 3 1026 93 10000 1 230 07:52 26.12.2019
5457 Clouds 3 1026 93 10000 1 230 07:26 26.12.2019
5458 Clouds 3 1026 100 10000 1.5 140 06:52 26.12.2019
5459 Clouds 3 1026 100 10000 1.5 140 06:31 26.12.2019
5460 Clouds 3 1026 100 10000 0.5 0 05:45 26.12.2019
5461 Fog 3 1025 100 10000 1 190 04:48 26.12.2019
5462 Clouds 3 1025 93 10000 0.5 190 04:29 26.12.2019
5463 Rain 3 1026 93 10000 2.1 210 02:54 26.12.2019
5464 Rain 3 1025 93 10000 1.5 160 02:34 26.12.2019
5465 Clouds 4 1025 93 10000 1.5 230 01:46 26.12.2019
5466 Clouds 4 1025 93 10000 1.5 230 01:28 26.12.2019
5467 Clouds 5 1025 93 10000 3.6 260 00:49 26.12.2019
5468 Clouds 5 1025 93 10000 3.6 260 00:27 26.12.2019
5469 Clouds 5 1025 93 10000 2.1 240 23:58 25.12.2019
5470 Clouds 5 1026 93 10000 3.1 270 23:39 25.12.2019
5471 Rain 5 1025 87 10000 4.6 280 23:21 25.12.2019
5472 Rain 5 1025 87 10000 3.6 260 22:59 25.12.2019
5473 Rain 5 1025 87 10000 3.6 260 22:39 25.12.2019
5474 Rain 5 1025 81 10000 2.6 250 22:20 25.12.2019
5475 Rain 5 1025 81 10000 2.6 250 21:58 25.12.2019
5476 Clouds 5 1025 93 10000 1.5 270 21:39 25.12.2019
5477 Clouds 5 1025 87 10000 4.6 240 21:20 25.12.2019
5478 Clouds 5 1025 87 10000 4.6 240 20:56 25.12.2019
5479 Clouds 5 1025 87 10000 2.6 220 20:38 25.12.2019
5480 Clouds 5 1025 87 10000 2.6 220 20:38 25.12.2019
5481 Clouds 5 1025 81 10000 3.1 250 20:18 25.12.2019
5482 Clouds 5 1024 81 10000 3.6 250 19:43 25.12.2019
5483 Clouds 5 1024 81 10000 3.6 250 19:25 25.12.2019
5484 Clouds 5 1024 87 10000 2.6 290 18:58 25.12.2019
5485 Clouds 6 1024 87 10000 2.6 290 18:37 25.12.2019
5486 Clouds 6 1023 81 10000 4.1 250 18:19 25.12.2019
5487 Clouds 6 1023 81 10000 3.6 250 17:42 25.12.2019
5488 Clouds 6 1023 81 10000 3.1 310 17:20 25.12.2019
5489 Clouds 6 1023 81 10000 3.1 310 16:58 25.12.2019
5490 Clouds 7 1022 70 10000 3.1 300 16:38 25.12.2019
5491 Clouds 7 1022 70 10000 3.6 300 16:19 25.12.2019
5492 Clouds 7 1022 70 10000 3.6 300 15:57 25.12.2019
5493 Rain 7 1021 70 10000 4.1 310 15:39 25.12.2019
5494 Rain 7 1021 70 10000 4.1 290 15:20 25.12.2019
5495 Rain 7 1021 70 10000 4.1 290 14:58 25.12.2019
5496 Rain 7 1020 81 10000 4.6 290 14:39 25.12.2019
5497 Rain 7 1020 81 10000 4.6 290 14:39 25.12.2019
5498 Rain 7 1020 81 10000 4.6 290 14:39 25.12.2019
5499 Rain 7 1020 81 10000 4.6 290 14:39 25.12.2019
5500 Rain 8 1020 81 10000 5.1 260 14:21 25.12.2019
5501 Rain 7 1019 75 10000 5.1 260 13:55 25.12.2019
5502 Rain 8 1019 75 10000 5.1 260 13:36 25.12.2019
5503 Rain 8 1019 75 10000 5.7 260 13:18 25.12.2019
5504 Rain 8 1018 70 10000 6.2 260 12:39 25.12.2019
5505 Rain 8 1018 75 10000 6.2 260 12:20 25.12.2019
5506 Clouds 8 1018 75 10000 5.1 260 11:55 25.12.2019
5507 Clouds 8 1018 75 10000 5.1 260 11:37 25.12.2019
5508 Clouds 8 1017 70 10000 4.1 240 11:18 25.12.2019
5509 Clouds 7 1017 75 10000 3.1 270 10:38 25.12.2019
5510 Clouds 7 1017 75 10000 3.1 270 10:38 25.12.2019
5511 Rain 7 1016 75 10000 5.7 270 10:19 25.12.2019
5512 Rain 7 1015 70 10000 3.6 280 09:50 25.12.2019
5513 Rain 7 1015 70 10000 3.6 280 09:32 25.12.2019
5514 Rain 7 1015 76 10000 2.6 270 08:51 25.12.2019
5515 Rain 7 1015 87 10000 3.6 310 08:31 25.12.2019
5516 Clouds 7 1014 76 10000 4.6 230 07:50 25.12.2019
5517 Clouds 7 1014 76 10000 4.6 230 07:32 25.12.2019
5518 Rain 7 1013 93 10000 3.6 200 06:52 25.12.2019
5519 Rain 7 1013 93 10000 3.1 190 06:23 25.12.2019
5520 Clouds 7 1013 100 10000 3.1 270 05:18 25.12.2019
5521 Rain 7 1013 100 10000 2.1 250 04:39 25.12.2019
5522 Clouds 7 1014 93 10000 2.1 260 04:20 25.12.2019
5523 Clouds 7 1013 87 10000 4.6 190 03:42 25.12.2019
5524 Clouds 7 1013 81 10000 4.1 170 02:54 25.12.2019
5525 Rain 7 1013 87 10000 3.1 180 02:27 25.12.2019
5526 Clouds 7 1013 81 10000 4.6 190 01:26 25.12.2019
5527 Clouds 7 1013 81 10000 5.1 210 00:56 25.12.2019
5528 Clouds 7 1013 76 10000 6.7 220 00:33 25.12.2019
5529 Clouds 7 1013 81 10000 4.6 260 23:59 24.12.2019
5530 Clouds 7 1013 81 10000 4.6 260 23:39 24.12.2019
5531 Clouds 7 1012 70 10000 6.2 230 23:20 24.12.2019
5532 Clouds 7 1012 81 10000 5.1 220 22:42 24.12.2019
5533 Clouds 7 1012 81 10000 5.1 220 22:23 24.12.2019
5534 Clouds 7 1012 81 10000 7.2 220 21:57 24.12.2019
5535 Clouds 7 1012 81 10000 7.2 220 21:37 24.12.2019
5536 Clouds 7 1012 81 10000 7.2 210 21:19 24.12.2019
5537 Clouds 7 1012 75 10000 7.7 210 20:41 24.12.2019
5538 Clouds 7 1012 81 10000 6.2 270 20:20 24.12.2019
5539 Rain 8 1011 76 10000 7.7 230 19:47 24.12.2019
5540 Rain 8 1011 76 10000 6.7 210 19:22 24.12.2019
5541 Rain 8 1011 76 10000 6.7 210 19:22 24.12.2019
5542 Clouds 7 1011 70 10000 5.7 220 18:59 24.12.2019
5543 Clouds 7 1011 70 10000 5.7 220 18:40 24.12.2019
5544 Clouds 7 1011 71 10000 8.2 220 18:18 24.12.2019
5545 Clouds 8 1011 76 10000 5.7 220 17:43 24.12.2019
5546 Clouds 8 1011 76 10000 5.7 220 17:43 24.12.2019
5547 Clouds 8 1010 76 10000 4.6 200 17:22 24.12.2019
5548 Clouds 8 1010 76 10000 4.6 200 16:58 24.12.2019
5549 Clouds 7 1010 81 10000 5.1 210 16:39 24.12.2019
5550 Rain 7 1010 81 10000 7.2 220 16:20 24.12.2019
5551 Rain 7 1010 81 10000 7.2 220 15:57 24.12.2019
5552 Clouds 7 1010 93 10000 5.7 210 15:37 24.12.2019
5553 Rain 8 1010 93 10000 4.1 170 15:19 24.12.2019
5554 Rain 7 1010 93 10000 4.1 170 14:58 24.12.2019
5555 Rain 7 1010 93 10000 3.6 180 14:40 24.12.2019
5556 Rain 7 1009 93 10000 4.1 210 14:21 24.12.2019
5557 Clouds 7 1009 93 10000 4.1 210 14:21 24.12.2019
5558 Clouds 7 1009 93 10000 4.1 210 13:56 24.12.2019
5559 Drizzle 6 1009 100 10000 5.1 210 13:38 24.12.2019
5560 Drizzle 6 1010 93 6000 5.1 200 13:19 24.12.2019
5561 Drizzle 6 1011 100 9000 2.1 210 12:56 24.12.2019
5562 Drizzle 6 1011 100 9000 2.1 210 12:56 24.12.2019
5563 Rain 6 1010 93 10000 5.1 210 12:38 24.12.2019
5564 Rain 6 1011 100 10000 2.1 220 12:19 24.12.2019
5565 Drizzle 6 1011 100 10000 2.1 190 11:56 24.12.2019
5566 Rain 6 1011 93 9000 3.6 180 11:37 24.12.2019
5567 Rain 6 1012 93 7000 3.1 180 11:19 24.12.2019
5568 Rain 6 1012 93 7000 3.1 180 10:56 24.12.2019
5569 Drizzle 6 1012 93 4500 4.6 170 10:38 24.12.2019
5570 Rain 6 1013 100 10000 3.6 180 10:19 24.12.2019
5571 Rain 6 1013 87 10000 4.1 170 09:56 24.12.2019
5572 Rain 6 1013 87 10000 4.1 170 09:38 24.12.2019
5573 Rain 6 1014 87 10000 4.1 170 09:20 24.12.2019
5574 Rain 6 1014 93 10000 2.6 180 08:47 24.12.2019
5575 Clouds 5 1015 87 10000 3.6 180 08:24 24.12.2019
5576 Clouds 5 1015 87 10000 4.1 170 07:59 24.12.2019
5577 Clouds 5 1015 87 10000 2.6 200 07:39 24.12.2019
5578 Clouds 5 1015 93 10000 2.6 190 07:20 24.12.2019
5579 Clouds 5 1016 81 10000 5.1 190 06:40 24.12.2019
5580 Clouds 5 1016 87 10000 5.1 180 06:19 24.12.2019
5581 Clouds 5 1016 87 10000 5.1 180 05:51 24.12.2019
5582 Clouds 5 1017 87 10000 3.6 190 05:19 24.12.2019
5583 Clouds 5 1017 87 10000 4.6 210 04:21 24.12.2019
5584 Clouds 5 1017 87 10000 5.1 210 03:48 24.12.2019
5585 Clouds 6 1017 81 10000 4.6 220 02:29 24.12.2019
5586 Clouds 6 1017 81 10000 5.7 230 01:55 24.12.2019
5587 Clouds 6 1017 81 10000 5.7 230 01:26 24.12.2019
5588 Clouds 6 1017 81 10000 4.6 220 00:58 24.12.2019
5589 Clouds 6 1017 81 10000 4.1 210 00:40 24.12.2019
5590 Clouds 6 1016 81 10000 5.1 220 00:20 24.12.2019
5591 Rain 6 1016 81 10000 6.2 230 23:43 23.12.2019
5592 Rain 6 1016 81 10000 6.2 230 23:24 23.12.2019
5593 Rain 6 1016 81 10000 4.6 230 22:57 23.12.2019
5594 Rain 6 1016 81 10000 5.7 220 22:38 23.12.2019
5595 Rain 6 1016 81 10000 5.7 220 22:38 23.12.2019
5596 Rain 6 1015 81 10000 5.1 220 22:20 23.12.2019
5597 Rain 6 1015 81 10000 5.1 220 21:57 23.12.2019
5598 Clouds 6 1015 87 10000 5.1 220 21:37 23.12.2019
5599 Clouds 6 1014 81 10000 4.1 220 21:19 23.12.2019
5600 Clouds 6 1014 81 10000 4.1 220 20:59 23.12.2019
5601 Rain 6 1014 81 10000 5.1 220 20:41 23.12.2019
5602 Rain 6 1014 81 10000 5.1 220 20:19 23.12.2019
5603 Rain 6 1014 81 10000 5.1 220 19:59 23.12.2019
5604 Clouds 7 1014 81 10000 4.6 240 19:41 23.12.2019
5605 Clouds 7 1013 75 10000 6.7 220 19:22 23.12.2019
5606 Clouds 7 1013 75 10000 6.7 220 18:58 23.12.2019
5607 Clouds 7 1013 75 10000 6.7 220 18:58 23.12.2019
5608 Clouds 7 1013 75 10000 5.1 230 18:39 23.12.2019
5609 Clouds 7 1012 81 10000 5.7 230 18:21 23.12.2019
5610 Clouds 7 1012 81 10000 5.7 230 17:59 23.12.2019
5611 Clouds 7 1012 76 10000 4.1 220 17:41 23.12.2019
5612 Clouds 7 1011 76 10000 4.1 220 17:20 23.12.2019
5613 Clouds 8 1011 76 10000 5.7 240 16:59 23.12.2019
5614 Clouds 8 1011 76 10000 5.7 240 16:40 23.12.2019
5615 Rain 8 1010 76 10000 3.1 230 16:19 23.12.2019
5616 Rain 8 1010 76 10000 3.1 230 15:58 23.12.2019
5617 Rain 8 1010 76 10000 3.1 230 15:37 23.12.2019
5618 Rain 8 1009 76 10000 3.6 220 15:19 23.12.2019
5619 Rain 9 1009 81 10000 3.6 290 14:57 23.12.2019
5620 Rain 9 1009 76 10000 7.2 250 14:39 23.12.2019
5621 Rain 8 1009 66 10000 5.7 230 14:20 23.12.2019
5622 Rain 9 1009 66 10000 5.7 230 13:57 23.12.2019
5623 Rain 9 1008 71 10000 5.7 270 13:39 23.12.2019
5624 Rain 8 1008 66 10000 5.7 240 13:21 23.12.2019
5625 Rain 8 1008 66 10000 6.2 240 12:55 23.12.2019
5626 Rain 9 1008 66 10000 6.2 240 12:37 23.12.2019
5627 Rain 9 1007 70 10000 6.2 240 12:19 23.12.2019
5628 Rain 8 1007 76 10000 4.6 230 11:44 23.12.2019
5629 Rain 8 1007 76 10000 4.6 230 11:25 23.12.2019
5630 Rain 7 1007 76 10000 4.6 230 10:57 23.12.2019
5631 Rain 7 1006 81 10000 4.6 220 10:39 23.12.2019
5632 Rain 7 1006 93 10000 4.6 220 10:20 23.12.2019
5633 Rain 7 1005 87 10000 4.1 220 09:59 23.12.2019
5634 Rain 7 1005 87 10000 4.1 220 09:39 23.12.2019
5635 Drizzle 6 1005 87 10000 2.6 230 09:20 23.12.2019
5636 Rain 6 1005 87 10000 5.1 210 08:56 23.12.2019
5637 Clouds 6 1004 87 10000 3.6 250 08:38 23.12.2019
5638 Clouds 6 1004 81 10000 3.1 190 08:19 23.12.2019
5639 Rain 6 1003 87 10000 4.1 260 07:43 23.12.2019
5640 Clouds 6 1003 75 10000 3.6 200 07:20 23.12.2019
5641 Clouds 6 1002 81 10000 3.1 190 06:53 23.12.2019
5642 Clouds 6 1002 81 10000 3.6 200 06:25 23.12.2019
5643 Clouds 6 1001 81 10000 4.1 210 05:50 23.12.2019
5644 Clouds 6 1001 75 10000 8.2 230 05:27 23.12.2019
5645 Clouds 6 1001 81 10000 5.7 220 04:31 23.12.2019
5646 Clouds 7 999 75 10000 4.6 220 02:58 23.12.2019
5647 Clouds 7 999 75 10000 5.1 210 02:40 23.12.2019
5648 Clouds 7 998 75 10000 4.1 210 02:18 23.12.2019
5649 Clouds 7 997 75 10000 3.1 210 01:41 23.12.2019
5650 Clouds 7 997 75 10000 4.1 210 01:20 23.12.2019
5651 Clouds 7 997 75 10000 3.6 190 00:43 23.12.2019
5652 Clouds 7 996 75 10000 4.6 190 00:22 23.12.2019
5653 Clouds 7 996 75 10000 5.7 210 23:40 22.12.2019
5654 Clouds 7 995 75 10000 5.7 220 23:21 22.12.2019
5655 Clouds 7 994 70 10000 6.2 230 22:58 22.12.2019
5656 Clouds 7 994 70 10000 6.2 230 22:58 22.12.2019
5657 Clouds 7 994 70 10000 6.2 230 22:40 22.12.2019
5658 Clouds 7 994 75 10000 5.7 230 22:21 22.12.2019
5659 Rain 7 993 75 10000 6.2 230 21:58 22.12.2019
5660 Clouds 7 994 75 10000 5.7 230 21:58 22.12.2019
5661 Rain 7 993 75 10000 6.2 230 21:40 22.12.2019
5662 Rain 7 993 75 10000 7.2 230 21:21 22.12.2019
5663 Rain 7 992 81 10000 7.7 230 20:58 22.12.2019
5664 Rain 7 992 81 10000 7.7 230 20:39 22.12.2019
5665 Rain 7 992 93 10000 6.7 270 20:19 22.12.2019
5666 Rain 7 992 93 10000 6.7 270 20:19 22.12.2019
5667 Rain 7 992 93 10000 7.2 230 19:57 22.12.2019
5668 Rain 7 991 93 10000 6.2 220 19:38 22.12.2019
5669 Rain 7 991 87 10000 6.7 230 19:19 22.12.2019
5670 Rain 7 990 76 10000 7.2 220 18:42 22.12.2019
5671 Rain 8 989 76 10000 7.2 210 18:23 22.12.2019
5672 Rain 8 989 87 10000 6.7 250 17:56 22.12.2019
5673 Rain 8 989 87 10000 6.7 250 17:38 22.12.2019
5674 Clouds 8 988 76 10000 8.2 220 17:19 22.12.2019
5675 Clouds 8 988 76 10000 8.2 220 16:57 22.12.2019
5676 Clouds 8 988 76 10000 6.7 210 16:38 22.12.2019
5677 Clouds 8 987 87 10000 5.1 180 16:20 22.12.2019
5678 Clouds 8 987 87 10000 5.1 180 15:56 22.12.2019
5679 Clouds 8 987 87 10000 5.7 180 15:38 22.12.2019
5680 Clouds 9 987 87 10000 5.7 180 15:20 22.12.2019
5681 Clouds 9 987 87 10000 5.7 180 14:55 22.12.2019
5682 Clouds 9 987 87 10000 5.7 180 14:55 22.12.2019
5683 Clouds 8 987 87 10000 5.1 180 14:37 22.12.2019
5684 Clouds 8 986 87 10000 4.6 180 14:18 22.12.2019
5685 Clouds 8 986 87 10000 4.6 180 14:18 22.12.2019
5686 Clouds 8 986 87 10000 4.6 180 14:18 22.12.2019
5687 Clouds 8 986 87 10000 4.6 180 13:55 22.12.2019
5688 Clouds 8 986 87 10000 5.1 180 13:37 22.12.2019
5689 Clouds 8 987 87 10000 5.1 180 13:19 22.12.2019
5690 Clouds 8 986 87 10000 3.6 180 12:56 22.12.2019
5691 Clouds 8 986 87 10000 3.6 180 12:37 22.12.2019
5692 Rain 8 986 87 10000 4.1 180 12:19 22.12.2019
5693 Rain 7 986 87 10000 4.1 180 11:56 22.12.2019
5694 Rain 7 986 87 10000 4.1 180 11:38 22.12.2019
5695 Drizzle 7 987 100 10000 2.65 166 11:19 22.12.2019
5696 Rain 7 986 93 10000 0.5 0 10:55 22.12.2019
5697 Clouds 6 986 100 10000 1.5 100 10:37 22.12.2019
5698 Rain 6 986 100 10000 2.6 150 10:18 22.12.2019
5699 Clouds 6 986 100 10000 1 50 09:57 22.12.2019
5700 Rain 6 986 100 10000 1 0 09:39 22.12.2019
5701 Rain 6 986 100 10000 2.1 70 09:20 22.12.2019
5702 Clouds 5 986 100 10000 1.5 70 08:42 22.12.2019
5703 Clouds 6 986 100 10000 0.5 0 08:22 22.12.2019
5704 Clouds 5 985 100 10000 1 0 07:43 22.12.2019
5705 Clouds 5 985 100 10000 1 0 07:21 22.12.2019
5706 Clouds 5 985 100 10000 2.1 120 06:52 22.12.2019
5707 Clouds 5 985 100 10000 2.1 160 06:26 22.12.2019
5708 Clouds 5 985 100 10000 1 0 05:33 22.12.2019
5709 Rain 5 986 100 10000 1.5 350 04:46 22.12.2019
5710 Rain 5 986 100 10000 1 0 04:25 22.12.2019
5711 Rain 5 986 100 10000 3.6 100 02:46 22.12.2019
5712 Rain 5 986 100 10000 3.6 100 02:46 22.12.2019
5713 Rain 5 987 93 8000 1.5 80 02:23 22.12.2019
5714 Rain 5 987 100 10000 1 0 01:31 22.12.2019
5715 Clouds 5 987 93 10000 2.1 140 00:56 22.12.2019
5716 Rain 5 987 93 10000 2.1 80 00:56 22.12.2019
5717 Rain 4 987 93 10000 2.1 80 00:36 22.12.2019
5718 Rain 4 987 100 10000 1.5 80 00:18 22.12.2019
5719 Rain 4 987 100 10000 1.5 70 23:41 21.12.2019
5720 Clouds 4 987 93 10000 3.6 70 23:22 21.12.2019
5721 Clouds 4 988 93 10000 1.5 100 22:57 21.12.2019
5722 Clouds 4 988 93 10000 1.5 100 22:39 21.12.2019
5723 Clouds 4 988 93 10000 2.6 130 22:18 21.12.2019
5724 Clouds 4 988 93 10000 2.6 130 22:18 21.12.2019
5725 Clouds 5 989 93 10000 2.6 140 21:56 21.12.2019
5726 Clouds 5 989 93 10000 2.6 140 21:37 21.12.2019
5727 Clouds 5 989 100 10000 2.6 140 21:18 21.12.2019
5728 Clouds 5 989 100 10000 2.6 140 20:57 21.12.2019
5729 Clouds 5 990 93 10000 2.1 150 20:38 21.12.2019
5730 Clouds 5 990 93 10000 3.1 180 20:20 21.12.2019
5731 Clouds 6 990 93 10000 3.1 180 19:57 21.12.2019
5732 Clouds 6 990 93 10000 3.1 180 19:39 21.12.2019
5733 Clouds 6 991 93 10000 2.1 160 19:19 21.12.2019
5734 Clouds 6 991 93 10000 2.6 160 18:42 21.12.2019
5735 Clouds 6 992 100 10000 3.1 180 18:23 21.12.2019
5736 Rain 6 992 93 10000 5.1 180 17:57 21.12.2019
5737 Rain 6 992 93 10000 5.1 180 17:39 21.12.2019
5738 Rain 7 992 100 10000 2.6 200 17:21 21.12.2019
5739 Clouds 6 992 87 10000 4.1 170 16:58 21.12.2019
5740 Clouds 7 992 81 10000 3.6 160 16:39 21.12.2019
5741 Clouds 7 992 81 10000 4.1 170 16:18 21.12.2019
5742 Clouds 7 993 100 10000 4.1 170 15:56 21.12.2019
5743 Clouds 7 992 81 10000 3.1 170 15:38 21.12.2019
5744 Clouds 7 993 81 10000 3.6 170 15:19 21.12.2019
5745 Clouds 7 993 81 10000 3.6 170 14:54 21.12.2019
5746 Clouds 7 993 81 10000 3.6 170 14:54 21.12.2019
5747 Clouds 7 993 81 10000 2.6 180 14:36 21.12.2019
5748 Clouds 8 993 81 10000 3.1 160 14:18 21.12.2019
5749 Clouds 8 993 81 10000 3.1 160 13:54 21.12.2019
5750 Clouds 7 994 75 10000 2.6 170 13:36 21.12.2019
5751 Clouds 7 994 100 10000 1.5 140 13:18 21.12.2019
5752 Clouds 7 994 81 10000 2.6 180 12:54 21.12.2019
5753 Rain 7 994 87 10000 3.6 200 12:36 21.12.2019
5754 Rain 7 995 81 10000 2.1 190 12:18 21.12.2019
5755 Rain 6 995 100 10000 2.1 150 11:41 21.12.2019
5756 Rain 6 995 100 10000 2.1 150 11:41 21.12.2019
5757 Clouds 5 995 87 10000 1 0 11:23 21.12.2019
5758 Clouds 5 995 93 10000 1 0 10:54 21.12.2019
5759 Clouds 5 995 93 10000 1 0 10:36 21.12.2019
5760 Clouds 5 995 100 10000 1 0 10:18 21.12.2019
5761 Mist 4 995 100 8000 2.22 182 09:42 21.12.2019
5762 Mist 4 995 100 1600 2.1 130 09:20 21.12.2019
5763 Fog 4 995 100 10000 1 0 08:57 21.12.2019
5764 Fog 4 995 100 10000 0.5 0 08:37 21.12.2019
5765 Mist 4 995 100 1800 1.5 90 08:18 21.12.2019
5766 Mist 4 995 100 1200 1.5 130 07:41 21.12.2019
5767 Clouds 4 995 100 10000 1 220 07:22 21.12.2019
5768 Fog 4 995 100 600 2.1 70 06:44 21.12.2019
5769 Clouds 4 995 93 10000 2.6 180 06:25 21.12.2019
5770 Clouds 4 995 100 10000 4.1 180 05:49 21.12.2019
5771 Fog 5 995 100 400 1.5 120 04:58 21.12.2019
5772 Clouds 5 996 100 10000 1.85 216 03:57 21.12.2019
5773 Clouds 5 995 100 10000 4.1 190 02:52 21.12.2019
5774 Clouds 6 995 93 10000 3.6 190 01:59 21.12.2019
5775 Clouds 6 995 100 10000 1.5 160 01:28 21.12.2019
5776 Mist 6 995 100 3600 1.5 120 00:55 21.12.2019
5777 Mist 6 995 100 3600 1.5 120 00:37 21.12.2019
5778 Mist 6 994 100 4400 3.04 209 00:18 21.12.2019
5779 Clouds 6 994 93 10000 3.1 190 23:38 20.12.2019
5780 Mist 6 994 100 2600 3.6 214 23:19 20.12.2019
5781 Mist 6 994 100 2600 3.6 214 23:19 20.12.2019
5782 Clouds 7 993 93 10000 4.1 190 22:43 20.12.2019
5783 Clouds 7 993 93 10000 4.6 190 22:21 20.12.2019
5784 Clouds 7 993 93 10000 4.6 190 21:59 20.12.2019
5785 Clouds 7 993 93 10000 5.1 180 21:40 20.12.2019
5786 Clouds 7 993 100 10000 3.6 214 21:20 20.12.2019
5787 Clouds 7 992 93 10000 5.7 180 20:55 20.12.2019
5788 Clouds 7 992 93 10000 5.7 180 20:36 20.12.2019
5789 Rain 7 992 93 10000 5.7 180 20:18 20.12.2019
5790 Rain 7 992 100 10000 5.1 190 19:41 20.12.2019
5791 Rain 7 991 93 10000 4.6 170 19:20 20.12.2019
5792 Rain 7 991 93 10000 4.6 170 18:58 20.12.2019
5793 Rain 7 991 100 10000 4.6 160 18:38 20.12.2019
5794 Rain 7 991 100 3000 2.6 110 18:20 20.12.2019
5795 Rain 7 991 100 8000 3.69 203 17:54 20.12.2019
5796 Rain 7 991 100 8000 1.5 210 17:36 20.12.2019
5797 Rain 7 991 100 8000 1.5 210 17:18 20.12.2019
5798 Rain 6 991 100 3600 5.5 208 16:40 20.12.2019
5799 Rain 6 990 100 3600 2.6 250 16:20 20.12.2019
5800 Rain 6 990 100 10000 3.6 20 15:57 20.12.2019
5801 Rain 6 990 100 10000 4.1 40 15:39 20.12.2019
5802 Rain 6 990 100 10000 4.1 40 15:20 20.12.2019
5803 Rain 6 990 93 10000 4.6 50 14:59 20.12.2019
5804 Rain 6 990 93 10000 4.6 50 14:59 20.12.2019
5805 Rain 6 990 93 10000 4.6 50 14:40 20.12.2019
5806 Rain 6 991 93 10000 3.6 50 14:22 20.12.2019
5807 Rain 5 991 93 8000 5.7 70 13:56 20.12.2019
5808 Rain 5 992 93 5000 5.1 90 13:37 20.12.2019
5809 Rain 5 992 93 5000 5.1 90 13:18 20.12.2019
5810 Rain 5 994 93 5000 2.1 120 12:55 20.12.2019
5811 Rain 5 994 93 10000 2.1 140 12:36 20.12.2019
5812 Rain 5 994 93 10000 2.1 140 12:18 20.12.2019
5813 Rain 5 994 87 10000 1 0 11:56 20.12.2019
5814 Rain 5 995 87 10000 1 0 11:37 20.12.2019
5815 Clouds 5 995 87 10000 1 0 11:18 20.12.2019
5816 Clouds 5 994 81 10000 2.1 40 10:54 20.12.2019
5817 Clouds 4 993 81 10000 4.6 20 10:36 20.12.2019
5818 Clouds 4 993 81 10000 4.6 20 10:18 20.12.2019
5819 Clouds 4 993 86 10000 5.1 50 09:41 20.12.2019
5820 Clouds 4 993 86 10000 6.2 50 09:21 20.12.2019
5821 Clouds 4 994 86 10000 6.7 50 08:44 20.12.2019
5822 Clouds 3 995 93 10000 4.6 30 08:26 20.12.2019
5823 Clouds 2 995 93 10000 3.1 30 07:59 20.12.2019
5824 Clouds 2 996 93 10000 2.6 30 07:41 20.12.2019
5825 Clouds 2 996 93 10000 2.6 30 07:20 20.12.2019
5826 Clouds 2 997 93 10000 2.1 40 06:52 20.12.2019
5827 Clouds 2 997 100 10000 1.5 10 06:33 20.12.2019
5828 Clouds 2 998 93 10000 2.1 20 05:56 20.12.2019
5829 Mist 2 998 100 6000 2.8 65 05:38 20.12.2019
5830 Fog 2 999 100 8000 0.5 0 04:46 20.12.2019
5831 Clear 3 1002 93 10000 2.6 10 03:33 20.12.2019
5832 Clear 3 1003 100 10000 3.1 360 02:45 20.12.2019
5833 Clouds 3 1003 100 10000 4.1 60 01:55 20.12.2019
5834 Clouds 3 1004 100 10000 3.1 80 01:35 20.12.2019
5835 Clouds 2 1005 100 10000 1 0 00:53 20.12.2019
5836 Clouds 3 1005 93 10000 2.1 50 00:34 20.12.2019
5837 Clouds 3 1005 93 10000 2.1 30 23:57 19.12.2019
5838 Clouds 3 1005 87 10000 3.1 10 23:38 19.12.2019
5839 Clouds 3 1005 87 10000 3.1 10 23:38 19.12.2019
5840 Clouds 4 1005 87 10000 3.1 10 23:19 19.12.2019
5841 Clear 4 1006 100 10000 0.96 50 23:19 19.12.2019
5842 Fog 4 1006 100 10000 1 0 22:38 19.12.2019
5843 Fog 4 1006 100 10000 1 0 22:20 19.12.2019
5844 Fog 4 1007 93 10000 1.5 0 21:56 19.12.2019
5845 Fog 4 1007 93 10000 1.5 0 21:56 19.12.2019
5846 Fog 4 1008 100 10000 1 0 21:38 19.12.2019
5847 Fog 4 1008 100 10000 1 0 21:19 19.12.2019
5848 Fog 4 1008 100 10000 2.1 80 20:56 19.12.2019
5849 Mist 5 1008 100 9000 2.6 320 20:37 19.12.2019
5850 Fog 5 1009 100 10000 1 0 20:19 19.12.2019
5851 Mist 5 1009 100 2000 0.71 68 19:58 19.12.2019
5852 Mist 5 1009 100 2000 0.71 68 19:39 19.12.2019
5853 Fog 5 1010 93 10000 1 0 19:19 19.12.2019
5854 Fog 5 1010 100 800 3.6 250 18:57 19.12.2019
5855 Fog 5 1010 100 800 3.6 250 18:39 19.12.2019
5856 Rain 5 1010 100 600 1.5 100 18:19 19.12.2019
5857 Mist 6 1010 100 1400 2.1 120 17:55 19.12.2019
5858 Mist 6 1010 100 1400 2.1 120 17:37 19.12.2019
5859 Mist 6 1011 100 2800 1 0 17:18 19.12.2019
5860 Mist 6 1011 100 6000 0.74 108 16:55 19.12.2019
5861 Mist 6 1011 93 3600 1.5 200 16:37 19.12.2019
5862 Mist 6 1011 93 3600 1.5 200 16:19 19.12.2019
5863 Fog 6 1012 100 400 0.74 108 15:56 19.12.2019
5864 Fog 6 1012 100 400 0.74 108 15:37 19.12.2019
5865 Mist 7 1012 100 3600 1.5 180 15:18 19.12.2019
5866 Mist 7 1012 100 3600 1.5 180 15:18 19.12.2019
5867 Fog 7 1012 81 10000 2.1 70 14:43 19.12.2019
5868 Clouds 7 1012 81 10000 4.1 80 14:20 19.12.2019
5869 Clouds 7 1012 81 10000 3.6 60 13:59 19.12.2019
5870 Clouds 7 1012 87 10000 3.6 20 13:38 19.12.2019
5871 Clouds 7 1012 87 10000 3.6 20 13:19 19.12.2019
5872 Clouds 7 1013 87 10000 3.1 360 12:57 19.12.2019
5873 Clouds 7 1014 87 10000 4.6 60 12:39 19.12.2019
5874 Clouds 7 1014 87 10000 4.6 60 12:19 19.12.2019
5875 Clouds 7 1014 93 10000 3.1 20 11:58 19.12.2019
5876 Clouds 6 1014 100 10000 1.5 100 11:40 19.12.2019
5877 Fog 5 1015 100 400 1.11 76 11:18 19.12.2019
5878 Clear 5 1015 100 10000 2.6 70 10:58 19.12.2019
5879 Clear 5 1015 93 10000 3.1 70 10:38 19.12.2019
5880 Clear 4 1015 93 10000 3.1 70 10:20 19.12.2019
5881 Clear 5 1015 93 10000 3.6 70 09:55 19.12.2019
5882 Fog 4 1016 100 10000 0.5 0 09:37 19.12.2019
5883 Fog 4 1016 100 10000 0.5 0 09:18 19.12.2019
5884 Fog 4 1016 100 200 1.11 76 08:42 19.12.2019
5885 Clear 4 1016 100 10000 1 0 08:20 19.12.2019
5886 Clear 3 1016 100 10000 1 0 08:20 19.12.2019
5887 Mist 3 1016 100 1600 2.1 260 07:59 19.12.2019
5888 Mist 3 1016 100 1600 2.1 260 07:40 19.12.2019
5889 Clear 3 1016 100 10000 2.1 30 07:22 19.12.2019
5890 Clear 4 1016 100 10000 3.1 10 06:54 19.12.2019
5891 Clear 4 1016 100 10000 2.6 10 06:36 19.12.2019
5892 Clear 4 1016 100 10000 2.6 10 06:18 19.12.2019
5893 Mist 4 1016 100 8000 1.01 40 05:42 19.12.2019
5894 Mist 4 1016 100 3200 0.96 40 05:18 19.12.2019
5895 Clear 4 1017 100 10000 3.1 10 03:51 19.12.2019
5896 Clear 4 1017 93 10000 1.5 30 02:28 19.12.2019
5897 Clear 5 1017 93 10000 1.5 40 01:24 19.12.2019
5898 Clear 5 1018 100 10000 1 0 00:57 19.12.2019
5899 Clear 5 1018 100 10000 1 0 00:38 19.12.2019
5900 Clear 5 1018 100 10000 1 0 00:19 19.12.2019
5901 Clear 5 1018 100 10000 1 0 00:19 19.12.2019
5902 Clear 5 1018 93 10000 1 0 23:44 18.12.2019
5903 Clear 5 1018 93 10000 3.1 10 23:19 18.12.2019
5904 Clear 6 1018 100 10000 3.1 10 22:56 18.12.2019
5905 Clear 6 1018 93 10000 2.1 20 22:38 18.12.2019
5906 Clear 6 1018 93 10000 2.1 20 22:20 18.12.2019
5907 Clear 6 1018 93 10000 2.1 50 21:58 18.12.2019
5908 Clouds 6 1018 93 10000 2.6 20 21:40 18.12.2019
5909 Clouds 6 1018 93 10000 2.6 20 21:20 18.12.2019
5910 Clouds 6 1018 93 10000 2.1 30 20:57 18.12.2019
5911 Clouds 6 1018 87 10000 2.6 70 20:38 18.12.2019
5912 Clouds 6 1018 87 10000 2.6 70 20:20 18.12.2019
5913 Clouds 6 1019 87 10000 3.1 360 19:57 18.12.2019
5914 Clouds 6 1019 93 10000 2.6 70 19:39 18.12.2019
5915 Clouds 6 1019 93 10000 2.6 70 19:19 18.12.2019
5916 Clouds 7 1019 87 10000 3.1 70 18:56 18.12.2019
5917 Clouds 7 1019 93 10000 2.1 90 18:37 18.12.2019
5918 Clouds 7 1019 93 10000 2.1 90 18:18 18.12.2019
5919 Clouds 7 1019 93 10000 1.5 60 17:55 18.12.2019
5920 Clouds 7 1019 93 10000 0.5 0 17:37 18.12.2019
5921 Clouds 7 1019 93 10000 0.5 0 17:37 18.12.2019
5922 Clouds 7 1019 93 10000 0.5 0 17:18 18.12.2019
5923 Clouds 8 1019 93 10000 1 0 16:42 18.12.2019
5924 Clouds 9 1018 87 10000 0.5 200 16:24 18.12.2019
5925 Clouds 9 1018 87 10000 0.5 200 15:59 18.12.2019
5926 Clouds 10 1018 76 10000 0.5 0 15:39 18.12.2019
5927 Clouds 10 1018 76 10000 1 0 15:21 18.12.2019
5928 Clouds 10 1018 76 10000 1 0 14:58 18.12.2019
5929 Clouds 10 1018 76 10000 3.1 280 14:40 18.12.2019
5930 Clouds 10 1018 76 10000 2.1 270 14:19 18.12.2019
5931 Clouds 10 1018 76 10000 2.1 270 13:56 18.12.2019
5932 Clouds 10 1018 76 10000 2.1 270 13:56 18.12.2019
5933 Clouds 10 1018 76 10000 2.6 250 13:37 18.12.2019
5934 Clouds 10 1018 81 10000 2.1 240 13:19 18.12.2019
5935 Clouds 10 1018 76 10000 2.6 230 12:57 18.12.2019
5936 Clouds 10 1018 76 10000 2.6 230 12:37 18.12.2019
5937 Clouds 10 1018 76 10000 2.1 230 12:19 18.12.2019
5938 -273 0 0 0 0 0 11:54 18.12.2019
5939 Clouds 9 1018 76 10000 2.1 250 11:36 18.12.2019
5940 Clouds 9 1018 87 10000 1.5 220 11:18 18.12.2019
5941 Clouds 9 1017 87 10000 2.1 240 10:55 18.12.2019
5942 Clouds 9 1017 87 10000 2.1 240 10:36 18.12.2019
5943 Clouds 9 1017 87 10000 2.6 220 10:18 18.12.2019
5944 Clouds 8 1016 87 10000 2.1 190 09:21 18.12.2019
5945 Clouds 8 1016 87 10000 2.1 190 08:57 18.12.2019
5946 Clouds 8 1016 87 10000 1.5 180 08:39 18.12.2019
5947 Clouds 9 1015 93 10000 1 0 08:21 18.12.2019
5948 Clouds 9 1015 87 10000 2.6 210 07:43 18.12.2019
5949 Clouds 9 1014 81 10000 2.1 240 07:22 18.12.2019
5950 Clouds 9 1014 87 10000 3.6 200 06:53 18.12.2019
5951 Rain 9 1014 87 10000 3.1 220 06:26 18.12.2019
5952 Clouds 10 1013 81 10000 4.1 210 05:43 18.12.2019
5953 Rain 10 1012 81 10000 4.6 210 04:46 18.12.2019
5954 Rain 10 1011 81 10000 5.1 200 02:51 18.12.2019
5955 Rain 10 1011 81 10000 5.1 200 02:31 18.12.2019
5956 Rain 10 1010 87 10000 3.1 200 01:57 18.12.2019
5957 Rain 10 1010 87 10000 3.1 200 01:37 18.12.2019
5958 Rain 10 1010 87 10000 4.1 230 01:19 18.12.2019
5959 Clouds 10 1009 81 10000 3.1 190 00:40 18.12.2019
5960 Clouds 10 1009 81 10000 5.7 240 00:21 18.12.2019
5961 Clouds 10 1009 81 10000 2.1 310 23:54 17.12.2019
5962 Clouds 10 1009 81 10000 2.1 310 23:36 17.12.2019
5963 Clouds 10 1007 81 10000 2.6 220 23:18 17.12.2019
5964 Clouds 10 1007 81 10000 2.6 220 23:18 17.12.2019
5965 Clouds 10 1007 81 10000 2.6 220 22:55 17.12.2019
5966 Rain 9 1007 81 10000 2.6 190 22:37 17.12.2019
5967 Rain 9 1007 87 10000 1.5 150 22:18 17.12.2019
5968 Clouds 9 1007 93 10000 1.5 210 21:55 17.12.2019
5969 Clouds 9 1007 93 10000 1.5 210 21:55 17.12.2019
5970 Clouds 9 1007 93 10000 1.5 210 21:37 17.12.2019
5971 Clouds 9 1007 93 10000 1 0 21:18 17.12.2019
5972 Clouds 9 1007 93 10000 1 0 20:55 17.12.2019
5973 Clouds 9 1007 93 10000 0.5 0 20:37 17.12.2019
5974 Clouds 9 1007 87 10000 2.1 80 20:18 17.12.2019
5975 Clouds 9 1007 87 10000 0.5 0 19:54 17.12.2019
5976 Clouds 9 1007 87 10000 0.5 0 19:36 17.12.2019
5977 Clouds 10 1007 87 10000 1.5 150 19:18 17.12.2019
5978 Rain 10 1007 87 10000 1.5 180 18:41 17.12.2019
5979 Clouds 10 1007 81 10000 1.5 260 18:21 17.12.2019
5980 Rain 10 1007 81 10000 1 0 17:58 17.12.2019
5981 Rain 10 1007 81 10000 1 0 17:40 17.12.2019
5982 Clouds 10 1007 87 10000 1 0 17:19 17.12.2019
5983 Clouds 10 1007 87 10000 1 0 16:56 17.12.2019
5984 Clouds 10 1007 87 10000 1 0 16:37 17.12.2019
5985 Clouds 10 1007 87 10000 2.1 250 16:19 17.12.2019
5986 Clouds 11 1007 87 10000 2.1 250 15:56 17.12.2019
5987 Rain 11 1006 87 10000 0.5 0 15:37 17.12.2019
5988 Clouds 11 1006 76 10000 0.5 0 15:18 17.12.2019
5989 Clouds 11 1006 81 10000 1 0 14:55 17.12.2019
5990 Clouds 11 1006 81 10000 1 0 14:36 17.12.2019
5991 Clouds 12 1006 66 10000 1.5 200 14:18 17.12.2019
5992 Clouds 12 1006 66 10000 1.5 200 13:55 17.12.2019
5993 Clouds 12 1006 66 10000 1.5 200 13:55 17.12.2019
5994 Clouds 12 1006 71 10000 2.1 200 13:37 17.12.2019
5995 Clouds 12 1006 71 10000 2.1 210 13:18 17.12.2019
5996 Clouds 11 1006 71 10000 2.6 200 12:41 17.12.2019
5997 Clouds 11 1007 71 10000 1.5 170 12:19 17.12.2019
5998 Clouds 11 1007 71 10000 1.5 170 12:19 17.12.2019
5999 Clouds 10 1007 76 10000 1 0 11:59 17.12.2019
6000 Clouds 10 1007 76 10000 1 0 11:59 17.12.2019
6001 -273 0 0 0 0 0 11:38 17.12.2019
6002 Clouds 9 1006 81 10000 1.5 90 11:19 17.12.2019
6003 Clouds 9 1006 100 10000 0.5 0 10:59 17.12.2019
6004 Clouds 8 1006 100 10000 0.5 0 10:41 17.12.2019
6005 Clouds 8 1006 100 10000 1 0 10:23 17.12.2019
6006 Clouds 8 1006 100 10000 1 0 09:59 17.12.2019
6007 Clouds 7 1006 100 10000 1 0 09:59 17.12.2019
6008 Clouds 7 1006 100 10000 1 0 09:41 17.12.2019
6009 Clouds 7 1006 93 10000 0.5 0 09:20 17.12.2019
6010 Clouds 7 1006 100 10000 0.5 0 08:56 17.12.2019
6011 Clouds 7 1006 100 10000 0.5 0 08:38 17.12.2019
6012 Clouds 7 1006 100 10000 0.5 0 08:38 17.12.2019
6013 Clouds 7 1006 100 10000 0.5 0 08:38 17.12.2019
6014 Clouds 7 1006 100 10000 1 0 08:20 17.12.2019
6015 Clouds 7 1005 100 10000 1 0 07:55 17.12.2019
6016 Clouds 7 1005 100 10000 1 0 07:36 17.12.2019
6017 Clouds 7 1005 100 10000 1 0 07:18 17.12.2019
6018 Clouds 7 1005 100 10000 0.5 0 06:35 17.12.2019
6019 Clouds 7 1005 100 10000 1.5 60 05:57 17.12.2019
6020 Clouds 7 1005 100 10000 1.5 60 05:38 17.12.2019
6021 Rain 7 1005 100 10000 1.5 140 04:45 17.12.2019
6022 Clouds 7 1005 100 10000 1 0 02:47 17.12.2019
6023 Rain 7 1004 93 10000 2.6 0 01:56 17.12.2019
6024 Clouds 7 1004 93 10000 2.1 20 01:20 17.12.2019
6025 Clouds 7 1004 100 10000 0.5 0 00:38 17.12.2019
6026 Clouds 7 1005 93 10000 1.5 80 00:20 17.12.2019
6027 Clouds 7 1005 93 10000 1.5 20 23:43 16.12.2019
6028 Fog 7 1005 100 10000 0.5 0 23:19 16.12.2019
6029 Fog 7 1005 100 10000 0.5 0 22:58 16.12.2019
6030 Fog 7 1005 100 10000 0.5 0 22:38 16.12.2019
6031 Fog 7 1005 100 10000 1 0 22:20 16.12.2019
6032 Fog 7 1005 100 10000 0.5 0 21:57 16.12.2019
6033 Fog 7 1005 100 10000 0.5 0 21:39 16.12.2019
6034 Fog 7 1005 100 10000 1 0 21:20 16.12.2019
6035 Fog 7 1005 100 10000 1 0 20:58 16.12.2019
6036 Fog 7 1006 100 10000 1 0 20:39 16.12.2019
6037 Fog 8 1006 100 10000 1.5 80 20:19 16.12.2019
6038 Fog 8 1006 100 10000 1.5 80 20:19 16.12.2019
6039 Fog 8 1006 100 10000 0.5 0 19:57 16.12.2019
6040 Fog 8 1006 100 10000 0.5 0 19:37 16.12.2019
6041 Clouds 8 1006 100 10000 1 0 19:19 16.12.2019
6042 Fog 8 1006 100 10000 1.5 80 18:59 16.12.2019
6043 Fog 8 1006 100 10000 1.5 80 18:41 16.12.2019
6044 Fog 8 1006 100 10000 1 80 18:20 16.12.2019
6045 Fog 8 1006 100 10000 0.5 0 17:59 16.12.2019
6046 Fog 9 1006 100 10000 0.5 0 17:40 16.12.2019
6047 Fog 9 1007 100 10000 0.5 0 17:21 16.12.2019
6048 Fog 9 1007 100 10000 0.5 0 16:57 16.12.2019
6049 Fog 9 1007 100 10000 0.5 0 16:39 16.12.2019
6050 Clouds 10 1007 100 10000 1 0 16:20 16.12.2019
6051 Clouds 10 1007 93 10000 1.5 290 15:59 16.12.2019
6052 Clouds 10 1007 93 10000 1.5 290 15:39 16.12.2019
6053 Clouds 10 1007 93 10000 1.5 200 15:21 16.12.2019
6054 Clouds 10 1007 93 10000 1.5 200 14:58 16.12.2019
6055 Clouds 10 1007 93 10000 0.5 0 14:38 16.12.2019
6056 Clouds 10 1007 93 10000 1 0 14:20 16.12.2019
6057 Clouds 10 1007 93 10000 1 0 13:58 16.12.2019
6058 Clouds 10 1007 93 10000 0.5 0 13:38 16.12.2019
6059 Clouds 10 1008 93 10000 1 0 13:20 16.12.2019
6060 Clouds 10 1008 100 10000 1.5 270 12:58 16.12.2019
6061 Clouds 9 1008 100 10000 1.5 270 12:40 16.12.2019
6062 Clouds 9 1008 87 10000 0.5 0 12:20 16.12.2019
6063 Clouds 9 1008 93 10000 0.5 0 11:59 16.12.2019
6064 Clouds 9 1008 93 10000 0.5 0 11:41 16.12.2019
6065 Clouds 9 1009 93 10000 0.5 0 11:21 16.12.2019
6066 Clouds 8 1009 100 10000 2.33 186 10:59 16.12.2019
6067 Clouds 8 1009 100 10000 2.2 173 10:40 16.12.2019
6068 Clouds 8 1009 100 10000 0.5 0 10:40 16.12.2019
6069 Clouds 8 1009 93 10000 0.5 0 10:21 16.12.2019
6070 Rain 8 1009 100 10000 1 170 09:47 16.12.2019
6071 Rain 7 1009 100 9000 1.5 110 09:29 16.12.2019
6072 Rain 7 1009 100 10000 2.33 186 08:58 16.12.2019
6073 Rain 7 1009 100 10000 2.2 173 08:38 16.12.2019
6074 Rain 7 1009 100 10000 1 0 08:19 16.12.2019
6075 Rain 7 1008 100 10000 0.5 0 07:51 16.12.2019
6076 Rain 7 1008 100 10000 0.5 0 07:31 16.12.2019
6077 Clouds 7 1008 100 10000 1.5 70 07:31 16.12.2019
6078 Mist 7 1009 100 1800 1.5 100 06:48 16.12.2019
6079 Mist 7 1009 100 3200 1.5 110 06:27 16.12.2019
6080 Mist 7 1009 100 9000 2.52 195 05:58 16.12.2019
6081 Rain 7 1009 100 10000 1 110 05:39 16.12.2019
6082 Rain 7 1009 100 6000 1.5 50 05:21 16.12.2019
6083 Clouds 7 1010 93 10000 2.1 150 02:59 16.12.2019
6084 Rain 6 1010 93 10000 2.1 200 01:45 16.12.2019
6085 Rain 6 1010 93 10000 2.6 180 00:56 16.12.2019
6086 Rain 6 1010 87 10000 4.6 170 00:38 16.12.2019
6087 Rain 6 1010 81 10000 3.1 180 00:19 16.12.2019
6088 Clouds 6 1010 81 10000 3.6 180 23:43 15.12.2019
6089 Clouds 6 1010 81 10000 4.6 180 23:25 15.12.2019
6090 Clouds 6 1010 81 10000 4.1 180 22:57 15.12.2019
6091 Clouds 6 1010 81 10000 4.1 180 22:38 15.12.2019
6092 Clouds 6 1010 81 10000 4.1 190 22:19 15.12.2019
6093 Clouds 6 1010 81 10000 5.1 190 21:58 15.12.2019
6094 Clouds 6 1010 81 10000 5.1 190 21:38 15.12.2019
6095 Clouds 6 1009 81 10000 4.6 200 21:20 15.12.2019
6096 Clouds 6 1009 81 10000 4.6 200 20:58 15.12.2019
6097 Clouds 6 1009 87 10000 3.1 220 20:40 15.12.2019
6098 Clouds 7 1009 87 10000 3.1 220 20:21 15.12.2019
6099 Clouds 7 1009 87 10000 3.1 220 20:21 15.12.2019
6100 Clouds 6 1009 81 10000 5.1 210 19:58 15.12.2019
6101 Clouds 7 1009 81 10000 5.1 210 19:40 15.12.2019
6102 Clouds 7 1008 81 10000 5.1 200 19:20 15.12.2019
6103 Clouds 7 1008 75 10000 4.6 200 18:58 15.12.2019
6104 Clouds 7 1008 75 10000 4.6 200 18:39 15.12.2019
6105 Clouds 7 1008 75 10000 4.1 210 18:19 15.12.2019
6106 Clouds 7 1007 81 10000 3.6 200 17:57 15.12.2019
6107 Clouds 7 1007 81 10000 3.6 200 17:38 15.12.2019
6108 Clouds 7 1007 81 10000 3.6 200 17:38 15.12.2019
6109 Clouds 8 1007 76 10000 4.6 210 17:19 15.12.2019
6110 Clouds 8 1007 81 10000 4.1 210 16:58 15.12.2019
6111 Clouds 8 1007 81 10000 4.1 210 16:39 15.12.2019
6112 Clouds 8 1006 76 10000 4.6 220 16:21 15.12.2019
6113 Rain 8 1006 76 10000 3.1 200 15:56 15.12.2019
6114 Rain 9 1006 76 10000 3.1 200 15:38 15.12.2019
6115 Rain 9 1006 71 10000 2.6 190 15:19 15.12.2019
6116 Clouds 9 1005 66 10000 4.1 220 14:56 15.12.2019
6117 Clouds 9 1005 66 10000 4.1 220 14:37 15.12.2019
6118 Clouds 9 1005 71 10000 4.6 230 14:18 15.12.2019
6119 Clouds 9 1004 76 10000 4.1 220 13:58 15.12.2019
6120 Clouds 9 1004 76 10000 4.1 220 13:38 15.12.2019
6121 Clouds 9 1004 76 10000 5.1 240 13:19 15.12.2019
6122 Clouds 9 1004 76 10000 5.1 240 12:57 15.12.2019
6123 Clouds 9 1004 81 10000 3.6 210 12:39 15.12.2019
6124 Clouds 9 1004 81 10000 3.6 210 12:39 15.12.2019
6125 Clouds 9 1003 81 10000 4.1 220 12:20 15.12.2019
6126 Rain 9 1003 81 10000 4.1 220 11:56 15.12.2019
6127 Rain 9 1003 87 10000 5.1 250 11:37 15.12.2019
6128 Rain 9 1002 87 10000 5.7 260 11:18 15.12.2019
6129 Rain 9 1001 81 10000 4.6 230 10:55 15.12.2019
6130 Rain 9 1001 81 10000 4.6 230 10:37 15.12.2019
6131 Rain 9 1001 87 10000 5.7 270 10:19 15.12.2019
6132 Clouds 9 1000 87 10000 5.7 190 09:41 15.12.2019
6133 Clouds 9 1000 93 10000 4.6 260 09:20 15.12.2019
6134 Clouds 9 999 87 10000 5.7 190 08:59 15.12.2019
6135 Clouds 9 999 87 10000 5.7 180 08:41 15.12.2019
6136 Clouds 9 999 93 10000 5.1 190 08:22 15.12.2019
6137 Clouds 8 999 93 10000 5.1 190 07:56 15.12.2019
6138 Rain 8 999 93 10000 5.1 190 07:35 15.12.2019
6139 Rain 8 998 93 10000 6.2 180 06:56 15.12.2019
6140 Rain 7 998 100 10000 2.1 150 06:21 15.12.2019
6141 Rain 7 999 100 10000 3.1 190 05:37 15.12.2019
6142 Rain 7 999 100 10000 3.1 190 05:18 15.12.2019
6143 Rain 6 1000 93 10000 3.6 170 03:54 15.12.2019
6144 Rain 6 1000 87 10000 2.6 150 02:34 15.12.2019
6145 Rain 6 1001 81 10000 3.1 170 01:55 15.12.2019
6146 Clouds 6 1002 81 10000 3.1 180 01:37 15.12.2019
6147 Clouds 6 1003 81 10000 3.6 170 01:18 15.12.2019
6148 Clouds 6 1003 81 10000 3.6 160 00:42 15.12.2019
6149 Clouds 6 1003 81 10000 3.6 150 00:23 15.12.2019
6150 Clouds 6 1003 81 10000 4.1 170 23:40 14.12.2019
6151 Clouds 6 1003 75 10000 5.1 190 23:22 14.12.2019
6152 Clouds 6 1003 70 10000 5.1 200 22:59 14.12.2019
6153 Clouds 6 1003 70 10000 5.1 200 22:41 14.12.2019
6154 Clouds 6 1003 70 10000 7.7 230 22:22 14.12.2019
6155 Clouds 6 1003 70 10000 7.7 230 21:56 14.12.2019
6156 Clouds 6 1003 70 10000 6.2 230 21:38 14.12.2019
6157 Clouds 6 1002 70 10000 5.1 250 21:19 14.12.2019
6158 Clouds 7 1001 70 10000 6.7 240 20:57 14.12.2019
6159 Clouds 7 1001 70 10000 6.7 240 20:39 14.12.2019
6160 Clouds 7 1001 70 10000 9.3 230 20:20 14.12.2019
6161 Clouds 7 1001 70 10000 9.3 230 19:57 14.12.2019
6162 Clouds 7 1000 70 10000 8.7 220 19:37 14.12.2019
6163 Rain 7 1000 75 10000 8.7 260 19:19 14.12.2019
6164 Clouds 7 999 70 10000 9.3 220 18:56 14.12.2019
6165 Clouds 7 999 70 10000 9.3 220 18:37 14.12.2019
6166 Clouds 7 999 70 10000 8.2 210 18:19 14.12.2019
6167 Clouds 7 999 75 10000 8.7 250 17:44 14.12.2019
6168 Clouds 7 999 75 10000 8.2 260 17:24 14.12.2019
6169 Rain 7 999 75 10000 11.3 240 16:58 14.12.2019
6170 Rain 7 999 75 10000 11.3 240 16:39 14.12.2019
6171 Rain 7 998 75 10000 7.2 260 16:19 14.12.2019
6172 Rain 7 998 75 10000 7.2 260 16:19 14.12.2019
6173 Clouds 7 998 66 10000 10.8 230 15:43 14.12.2019
6174 Clouds 7 998 61 10000 8.2 230 15:22 14.12.2019
6175 Clouds 7 997 57 10000 9.3 250 14:59 14.12.2019
6176 Clouds 7 997 57 10000 9.3 250 14:39 14.12.2019
6177 Clouds 8 997 65 10000 9.8 240 14:20 14.12.2019
6178 Clouds 8 997 65 10000 9.8 240 13:57 14.12.2019
6179 Clouds 7 996 65 10000 10.8 250 13:39 14.12.2019
6180 Rain 7 995 65 10000 10.8 250 13:19 14.12.2019
6181 Rain 7 995 75 10000 11.3 240 12:55 14.12.2019
6182 Rain 6 995 75 10000 11.3 240 12:37 14.12.2019
6183 Rain 6 995 75 10000 11.8 240 12:18 14.12.2019
6184 Rain 7 994 75 10000 7.7 260 11:55 14.12.2019
6185 Clouds 7 994 70 10000 7.2 240 11:37 14.12.2019
6186 Clouds 7 993 65 10000 9.8 250 11:18 14.12.2019
6187 Rain 7 993 65 10000 7.7 250 10:55 14.12.2019
6188 Rain 7 993 65 10000 7.7 250 10:37 14.12.2019
6189 Rain 7 991 70 10000 10.3 260 10:19 14.12.2019
6190 Rain 7 990 75 10000 11.8 260 09:41 14.12.2019
6191 Rain 6 989 100 10000 11.3 290 09:21 14.12.2019
6192 Rain 5 987 100 10000 2.1 260 08:56 14.12.2019
6193 Rain 5 986 93 10000 7.7 200 08:37 14.12.2019
6194 Rain 5 985 93 10000 6.7 200 08:18 14.12.2019
6195 Rain 4 985 93 10000 6.2 200 07:40 14.12.2019
6196 Rain 4 985 100 10000 5.7 200 07:19 14.12.2019
6197 Rain 4 985 93 10000 3.1 190 06:42 14.12.2019
6198 Rain 3 985 93 10000 6.7 190 06:22 14.12.2019
6199 Rain 3 986 93 8000 7.2 190 05:35 14.12.2019
6200 Rain 5 988 75 10000 5.7 200 03:44 14.12.2019
6201 Rain 5 989 75 10000 6.7 200 02:23 14.12.2019
6202 Clouds 5 990 86 10000 5.1 220 01:44 14.12.2019
6203 Clouds 5 990 86 10000 6.2 240 01:20 14.12.2019
6204 Rain 5 990 75 10000 6.2 200 00:41 14.12.2019
6205 Clouds 5 990 86 10000 6.2 240 00:20 14.12.2019
6206 Clouds 5 989 80 10000 5.1 200 23:41 13.12.2019
6207 Clouds 5 989 75 10000 4.6 200 23:20 13.12.2019
6208 Clouds 5 989 75 10000 4.6 200 22:57 13.12.2019
6209 Clouds 5 989 81 10000 6.2 230 22:38 13.12.2019
6210 Clouds 5 988 81 10000 6.2 280 22:18 13.12.2019
6211 Clouds 5 988 81 10000 4.6 220 21:46 13.12.2019
6212 Clouds 4 987 81 10000 3.6 200 21:22 13.12.2019
6213 Clouds 4 987 81 10000 3.6 200 20:59 13.12.2019
6214 Rain 4 986 81 10000 4.6 220 20:40 13.12.2019
6215 Rain 4 986 81 10000 4.6 220 20:40 13.12.2019
6216 Rain 4 986 86 10000 5.1 280 20:21 13.12.2019
6217 Rain 4 985 86 10000 7.2 240 19:57 13.12.2019
6218 Rain 4 985 93 10000 5.7 280 19:39 13.12.2019
6219 Rain 4 984 86 10000 6.2 240 19:20 13.12.2019
6220 Rain 4 983 86 10000 5.7 230 18:56 13.12.2019
6221 Rain 4 982 86 10000 7.2 220 18:38 13.12.2019
6222 Rain 4 982 86 10000 7.2 220 18:18 13.12.2019
6223 Rain 4 982 81 10000 8.2 220 17:41 13.12.2019
6224 Rain 4 981 81 10000 8.7 210 17:19 13.12.2019
6225 Rain 4 980 81 10000 7.7 220 16:58 13.12.2019
6226 Clouds 4 980 87 10000 6.7 220 16:39 13.12.2019
6227 Clouds 4 980 87 10000 6.7 220 16:39 13.12.2019
6228 Clouds 4 980 87 10000 6.7 220 16:20 13.12.2019
6229 Clouds 4 980 93 10000 5.82 226 15:43 13.12.2019
6230 Clouds 4 979 100 10000 2.6 220 15:23 13.12.2019
6231 Clouds 4 979 100 10000 3.1 220 14:58 13.12.2019
6232 Clouds 3 979 100 10000 3.1 220 14:39 13.12.2019
6233 Rain 3 979 100 10000 3.6 210 14:20 13.12.2019
6234 Rain 3 979 100 10000 3.6 210 14:20 13.12.2019
6235 Rain 3 979 100 10000 3.6 210 14:20 13.12.2019
6236 Clouds 3 979 100 10000 1.5 280 13:56 13.12.2019
6237 Rain 2 979 100 10000 1.5 280 13:37 13.12.2019
6238 Rain 2 978 93 10000 3.6 210 13:19 13.12.2019
6239 Rain 2 978 100 9000 3.6 210 12:42 13.12.2019
6240 Rain 2 977 93 9000 3.6 200 12:20 13.12.2019
6241 Rain 2 977 93 9000 3.6 200 12:20 13.12.2019
6242 Rain 2 977 93 8000 2.1 170 11:57 13.12.2019
6243 Rain 2 977 93 10000 1 0 11:39 13.12.2019
6244 Rain 2 977 93 10000 1 0 11:19 13.12.2019
6245 Rain 2 977 100 8000 1.5 80 10:42 13.12.2019
6246 Rain 2 977 100 9000 1.5 70 10:22 13.12.2019
6247 Rain 2 977 100 6000 2.6 70 09:55 13.12.2019
6248 Rain 2 977 100 6000 2.6 70 09:36 13.12.2019
6249 Rain 2 977 100 9000 3.1 60 09:18 13.12.2019
6250 Rain 2 977 93 9000 3.6 50 08:41 13.12.2019
6251 -273 0 0 0 0 0 08:23 13.12.2019
6252 Rain 1 979 93 10000 3.1 80 07:45 13.12.2019
6253 Rain 1 979 93 10000 3.1 80 07:45 13.12.2019
6254 Rain 1 979 93 10000 3.1 80 07:21 13.12.2019
6255 Rain 1 979 93 10000 3.1 80 07:21 13.12.2019
6256 Snow 1 980 100 10000 3.1 70 06:54 13.12.2019
6257 Rain 1 981 87 10000 1.5 90 06:28 13.12.2019
6258 Snow 1 982 87 9000 1.5 140 05:46 13.12.2019
6259 Drizzle 1 982 100 10000 2.1 120 05:26 13.12.2019
6260 Rain 1 984 94 10000 3.6 130 04:35 13.12.2019
6261 Snow 1 985 94 10000 2.6 120 03:46 13.12.2019
6262 Snow 1 987 86 10000 3.6 130 02:34 13.12.2019
6263 Clouds 0 988 80 10000 4.1 110 01:47 13.12.2019
6264 Clouds 0 990 68 10000 3.1 100 00:57 13.12.2019
6265 Clouds 0 991 68 10000 4.1 110 00:37 13.12.2019
6266 Clouds 0 992 68 10000 3.6 110 23:59 12.12.2019
6267 Clouds 0 992 68 10000 3.6 110 23:59 12.12.2019
6268 Clouds 0 993 86 10000 3.6 110 23:39 12.12.2019
6269 Clouds 1 993 86 10000 3.6 110 23:21 12.12.2019
6270 Clouds 1 994 75 10000 2.1 110 22:56 12.12.2019
6271 Clouds 1 995 75 10000 2.1 110 22:37 12.12.2019
6272 Clouds 1 995 75 10000 2.1 110 22:19 12.12.2019
6273 Clouds 1 995 75 10000 2.1 110 21:55 12.12.2019
6274 Clouds 1 996 93 10000 2.1 120 21:37 12.12.2019
6275 Clouds 1 996 93 10000 2.1 120 21:37 12.12.2019
6276 Clouds 1 996 93 10000 2.1 120 21:18 12.12.2019
6277 Clouds 2 997 93 10000 2.1 140 20:56 12.12.2019
6278 Clouds 2 997 93 10000 2.6 150 20:38 12.12.2019
6279 Clouds 2 997 93 10000 2.6 150 20:20 12.12.2019
6280 Clouds 2 998 86 10000 2.6 170 19:43 12.12.2019
6281 Clouds 2 998 86 10000 2.6 170 19:43 12.12.2019
6282 Clouds 2 998 86 10000 3.1 160 19:23 12.12.2019
6283 Clouds 3 999 80 10000 3.6 160 18:58 12.12.2019
6284 Clouds 3 1000 86 10000 3.1 170 18:40 12.12.2019
6285 Clouds 3 1000 86 10000 3.1 170 18:21 12.12.2019
6286 Clouds 3 1000 86 10000 3.1 170 18:21 12.12.2019
6287 Clouds 3 1000 80 10000 4.6 210 17:59 12.12.2019
6288 Clouds 3 1000 80 10000 4.1 230 17:40 12.12.2019
6289 Clouds 3 1000 80 10000 4.1 230 17:21 12.12.2019
6290 Rain 4 1001 75 10000 4.6 220 16:59 12.12.2019
6291 Rain 4 1001 80 10000 5.7 230 16:41 12.12.2019
6292 Rain 4 1001 80 10000 5.7 230 16:21 12.12.2019
6293 Rain 4 1001 80 10000 6.2 210 15:59 12.12.2019
6294 Rain 4 1001 80 10000 6.2 210 15:41 12.12.2019
6295 Clouds 5 1001 86 10000 3.6 230 15:19 12.12.2019
6296 Clouds 5 1001 86 10000 3.6 230 15:19 12.12.2019
6297 Clouds 5 1002 86 10000 6.7 240 14:57 12.12.2019
6298 Clouds 5 1002 86 10000 6.7 240 14:36 12.12.2019
6299 Clouds 5 1002 81 10000 3.6 220 14:18 12.12.2019
6300 Clouds 4 1003 87 10000 3.1 230 13:54 12.12.2019
6301 Clouds 4 1003 100 10000 3.1 290 13:36 12.12.2019
6302 Clouds 4 1003 100 10000 3.1 290 13:18 12.12.2019
6303 Clouds 4 1003 100 10000 3.1 290 13:18 12.12.2019
6304 Clouds 4 1003 93 10000 4.1 180 12:42 12.12.2019
6305 Clouds 4 1004 93 10000 4.6 180 12:23 12.12.2019
6306 Clouds 4 1004 100 10000 4.6 180 11:59 12.12.2019
6307 Clouds 4 1004 100 10000 2.6 200 11:40 12.12.2019
6308 Clouds 4 1004 100 8000 4.1 180 11:22 12.12.2019
6309 Clouds 3 1004 93 8000 4.6 180 10:59 12.12.2019
6310 Mist 3 1005 100 9000 3.1 190 10:40 12.12.2019
6311 Drizzle 3 1004 93 7000 4.6 180 10:22 12.12.2019
6312 Rain 3 1005 93 7000 4.1 180 09:56 12.12.2019
6313 Clouds 3 1004 93 8000 4.1 170 09:38 12.12.2019
6314 Clouds 3 1004 93 8000 4.1 170 09:20 12.12.2019
6315 Clouds 2 1004 93 8000 3.6 170 08:48 12.12.2019
6316 Clouds 2 1004 100 8000 3.1 180 08:29 12.12.2019
6317 Clouds 2 1004 100 8000 3.6 180 07:56 12.12.2019
6318 Mist 2 1004 100 6000 2.6 150 07:37 12.12.2019
6319 Clouds 2 1004 100 7000 2.6 180 07:19 12.12.2019
6320 Mist 2 1004 100 3200 1.5 150 06:41 12.12.2019
6321 Rain 2 1004 100 8000 1.5 210 06:22 12.12.2019
6322 Rain 2 1005 100 6000 3.1 210 05:32 12.12.2019
6323 Rain 2 1005 100 2800 2.16 206 04:48 12.12.2019
6324 Rain 2 1006 93 7000 2.1 210 02:44 12.12.2019
6325 Rain 2 1006 100 7000 2.1 220 02:25 12.12.2019
6326 Rain 2 1006 100 7000 2.1 200 01:59 12.12.2019
6327 Rain 2 1006 100 7000 2.6 190 01:36 12.12.2019
6328 Clouds 1 1006 100 7000 1.5 190 00:58 12.12.2019
6329 Mist 1 1007 100 3600 2.57 234 00:38 12.12.2019
6330 Mist 1 1007 100 3600 2.57 234 00:18 12.12.2019
6331 Mist 1 1007 100 6000 2.57 234 23:40 11.12.2019
6332 Mist 1 1007 100 6000 2.77 205 23:19 11.12.2019
6333 Snow 1 1007 100 9000 3.1 190 22:57 11.12.2019
6334 Mist 1 1007 100 5000 2.77 205 22:38 11.12.2019
6335 Rain 1 1007 100 8000 3.6 190 22:19 11.12.2019
6336 Snow 1 1007 93 8000 4.1 190 21:55 11.12.2019
6337 Rain 1 1007 93 8000 3.6 190 21:37 11.12.2019
6338 Rain 1 1007 93 8000 3.6 190 21:19 11.12.2019
6339 Snow 1 1007 93 6000 3.1 190 20:55 11.12.2019
6340 Rain 1 1007 92 5000 3.6 190 20:37 11.12.2019
6341 Rain 1 1007 90 5000 3.6 190 20:18 11.12.2019
6342 Rain 1 1007 89 8000 3.6 190 19:57 11.12.2019
6343 Rain 1 1007 89 8000 3.6 190 19:38 11.12.2019
6344 Rain 1 1008 89 4400 3.37 181 19:18 11.12.2019
6345 Snow 1 1007 100 8000 3.1 200 18:40 11.12.2019
6346 Rain 1 1007 89 10000 2.6 190 18:21 11.12.2019
6347 Snow 1 1007 100 10000 2.1 190 17:57 11.12.2019
6348 Rain 1 1008 100 10000 0.5 0 17:38 11.12.2019
6349 Rain 1 1008 100 10000 0.5 0 17:18 11.12.2019
6350 Rain 1 1008 93 10000 0.5 0 16:57 11.12.2019
6351 Snow 1 1008 83 5000 3.32 175 16:38 11.12.2019
6352 Snow 1 1008 93 10000 1.5 200 16:38 11.12.2019
6353 Snow 1 1008 93 10000 1.5 200 16:20 11.12.2019
6354 Snow 1 1008 93 10000 2.6 170 15:59 11.12.2019
6355 Snow 1 1008 93 10000 2.6 170 15:39 11.12.2019
6356 Snow 1 1008 86 4000 1.5 140 15:21 11.12.2019
6357 Rain 2 1009 93 10000 1 0 14:56 11.12.2019
6358 Rain 2 1009 83 10000 2.6 160 14:37 11.12.2019
6359 Rain 2 1009 76 10000 2.6 160 14:19 11.12.2019
6360 Rain 2 1010 93 10000 1 180 13:55 11.12.2019
6361 Rain 2 1010 76 10000 3.1 190 13:36 11.12.2019
6362 Rain 2 1010 75 10000 3.1 190 13:18 11.12.2019
6363 Rain 2 1011 74 10000 3.1 180 12:55 11.12.2019
6364 Rain 2 1011 80 10000 1.5 180 12:37 11.12.2019
6365 Rain 2 1011 80 10000 1.5 180 12:18 11.12.2019
6366 Rain 2 1012 80 10000 2.6 180 11:56 11.12.2019
6367 Rain 2 1012 80 10000 1.5 170 11:37 11.12.2019
6368 Rain 2 1012 80 10000 1.5 170 11:18 11.12.2019
6369 Rain 2 1013 80 10000 2.6 180 10:44 11.12.2019
6370 Rain 2 1013 80 10000 2.6 180 10:44 11.12.2019
6371 Rain 2 1013 74 10000 3.1 190 10:26 11.12.2019
6372 Rain 2 1013 74 10000 1.5 180 09:59 11.12.2019
6373 Clouds 2 1013 74 10000 2.6 190 09:39 11.12.2019
6374 Rain 2 1013 74 10000 1.5 180 09:39 11.12.2019
6375 Clouds 2 1013 74 10000 2.6 190 09:20 11.12.2019
6376 Clouds 2 1014 69 10000 2.1 200 08:57 11.12.2019
6377 Rain 2 1014 69 10000 2.6 180 08:38 11.12.2019
6378 Clouds 2 1014 69 10000 2.6 180 08:19 11.12.2019
6379 Clouds 2 1014 69 10000 2.6 170 07:46 11.12.2019
6380 Clouds 2 1015 74 10000 2.6 190 07:26 11.12.2019
6381 Clouds 2 1015 74 10000 2.1 180 06:59 11.12.2019
6382 Clouds 2 1015 74 10000 2.1 180 06:40 11.12.2019
6383 Clouds 2 1016 74 10000 1.5 210 06:21 11.12.2019
6384 Clouds 2 1016 80 10000 2.1 190 05:41 11.12.2019
6385 Clouds 2 1016 80 10000 2.1 190 05:18 11.12.2019
6386 Clouds 2 1017 80 10000 1.5 170 04:26 11.12.2019
6387 Clouds 1 1018 86 10000 1.5 160 02:49 11.12.2019
6388 Clouds 1 1020 80 10000 1 0 01:25 11.12.2019
6389 Clouds 1 1020 80 10000 2.6 190 00:47 11.12.2019
6390 Clouds 1 1021 86 10000 2.1 180 00:21 11.12.2019
6391 Clouds 1 1021 80 10000 1.5 170 23:49 10.12.2019
6392 Clouds 1 1021 86 10000 1.5 170 23:30 10.12.2019
6393 Clouds 1 1021 73 10000 1.5 170 22:59 10.12.2019
6394 Clouds 1 1021 73 10000 1.5 170 22:40 10.12.2019
6395 Clouds 1 1022 73 10000 2.1 170 22:22 10.12.2019
6396 Clouds 1 1022 73 10000 1 0 21:57 10.12.2019
6397 Clouds 1 1022 73 10000 1 0 21:39 10.12.2019
6398 Clouds 1 1023 73 10000 2.1 180 21:21 10.12.2019
6399 Clouds 1 1023 86 10000 2.1 150 20:57 10.12.2019
6400 Clouds 1 1023 73 10000 2.6 150 20:38 10.12.2019
6401 Clouds 1 1023 73 10000 2.6 150 20:38 10.12.2019
6402 Clear 1 1023 73 10000 2.6 150 20:19 10.12.2019
6403 Clear 1 1024 73 10000 2.6 150 19:55 10.12.2019
6404 Clouds 1 1024 86 10000 1.5 160 19:37 10.12.2019
6405 Clouds 1 1024 86 10000 1.5 160 19:19 10.12.2019
6406 Clouds 2 1025 73 10000 2.1 180 18:41 10.12.2019
6407 Clouds 2 1025 73 10000 2.1 180 18:21 10.12.2019
6408 Clouds 2 1025 73 10000 3.1 220 17:58 10.12.2019
6409 Clouds 2 1025 73 10000 3.1 220 17:40 10.12.2019
6410 Clouds 3 1025 65 10000 4.6 220 17:22 10.12.2019
6411 Clouds 3 1025 74 10000 4.6 260 16:55 10.12.2019
6412 Clouds 3 1025 74 10000 4.6 260 16:36 10.12.2019
6413 Clouds 4 1025 75 10000 4.1 180 16:18 10.12.2019
6414 Clouds 5 1026 70 10000 4.6 190 15:38 10.12.2019
6415 Clouds 5 1026 70 10000 4.6 190 15:38 10.12.2019
6416 Clouds 5 1026 70 10000 4.6 190 15:18 10.12.2019
6417 Clouds 5 1026 70 10000 3.6 180 14:56 10.12.2019
6418 Clouds 5 1026 75 10000 4.1 180 14:38 10.12.2019
6419 Clouds 6 1026 75 10000 4.1 180 14:20 10.12.2019
6420 Clouds 6 1026 75 10000 4.1 180 14:20 10.12.2019
6421 Clouds 5 1027 70 10000 3.6 190 13:58 10.12.2019
6422 Clouds 6 1027 70 10000 4.6 200 13:40 10.12.2019
6423 Clouds 6 1027 70 10000 4.6 200 13:20 10.12.2019
6424 Clouds 5 1027 70 10000 4.1 190 12:48 10.12.2019
6425 Clouds 5 1027 70 10000 3.1 210 12:28 10.12.2019
6426 Clouds 5 1028 75 10000 3.6 230 11:56 10.12.2019
6427 Clouds 5 1028 75 10000 2.1 220 11:38 10.12.2019
6428 Clouds 4 1028 75 10000 2.1 220 11:19 10.12.2019
6429 Clouds 3 1027 80 10000 2.6 230 10:43 10.12.2019
6430 Clouds 2 1027 72 10000 2.1 230 10:24 10.12.2019
6431 Clouds 2 1027 72 10000 2.1 210 09:57 10.12.2019
6432 Clouds 2 1027 72 10000 2.1 210 09:57 10.12.2019
6433 Clouds 2 1027 72 10000 2.1 210 09:57 10.12.2019
6434 Clouds 1 1026 72 10000 3.1 250 09:39 10.12.2019
6435 Clouds 1 1026 72 10000 3.1 250 09:20 10.12.2019
6436 Clouds 1 1026 72 10000 4.1 250 08:58 10.12.2019
6437 Clouds 1 1026 72 10000 4.1 250 08:39 10.12.2019
6438 Clouds 1 1026 76 10000 3.6 230 08:20 10.12.2019
6439 Clouds 1 1026 74 10000 4.1 250 07:45 10.12.2019
6440 Clouds 1 1026 74 10000 3.6 250 07:27 10.12.2019
6441 Clouds 1 1025 74 10000 3.6 270 06:56 10.12.2019
6442 Clouds 1 1025 86 10000 2.1 310 06:38 10.12.2019
6443 Clouds 1 1025 86 10000 2.1 310 06:19 10.12.2019
6444 Clouds 2 1024 74 10000 6.7 290 05:51 10.12.2019
6445 Clouds 3 1022 75 10000 5.7 290 04:23 10.12.2019
6446 Clouds 3 1021 75 10000 6.2 290 03:27 10.12.2019
6447 Clouds 3 1020 75 10000 5.1 300 02:36 10.12.2019
6448 Clouds 4 1019 75 10000 2.6 270 01:40 10.12.2019
6449 Clouds 4 1019 75 10000 2.6 270 01:19 10.12.2019
6450 Clouds 4 1019 75 10000 4.1 320 00:38 10.12.2019
6451 Clouds 5 1018 70 10000 3.6 310 00:18 10.12.2019
6452 Clouds 5 1017 75 10000 4.1 300 23:39 09.12.2019
6453 Clouds 5 1016 75 10000 4.1 300 23:21 09.12.2019
6454 Rain 6 1014 70 10000 3.6 310 22:57 09.12.2019
6455 Rain 6 1014 75 10000 5.7 320 22:39 09.12.2019
6456 Rain 6 1014 75 10000 5.7 320 22:18 09.12.2019
6457 Clouds 6 1014 81 10000 4.1 350 21:56 09.12.2019
6458 Clouds 6 1014 81 10000 4.1 350 21:38 09.12.2019
6459 Rain 6 1011 87 10000 4.6 260 21:18 09.12.2019
6460 Rain 6 1010 87 10000 4.1 270 20:56 09.12.2019
6461 Clouds 6 1009 81 10000 2.6 270 20:38 09.12.2019
6462 Clouds 6 1009 81 10000 2.6 270 20:19 09.12.2019
6463 Rain 6 1008 87 10000 2.6 320 19:55 09.12.2019
6464 Rain 6 1007 87 10000 3.1 250 19:37 09.12.2019
6465 Rain 6 1007 87 10000 3.1 250 19:37 09.12.2019
6466 Rain 6 1007 87 10000 3.1 250 19:19 09.12.2019
6467 Rain 6 1007 81 10000 3.6 270 18:56 09.12.2019
6468 Clouds 6 1006 81 10000 3.1 240 18:37 09.12.2019
6469 Clouds 6 1006 81 10000 3.1 240 18:19 09.12.2019
6470 Rain 6 1005 87 10000 4.1 220 17:57 09.12.2019
6471 Rain 6 1004 87 10000 4.1 220 17:38 09.12.2019
6472 Rain 6 1004 87 10000 4.1 220 17:20 09.12.2019
6473 Rain 6 1004 81 10000 2.1 310 17:20 09.12.2019
6474 Rain 6 1003 87 10000 4.6 210 16:56 09.12.2019
6475 Rain 7 1003 87 10000 4.6 210 16:37 09.12.2019
6476 Clouds 7 1003 87 10000 4.6 210 16:18 09.12.2019
6477 Clouds 7 1002 93 10000 3.6 200 15:55 09.12.2019
6478 Rain 7 1002 93 10000 3.1 220 15:37 09.12.2019
6479 Rain 7 1002 93 10000 3.1 220 15:37 09.12.2019
6480 Rain 7 1002 93 10000 3.1 220 15:19 09.12.2019
6481 Clouds 7 1002 81 10000 4.6 260 14:42 09.12.2019
6482 Rain 8 1002 81 10000 5.7 250 14:19 09.12.2019
6483 Clouds 7 1001 81 10000 7.2 210 13:58 09.12.2019
6484 Rain 8 1001 87 10000 7.2 210 13:38 09.12.2019
6485 Rain 8 1001 87 10000 7.2 210 13:19 09.12.2019
6486 Rain 7 1001 93 10000 6.7 200 12:57 09.12.2019
6487 Clouds 7 1001 87 10000 6.2 240 12:38 09.12.2019
6488 Clouds 7 1001 87 10000 6.2 240 12:20 09.12.2019
6489 Clouds 7 1001 87 10000 4.6 240 11:58 09.12.2019
6490 Clouds 7 1001 87 10000 4.6 240 11:39 09.12.2019
6491 Rain 7 1001 81 10000 6.2 210 11:21 09.12.2019
6492 Rain 7 1001 87 10000 5.7 210 10:55 09.12.2019
6493 Rain 7 1001 81 10000 6.2 230 10:37 09.12.2019
6494 Rain 7 1001 75 10000 7.2 200 10:18 09.12.2019
6495 Rain 7 1001 75 10000 7.2 200 10:18 09.12.2019
6496 Rain 7 1001 70 10000 7.7 200 09:41 09.12.2019
6497 Rain 7 1001 70 10000 7.7 200 09:23 09.12.2019
6498 Clouds 7 1000 70 10000 8.2 200 08:55 09.12.2019
6499 Clouds 7 1001 70 10000 8.2 200 08:37 09.12.2019
6500 Clouds 7 1001 70 10000 8.2 200 08:19 09.12.2019
6501 Clouds 7 1001 75 10000 5.7 190 07:44 09.12.2019
6502 Clouds 7 1001 75 10000 5.1 190 07:25 09.12.2019
6503 Clouds 7 1001 70 10000 7.2 200 06:55 09.12.2019
6504 Clouds 7 1001 81 10000 5.7 190 06:27 09.12.2019
6505 Clouds 7 1001 87 10000 6.2 180 05:30 09.12.2019
6506 Clouds 7 1001 81 10000 4.6 190 04:54 09.12.2019
6507 Clouds 7 1002 75 10000 7.2 210 04:23 09.12.2019
6508 Clouds 7 1002 81 10000 8.2 220 02:27 09.12.2019
6509 Rain 7 1003 87 10000 7.7 230 01:45 09.12.2019
6510 Clouds 7 1003 81 10000 5.7 220 00:57 09.12.2019
6511 Clouds 7 1003 76 10000 7.2 220 00:32 09.12.2019
6512 Clouds 7 1003 81 10000 7.7 210 23:54 08.12.2019
6513 Clouds 8 1003 81 10000 6.7 210 23:36 08.12.2019
6514 Clouds 8 1003 81 10000 6.7 210 23:18 08.12.2019
6515 Clouds 7 1003 87 10000 5.7 220 22:56 08.12.2019
6516 Clouds 8 1003 87 10000 5.7 220 22:38 08.12.2019
6517 Clouds 7 1003 87 10000 6.2 200 22:18 08.12.2019
6518 Clouds 8 1003 93 10000 5.7 210 21:55 08.12.2019
6519 Rain 8 1003 87 10000 5.7 200 21:37 08.12.2019
6520 Rain 8 1003 87 10000 5.7 200 21:19 08.12.2019
6521 Rain 8 1003 87 10000 5.1 220 20:55 08.12.2019
6522 Rain 8 1003 87 10000 3.6 220 20:37 08.12.2019
6523 Rain 9 1003 87 10000 3.6 220 20:18 08.12.2019
6524 Rain 9 1003 87 10000 3.6 250 19:55 08.12.2019
6525 Drizzle 9 1003 87 4600 7.7 230 19:36 08.12.2019
6526 Drizzle 9 1003 87 4600 7.7 230 19:18 08.12.2019
6527 Rain 10 1003 81 10000 8.2 210 18:54 08.12.2019
6528 Rain 10 1003 81 10000 7.2 210 18:36 08.12.2019
6529 Rain 10 1003 81 10000 7.2 210 18:18 08.12.2019
6530 Rain 10 1003 81 10000 7.7 210 17:54 08.12.2019
6531 Rain 10 1004 93 10000 6.2 240 17:36 08.12.2019
6532 Clouds 10 1004 93 10000 7.2 230 17:18 08.12.2019
6533 Rain 10 1004 81 10000 8.7 210 16:55 08.12.2019
6534 Clouds 10 1004 93 10000 7.2 240 16:37 08.12.2019
6535 Rain 10 1004 81 10000 8.2 210 16:18 08.12.2019
6536 Rain 10 1005 81 10000 8.2 210 15:37 08.12.2019
6537 Rain 10 1005 81 10000 8.2 210 15:18 08.12.2019
6538 Clouds 10 1005 81 10000 7.2 240 14:57 08.12.2019
6539 Clouds 10 1005 81 10000 7.2 240 14:38 08.12.2019
6540 Rain 10 1006 81 10000 7.7 210 14:20 08.12.2019
6541 Rain 10 1006 87 10000 7.7 210 13:42 08.12.2019
6542 Rain 10 1007 81 10000 8.2 220 13:23 08.12.2019
6543 Rain 10 1007 87 10000 9.3 220 12:59 08.12.2019
6544 Clouds 10 1007 87 10000 6.7 240 12:41 08.12.2019
6545 Clouds 10 1007 76 10000 9.8 200 12:23 08.12.2019
6546 Clouds 10 1008 71 10000 8.7 200 11:59 08.12.2019
6547 Clouds 10 1009 76 10000 6.7 200 11:38 08.12.2019
6548 Clouds 10 1009 76 10000 6.7 200 11:19 08.12.2019
6549 Clouds 9 1009 76 10000 6.2 190 10:57 08.12.2019
6550 Clouds 10 1009 76 10000 7.2 190 10:38 08.12.2019
6551 Clouds 9 1009 76 10000 9.3 230 10:19 08.12.2019
6552 Clouds 9 1009 76 10000 7.2 190 10:19 08.12.2019
6553 Clouds 9 1010 71 10000 8.2 210 09:55 08.12.2019
6554 Clouds 9 1010 71 10000 8.2 200 09:37 08.12.2019
6555 Clouds 9 1010 71 10000 8.2 200 09:37 08.12.2019
6556 Clouds 9 1010 71 10000 8.2 200 09:19 08.12.2019
6557 Clouds 8 1010 76 10000 7.7 210 08:57 08.12.2019
6558 Clouds 8 1010 76 10000 6.2 200 08:36 08.12.2019
6559 Clouds 8 1010 76 10000 6.2 200 08:18 08.12.2019
6560 Clouds 8 1010 76 10000 5.1 190 07:42 08.12.2019
6561 Clouds 8 1011 76 10000 6.2 200 07:19 08.12.2019
6562 Clouds 8 1011 76 10000 6.7 200 06:47 08.12.2019
6563 Clouds 8 1011 76 10000 6.7 200 06:22 08.12.2019
6564 Clouds 8 1012 76 10000 7.2 200 05:43 08.12.2019
6565 Clouds 7 1013 76 10000 5.1 190 04:59 08.12.2019
6566 Clouds 7 1014 81 10000 6.2 190 03:49 08.12.2019
6567 Clouds 7 1014 81 10000 5.1 190 03:22 08.12.2019
6568 Clouds 7 1015 81 10000 5.7 190 02:38 08.12.2019
6569 Clouds 7 1016 81 10000 5.7 200 01:55 08.12.2019
6570 Clouds 7 1016 81 10000 5.7 200 01:19 08.12.2019
6571 Clouds 7 1017 87 10000 5.1 200 00:40 08.12.2019
6572 Clouds 7 1017 87 10000 5.1 200 00:20 08.12.2019
6573 Clouds 7 1017 87 10000 5.1 200 00:20 08.12.2019
6574 Clouds 7 1016 87 10000 4.1 200 23:41 07.12.2019
6575 Clouds 7 1017 87 10000 4.6 190 23:21 07.12.2019
6576 Clouds 7 1017 87 10000 4.6 190 23:21 07.12.2019
6577 Clouds 7 1017 87 10000 4.6 190 22:57 07.12.2019
6578 Clouds 6 1017 87 10000 3.6 190 22:39 07.12.2019
6579 Clouds 7 1017 87 10000 3.6 190 22:21 07.12.2019
6580 Clouds 7 1017 87 10000 3.6 190 21:56 07.12.2019
6581 Clouds 7 1017 93 10000 3.1 200 21:38 07.12.2019
6582 Clouds 7 1017 93 10000 3.1 200 21:19 07.12.2019
6583 Clouds 7 1017 100 10000 2.6 210 20:59 07.12.2019
6584 Clouds 7 1018 93 10000 2.1 230 20:37 07.12.2019
6585 Clouds 7 1018 93 10000 2.1 230 20:18 07.12.2019
6586 Rain 7 1017 93 10000 3.6 190 19:56 07.12.2019
6587 Clouds 7 1017 87 10000 4.1 250 19:38 07.12.2019
6588 Clouds 7 1017 93 10000 3.6 200 19:20 07.12.2019
6589 Clouds 7 1017 87 10000 4.1 200 18:44 07.12.2019
6590 Rain 7 1017 93 10000 4.6 220 18:21 07.12.2019
6591 Rain 8 1017 81 10000 5.7 240 17:59 07.12.2019
6592 Rain 8 1017 81 10000 5.7 240 17:41 07.12.2019
6593 Rain 8 1016 81 10000 5.1 220 17:23 07.12.2019
6594 Clouds 8 1016 87 10000 2.6 280 16:57 07.12.2019
6595 Clouds 8 1016 87 10000 2.6 280 16:39 07.12.2019
6596 Rain 9 1016 76 10000 4.1 250 16:20 07.12.2019
6597 Clouds 9 1015 66 10000 4.6 220 15:57 07.12.2019
6598 Clouds 9 1015 66 10000 4.6 230 15:38 07.12.2019
6599 Clouds 9 1015 66 10000 4.6 230 15:20 07.12.2019
6600 Clouds 9 1015 66 10000 4.6 230 15:20 07.12.2019
6601 Rain 9 1015 66 10000 7.2 250 14:42 07.12.2019
6602 Rain 9 1015 66 10000 7.2 250 14:19 07.12.2019
6603 Rain 9 1015 71 10000 6.7 240 13:58 07.12.2019
6604 Rain 9 1015 71 10000 6.7 240 13:58 07.12.2019
6605 Rain 9 1015 76 10000 6.2 230 13:39 07.12.2019
6606 Rain 9 1015 76 10000 6.2 230 13:19 07.12.2019
6607 Rain 9 1015 76 10000 4.6 210 12:54 07.12.2019
6608 Rain 9 1015 81 10000 5.7 230 12:36 07.12.2019
6609 Rain 9 1015 81 10000 5.7 230 12:18 07.12.2019
6610 Rain 8 1015 81 10000 6.2 230 11:41 07.12.2019
6611 Rain 8 1015 81 10000 6.7 230 11:23 07.12.2019
6612 Clouds 8 1015 81 10000 6.2 230 10:54 07.12.2019
6613 Rain 8 1014 87 10000 5.7 230 10:36 07.12.2019
6614 Rain 7 1014 87 10000 5.7 230 10:18 07.12.2019
6615 Rain 7 1014 87 10000 5.7 220 09:39 07.12.2019
6616 Rain 7 1014 87 10000 5.7 220 09:21 07.12.2019
6617 Rain 7 1014 93 10000 5.1 220 08:45 07.12.2019
6618 Rain 7 1013 87 10000 4.6 240 08:24 07.12.2019
6619 Clouds 6 1013 87 10000 3.6 200 07:52 07.12.2019
6620 Clouds 6 1013 87 10000 4.6 220 07:29 07.12.2019
6621 Rain 7 1012 87 10000 5.7 210 06:53 07.12.2019
6622 Rain 7 1012 93 10000 4.6 200 06:26 07.12.2019
6623 Clouds 7 1012 100 10000 2.6 230 05:47 07.12.2019
6624 Clouds 6 1011 93 10000 3.6 210 04:44 07.12.2019
6625 Rain 6 1011 100 8000 2.6 310 03:50 07.12.2019
6626 Rain 6 1010 93 10000 3.6 240 02:23 07.12.2019
6627 Rain 6 1010 93 10000 3.6 240 02:23 07.12.2019
6628 Clouds 5 1010 81 10000 8.7 230 01:51 07.12.2019
6629 Clouds 5 1010 87 10000 7.7 220 01:25 07.12.2019
6630 Clouds 5 1010 87 10000 7.7 220 01:25 07.12.2019
6631 Clouds 5 1011 87 10000 6.2 250 00:36 07.12.2019
6632 Rain 5 1011 87 10000 6.2 220 00:18 07.12.2019
6633 Rain 5 1011 87 10000 6.2 220 00:18 07.12.2019
6634 Rain 5 1011 87 10000 6.2 250 23:42 06.12.2019
6635 Clouds 5 1011 87 10000 6.2 210 23:23 06.12.2019
6636 Rain 5 1011 93 10000 6.7 200 22:57 06.12.2019
6637 Rain 5 1011 93 10000 6.7 200 22:36 06.12.2019
6638 Rain 4 1011 93 10000 6.7 200 22:18 06.12.2019
6639 Rain 4 1011 100 10000 5.7 220 21:41 06.12.2019
6640 Rain 4 1012 93 10000 6.7 200 21:21 06.12.2019
6641 Rain 4 1012 93 10000 6.7 200 21:21 06.12.2019
6642 Rain 4 1012 93 10000 6.7 200 20:59 06.12.2019
6643 Rain 4 1012 93 10000 6.7 200 20:41 06.12.2019
6644 Rain 4 1012 93 10000 6.7 200 20:41 06.12.2019
6645 Rain 4 1012 100 10000 5.1 210 20:20 06.12.2019
6646 Rain 4 1012 93 9000 3.1 200 19:54 06.12.2019
6647 Rain 4 1012 93 9000 3.1 200 19:36 06.12.2019
6648 Rain 3 1012 100 8000 4.6 190 19:18 06.12.2019
6649 Rain 3 1013 100 9000 2.6 190 18:44 06.12.2019
6650 Rain 3 1013 93 7000 4.6 180 18:23 06.12.2019
6651 Rain 3 1014 100 10000 3.6 220 17:58 06.12.2019
6652 Rain 3 1014 100 10000 3.6 220 17:40 06.12.2019
6653 Rain 3 1014 100 10000 3.6 220 17:40 06.12.2019
6654 Rain 3 1014 93 8000 5.1 200 17:22 06.12.2019
6655 Rain 3 1014 100 10000 5.7 240 16:59 06.12.2019
6656 Rain 3 1014 93 8000 3.6 190 16:40 06.12.2019
6657 Rain 3 1014 93 8000 3.6 190 16:21 06.12.2019
6658 Rain 3 1014 100 9000 2.1 200 15:42 06.12.2019
6659 Rain 3 1015 86 8000 5.1 190 15:24 06.12.2019
6660 Clouds 3 1015 93 8000 3.6 200 14:59 06.12.2019
6661 Clouds 3 1015 100 10000 2.6 190 14:41 06.12.2019
6662 Clouds 3 1016 93 8000 3.6 190 14:20 06.12.2019
6663 Clouds 3 1016 93 8000 3.6 190 13:58 06.12.2019
6664 Clouds 3 1017 59 8000 4.1 190 13:40 06.12.2019
6665 Clouds 3 1017 57 8000 4.1 190 13:21 06.12.2019
6666 Clouds 2 1018 57 8000 3.6 190 12:39 06.12.2019
6667 Clouds 2 1018 57 8000 3.6 190 12:21 06.12.2019
6668 Clouds 1 1018 57 8000 5.1 190 11:43 06.12.2019
6669 Clouds 1 1019 57 10000 3.1 200 11:23 06.12.2019
6670 Clouds 1 1019 62 7000 6.2 190 10:58 06.12.2019
6671 Clouds 1 1019 62 7000 3.6 180 10:40 06.12.2019
6672 Clouds 1 1019 62 7000 3.6 180 10:20 06.12.2019
6673 Clouds 0 1019 100 7000 5.1 180 09:56 06.12.2019
6674 Clouds 0 1019 100 10000 3.1 210 09:37 06.12.2019
6675 Clouds 0 1019 100 7000 4.6 200 09:19 06.12.2019
6676 Clouds 0 1019 100 6000 4.6 200 08:43 06.12.2019
6677 Clouds -1 1019 92 6000 3.6 200 08:25 06.12.2019
6678 Clouds -1 1019 92 6000 4.1 190 07:43 06.12.2019
6679 Mist -2 1019 92 5000 3.6 200 07:23 06.12.2019
6680 Mist -2 1019 92 5000 3.6 200 07:23 06.12.2019
6681 Mist -2 1019 100 3500 3.6 210 06:55 06.12.2019
6682 Mist -2 1019 100 2500 3.6 210 06:26 06.12.2019
6683 Mist -2 1019 100 2200 5.7 200 05:52 06.12.2019
6684 Mist -1 1020 100 1700 5.1 200 04:34 06.12.2019
6685 Mist -2 1021 100 1000 4.6 230 01:48 06.12.2019
6686 Mist -1 1021 100 1400 2.6 200 01:22 06.12.2019
6687 Mist -1 1021 100 1100 3.1 180 00:39 06.12.2019
6688 Fog -2 1022 100 900 3.1 200 00:19 06.12.2019
6689 Fog -2 1022 100 800 3.1 230 23:38 05.12.2019
6690 Fog -1 1022 100 800 3.1 230 23:18 05.12.2019
6691 Fog -1 1022 100 700 2.1 240 22:55 05.12.2019
6692 Fog -1 1022 100 600 2.6 250 22:37 05.12.2019
6693 Fog -1 1022 100 600 2.6 250 22:18 05.12.2019
6694 Fog -2 1022 100 500 3.1 270 21:42 05.12.2019
6695 Fog -2 1022 100 500 3.6 230 21:24 05.12.2019
6696 Fog -2 1022 100 400 4.1 200 20:59 05.12.2019
6697 Fog -1 1022 100 400 4.1 200 20:40 05.12.2019
6698 Fog -1 1022 100 200 2.6 210 20:20 05.12.2019
6699 Fog -1 1022 100 200 2.6 210 19:56 05.12.2019
6700 Fog -1 1023 100 400 3.1 220 19:38 05.12.2019
6701 Fog -1 1022 100 300 3.6 200 19:19 05.12.2019
6702 Fog -1 1022 100 300 3.6 200 18:54 05.12.2019
6703 Fog -1 1022 100 350 2.1 220 18:36 05.12.2019
6704 Fog -1 1022 100 250 2.6 230 18:18 05.12.2019
6705 Fog -1 1022 92 300 2.6 220 17:39 05.12.2019
6706 Fog -1 1022 92 300 2.6 200 17:19 05.12.2019
6707 Fog -1 1022 100 300 2.1 260 16:57 05.12.2019
6708 Fog -1 1022 100 300 2.1 260 16:39 05.12.2019
6709 Fog 0 1022 100 300 2.1 200 16:21 05.12.2019
6710 Fog -1 1022 100 300 2.1 200 15:56 05.12.2019
6711 Fog 0 1022 92 600 2.6 200 15:38 05.12.2019
6712 Fog 0 1022 92 400 1.5 190 15:19 05.12.2019
6713 Fog 0 1022 92 500 2.1 230 14:55 05.12.2019
6714 Fog 0 1022 92 500 2.1 230 14:37 05.12.2019
6715 Fog 1 1023 100 350 2.6 210 14:18 05.12.2019
6716 Fog 1 1023 100 350 2.6 210 13:56 05.12.2019
6717 Clear 2 1003 84 0 1.67 207 13:38 05.12.2019
6718 Clear 2 1016 89 0 1.58 204 13:19 05.12.2019
6719 Fog 1 1023 92 300 1.5 180 12:55 05.12.2019
6720 Fog 1 1023 100 500 2.1 200 12:37 05.12.2019
6721 Fog 1 1023 100 400 1.5 240 12:19 05.12.2019
6722 Fog 1 1023 100 400 2.1 210 11:39 05.12.2019
6723 Fog 0 1023 100 400 2.1 200 11:20 05.12.2019
6724 Fog -1 1023 100 400 2.6 200 10:57 05.12.2019
6725 Fog -1 1023 100 400 2.6 200 10:39 05.12.2019